<?xml version="1.0" encoding="UTF-8" standalone="no" ?>
<gpx xmlns="http://www.topografix.com/GPX/1/1" xmlns:xsi="http://www.w3.org/2001/XMLSchema-instance" xsi:schemaLocation="http://www.topografix.com/GPX/1/1 http://www.topografix.com/GPX/1/1/gpx.xsd" version="1.1" creator="VisuGPX - https://www.visugpx.com">
  <metadata>
    <name>Rando VTT </name>
    <desc><![CDATA[Belle Rando avec de super point de vue...]]></desc>
  </metadata>
  <trk>
    <name><![CDATA[Rando VTT Vagney 60 kms D+2000]]></name>
    <trkseg>
      <trkpt lat="48.01793" lon="6.68142">
        <ele>395.72</ele>
        <time>2012-06-16T07:43:16Z</time>
      </trkpt>
      <trkpt lat="48.01796" lon="6.68142">
        <ele>395.72</ele>
        <time>2012-06-16T07:43:17Z</time>
      </trkpt>
      <trkpt lat="48.018" lon="6.6814">
        <ele>395.72</ele>
        <time>2012-06-16T07:43:18Z</time>
      </trkpt>
      <trkpt lat="48.0181" lon="6.68132">
        <ele>395.24</ele>
        <time>2012-06-16T07:43:20Z</time>
      </trkpt>
      <trkpt lat="48.01816" lon="6.68129">
        <ele>395.24</ele>
        <time>2012-06-16T07:43:21Z</time>
      </trkpt>
      <trkpt lat="48.01822" lon="6.68127">
        <ele>395.24</ele>
        <time>2012-06-16T07:43:22Z</time>
      </trkpt>
      <trkpt lat="48.01829" lon="6.68127">
        <ele>395.24</ele>
        <time>2012-06-16T07:43:23Z</time>
      </trkpt>
      <trkpt lat="48.01835" lon="6.68127">
        <ele>395.24</ele>
        <time>2012-06-16T07:43:24Z</time>
      </trkpt>
      <trkpt lat="48.01841" lon="6.68129">
        <ele>395.24</ele>
        <time>2012-06-16T07:43:25Z</time>
      </trkpt>
      <trkpt lat="48.01847" lon="6.68131">
        <ele>395.24</ele>
        <time>2012-06-16T07:43:26Z</time>
      </trkpt>
      <trkpt lat="48.01852" lon="6.68133">
        <ele>395.24</ele>
        <time>2012-06-16T07:43:27Z</time>
      </trkpt>
      <trkpt lat="48.01896" lon="6.68143">
        <ele>396.2</ele>
        <time>2012-06-16T07:43:38Z</time>
      </trkpt>
      <trkpt lat="48.01941" lon="6.68154">
        <ele>397.64</ele>
        <time>2012-06-16T07:43:52Z</time>
      </trkpt>
      <trkpt lat="48.01945" lon="6.68153">
        <ele>397.64</ele>
        <time>2012-06-16T07:43:53Z</time>
      </trkpt>
      <trkpt lat="48.01949" lon="6.6815">
        <ele>397.64</ele>
        <time>2012-06-16T07:43:54Z</time>
      </trkpt>
      <trkpt lat="48.01952" lon="6.68147">
        <ele>397.64</ele>
        <time>2012-06-16T07:43:55Z</time>
      </trkpt>
      <trkpt lat="48.01955" lon="6.68144">
        <ele>397.64</ele>
        <time>2012-06-16T07:43:56Z</time>
      </trkpt>
      <trkpt lat="48.01959" lon="6.68141">
        <ele>398.12</ele>
        <time>2012-06-16T07:43:57Z</time>
      </trkpt>
      <trkpt lat="48.01962" lon="6.6814">
        <ele>398.12</ele>
        <time>2012-06-16T07:43:58Z</time>
      </trkpt>
      <trkpt lat="48.01966" lon="6.68139">
        <ele>398.12</ele>
        <time>2012-06-16T07:43:59Z</time>
      </trkpt>
      <trkpt lat="48.0197" lon="6.6814">
        <ele>398.12</ele>
        <time>2012-06-16T07:44:00Z</time>
      </trkpt>
      <trkpt lat="48.01974" lon="6.68141">
        <ele>398.12</ele>
        <time>2012-06-16T07:44:01Z</time>
      </trkpt>
      <trkpt lat="48.02035" lon="6.68171">
        <ele>399.08</ele>
        <time>2012-06-16T07:44:18Z</time>
      </trkpt>
      <trkpt lat="48.02077" lon="6.68214">
        <ele>400.53</ele>
        <time>2012-06-16T07:44:33Z</time>
      </trkpt>
      <trkpt lat="48.02113" lon="6.68248">
        <ele>399.08</ele>
        <time>2012-06-16T07:44:46Z</time>
      </trkpt>
      <trkpt lat="48.02149" lon="6.68271">
        <ele>399.57</ele>
        <time>2012-06-16T07:44:59Z</time>
      </trkpt>
      <trkpt lat="48.02203" lon="6.68286">
        <ele>400.53</ele>
        <time>2012-06-16T07:45:16Z</time>
      </trkpt>
      <trkpt lat="48.02238" lon="6.68306">
        <ele>400.05</ele>
        <time>2012-06-16T07:45:27Z</time>
      </trkpt>
      <trkpt lat="48.02237" lon="6.68312">
        <ele>400.05</ele>
        <time>2012-06-16T07:45:28Z</time>
      </trkpt>
      <trkpt lat="48.02234" lon="6.68316">
        <ele>400.53</ele>
        <time>2012-06-16T07:45:29Z</time>
      </trkpt>
      <trkpt lat="48.02231" lon="6.6832">
        <ele>400.53</ele>
        <time>2012-06-16T07:45:30Z</time>
      </trkpt>
      <trkpt lat="48.02228" lon="6.68323">
        <ele>400.53</ele>
        <time>2012-06-16T07:45:31Z</time>
      </trkpt>
      <trkpt lat="48.02225" lon="6.68327">
        <ele>401.01</ele>
        <time>2012-06-16T07:45:32Z</time>
      </trkpt>
      <trkpt lat="48.02222" lon="6.68331">
        <ele>400.53</ele>
        <time>2012-06-16T07:45:33Z</time>
      </trkpt>
      <trkpt lat="48.02214" lon="6.68352">
        <ele>400.53</ele>
        <time>2012-06-16T07:45:37Z</time>
      </trkpt>
      <trkpt lat="48.02213" lon="6.68358">
        <ele>400.53</ele>
        <time>2012-06-16T07:45:38Z</time>
      </trkpt>
      <trkpt lat="48.02198" lon="6.68447">
        <ele>400.05</ele>
        <time>2012-06-16T07:45:54Z</time>
      </trkpt>
      <trkpt lat="48.02201" lon="6.68497">
        <ele>400.53</ele>
        <time>2012-06-16T07:46:05Z</time>
      </trkpt>
      <trkpt lat="48.02202" lon="6.685">
        <ele>400.53</ele>
        <time>2012-06-16T07:46:06Z</time>
      </trkpt>
      <trkpt lat="48.02202" lon="6.68504">
        <ele>400.53</ele>
        <time>2012-06-16T07:46:07Z</time>
      </trkpt>
      <trkpt lat="48.02203" lon="6.68506">
        <ele>401.01</ele>
        <time>2012-06-16T07:46:08Z</time>
      </trkpt>
      <trkpt lat="48.02204" lon="6.68508">
        <ele>401.49</ele>
        <time>2012-06-16T07:46:09Z</time>
      </trkpt>
      <trkpt lat="48.02205" lon="6.6851">
        <ele>401.97</ele>
        <time>2012-06-16T07:46:10Z</time>
      </trkpt>
      <trkpt lat="48.02207" lon="6.68512">
        <ele>401.97</ele>
        <time>2012-06-16T07:46:11Z</time>
      </trkpt>
      <trkpt lat="48.02209" lon="6.68513">
        <ele>402.45</ele>
        <time>2012-06-16T07:46:12Z</time>
      </trkpt>
      <trkpt lat="48.02212" lon="6.68513">
        <ele>402.45</ele>
        <time>2012-06-16T07:46:13Z</time>
      </trkpt>
      <trkpt lat="48.02215" lon="6.68513">
        <ele>402.93</ele>
        <time>2012-06-16T07:46:14Z</time>
      </trkpt>
      <trkpt lat="48.02218" lon="6.68511">
        <ele>402.93</ele>
        <time>2012-06-16T07:46:15Z</time>
      </trkpt>
      <trkpt lat="48.02272" lon="6.68503">
        <ele>403.89</ele>
        <time>2012-06-16T07:46:29Z</time>
      </trkpt>
      <trkpt lat="48.02331" lon="6.68495">
        <ele>403.41</ele>
        <time>2012-06-16T07:46:44Z</time>
      </trkpt>
      <trkpt lat="48.02403" lon="6.6849">
        <ele>404.85</ele>
        <time>2012-06-16T07:47:02Z</time>
      </trkpt>
      <trkpt lat="48.02475" lon="6.68487">
        <ele>404.85</ele>
        <time>2012-06-16T07:47:21Z</time>
      </trkpt>
      <trkpt lat="48.02508" lon="6.68483">
        <ele>405.33</ele>
        <time>2012-06-16T07:47:34Z</time>
      </trkpt>
      <trkpt lat="48.02508" lon="6.68483">
        <ele>405.33</ele>
        <time>2012-06-16T07:47:53Z</time>
      </trkpt>
      <trkpt lat="48.02509" lon="6.68483">
        <ele>405.33</ele>
        <time>2012-06-16T07:47:58Z</time>
      </trkpt>
      <trkpt lat="48.0251" lon="6.68481">
        <ele>405.33</ele>
        <time>2012-06-16T07:47:59Z</time>
      </trkpt>
      <trkpt lat="48.02512" lon="6.68479">
        <ele>405.33</ele>
        <time>2012-06-16T07:48:00Z</time>
      </trkpt>
      <trkpt lat="48.02513" lon="6.68476">
        <ele>405.33</ele>
        <time>2012-06-16T07:48:01Z</time>
      </trkpt>
      <trkpt lat="48.02514" lon="6.68472">
        <ele>405.33</ele>
        <time>2012-06-16T07:48:02Z</time>
      </trkpt>
      <trkpt lat="48.02516" lon="6.68469">
        <ele>405.33</ele>
        <time>2012-06-16T07:48:03Z</time>
      </trkpt>
      <trkpt lat="48.02518" lon="6.68466">
        <ele>405.33</ele>
        <time>2012-06-16T07:48:04Z</time>
      </trkpt>
      <trkpt lat="48.0252" lon="6.68464">
        <ele>405.81</ele>
        <time>2012-06-16T07:48:05Z</time>
      </trkpt>
      <trkpt lat="48.02537" lon="6.68438">
        <ele>407.74</ele>
        <time>2012-06-16T07:48:17Z</time>
      </trkpt>
      <trkpt lat="48.02557" lon="6.68399">
        <ele>412.06</ele>
        <time>2012-06-16T07:48:32Z</time>
      </trkpt>
      <trkpt lat="48.0257" lon="6.68369">
        <ele>415.43</ele>
        <time>2012-06-16T07:48:45Z</time>
      </trkpt>
      <trkpt lat="48.02571" lon="6.68366">
        <ele>415.43</ele>
        <time>2012-06-16T07:48:46Z</time>
      </trkpt>
      <trkpt lat="48.02572" lon="6.68363">
        <ele>415.43</ele>
        <time>2012-06-16T07:48:47Z</time>
      </trkpt>
      <trkpt lat="48.02574" lon="6.6836">
        <ele>415.43</ele>
        <time>2012-06-16T07:48:48Z</time>
      </trkpt>
      <trkpt lat="48.02575" lon="6.68357">
        <ele>415.91</ele>
        <time>2012-06-16T07:48:49Z</time>
      </trkpt>
      <trkpt lat="48.02576" lon="6.68354">
        <ele>415.91</ele>
        <time>2012-06-16T07:48:50Z</time>
      </trkpt>
      <trkpt lat="48.02589" lon="6.68302">
        <ele>416.87</ele>
        <time>2012-06-16T07:49:05Z</time>
      </trkpt>
      <trkpt lat="48.0263" lon="6.68254">
        <ele>414.47</ele>
        <time>2012-06-16T07:49:21Z</time>
      </trkpt>
      <trkpt lat="48.02698" lon="6.68207">
        <ele>411.58</ele>
        <time>2012-06-16T07:49:34Z</time>
      </trkpt>
      <trkpt lat="48.02775" lon="6.68148">
        <ele>406.77</ele>
        <time>2012-06-16T07:49:46Z</time>
      </trkpt>
      <trkpt lat="48.0281" lon="6.68103">
        <ele>406.29</ele>
        <time>2012-06-16T07:49:54Z</time>
      </trkpt>
      <trkpt lat="48.02814" lon="6.68099">
        <ele>406.29</ele>
        <time>2012-06-16T07:49:55Z</time>
      </trkpt>
      <trkpt lat="48.02819" lon="6.68096">
        <ele>406.77</ele>
        <time>2012-06-16T07:49:56Z</time>
      </trkpt>
      <trkpt lat="48.02829" lon="6.68091">
        <ele>406.29</ele>
        <time>2012-06-16T07:49:58Z</time>
      </trkpt>
      <trkpt lat="48.02834" lon="6.68087">
        <ele>406.29</ele>
        <time>2012-06-16T07:49:59Z</time>
      </trkpt>
      <trkpt lat="48.02838" lon="6.68081">
        <ele>406.29</ele>
        <time>2012-06-16T07:50:00Z</time>
      </trkpt>
      <trkpt lat="48.02842" lon="6.68075">
        <ele>406.29</ele>
        <time>2012-06-16T07:50:01Z</time>
      </trkpt>
      <trkpt lat="48.02845" lon="6.68068">
        <ele>406.29</ele>
        <time>2012-06-16T07:50:02Z</time>
      </trkpt>
      <trkpt lat="48.02848" lon="6.68062">
        <ele>406.29</ele>
        <time>2012-06-16T07:50:03Z</time>
      </trkpt>
      <trkpt lat="48.02852" lon="6.68057">
        <ele>406.29</ele>
        <time>2012-06-16T07:50:04Z</time>
      </trkpt>
      <trkpt lat="48.02855" lon="6.68053">
        <ele>406.29</ele>
        <time>2012-06-16T07:50:05Z</time>
      </trkpt>
      <trkpt lat="48.02859" lon="6.68051">
        <ele>406.29</ele>
        <time>2012-06-16T07:50:06Z</time>
      </trkpt>
      <trkpt lat="48.02863" lon="6.6805">
        <ele>406.29</ele>
        <time>2012-06-16T07:50:07Z</time>
      </trkpt>
      <trkpt lat="48.02867" lon="6.68048">
        <ele>406.29</ele>
        <time>2012-06-16T07:50:08Z</time>
      </trkpt>
      <trkpt lat="48.0287" lon="6.68046">
        <ele>406.29</ele>
        <time>2012-06-16T07:50:09Z</time>
      </trkpt>
      <trkpt lat="48.02923" lon="6.68002">
        <ele>405.81</ele>
        <time>2012-06-16T07:50:24Z</time>
      </trkpt>
      <trkpt lat="48.02989" lon="6.67937">
        <ele>407.26</ele>
        <time>2012-06-16T07:50:42Z</time>
      </trkpt>
      <trkpt lat="48.03017" lon="6.67918">
        <ele>407.74</ele>
        <time>2012-06-16T07:50:49Z</time>
      </trkpt>
      <trkpt lat="48.03034" lon="6.67906">
        <ele>407.74</ele>
        <time>2012-06-16T07:50:53Z</time>
      </trkpt>
      <trkpt lat="48.03039" lon="6.67905">
        <ele>407.74</ele>
        <time>2012-06-16T07:50:54Z</time>
      </trkpt>
      <trkpt lat="48.0306" lon="6.67908">
        <ele>407.74</ele>
        <time>2012-06-16T07:50:58Z</time>
      </trkpt>
      <trkpt lat="48.03064" lon="6.67909">
        <ele>407.74</ele>
        <time>2012-06-16T07:50:59Z</time>
      </trkpt>
      <trkpt lat="48.03069" lon="6.67911">
        <ele>407.74</ele>
        <time>2012-06-16T07:51:00Z</time>
      </trkpt>
      <trkpt lat="48.03074" lon="6.67912">
        <ele>407.74</ele>
        <time>2012-06-16T07:51:01Z</time>
      </trkpt>
      <trkpt lat="48.03078" lon="6.67913">
        <ele>408.22</ele>
        <time>2012-06-16T07:51:02Z</time>
      </trkpt>
      <trkpt lat="48.03082" lon="6.67915">
        <ele>408.22</ele>
        <time>2012-06-16T07:51:03Z</time>
      </trkpt>
      <trkpt lat="48.03086" lon="6.67918">
        <ele>408.7</ele>
        <time>2012-06-16T07:51:04Z</time>
      </trkpt>
      <trkpt lat="48.03133" lon="6.67983">
        <ele>410.14</ele>
        <time>2012-06-16T07:51:19Z</time>
      </trkpt>
      <trkpt lat="48.03174" lon="6.68037">
        <ele>412.54</ele>
        <time>2012-06-16T07:51:34Z</time>
      </trkpt>
      <trkpt lat="48.03202" lon="6.68081">
        <ele>415.91</ele>
        <time>2012-06-16T07:51:48Z</time>
      </trkpt>
      <trkpt lat="48.03246" lon="6.68106">
        <ele>419.27</ele>
        <time>2012-06-16T07:52:04Z</time>
      </trkpt>
      <trkpt lat="48.03281" lon="6.68074">
        <ele>422.64</ele>
        <time>2012-06-16T07:52:18Z</time>
      </trkpt>
      <trkpt lat="48.03329" lon="6.68079">
        <ele>426</ele>
        <time>2012-06-16T07:52:34Z</time>
      </trkpt>
      <trkpt lat="48.03375" lon="6.68095">
        <ele>427.44</ele>
        <time>2012-06-16T07:52:48Z</time>
      </trkpt>
      <trkpt lat="48.0343" lon="6.68117">
        <ele>429.37</ele>
        <time>2012-06-16T07:53:06Z</time>
      </trkpt>
      <trkpt lat="48.03483" lon="6.6812">
        <ele>430.81</ele>
        <time>2012-06-16T07:53:23Z</time>
      </trkpt>
      <trkpt lat="48.03532" lon="6.681">
        <ele>432.25</ele>
        <time>2012-06-16T07:53:39Z</time>
      </trkpt>
      <trkpt lat="48.03569" lon="6.68079">
        <ele>434.17</ele>
        <time>2012-06-16T07:53:51Z</time>
      </trkpt>
      <trkpt lat="48.03594" lon="6.68099">
        <ele>435.61</ele>
        <time>2012-06-16T07:54:02Z</time>
      </trkpt>
      <trkpt lat="48.03619" lon="6.68149">
        <ele>435.61</ele>
        <time>2012-06-16T07:54:16Z</time>
      </trkpt>
      <trkpt lat="48.03658" lon="6.68175">
        <ele>437.06</ele>
        <time>2012-06-16T07:54:30Z</time>
      </trkpt>
      <trkpt lat="48.03662" lon="6.68213">
        <ele>438.98</ele>
        <time>2012-06-16T07:54:40Z</time>
      </trkpt>
      <trkpt lat="48.03645" lon="6.68268">
        <ele>439.94</ele>
        <time>2012-06-16T07:54:52Z</time>
      </trkpt>
      <trkpt lat="48.03649" lon="6.68306">
        <ele>438.98</ele>
        <time>2012-06-16T07:55:01Z</time>
      </trkpt>
      <trkpt lat="48.03649" lon="6.68308">
        <ele>438.98</ele>
        <time>2012-06-16T07:55:02Z</time>
      </trkpt>
      <trkpt lat="48.03648" lon="6.6831">
        <ele>438.98</ele>
        <time>2012-06-16T07:55:03Z</time>
      </trkpt>
      <trkpt lat="48.03646" lon="6.68311">
        <ele>438.98</ele>
        <time>2012-06-16T07:55:04Z</time>
      </trkpt>
      <trkpt lat="48.03644" lon="6.68313">
        <ele>438.98</ele>
        <time>2012-06-16T07:55:05Z</time>
      </trkpt>
      <trkpt lat="48.03638" lon="6.68319">
        <ele>438.98</ele>
        <time>2012-06-16T07:55:07Z</time>
      </trkpt>
      <trkpt lat="48.03635" lon="6.68324">
        <ele>438.98</ele>
        <time>2012-06-16T07:55:08Z</time>
      </trkpt>
      <trkpt lat="48.03601" lon="6.68379">
        <ele>441.86</ele>
        <time>2012-06-16T07:55:22Z</time>
      </trkpt>
      <trkpt lat="48.03572" lon="6.68426">
        <ele>446.19</ele>
        <time>2012-06-16T07:55:36Z</time>
      </trkpt>
      <trkpt lat="48.03546" lon="6.68461">
        <ele>449.55</ele>
        <time>2012-06-16T07:55:47Z</time>
      </trkpt>
      <trkpt lat="48.03523" lon="6.6851">
        <ele>453.88</ele>
        <time>2012-06-16T07:56:00Z</time>
      </trkpt>
      <trkpt lat="48.03501" lon="6.68551">
        <ele>460.13</ele>
        <time>2012-06-16T07:56:13Z</time>
      </trkpt>
      <trkpt lat="48.03483" lon="6.68579">
        <ele>466.38</ele>
        <time>2012-06-16T07:56:24Z</time>
      </trkpt>
      <trkpt lat="48.03465" lon="6.68633">
        <ele>475.03</ele>
        <time>2012-06-16T07:56:37Z</time>
      </trkpt>
      <trkpt lat="48.03438" lon="6.68695">
        <ele>481.28</ele>
        <time>2012-06-16T07:56:51Z</time>
      </trkpt>
      <trkpt lat="48.03413" lon="6.68752">
        <ele>486.56</ele>
        <time>2012-06-16T07:57:03Z</time>
      </trkpt>
      <trkpt lat="48.03392" lon="6.68824">
        <ele>485.6</ele>
        <time>2012-06-16T07:57:16Z</time>
      </trkpt>
      <trkpt lat="48.03368" lon="6.68893">
        <ele>476.95</ele>
        <time>2012-06-16T07:57:26Z</time>
      </trkpt>
      <trkpt lat="48.03345" lon="6.68939">
        <ele>475.03</ele>
        <time>2012-06-16T07:57:34Z</time>
      </trkpt>
      <trkpt lat="48.03342" lon="6.68945">
        <ele>475.03</ele>
        <time>2012-06-16T07:57:35Z</time>
      </trkpt>
      <trkpt lat="48.03339" lon="6.6895">
        <ele>474.55</ele>
        <time>2012-06-16T07:57:36Z</time>
      </trkpt>
      <trkpt lat="48.03308" lon="6.69016">
        <ele>468.3</ele>
        <time>2012-06-16T07:57:48Z</time>
      </trkpt>
      <trkpt lat="48.03305" lon="6.69021">
        <ele>467.82</ele>
        <time>2012-06-16T07:57:49Z</time>
      </trkpt>
      <trkpt lat="48.0329" lon="6.69053">
        <ele>464.93</ele>
        <time>2012-06-16T07:57:58Z</time>
      </trkpt>
      <trkpt lat="48.03283" lon="6.69091">
        <ele>463.49</ele>
        <time>2012-06-16T07:58:05Z</time>
      </trkpt>
      <trkpt lat="48.03259" lon="6.6915">
        <ele>462.53</ele>
        <time>2012-06-16T07:58:18Z</time>
      </trkpt>
      <trkpt lat="48.03247" lon="6.6918">
        <ele>463.01</ele>
        <time>2012-06-16T07:58:24Z</time>
      </trkpt>
      <trkpt lat="48.03245" lon="6.69185">
        <ele>463.01</ele>
        <time>2012-06-16T07:58:25Z</time>
      </trkpt>
      <trkpt lat="48.03243" lon="6.6919">
        <ele>463.01</ele>
        <time>2012-06-16T07:58:26Z</time>
      </trkpt>
      <trkpt lat="48.03236" lon="6.69212">
        <ele>463.49</ele>
        <time>2012-06-16T07:58:30Z</time>
      </trkpt>
      <trkpt lat="48.03203" lon="6.69287">
        <ele>465.9</ele>
        <time>2012-06-16T07:58:45Z</time>
      </trkpt>
      <trkpt lat="48.03174" lon="6.69349">
        <ele>466.38</ele>
        <time>2012-06-16T07:58:56Z</time>
      </trkpt>
      <trkpt lat="48.03152" lon="6.69423">
        <ele>466.38</ele>
        <time>2012-06-16T07:59:08Z</time>
      </trkpt>
      <trkpt lat="48.03134" lon="6.69455">
        <ele>465.9</ele>
        <time>2012-06-16T07:59:14Z</time>
      </trkpt>
      <trkpt lat="48.0313" lon="6.69458">
        <ele>465.9</ele>
        <time>2012-06-16T07:59:15Z</time>
      </trkpt>
      <trkpt lat="48.03126" lon="6.69461">
        <ele>465.9</ele>
        <time>2012-06-16T07:59:16Z</time>
      </trkpt>
      <trkpt lat="48.03122" lon="6.69464">
        <ele>465.9</ele>
        <time>2012-06-16T07:59:17Z</time>
      </trkpt>
      <trkpt lat="48.03117" lon="6.69467">
        <ele>465.42</ele>
        <time>2012-06-16T07:59:18Z</time>
      </trkpt>
      <trkpt lat="48.031" lon="6.69481">
        <ele>465.42</ele>
        <time>2012-06-16T07:59:22Z</time>
      </trkpt>
      <trkpt lat="48.03098" lon="6.69487">
        <ele>465.42</ele>
        <time>2012-06-16T07:59:23Z</time>
      </trkpt>
      <trkpt lat="48.03095" lon="6.69493">
        <ele>465.42</ele>
        <time>2012-06-16T07:59:24Z</time>
      </trkpt>
      <trkpt lat="48.03074" lon="6.6954">
        <ele>466.38</ele>
        <time>2012-06-16T07:59:33Z</time>
      </trkpt>
      <trkpt lat="48.03068" lon="6.69551">
        <ele>466.86</ele>
        <time>2012-06-16T07:59:35Z</time>
      </trkpt>
      <trkpt lat="48.03054" lon="6.69573">
        <ele>467.82</ele>
        <time>2012-06-16T07:59:39Z</time>
      </trkpt>
      <trkpt lat="48.03046" lon="6.69583">
        <ele>468.3</ele>
        <time>2012-06-16T07:59:41Z</time>
      </trkpt>
      <trkpt lat="48.03043" lon="6.69588">
        <ele>468.78</ele>
        <time>2012-06-16T07:59:42Z</time>
      </trkpt>
      <trkpt lat="48.03029" lon="6.69612">
        <ele>470.22</ele>
        <time>2012-06-16T07:59:46Z</time>
      </trkpt>
      <trkpt lat="48.03027" lon="6.69619">
        <ele>470.22</ele>
        <time>2012-06-16T07:59:47Z</time>
      </trkpt>
      <trkpt lat="48.03023" lon="6.69632">
        <ele>470.7</ele>
        <time>2012-06-16T07:59:49Z</time>
      </trkpt>
      <trkpt lat="48.03014" lon="6.69646">
        <ele>470.22</ele>
        <time>2012-06-16T07:59:51Z</time>
      </trkpt>
      <trkpt lat="48.03012" lon="6.69652">
        <ele>469.74</ele>
        <time>2012-06-16T07:59:52Z</time>
      </trkpt>
      <trkpt lat="48.03009" lon="6.69657">
        <ele>469.74</ele>
        <time>2012-06-16T07:59:53Z</time>
      </trkpt>
      <trkpt lat="48.03007" lon="6.69663">
        <ele>470.22</ele>
        <time>2012-06-16T07:59:54Z</time>
      </trkpt>
      <trkpt lat="48.03004" lon="6.69669">
        <ele>470.22</ele>
        <time>2012-06-16T07:59:55Z</time>
      </trkpt>
      <trkpt lat="48.03003" lon="6.69676">
        <ele>470.22</ele>
        <time>2012-06-16T07:59:56Z</time>
      </trkpt>
      <trkpt lat="48.03001" lon="6.69683">
        <ele>469.74</ele>
        <time>2012-06-16T07:59:57Z</time>
      </trkpt>
      <trkpt lat="48.02999" lon="6.6969">
        <ele>469.74</ele>
        <time>2012-06-16T07:59:58Z</time>
      </trkpt>
      <trkpt lat="48.02994" lon="6.69709">
        <ele>469.74</ele>
        <time>2012-06-16T08:00:01Z</time>
      </trkpt>
      <trkpt lat="48.02994" lon="6.69716">
        <ele>469.26</ele>
        <time>2012-06-16T08:00:02Z</time>
      </trkpt>
      <trkpt lat="48.02996" lon="6.69722">
        <ele>468.78</ele>
        <time>2012-06-16T08:00:03Z</time>
      </trkpt>
      <trkpt lat="48.02999" lon="6.69728">
        <ele>468.78</ele>
        <time>2012-06-16T08:00:04Z</time>
      </trkpt>
      <trkpt lat="48.03002" lon="6.69733">
        <ele>468.3</ele>
        <time>2012-06-16T08:00:05Z</time>
      </trkpt>
      <trkpt lat="48.03006" lon="6.69739">
        <ele>468.78</ele>
        <time>2012-06-16T08:00:06Z</time>
      </trkpt>
      <trkpt lat="48.0301" lon="6.69744">
        <ele>468.78</ele>
        <time>2012-06-16T08:00:07Z</time>
      </trkpt>
      <trkpt lat="48.03013" lon="6.69749">
        <ele>469.26</ele>
        <time>2012-06-16T08:00:08Z</time>
      </trkpt>
      <trkpt lat="48.03015" lon="6.69754">
        <ele>469.74</ele>
        <time>2012-06-16T08:00:09Z</time>
      </trkpt>
      <trkpt lat="48.03016" lon="6.6976">
        <ele>470.22</ele>
        <time>2012-06-16T08:00:10Z</time>
      </trkpt>
      <trkpt lat="48.03018" lon="6.6978">
        <ele>472.14</ele>
        <time>2012-06-16T08:00:16Z</time>
      </trkpt>
      <trkpt lat="48.03018" lon="6.69782">
        <ele>472.63</ele>
        <time>2012-06-16T08:00:17Z</time>
      </trkpt>
      <trkpt lat="48.03017" lon="6.69784">
        <ele>473.11</ele>
        <time>2012-06-16T08:00:18Z</time>
      </trkpt>
      <trkpt lat="48.03001" lon="6.69813">
        <ele>480.32</ele>
        <time>2012-06-16T08:00:31Z</time>
      </trkpt>
      <trkpt lat="48.02987" lon="6.69857">
        <ele>487.05</ele>
        <time>2012-06-16T08:00:41Z</time>
      </trkpt>
      <trkpt lat="48.02984" lon="6.6986">
        <ele>487.53</ele>
        <time>2012-06-16T08:00:42Z</time>
      </trkpt>
      <trkpt lat="48.02953" lon="6.69911">
        <ele>497.62</ele>
        <time>2012-06-16T08:00:54Z</time>
      </trkpt>
      <trkpt lat="48.02925" lon="6.6997">
        <ele>501.46</ele>
        <time>2012-06-16T08:01:07Z</time>
      </trkpt>
      <trkpt lat="48.02915" lon="6.70025">
        <ele>503.39</ele>
        <time>2012-06-16T08:01:21Z</time>
      </trkpt>
      <trkpt lat="48.02901" lon="6.70073">
        <ele>502.91</ele>
        <time>2012-06-16T08:01:34Z</time>
      </trkpt>
      <trkpt lat="48.02893" lon="6.70087">
        <ele>503.87</ele>
        <time>2012-06-16T08:01:39Z</time>
      </trkpt>
      <trkpt lat="48.02867" lon="6.70175">
        <ele>496.66</ele>
        <time>2012-06-16T08:01:52Z</time>
      </trkpt>
      <trkpt lat="48.02863" lon="6.70184">
        <ele>496.18</ele>
        <time>2012-06-16T08:01:53Z</time>
      </trkpt>
      <trkpt lat="48.02861" lon="6.70193">
        <ele>495.22</ele>
        <time>2012-06-16T08:01:54Z</time>
      </trkpt>
      <trkpt lat="48.02859" lon="6.70203">
        <ele>494.74</ele>
        <time>2012-06-16T08:01:55Z</time>
      </trkpt>
      <trkpt lat="48.02858" lon="6.70213">
        <ele>494.26</ele>
        <time>2012-06-16T08:01:56Z</time>
      </trkpt>
      <trkpt lat="48.02856" lon="6.70222">
        <ele>493.77</ele>
        <time>2012-06-16T08:01:57Z</time>
      </trkpt>
      <trkpt lat="48.02853" lon="6.70232">
        <ele>493.77</ele>
        <time>2012-06-16T08:01:58Z</time>
      </trkpt>
      <trkpt lat="48.02828" lon="6.70299">
        <ele>490.89</ele>
        <time>2012-06-16T08:02:06Z</time>
      </trkpt>
      <trkpt lat="48.02825" lon="6.70307">
        <ele>490.41</ele>
        <time>2012-06-16T08:02:07Z</time>
      </trkpt>
      <trkpt lat="48.02822" lon="6.70315">
        <ele>489.93</ele>
        <time>2012-06-16T08:02:08Z</time>
      </trkpt>
      <trkpt lat="48.0282" lon="6.70322">
        <ele>489.93</ele>
        <time>2012-06-16T08:02:09Z</time>
      </trkpt>
      <trkpt lat="48.02818" lon="6.7033">
        <ele>489.93</ele>
        <time>2012-06-16T08:02:10Z</time>
      </trkpt>
      <trkpt lat="48.02816" lon="6.70338">
        <ele>489.45</ele>
        <time>2012-06-16T08:02:11Z</time>
      </trkpt>
      <trkpt lat="48.02783" lon="6.70448">
        <ele>489.45</ele>
        <time>2012-06-16T08:02:22Z</time>
      </trkpt>
      <trkpt lat="48.0276" lon="6.70563">
        <ele>481.28</ele>
        <time>2012-06-16T08:02:35Z</time>
      </trkpt>
      <trkpt lat="48.02761" lon="6.70577">
        <ele>472.63</ele>
        <time>2012-06-16T08:02:44Z</time>
      </trkpt>
      <trkpt lat="48.02766" lon="6.7058">
        <ele>464.93</ele>
        <time>2012-06-16T08:03:04Z</time>
      </trkpt>
      <trkpt lat="48.02765" lon="6.70581">
        <ele>463.01</ele>
        <time>2012-06-16T08:03:17Z</time>
      </trkpt>
      <trkpt lat="48.02764" lon="6.70583">
        <ele>463.01</ele>
        <time>2012-06-16T08:03:18Z</time>
      </trkpt>
      <trkpt lat="48.02763" lon="6.70585">
        <ele>462.53</ele>
        <time>2012-06-16T08:03:19Z</time>
      </trkpt>
      <trkpt lat="48.02762" lon="6.70587">
        <ele>462.53</ele>
        <time>2012-06-16T08:03:20Z</time>
      </trkpt>
      <trkpt lat="48.0276" lon="6.7059">
        <ele>462.53</ele>
        <time>2012-06-16T08:03:21Z</time>
      </trkpt>
      <trkpt lat="48.02758" lon="6.70594">
        <ele>462.53</ele>
        <time>2012-06-16T08:03:22Z</time>
      </trkpt>
      <trkpt lat="48.02756" lon="6.70598">
        <ele>462.05</ele>
        <time>2012-06-16T08:03:23Z</time>
      </trkpt>
      <trkpt lat="48.02754" lon="6.70604">
        <ele>462.05</ele>
        <time>2012-06-16T08:03:24Z</time>
      </trkpt>
      <trkpt lat="48.02744" lon="6.70637">
        <ele>461.57</ele>
        <time>2012-06-16T08:03:29Z</time>
      </trkpt>
      <trkpt lat="48.02737" lon="6.70651">
        <ele>461.57</ele>
        <time>2012-06-16T08:03:31Z</time>
      </trkpt>
      <trkpt lat="48.02726" lon="6.70673">
        <ele>461.09</ele>
        <time>2012-06-16T08:03:34Z</time>
      </trkpt>
      <trkpt lat="48.02723" lon="6.70681">
        <ele>461.57</ele>
        <time>2012-06-16T08:03:35Z</time>
      </trkpt>
      <trkpt lat="48.02721" lon="6.7069">
        <ele>461.09</ele>
        <time>2012-06-16T08:03:36Z</time>
      </trkpt>
      <trkpt lat="48.02718" lon="6.70708">
        <ele>461.09</ele>
        <time>2012-06-16T08:03:38Z</time>
      </trkpt>
      <trkpt lat="48.02716" lon="6.70716">
        <ele>461.09</ele>
        <time>2012-06-16T08:03:39Z</time>
      </trkpt>
      <trkpt lat="48.0271" lon="6.7073">
        <ele>461.09</ele>
        <time>2012-06-16T08:03:41Z</time>
      </trkpt>
      <trkpt lat="48.02706" lon="6.70735">
        <ele>461.57</ele>
        <time>2012-06-16T08:03:42Z</time>
      </trkpt>
      <trkpt lat="48.02695" lon="6.70748">
        <ele>461.09</ele>
        <time>2012-06-16T08:03:45Z</time>
      </trkpt>
      <trkpt lat="48.02691" lon="6.70753">
        <ele>461.09</ele>
        <time>2012-06-16T08:03:46Z</time>
      </trkpt>
      <trkpt lat="48.02646" lon="6.70839">
        <ele>458.69</ele>
        <time>2012-06-16T08:04:02Z</time>
      </trkpt>
      <trkpt lat="48.02644" lon="6.70845">
        <ele>458.21</ele>
        <time>2012-06-16T08:04:03Z</time>
      </trkpt>
      <trkpt lat="48.02642" lon="6.7085">
        <ele>458.21</ele>
        <time>2012-06-16T08:04:04Z</time>
      </trkpt>
      <trkpt lat="48.02636" lon="6.70868">
        <ele>458.21</ele>
        <time>2012-06-16T08:04:07Z</time>
      </trkpt>
      <trkpt lat="48.02633" lon="6.70874">
        <ele>458.21</ele>
        <time>2012-06-16T08:04:08Z</time>
      </trkpt>
      <trkpt lat="48.02629" lon="6.70878">
        <ele>458.21</ele>
        <time>2012-06-16T08:04:09Z</time>
      </trkpt>
      <trkpt lat="48.02625" lon="6.70881">
        <ele>458.21</ele>
        <time>2012-06-16T08:04:10Z</time>
      </trkpt>
      <trkpt lat="48.0262" lon="6.70883">
        <ele>458.21</ele>
        <time>2012-06-16T08:04:11Z</time>
      </trkpt>
      <trkpt lat="48.02589" lon="6.70899">
        <ele>456.76</ele>
        <time>2012-06-16T08:04:17Z</time>
      </trkpt>
      <trkpt lat="48.02588" lon="6.70904">
        <ele>456.28</ele>
        <time>2012-06-16T08:04:18Z</time>
      </trkpt>
      <trkpt lat="48.02589" lon="6.70909">
        <ele>455.8</ele>
        <time>2012-06-16T08:04:19Z</time>
      </trkpt>
      <trkpt lat="48.0259" lon="6.70913">
        <ele>455.32</ele>
        <time>2012-06-16T08:04:20Z</time>
      </trkpt>
      <trkpt lat="48.02589" lon="6.70917">
        <ele>454.84</ele>
        <time>2012-06-16T08:04:21Z</time>
      </trkpt>
      <trkpt lat="48.02586" lon="6.70918">
        <ele>454.36</ele>
        <time>2012-06-16T08:04:22Z</time>
      </trkpt>
      <trkpt lat="48.0258" lon="6.70911">
        <ele>453.4</ele>
        <time>2012-06-16T08:04:24Z</time>
      </trkpt>
      <trkpt lat="48.02577" lon="6.70906">
        <ele>452.44</ele>
        <time>2012-06-16T08:04:25Z</time>
      </trkpt>
      <trkpt lat="48.02573" lon="6.70901">
        <ele>451.96</ele>
        <time>2012-06-16T08:04:26Z</time>
      </trkpt>
      <trkpt lat="48.02566" lon="6.70889">
        <ele>451</ele>
        <time>2012-06-16T08:04:28Z</time>
      </trkpt>
      <trkpt lat="48.02563" lon="6.70881">
        <ele>450.52</ele>
        <time>2012-06-16T08:04:29Z</time>
      </trkpt>
      <trkpt lat="48.02561" lon="6.70873">
        <ele>449.55</ele>
        <time>2012-06-16T08:04:30Z</time>
      </trkpt>
      <trkpt lat="48.0256" lon="6.70864">
        <ele>449.07</ele>
        <time>2012-06-16T08:04:31Z</time>
      </trkpt>
      <trkpt lat="48.02561" lon="6.70854">
        <ele>448.11</ele>
        <time>2012-06-16T08:04:32Z</time>
      </trkpt>
      <trkpt lat="48.02562" lon="6.70844">
        <ele>447.63</ele>
        <time>2012-06-16T08:04:33Z</time>
      </trkpt>
      <trkpt lat="48.02565" lon="6.70835">
        <ele>446.67</ele>
        <time>2012-06-16T08:04:34Z</time>
      </trkpt>
      <trkpt lat="48.02568" lon="6.70825">
        <ele>446.19</ele>
        <time>2012-06-16T08:04:35Z</time>
      </trkpt>
      <trkpt lat="48.02571" lon="6.70816">
        <ele>445.71</ele>
        <time>2012-06-16T08:04:36Z</time>
      </trkpt>
      <trkpt lat="48.02573" lon="6.70807">
        <ele>445.23</ele>
        <time>2012-06-16T08:04:37Z</time>
      </trkpt>
      <trkpt lat="48.0257" lon="6.708">
        <ele>444.75</ele>
        <time>2012-06-16T08:04:38Z</time>
      </trkpt>
      <trkpt lat="48.02564" lon="6.70799">
        <ele>444.27</ele>
        <time>2012-06-16T08:04:39Z</time>
      </trkpt>
      <trkpt lat="48.02558" lon="6.70805">
        <ele>443.31</ele>
        <time>2012-06-16T08:04:40Z</time>
      </trkpt>
      <trkpt lat="48.02554" lon="6.70814">
        <ele>442.82</ele>
        <time>2012-06-16T08:04:41Z</time>
      </trkpt>
      <trkpt lat="48.02551" lon="6.70824">
        <ele>441.86</ele>
        <time>2012-06-16T08:04:42Z</time>
      </trkpt>
      <trkpt lat="48.02549" lon="6.70836">
        <ele>441.38</ele>
        <time>2012-06-16T08:04:43Z</time>
      </trkpt>
      <trkpt lat="48.02531" lon="6.70897">
        <ele>438.02</ele>
        <time>2012-06-16T08:04:48Z</time>
      </trkpt>
      <trkpt lat="48.02525" lon="6.70908">
        <ele>437.54</ele>
        <time>2012-06-16T08:04:49Z</time>
      </trkpt>
      <trkpt lat="48.02517" lon="6.70918">
        <ele>436.58</ele>
        <time>2012-06-16T08:04:50Z</time>
      </trkpt>
      <trkpt lat="48.02508" lon="6.70925">
        <ele>436.1</ele>
        <time>2012-06-16T08:04:51Z</time>
      </trkpt>
      <trkpt lat="48.025" lon="6.70929">
        <ele>435.13</ele>
        <time>2012-06-16T08:04:52Z</time>
      </trkpt>
      <trkpt lat="48.0249" lon="6.70931">
        <ele>434.17</ele>
        <time>2012-06-16T08:04:53Z</time>
      </trkpt>
      <trkpt lat="48.0248" lon="6.70934">
        <ele>433.21</ele>
        <time>2012-06-16T08:04:54Z</time>
      </trkpt>
      <trkpt lat="48.0247" lon="6.70941">
        <ele>432.25</ele>
        <time>2012-06-16T08:04:55Z</time>
      </trkpt>
      <trkpt lat="48.02462" lon="6.7095">
        <ele>431.29</ele>
        <time>2012-06-16T08:04:56Z</time>
      </trkpt>
      <trkpt lat="48.02454" lon="6.70961">
        <ele>430.33</ele>
        <time>2012-06-16T08:04:57Z</time>
      </trkpt>
      <trkpt lat="48.02446" lon="6.70972">
        <ele>429.37</ele>
        <time>2012-06-16T08:04:58Z</time>
      </trkpt>
      <trkpt lat="48.02438" lon="6.70982">
        <ele>428.4</ele>
        <time>2012-06-16T08:04:59Z</time>
      </trkpt>
      <trkpt lat="48.02429" lon="6.70991">
        <ele>427.92</ele>
        <time>2012-06-16T08:05:00Z</time>
      </trkpt>
      <trkpt lat="48.0242" lon="6.70996">
        <ele>427.44</ele>
        <time>2012-06-16T08:05:01Z</time>
      </trkpt>
      <trkpt lat="48.0241" lon="6.71">
        <ele>426.48</ele>
        <time>2012-06-16T08:05:02Z</time>
      </trkpt>
      <trkpt lat="48.02401" lon="6.71">
        <ele>425.52</ele>
        <time>2012-06-16T08:05:03Z</time>
      </trkpt>
      <trkpt lat="48.02393" lon="6.71">
        <ele>425.04</ele>
        <time>2012-06-16T08:05:04Z</time>
      </trkpt>
      <trkpt lat="48.02299" lon="6.70999">
        <ele>420.23</ele>
        <time>2012-06-16T08:05:16Z</time>
      </trkpt>
      <trkpt lat="48.02291" lon="6.71002">
        <ele>420.23</ele>
        <time>2012-06-16T08:05:17Z</time>
      </trkpt>
      <trkpt lat="48.02284" lon="6.71007">
        <ele>419.75</ele>
        <time>2012-06-16T08:05:18Z</time>
      </trkpt>
      <trkpt lat="48.02277" lon="6.71013">
        <ele>419.27</ele>
        <time>2012-06-16T08:05:19Z</time>
      </trkpt>
      <trkpt lat="48.0227" lon="6.71021">
        <ele>419.27</ele>
        <time>2012-06-16T08:05:20Z</time>
      </trkpt>
      <trkpt lat="48.02264" lon="6.71029">
        <ele>418.79</ele>
        <time>2012-06-16T08:05:21Z</time>
      </trkpt>
      <trkpt lat="48.02213" lon="6.71079">
        <ele>414.95</ele>
        <time>2012-06-16T08:05:28Z</time>
      </trkpt>
      <trkpt lat="48.02204" lon="6.71083">
        <ele>414.47</ele>
        <time>2012-06-16T08:05:29Z</time>
      </trkpt>
      <trkpt lat="48.02195" lon="6.71086">
        <ele>414.47</ele>
        <time>2012-06-16T08:05:30Z</time>
      </trkpt>
      <trkpt lat="48.02187" lon="6.71088">
        <ele>413.98</ele>
        <time>2012-06-16T08:05:31Z</time>
      </trkpt>
      <trkpt lat="48.02179" lon="6.71088">
        <ele>413.5</ele>
        <time>2012-06-16T08:05:32Z</time>
      </trkpt>
      <trkpt lat="48.02171" lon="6.71087">
        <ele>413.02</ele>
        <time>2012-06-16T08:05:33Z</time>
      </trkpt>
      <trkpt lat="48.02163" lon="6.71085">
        <ele>412.54</ele>
        <time>2012-06-16T08:05:34Z</time>
      </trkpt>
      <trkpt lat="48.02155" lon="6.71082">
        <ele>412.06</ele>
        <time>2012-06-16T08:05:35Z</time>
      </trkpt>
      <trkpt lat="48.02121" lon="6.71076">
        <ele>410.14</ele>
        <time>2012-06-16T08:05:41Z</time>
      </trkpt>
      <trkpt lat="48.02119" lon="6.7108">
        <ele>409.66</ele>
        <time>2012-06-16T08:05:42Z</time>
      </trkpt>
      <trkpt lat="48.02118" lon="6.71084">
        <ele>409.66</ele>
        <time>2012-06-16T08:05:43Z</time>
      </trkpt>
      <trkpt lat="48.02118" lon="6.71089">
        <ele>409.18</ele>
        <time>2012-06-16T08:05:44Z</time>
      </trkpt>
      <trkpt lat="48.02118" lon="6.71094">
        <ele>409.66</ele>
        <time>2012-06-16T08:05:45Z</time>
      </trkpt>
      <trkpt lat="48.02119" lon="6.71099">
        <ele>409.66</ele>
        <time>2012-06-16T08:05:46Z</time>
      </trkpt>
      <trkpt lat="48.02119" lon="6.71105">
        <ele>409.66</ele>
        <time>2012-06-16T08:05:47Z</time>
      </trkpt>
      <trkpt lat="48.02127" lon="6.71202">
        <ele>410.62</ele>
        <time>2012-06-16T08:06:06Z</time>
      </trkpt>
      <trkpt lat="48.02123" lon="6.71281">
        <ele>411.1</ele>
        <time>2012-06-16T08:06:21Z</time>
      </trkpt>
      <trkpt lat="48.02107" lon="6.71332">
        <ele>412.06</ele>
        <time>2012-06-16T08:06:32Z</time>
      </trkpt>
      <trkpt lat="48.02104" lon="6.7133">
        <ele>412.06</ele>
        <time>2012-06-16T08:06:33Z</time>
      </trkpt>
      <trkpt lat="48.02097" lon="6.71323">
        <ele>412.06</ele>
        <time>2012-06-16T08:06:35Z</time>
      </trkpt>
      <trkpt lat="48.02093" lon="6.71321">
        <ele>412.54</ele>
        <time>2012-06-16T08:06:36Z</time>
      </trkpt>
      <trkpt lat="48.02088" lon="6.71319">
        <ele>412.54</ele>
        <time>2012-06-16T08:06:37Z</time>
      </trkpt>
      <trkpt lat="48.0202" lon="6.713">
        <ele>413.98</ele>
        <time>2012-06-16T08:06:53Z</time>
      </trkpt>
      <trkpt lat="48.01941" lon="6.71292">
        <ele>414.95</ele>
        <time>2012-06-16T08:07:12Z</time>
      </trkpt>
      <trkpt lat="48.0191" lon="6.71285">
        <ele>415.43</ele>
        <time>2012-06-16T08:07:23Z</time>
      </trkpt>
      <trkpt lat="48.01908" lon="6.71301">
        <ele>415.91</ele>
        <time>2012-06-16T08:07:27Z</time>
      </trkpt>
      <trkpt lat="48.01888" lon="6.71353">
        <ele>416.87</ele>
        <time>2012-06-16T08:07:38Z</time>
      </trkpt>
      <trkpt lat="48.01857" lon="6.71402">
        <ele>418.31</ele>
        <time>2012-06-16T08:07:52Z</time>
      </trkpt>
      <trkpt lat="48.01845" lon="6.71448">
        <ele>420.23</ele>
        <time>2012-06-16T08:08:01Z</time>
      </trkpt>
      <trkpt lat="48.01836" lon="6.71459">
        <ele>421.19</ele>
        <time>2012-06-16T08:08:04Z</time>
      </trkpt>
      <trkpt lat="48.01818" lon="6.71478">
        <ele>422.64</ele>
        <time>2012-06-16T08:08:08Z</time>
      </trkpt>
      <trkpt lat="48.01814" lon="6.71484">
        <ele>422.64</ele>
        <time>2012-06-16T08:08:09Z</time>
      </trkpt>
      <trkpt lat="48.01805" lon="6.71503">
        <ele>423.12</ele>
        <time>2012-06-16T08:08:12Z</time>
      </trkpt>
      <trkpt lat="48.01804" lon="6.7151">
        <ele>423.12</ele>
        <time>2012-06-16T08:08:13Z</time>
      </trkpt>
      <trkpt lat="48.01805" lon="6.71516">
        <ele>423.12</ele>
        <time>2012-06-16T08:08:14Z</time>
      </trkpt>
      <trkpt lat="48.01806" lon="6.71521">
        <ele>423.12</ele>
        <time>2012-06-16T08:08:15Z</time>
      </trkpt>
      <trkpt lat="48.01809" lon="6.71524">
        <ele>423.12</ele>
        <time>2012-06-16T08:08:16Z</time>
      </trkpt>
      <trkpt lat="48.01812" lon="6.71525">
        <ele>423.6</ele>
        <time>2012-06-16T08:08:17Z</time>
      </trkpt>
      <trkpt lat="48.01816" lon="6.71526">
        <ele>423.6</ele>
        <time>2012-06-16T08:08:18Z</time>
      </trkpt>
      <trkpt lat="48.01821" lon="6.71527">
        <ele>423.6</ele>
        <time>2012-06-16T08:08:19Z</time>
      </trkpt>
      <trkpt lat="48.01825" lon="6.71528">
        <ele>423.6</ele>
        <time>2012-06-16T08:08:20Z</time>
      </trkpt>
      <trkpt lat="48.01854" lon="6.71534">
        <ele>423.6</ele>
        <time>2012-06-16T08:08:26Z</time>
      </trkpt>
      <trkpt lat="48.0186" lon="6.71534">
        <ele>423.6</ele>
        <time>2012-06-16T08:08:27Z</time>
      </trkpt>
      <trkpt lat="48.01881" lon="6.71534">
        <ele>424.08</ele>
        <time>2012-06-16T08:08:31Z</time>
      </trkpt>
      <trkpt lat="48.01885" lon="6.71536">
        <ele>424.08</ele>
        <time>2012-06-16T08:08:32Z</time>
      </trkpt>
      <trkpt lat="48.0189" lon="6.71538">
        <ele>424.08</ele>
        <time>2012-06-16T08:08:33Z</time>
      </trkpt>
      <trkpt lat="48.01895" lon="6.71541">
        <ele>424.08</ele>
        <time>2012-06-16T08:08:34Z</time>
      </trkpt>
      <trkpt lat="48.01899" lon="6.71544">
        <ele>424.56</ele>
        <time>2012-06-16T08:08:35Z</time>
      </trkpt>
      <trkpt lat="48.01904" lon="6.71547">
        <ele>424.56</ele>
        <time>2012-06-16T08:08:36Z</time>
      </trkpt>
      <trkpt lat="48.01935" lon="6.71575">
        <ele>425.52</ele>
        <time>2012-06-16T08:08:42Z</time>
      </trkpt>
      <trkpt lat="48.01972" lon="6.71595">
        <ele>427.44</ele>
        <time>2012-06-16T08:08:49Z</time>
      </trkpt>
      <trkpt lat="48.02002" lon="6.71598">
        <ele>428.89</ele>
        <time>2012-06-16T08:08:56Z</time>
      </trkpt>
      <trkpt lat="48.02006" lon="6.71602">
        <ele>428.89</ele>
        <time>2012-06-16T08:08:57Z</time>
      </trkpt>
      <trkpt lat="48.02009" lon="6.71607">
        <ele>428.89</ele>
        <time>2012-06-16T08:08:58Z</time>
      </trkpt>
      <trkpt lat="48.02011" lon="6.71614">
        <ele>428.89</ele>
        <time>2012-06-16T08:08:59Z</time>
      </trkpt>
      <trkpt lat="48.02013" lon="6.7162">
        <ele>428.89</ele>
        <time>2012-06-16T08:09:00Z</time>
      </trkpt>
      <trkpt lat="48.02013" lon="6.71628">
        <ele>429.37</ele>
        <time>2012-06-16T08:09:01Z</time>
      </trkpt>
      <trkpt lat="48.02012" lon="6.71635">
        <ele>429.37</ele>
        <time>2012-06-16T08:09:02Z</time>
      </trkpt>
      <trkpt lat="48.02011" lon="6.71656">
        <ele>430.33</ele>
        <time>2012-06-16T08:09:05Z</time>
      </trkpt>
      <trkpt lat="48.01998" lon="6.71728">
        <ele>434.17</ele>
        <time>2012-06-16T08:09:17Z</time>
      </trkpt>
      <trkpt lat="48.01996" lon="6.71734">
        <ele>434.65</ele>
        <time>2012-06-16T08:09:18Z</time>
      </trkpt>
      <trkpt lat="48.01992" lon="6.7174">
        <ele>435.13</ele>
        <time>2012-06-16T08:09:19Z</time>
      </trkpt>
      <trkpt lat="48.0199" lon="6.71746">
        <ele>435.13</ele>
        <time>2012-06-16T08:09:20Z</time>
      </trkpt>
      <trkpt lat="48.01988" lon="6.71752">
        <ele>435.61</ele>
        <time>2012-06-16T08:09:21Z</time>
      </trkpt>
      <trkpt lat="48.01987" lon="6.71757">
        <ele>435.61</ele>
        <time>2012-06-16T08:09:22Z</time>
      </trkpt>
      <trkpt lat="48.01985" lon="6.71762">
        <ele>436.58</ele>
        <time>2012-06-16T08:09:23Z</time>
      </trkpt>
      <trkpt lat="48.01983" lon="6.71767">
        <ele>437.06</ele>
        <time>2012-06-16T08:09:24Z</time>
      </trkpt>
      <trkpt lat="48.01981" lon="6.71772">
        <ele>438.02</ele>
        <time>2012-06-16T08:09:25Z</time>
      </trkpt>
      <trkpt lat="48.01979" lon="6.71776">
        <ele>438.5</ele>
        <time>2012-06-16T08:09:26Z</time>
      </trkpt>
      <trkpt lat="48.01977" lon="6.7178">
        <ele>439.46</ele>
        <time>2012-06-16T08:09:27Z</time>
      </trkpt>
      <trkpt lat="48.01948" lon="6.71817">
        <ele>444.75</ele>
        <time>2012-06-16T08:09:38Z</time>
      </trkpt>
      <trkpt lat="48.01921" lon="6.71869">
        <ele>451</ele>
        <time>2012-06-16T08:09:50Z</time>
      </trkpt>
      <trkpt lat="48.01906" lon="6.71949">
        <ele>449.07</ele>
        <time>2012-06-16T08:10:04Z</time>
      </trkpt>
      <trkpt lat="48.01902" lon="6.72004">
        <ele>446.19</ele>
        <time>2012-06-16T08:10:13Z</time>
      </trkpt>
      <trkpt lat="48.01898" lon="6.72018">
        <ele>446.19</ele>
        <time>2012-06-16T08:10:15Z</time>
      </trkpt>
      <trkpt lat="48.01897" lon="6.72025">
        <ele>446.19</ele>
        <time>2012-06-16T08:10:16Z</time>
      </trkpt>
      <trkpt lat="48.01893" lon="6.72109">
        <ele>449.07</ele>
        <time>2012-06-16T08:10:29Z</time>
      </trkpt>
      <trkpt lat="48.01893" lon="6.72111">
        <ele>449.07</ele>
        <time>2012-06-16T08:10:30Z</time>
      </trkpt>
      <trkpt lat="48.01897" lon="6.72117">
        <ele>446.67</ele>
        <time>2012-06-16T08:10:43Z</time>
      </trkpt>
      <trkpt lat="48.01897" lon="6.72117">
        <ele>445.71</ele>
        <time>2012-06-16T08:11:05Z</time>
      </trkpt>
      <trkpt lat="48.01897" lon="6.72117">
        <ele>446.19</ele>
        <time>2012-06-16T08:11:19Z</time>
      </trkpt>
      <trkpt lat="48.01895" lon="6.72116">
        <ele>446.67</ele>
        <time>2012-06-16T08:11:46Z</time>
      </trkpt>
      <trkpt lat="48.01896" lon="6.72119">
        <ele>445.71</ele>
        <time>2012-06-16T08:11:59Z</time>
      </trkpt>
      <trkpt lat="48.01898" lon="6.7212">
        <ele>444.27</ele>
        <time>2012-06-16T08:12:21Z</time>
      </trkpt>
      <trkpt lat="48.01898" lon="6.72122">
        <ele>443.31</ele>
        <time>2012-06-16T08:12:29Z</time>
      </trkpt>
      <trkpt lat="48.01898" lon="6.72124">
        <ele>443.31</ele>
        <time>2012-06-16T08:12:30Z</time>
      </trkpt>
      <trkpt lat="48.01898" lon="6.72127">
        <ele>442.82</ele>
        <time>2012-06-16T08:12:31Z</time>
      </trkpt>
      <trkpt lat="48.01898" lon="6.7213">
        <ele>442.82</ele>
        <time>2012-06-16T08:12:32Z</time>
      </trkpt>
      <trkpt lat="48.01898" lon="6.72133">
        <ele>442.82</ele>
        <time>2012-06-16T08:12:33Z</time>
      </trkpt>
      <trkpt lat="48.01897" lon="6.72137">
        <ele>442.82</ele>
        <time>2012-06-16T08:12:34Z</time>
      </trkpt>
      <trkpt lat="48.01893" lon="6.72179">
        <ele>447.15</ele>
        <time>2012-06-16T08:12:46Z</time>
      </trkpt>
      <trkpt lat="48.0189" lon="6.72231">
        <ele>456.76</ele>
        <time>2012-06-16T08:12:59Z</time>
      </trkpt>
      <trkpt lat="48.01879" lon="6.72306">
        <ele>466.86</ele>
        <time>2012-06-16T08:13:13Z</time>
      </trkpt>
      <trkpt lat="48.01861" lon="6.72374">
        <ele>474.55</ele>
        <time>2012-06-16T08:13:26Z</time>
      </trkpt>
      <trkpt lat="48.0186" lon="6.7242">
        <ele>483.68</ele>
        <time>2012-06-16T08:13:37Z</time>
      </trkpt>
      <trkpt lat="48.01844" lon="6.72472">
        <ele>495.7</ele>
        <time>2012-06-16T08:13:49Z</time>
      </trkpt>
      <trkpt lat="48.01843" lon="6.7253">
        <ele>492.33</ele>
        <time>2012-06-16T08:14:01Z</time>
      </trkpt>
      <trkpt lat="48.01845" lon="6.72576">
        <ele>491.85</ele>
        <time>2012-06-16T08:14:15Z</time>
      </trkpt>
      <trkpt lat="48.01833" lon="6.72613">
        <ele>490.89</ele>
        <time>2012-06-16T08:14:26Z</time>
      </trkpt>
      <trkpt lat="48.0182" lon="6.72669">
        <ele>488.49</ele>
        <time>2012-06-16T08:14:37Z</time>
      </trkpt>
      <trkpt lat="48.01815" lon="6.72682">
        <ele>488.49</ele>
        <time>2012-06-16T08:14:39Z</time>
      </trkpt>
      <trkpt lat="48.01747" lon="6.72765">
        <ele>482.72</ele>
        <time>2012-06-16T08:14:50Z</time>
      </trkpt>
      <trkpt lat="48.01741" lon="6.72771">
        <ele>482.24</ele>
        <time>2012-06-16T08:14:51Z</time>
      </trkpt>
      <trkpt lat="48.01739" lon="6.72777">
        <ele>480.8</ele>
        <time>2012-06-16T08:14:52Z</time>
      </trkpt>
      <trkpt lat="48.01736" lon="6.72783">
        <ele>479.84</ele>
        <time>2012-06-16T08:14:53Z</time>
      </trkpt>
      <trkpt lat="48.01731" lon="6.72787">
        <ele>475.99</ele>
        <time>2012-06-16T08:14:54Z</time>
      </trkpt>
      <trkpt lat="48.01728" lon="6.72792">
        <ele>473.59</ele>
        <time>2012-06-16T08:14:55Z</time>
      </trkpt>
      <trkpt lat="48.01726" lon="6.72797">
        <ele>471.66</ele>
        <time>2012-06-16T08:14:56Z</time>
      </trkpt>
      <trkpt lat="48.01724" lon="6.72802">
        <ele>470.7</ele>
        <time>2012-06-16T08:14:57Z</time>
      </trkpt>
      <trkpt lat="48.01722" lon="6.72807">
        <ele>469.74</ele>
        <time>2012-06-16T08:14:58Z</time>
      </trkpt>
      <trkpt lat="48.0172" lon="6.72812">
        <ele>468.78</ele>
        <time>2012-06-16T08:14:59Z</time>
      </trkpt>
      <trkpt lat="48.01717" lon="6.72817">
        <ele>468.3</ele>
        <time>2012-06-16T08:15:00Z</time>
      </trkpt>
      <trkpt lat="48.01696" lon="6.72905">
        <ele>456.28</ele>
        <time>2012-06-16T08:15:16Z</time>
      </trkpt>
      <trkpt lat="48.01691" lon="6.7292">
        <ele>455.32</ele>
        <time>2012-06-16T08:15:19Z</time>
      </trkpt>
      <trkpt lat="48.01689" lon="6.72926">
        <ele>454.84</ele>
        <time>2012-06-16T08:15:20Z</time>
      </trkpt>
      <trkpt lat="48.01668" lon="6.73006">
        <ele>453.4</ele>
        <time>2012-06-16T08:15:29Z</time>
      </trkpt>
      <trkpt lat="48.01661" lon="6.73027">
        <ele>452.92</ele>
        <time>2012-06-16T08:15:31Z</time>
      </trkpt>
      <trkpt lat="48.0166" lon="6.73036">
        <ele>452.92</ele>
        <time>2012-06-16T08:15:32Z</time>
      </trkpt>
      <trkpt lat="48.0166" lon="6.73045">
        <ele>452.92</ele>
        <time>2012-06-16T08:15:33Z</time>
      </trkpt>
      <trkpt lat="48.0166" lon="6.73053">
        <ele>452.44</ele>
        <time>2012-06-16T08:15:34Z</time>
      </trkpt>
      <trkpt lat="48.01661" lon="6.73061">
        <ele>452.44</ele>
        <time>2012-06-16T08:15:35Z</time>
      </trkpt>
      <trkpt lat="48.01664" lon="6.73106">
        <ele>449.07</ele>
        <time>2012-06-16T08:15:41Z</time>
      </trkpt>
      <trkpt lat="48.01664" lon="6.73113">
        <ele>448.59</ele>
        <time>2012-06-16T08:15:42Z</time>
      </trkpt>
      <trkpt lat="48.01665" lon="6.73119">
        <ele>447.15</ele>
        <time>2012-06-16T08:15:43Z</time>
      </trkpt>
      <trkpt lat="48.01673" lon="6.73212">
        <ele>440.42</ele>
        <time>2012-06-16T08:16:00Z</time>
      </trkpt>
      <trkpt lat="48.01678" lon="6.73304">
        <ele>438.98</ele>
        <time>2012-06-16T08:16:16Z</time>
      </trkpt>
      <trkpt lat="48.01686" lon="6.73382">
        <ele>439.94</ele>
        <time>2012-06-16T08:16:30Z</time>
      </trkpt>
      <trkpt lat="48.0169" lon="6.73406">
        <ele>440.9</ele>
        <time>2012-06-16T08:16:34Z</time>
      </trkpt>
      <trkpt lat="48.01699" lon="6.73506">
        <ele>444.27</ele>
        <time>2012-06-16T08:16:50Z</time>
      </trkpt>
      <trkpt lat="48.01699" lon="6.73588">
        <ele>448.11</ele>
        <time>2012-06-16T08:17:04Z</time>
      </trkpt>
      <trkpt lat="48.01699" lon="6.73674">
        <ele>451.48</ele>
        <time>2012-06-16T08:17:19Z</time>
      </trkpt>
      <trkpt lat="48.01704" lon="6.7373">
        <ele>455.8</ele>
        <time>2012-06-16T08:17:30Z</time>
      </trkpt>
      <trkpt lat="48.01715" lon="6.7378">
        <ele>459.17</ele>
        <time>2012-06-16T08:17:43Z</time>
      </trkpt>
      <trkpt lat="48.01722" lon="6.73855">
        <ele>460.13</ele>
        <time>2012-06-16T08:17:57Z</time>
      </trkpt>
      <trkpt lat="48.01732" lon="6.73912">
        <ele>462.05</ele>
        <time>2012-06-16T08:18:09Z</time>
      </trkpt>
      <trkpt lat="48.01745" lon="6.73965">
        <ele>466.38</ele>
        <time>2012-06-16T08:18:22Z</time>
      </trkpt>
      <trkpt lat="48.01751" lon="6.74008">
        <ele>472.63</ele>
        <time>2012-06-16T08:18:35Z</time>
      </trkpt>
      <trkpt lat="48.01764" lon="6.74059">
        <ele>473.59</ele>
        <time>2012-06-16T08:18:50Z</time>
      </trkpt>
      <trkpt lat="48.0178" lon="6.74116">
        <ele>465.9</ele>
        <time>2012-06-16T08:19:02Z</time>
      </trkpt>
      <trkpt lat="48.01789" lon="6.7416">
        <ele>470.22</ele>
        <time>2012-06-16T08:19:13Z</time>
      </trkpt>
      <trkpt lat="48.01801" lon="6.7421">
        <ele>475.99</ele>
        <time>2012-06-16T08:19:25Z</time>
      </trkpt>
      <trkpt lat="48.01819" lon="6.74293">
        <ele>476.47</ele>
        <time>2012-06-16T08:19:40Z</time>
      </trkpt>
      <trkpt lat="48.0182" lon="6.74347">
        <ele>479.84</ele>
        <time>2012-06-16T08:19:46Z</time>
      </trkpt>
      <trkpt lat="48.01827" lon="6.74428">
        <ele>475.99</ele>
        <time>2012-06-16T08:19:52Z</time>
      </trkpt>
      <trkpt lat="48.0183" lon="6.7444">
        <ele>475.99</ele>
        <time>2012-06-16T08:19:53Z</time>
      </trkpt>
      <trkpt lat="48.01833" lon="6.74449">
        <ele>475.99</ele>
        <time>2012-06-16T08:19:54Z</time>
      </trkpt>
      <trkpt lat="48.01838" lon="6.74457">
        <ele>475.99</ele>
        <time>2012-06-16T08:19:55Z</time>
      </trkpt>
      <trkpt lat="48.01842" lon="6.74465">
        <ele>476.47</ele>
        <time>2012-06-16T08:19:56Z</time>
      </trkpt>
      <trkpt lat="48.01849" lon="6.74478">
        <ele>476.47</ele>
        <time>2012-06-16T08:19:58Z</time>
      </trkpt>
      <trkpt lat="48.01878" lon="6.74521">
        <ele>475.03</ele>
        <time>2012-06-16T08:20:08Z</time>
      </trkpt>
      <trkpt lat="48.01899" lon="6.7455">
        <ele>473.59</ele>
        <time>2012-06-16T08:20:23Z</time>
      </trkpt>
      <trkpt lat="48.01918" lon="6.74578">
        <ele>477.43</ele>
        <time>2012-06-16T08:20:37Z</time>
      </trkpt>
      <trkpt lat="48.01938" lon="6.74618">
        <ele>475.03</ele>
        <time>2012-06-16T08:20:53Z</time>
      </trkpt>
      <trkpt lat="48.01955" lon="6.74634">
        <ele>466.38</ele>
        <time>2012-06-16T08:21:06Z</time>
      </trkpt>
      <trkpt lat="48.01956" lon="6.74634">
        <ele>464.45</ele>
        <time>2012-06-16T08:21:25Z</time>
      </trkpt>
      <trkpt lat="48.01957" lon="6.74635">
        <ele>463.97</ele>
        <time>2012-06-16T08:21:41Z</time>
      </trkpt>
      <trkpt lat="48.01957" lon="6.74635">
        <ele>463.01</ele>
        <time>2012-06-16T08:22:06Z</time>
      </trkpt>
      <trkpt lat="48.01957" lon="6.74635">
        <ele>463.01</ele>
        <time>2012-06-16T08:22:25Z</time>
      </trkpt>
      <trkpt lat="48.01957" lon="6.74635">
        <ele>463.01</ele>
        <time>2012-06-16T08:22:49Z</time>
      </trkpt>
      <trkpt lat="48.01957" lon="6.74639">
        <ele>462.53</ele>
        <time>2012-06-16T08:23:01Z</time>
      </trkpt>
      <trkpt lat="48.01958" lon="6.74642">
        <ele>462.53</ele>
        <time>2012-06-16T08:23:02Z</time>
      </trkpt>
      <trkpt lat="48.01958" lon="6.74646">
        <ele>462.05</ele>
        <time>2012-06-16T08:23:03Z</time>
      </trkpt>
      <trkpt lat="48.01959" lon="6.7465">
        <ele>462.05</ele>
        <time>2012-06-16T08:23:04Z</time>
      </trkpt>
      <trkpt lat="48.01959" lon="6.74657">
        <ele>461.57</ele>
        <time>2012-06-16T08:23:05Z</time>
      </trkpt>
      <trkpt lat="48.01959" lon="6.74664">
        <ele>461.57</ele>
        <time>2012-06-16T08:23:06Z</time>
      </trkpt>
      <trkpt lat="48.0196" lon="6.74672">
        <ele>460.61</ele>
        <time>2012-06-16T08:23:07Z</time>
      </trkpt>
      <trkpt lat="48.01961" lon="6.7468">
        <ele>460.61</ele>
        <time>2012-06-16T08:23:08Z</time>
      </trkpt>
      <trkpt lat="48.0197" lon="6.74736">
        <ele>457.72</ele>
        <time>2012-06-16T08:23:14Z</time>
      </trkpt>
      <trkpt lat="48.01972" lon="6.74754">
        <ele>457.24</ele>
        <time>2012-06-16T08:23:16Z</time>
      </trkpt>
      <trkpt lat="48.01974" lon="6.74762">
        <ele>456.76</ele>
        <time>2012-06-16T08:23:17Z</time>
      </trkpt>
      <trkpt lat="48.01977" lon="6.74769">
        <ele>456.28</ele>
        <time>2012-06-16T08:23:18Z</time>
      </trkpt>
      <trkpt lat="48.01992" lon="6.74794">
        <ele>455.8</ele>
        <time>2012-06-16T08:23:27Z</time>
      </trkpt>
      <trkpt lat="48.02008" lon="6.74828">
        <ele>458.21</ele>
        <time>2012-06-16T08:23:40Z</time>
      </trkpt>
      <trkpt lat="48.02026" lon="6.74852">
        <ele>461.09</ele>
        <time>2012-06-16T08:23:51Z</time>
      </trkpt>
      <trkpt lat="48.02027" lon="6.74854">
        <ele>461.57</ele>
        <time>2012-06-16T08:23:52Z</time>
      </trkpt>
      <trkpt lat="48.02029" lon="6.74856">
        <ele>461.57</ele>
        <time>2012-06-16T08:23:53Z</time>
      </trkpt>
      <trkpt lat="48.0203" lon="6.74858">
        <ele>462.05</ele>
        <time>2012-06-16T08:23:54Z</time>
      </trkpt>
      <trkpt lat="48.02032" lon="6.7486">
        <ele>462.53</ele>
        <time>2012-06-16T08:23:55Z</time>
      </trkpt>
      <trkpt lat="48.02034" lon="6.74862">
        <ele>462.53</ele>
        <time>2012-06-16T08:23:56Z</time>
      </trkpt>
      <trkpt lat="48.02035" lon="6.74863">
        <ele>463.01</ele>
        <time>2012-06-16T08:23:57Z</time>
      </trkpt>
      <trkpt lat="48.02057" lon="6.74899">
        <ele>466.86</ele>
        <time>2012-06-16T08:24:13Z</time>
      </trkpt>
      <trkpt lat="48.02057" lon="6.74906">
        <ele>466.86</ele>
        <time>2012-06-16T08:24:15Z</time>
      </trkpt>
      <trkpt lat="48.02045" lon="6.7495">
        <ele>466.86</ele>
        <time>2012-06-16T08:24:21Z</time>
      </trkpt>
      <trkpt lat="48.02045" lon="6.74959">
        <ele>466.86</ele>
        <time>2012-06-16T08:24:22Z</time>
      </trkpt>
      <trkpt lat="48.02048" lon="6.74979">
        <ele>466.86</ele>
        <time>2012-06-16T08:24:24Z</time>
      </trkpt>
      <trkpt lat="48.02047" lon="6.75068">
        <ele>466.86</ele>
        <time>2012-06-16T08:24:32Z</time>
      </trkpt>
      <trkpt lat="48.02045" lon="6.75078">
        <ele>466.38</ele>
        <time>2012-06-16T08:24:33Z</time>
      </trkpt>
      <trkpt lat="48.02039" lon="6.75102">
        <ele>466.38</ele>
        <time>2012-06-16T08:24:36Z</time>
      </trkpt>
      <trkpt lat="48.02034" lon="6.75108">
        <ele>466.38</ele>
        <time>2012-06-16T08:24:44Z</time>
      </trkpt>
      <trkpt lat="48.02027" lon="6.75142">
        <ele>463.01</ele>
        <time>2012-06-16T08:24:54Z</time>
      </trkpt>
      <trkpt lat="48.02023" lon="6.75183">
        <ele>462.05</ele>
        <time>2012-06-16T08:25:03Z</time>
      </trkpt>
      <trkpt lat="48.02024" lon="6.75187">
        <ele>462.53</ele>
        <time>2012-06-16T08:25:04Z</time>
      </trkpt>
      <trkpt lat="48.02044" lon="6.75217">
        <ele>467.82</ele>
        <time>2012-06-16T08:25:16Z</time>
      </trkpt>
      <trkpt lat="48.02059" lon="6.75259">
        <ele>473.11</ele>
        <time>2012-06-16T08:25:28Z</time>
      </trkpt>
      <trkpt lat="48.02065" lon="6.75307">
        <ele>483.68</ele>
        <time>2012-06-16T08:25:40Z</time>
      </trkpt>
      <trkpt lat="48.02084" lon="6.75352">
        <ele>491.37</ele>
        <time>2012-06-16T08:25:53Z</time>
      </trkpt>
      <trkpt lat="48.02113" lon="6.75381">
        <ele>493.77</ele>
        <time>2012-06-16T08:26:07Z</time>
      </trkpt>
      <trkpt lat="48.02126" lon="6.75396">
        <ele>500.98</ele>
        <time>2012-06-16T08:26:18Z</time>
      </trkpt>
      <trkpt lat="48.02149" lon="6.75433">
        <ele>506.27</ele>
        <time>2012-06-16T08:26:33Z</time>
      </trkpt>
      <trkpt lat="48.0215" lon="6.75436">
        <ele>506.75</ele>
        <time>2012-06-16T08:26:34Z</time>
      </trkpt>
      <trkpt lat="48.02155" lon="6.75461">
        <ele>501.46</ele>
        <time>2012-06-16T08:26:48Z</time>
      </trkpt>
      <trkpt lat="48.02159" lon="6.75485">
        <ele>497.14</ele>
        <time>2012-06-16T08:27:00Z</time>
      </trkpt>
      <trkpt lat="48.0216" lon="6.75487">
        <ele>497.14</ele>
        <time>2012-06-16T08:27:01Z</time>
      </trkpt>
      <trkpt lat="48.0216" lon="6.75489">
        <ele>497.62</ele>
        <time>2012-06-16T08:27:02Z</time>
      </trkpt>
      <trkpt lat="48.02169" lon="6.7552">
        <ele>495.7</ele>
        <time>2012-06-16T08:27:14Z</time>
      </trkpt>
      <trkpt lat="48.02176" lon="6.7553">
        <ele>496.18</ele>
        <time>2012-06-16T08:27:27Z</time>
      </trkpt>
      <trkpt lat="48.02177" lon="6.75531">
        <ele>496.66</ele>
        <time>2012-06-16T08:27:39Z</time>
      </trkpt>
      <trkpt lat="48.02176" lon="6.75531">
        <ele>495.7</ele>
        <time>2012-06-16T08:27:55Z</time>
      </trkpt>
      <trkpt lat="48.02178" lon="6.75533">
        <ele>493.29</ele>
        <time>2012-06-16T08:28:09Z</time>
      </trkpt>
      <trkpt lat="48.0218" lon="6.75536">
        <ele>492.33</ele>
        <time>2012-06-16T08:28:22Z</time>
      </trkpt>
      <trkpt lat="48.02179" lon="6.75539">
        <ele>492.33</ele>
        <time>2012-06-16T08:28:24Z</time>
      </trkpt>
      <trkpt lat="48.02178" lon="6.75547">
        <ele>492.81</ele>
        <time>2012-06-16T08:28:28Z</time>
      </trkpt>
      <trkpt lat="48.02178" lon="6.75549">
        <ele>493.29</ele>
        <time>2012-06-16T08:28:29Z</time>
      </trkpt>
      <trkpt lat="48.02177" lon="6.75552">
        <ele>493.29</ele>
        <time>2012-06-16T08:28:30Z</time>
      </trkpt>
      <trkpt lat="48.02177" lon="6.75556">
        <ele>493.77</ele>
        <time>2012-06-16T08:28:31Z</time>
      </trkpt>
      <trkpt lat="48.02176" lon="6.75559">
        <ele>493.77</ele>
        <time>2012-06-16T08:28:32Z</time>
      </trkpt>
      <trkpt lat="48.02176" lon="6.75563">
        <ele>494.26</ele>
        <time>2012-06-16T08:28:33Z</time>
      </trkpt>
      <trkpt lat="48.02175" lon="6.75567">
        <ele>494.26</ele>
        <time>2012-06-16T08:28:34Z</time>
      </trkpt>
      <trkpt lat="48.02175" lon="6.75572">
        <ele>494.74</ele>
        <time>2012-06-16T08:28:35Z</time>
      </trkpt>
      <trkpt lat="48.02175" lon="6.75576">
        <ele>495.22</ele>
        <time>2012-06-16T08:28:36Z</time>
      </trkpt>
      <trkpt lat="48.02175" lon="6.7558">
        <ele>495.22</ele>
        <time>2012-06-16T08:28:37Z</time>
      </trkpt>
      <trkpt lat="48.02176" lon="6.75602">
        <ele>498.1</ele>
        <time>2012-06-16T08:28:44Z</time>
      </trkpt>
      <trkpt lat="48.02168" lon="6.75646">
        <ele>499.54</ele>
        <time>2012-06-16T08:28:53Z</time>
      </trkpt>
      <trkpt lat="48.02167" lon="6.75654">
        <ele>499.54</ele>
        <time>2012-06-16T08:28:54Z</time>
      </trkpt>
      <trkpt lat="48.02167" lon="6.75677">
        <ele>499.54</ele>
        <time>2012-06-16T08:28:57Z</time>
      </trkpt>
      <trkpt lat="48.02166" lon="6.75684">
        <ele>499.54</ele>
        <time>2012-06-16T08:28:58Z</time>
      </trkpt>
      <trkpt lat="48.02167" lon="6.75691">
        <ele>499.06</ele>
        <time>2012-06-16T08:28:59Z</time>
      </trkpt>
      <trkpt lat="48.02169" lon="6.75695">
        <ele>498.58</ele>
        <time>2012-06-16T08:29:00Z</time>
      </trkpt>
      <trkpt lat="48.0217" lon="6.75699">
        <ele>498.58</ele>
        <time>2012-06-16T08:29:01Z</time>
      </trkpt>
      <trkpt lat="48.02172" lon="6.75703">
        <ele>498.58</ele>
        <time>2012-06-16T08:29:02Z</time>
      </trkpt>
      <trkpt lat="48.02173" lon="6.75706">
        <ele>498.58</ele>
        <time>2012-06-16T08:29:03Z</time>
      </trkpt>
      <trkpt lat="48.02204" lon="6.75757">
        <ele>500.02</ele>
        <time>2012-06-16T08:29:15Z</time>
      </trkpt>
      <trkpt lat="48.02225" lon="6.75798">
        <ele>501.95</ele>
        <time>2012-06-16T08:29:27Z</time>
      </trkpt>
      <trkpt lat="48.02228" lon="6.75805">
        <ele>499.54</ele>
        <time>2012-06-16T08:29:43Z</time>
      </trkpt>
      <trkpt lat="48.02229" lon="6.75808">
        <ele>499.54</ele>
        <time>2012-06-16T08:29:44Z</time>
      </trkpt>
      <trkpt lat="48.02231" lon="6.75811">
        <ele>499.54</ele>
        <time>2012-06-16T08:29:45Z</time>
      </trkpt>
      <trkpt lat="48.02251" lon="6.75856">
        <ele>501.95</ele>
        <time>2012-06-16T08:29:56Z</time>
      </trkpt>
      <trkpt lat="48.02264" lon="6.75894">
        <ele>506.27</ele>
        <time>2012-06-16T08:30:09Z</time>
      </trkpt>
      <trkpt lat="48.0228" lon="6.75941">
        <ele>510.12</ele>
        <time>2012-06-16T08:30:23Z</time>
      </trkpt>
      <trkpt lat="48.02293" lon="6.75988">
        <ele>513</ele>
        <time>2012-06-16T08:30:35Z</time>
      </trkpt>
      <trkpt lat="48.02304" lon="6.76034">
        <ele>514.92</ele>
        <time>2012-06-16T08:30:47Z</time>
      </trkpt>
      <trkpt lat="48.02308" lon="6.7608">
        <ele>514.92</ele>
        <time>2012-06-16T08:30:59Z</time>
      </trkpt>
      <trkpt lat="48.02308" lon="6.76087">
        <ele>514.92</ele>
        <time>2012-06-16T08:31:00Z</time>
      </trkpt>
      <trkpt lat="48.02306" lon="6.76096">
        <ele>514.92</ele>
        <time>2012-06-16T08:31:01Z</time>
      </trkpt>
      <trkpt lat="48.02303" lon="6.76105">
        <ele>513.96</ele>
        <time>2012-06-16T08:31:02Z</time>
      </trkpt>
      <trkpt lat="48.023" lon="6.76116">
        <ele>513</ele>
        <time>2012-06-16T08:31:03Z</time>
      </trkpt>
      <trkpt lat="48.02299" lon="6.76126">
        <ele>512.04</ele>
        <time>2012-06-16T08:31:04Z</time>
      </trkpt>
      <trkpt lat="48.02298" lon="6.76137">
        <ele>511.08</ele>
        <time>2012-06-16T08:31:05Z</time>
      </trkpt>
      <trkpt lat="48.02298" lon="6.76148">
        <ele>510.6</ele>
        <time>2012-06-16T08:31:06Z</time>
      </trkpt>
      <trkpt lat="48.02283" lon="6.76291">
        <ele>504.83</ele>
        <time>2012-06-16T08:31:21Z</time>
      </trkpt>
      <trkpt lat="48.02283" lon="6.76299">
        <ele>504.35</ele>
        <time>2012-06-16T08:31:22Z</time>
      </trkpt>
      <trkpt lat="48.02283" lon="6.76307">
        <ele>503.87</ele>
        <time>2012-06-16T08:31:23Z</time>
      </trkpt>
      <trkpt lat="48.0229" lon="6.76392">
        <ele>501.46</ele>
        <time>2012-06-16T08:31:36Z</time>
      </trkpt>
      <trkpt lat="48.02299" lon="6.76416">
        <ele>498.1</ele>
        <time>2012-06-16T08:31:43Z</time>
      </trkpt>
      <trkpt lat="48.02303" lon="6.76433">
        <ele>497.14</ele>
        <time>2012-06-16T08:31:46Z</time>
      </trkpt>
      <trkpt lat="48.02305" lon="6.76464">
        <ele>496.18</ele>
        <time>2012-06-16T08:31:50Z</time>
      </trkpt>
      <trkpt lat="48.02303" lon="6.76472">
        <ele>495.7</ele>
        <time>2012-06-16T08:31:51Z</time>
      </trkpt>
      <trkpt lat="48.023" lon="6.7648">
        <ele>495.7</ele>
        <time>2012-06-16T08:31:52Z</time>
      </trkpt>
      <trkpt lat="48.02295" lon="6.76485">
        <ele>495.7</ele>
        <time>2012-06-16T08:31:53Z</time>
      </trkpt>
      <trkpt lat="48.02291" lon="6.76487">
        <ele>495.7</ele>
        <time>2012-06-16T08:31:54Z</time>
      </trkpt>
      <trkpt lat="48.02286" lon="6.76486">
        <ele>495.7</ele>
        <time>2012-06-16T08:31:55Z</time>
      </trkpt>
      <trkpt lat="48.02281" lon="6.76485">
        <ele>495.7</ele>
        <time>2012-06-16T08:31:56Z</time>
      </trkpt>
      <trkpt lat="48.02276" lon="6.76485">
        <ele>495.7</ele>
        <time>2012-06-16T08:31:57Z</time>
      </trkpt>
      <trkpt lat="48.0227" lon="6.76486">
        <ele>495.7</ele>
        <time>2012-06-16T08:31:58Z</time>
      </trkpt>
      <trkpt lat="48.02256" lon="6.76488">
        <ele>495.7</ele>
        <time>2012-06-16T08:32:01Z</time>
      </trkpt>
      <trkpt lat="48.02252" lon="6.76488">
        <ele>495.7</ele>
        <time>2012-06-16T08:32:02Z</time>
      </trkpt>
      <trkpt lat="48.0222" lon="6.76487">
        <ele>494.26</ele>
        <time>2012-06-16T08:32:11Z</time>
      </trkpt>
      <trkpt lat="48.02203" lon="6.76465">
        <ele>495.22</ele>
        <time>2012-06-16T08:32:20Z</time>
      </trkpt>
      <trkpt lat="48.02201" lon="6.76466">
        <ele>495.22</ele>
        <time>2012-06-16T08:32:22Z</time>
      </trkpt>
      <trkpt lat="48.02202" lon="6.76469">
        <ele>495.22</ele>
        <time>2012-06-16T08:32:25Z</time>
      </trkpt>
      <trkpt lat="48.02204" lon="6.7647">
        <ele>495.22</ele>
        <time>2012-06-16T08:32:26Z</time>
      </trkpt>
      <trkpt lat="48.02205" lon="6.76471">
        <ele>495.22</ele>
        <time>2012-06-16T08:32:27Z</time>
      </trkpt>
      <trkpt lat="48.02207" lon="6.76473">
        <ele>495.22</ele>
        <time>2012-06-16T08:32:28Z</time>
      </trkpt>
      <trkpt lat="48.02208" lon="6.76476">
        <ele>495.7</ele>
        <time>2012-06-16T08:32:29Z</time>
      </trkpt>
      <trkpt lat="48.02226" lon="6.76508">
        <ele>497.62</ele>
        <time>2012-06-16T08:32:45Z</time>
      </trkpt>
      <trkpt lat="48.02237" lon="6.7655">
        <ele>499.54</ele>
        <time>2012-06-16T08:33:02Z</time>
      </trkpt>
      <trkpt lat="48.02242" lon="6.76599">
        <ele>503.87</ele>
        <time>2012-06-16T08:33:20Z</time>
      </trkpt>
      <trkpt lat="48.02241" lon="6.76644">
        <ele>509.64</ele>
        <time>2012-06-16T08:33:35Z</time>
      </trkpt>
      <trkpt lat="48.02241" lon="6.76694">
        <ele>513</ele>
        <time>2012-06-16T08:33:50Z</time>
      </trkpt>
      <trkpt lat="48.02231" lon="6.76738">
        <ele>515.4</ele>
        <time>2012-06-16T08:34:04Z</time>
      </trkpt>
      <trkpt lat="48.02234" lon="6.76732">
        <ele>509.16</ele>
        <time>2012-06-16T08:34:24Z</time>
      </trkpt>
      <trkpt lat="48.02233" lon="6.76732">
        <ele>505.31</ele>
        <time>2012-06-16T08:34:34Z</time>
      </trkpt>
      <trkpt lat="48.02234" lon="6.76734">
        <ele>504.83</ele>
        <time>2012-06-16T08:34:35Z</time>
      </trkpt>
      <trkpt lat="48.02234" lon="6.76737">
        <ele>504.35</ele>
        <time>2012-06-16T08:34:36Z</time>
      </trkpt>
      <trkpt lat="48.02234" lon="6.76741">
        <ele>503.87</ele>
        <time>2012-06-16T08:34:37Z</time>
      </trkpt>
      <trkpt lat="48.02233" lon="6.76744">
        <ele>503.39</ele>
        <time>2012-06-16T08:34:38Z</time>
      </trkpt>
      <trkpt lat="48.02238" lon="6.768">
        <ele>501.46</ele>
        <time>2012-06-16T08:34:51Z</time>
      </trkpt>
      <trkpt lat="48.02263" lon="6.76851">
        <ele>502.91</ele>
        <time>2012-06-16T08:35:05Z</time>
      </trkpt>
      <trkpt lat="48.02286" lon="6.76886">
        <ele>506.27</ele>
        <time>2012-06-16T08:35:17Z</time>
      </trkpt>
      <trkpt lat="48.02305" lon="6.76917">
        <ele>511.08</ele>
        <time>2012-06-16T08:35:29Z</time>
      </trkpt>
      <trkpt lat="48.02332" lon="6.76959">
        <ele>515.4</ele>
        <time>2012-06-16T08:35:44Z</time>
      </trkpt>
      <trkpt lat="48.02363" lon="6.76988">
        <ele>518.77</ele>
        <time>2012-06-16T08:35:58Z</time>
      </trkpt>
      <trkpt lat="48.02394" lon="6.77011">
        <ele>525.98</ele>
        <time>2012-06-16T08:36:13Z</time>
      </trkpt>
      <trkpt lat="48.02424" lon="6.7705">
        <ele>534.63</ele>
        <time>2012-06-16T08:36:27Z</time>
      </trkpt>
      <trkpt lat="48.02453" lon="6.77105">
        <ele>543.28</ele>
        <time>2012-06-16T08:36:42Z</time>
      </trkpt>
      <trkpt lat="48.02476" lon="6.77164">
        <ele>549.53</ele>
        <time>2012-06-16T08:36:57Z</time>
      </trkpt>
      <trkpt lat="48.02498" lon="6.77209">
        <ele>549.05</ele>
        <time>2012-06-16T08:37:09Z</time>
      </trkpt>
      <trkpt lat="48.02525" lon="6.77259">
        <ele>548.09</ele>
        <time>2012-06-16T08:37:23Z</time>
      </trkpt>
      <trkpt lat="48.0254" lon="6.77314">
        <ele>546.65</ele>
        <time>2012-06-16T08:37:39Z</time>
      </trkpt>
      <trkpt lat="48.02544" lon="6.77313">
        <ele>545.2</ele>
        <time>2012-06-16T08:38:03Z</time>
      </trkpt>
      <trkpt lat="48.02544" lon="6.77313">
        <ele>543.28</ele>
        <time>2012-06-16T08:38:26Z</time>
      </trkpt>
      <trkpt lat="48.02545" lon="6.77313">
        <ele>538.48</ele>
        <time>2012-06-16T08:38:49Z</time>
      </trkpt>
      <trkpt lat="48.02548" lon="6.77329">
        <ele>536.07</ele>
        <time>2012-06-16T08:39:06Z</time>
      </trkpt>
      <trkpt lat="48.02554" lon="6.77369">
        <ele>534.15</ele>
        <time>2012-06-16T08:39:18Z</time>
      </trkpt>
      <trkpt lat="48.02556" lon="6.7742">
        <ele>535.59</ele>
        <time>2012-06-16T08:39:32Z</time>
      </trkpt>
      <trkpt lat="48.02562" lon="6.77476">
        <ele>538.48</ele>
        <time>2012-06-16T08:39:47Z</time>
      </trkpt>
      <trkpt lat="48.02573" lon="6.7754">
        <ele>541.36</ele>
        <time>2012-06-16T08:40:03Z</time>
      </trkpt>
      <trkpt lat="48.02559" lon="6.77562">
        <ele>540.88</ele>
        <time>2012-06-16T08:40:14Z</time>
      </trkpt>
      <trkpt lat="48.02545" lon="6.77538">
        <ele>542.8</ele>
        <time>2012-06-16T08:40:26Z</time>
      </trkpt>
      <trkpt lat="48.02544" lon="6.77537">
        <ele>542.8</ele>
        <time>2012-06-16T08:40:27Z</time>
      </trkpt>
      <trkpt lat="48.02544" lon="6.77551">
        <ele>542.32</ele>
        <time>2012-06-16T08:40:34Z</time>
      </trkpt>
      <trkpt lat="48.02547" lon="6.77549">
        <ele>541.36</ele>
        <time>2012-06-16T08:40:55Z</time>
      </trkpt>
      <trkpt lat="48.02554" lon="6.77563">
        <ele>541.36</ele>
        <time>2012-06-16T08:41:07Z</time>
      </trkpt>
      <trkpt lat="48.02558" lon="6.77572">
        <ele>541.36</ele>
        <time>2012-06-16T08:41:24Z</time>
      </trkpt>
      <trkpt lat="48.02578" lon="6.77626">
        <ele>540.88</ele>
        <time>2012-06-16T08:41:37Z</time>
      </trkpt>
      <trkpt lat="48.02594" lon="6.77672">
        <ele>542.32</ele>
        <time>2012-06-16T08:41:50Z</time>
      </trkpt>
      <trkpt lat="48.02613" lon="6.77713">
        <ele>544.72</ele>
        <time>2012-06-16T08:42:05Z</time>
      </trkpt>
      <trkpt lat="48.02621" lon="6.77751">
        <ele>545.69</ele>
        <time>2012-06-16T08:42:17Z</time>
      </trkpt>
      <trkpt lat="48.02633" lon="6.77802">
        <ele>548.57</ele>
        <time>2012-06-16T08:42:32Z</time>
      </trkpt>
      <trkpt lat="48.02654" lon="6.77859">
        <ele>552.41</ele>
        <time>2012-06-16T08:42:49Z</time>
      </trkpt>
      <trkpt lat="48.02672" lon="6.77903">
        <ele>557.7</ele>
        <time>2012-06-16T08:43:03Z</time>
      </trkpt>
      <trkpt lat="48.02676" lon="6.77916">
        <ele>560.11</ele>
        <time>2012-06-16T08:43:09Z</time>
      </trkpt>
      <trkpt lat="48.0267" lon="6.77939">
        <ele>564.43</ele>
        <time>2012-06-16T08:43:21Z</time>
      </trkpt>
      <trkpt lat="48.02668" lon="6.77964">
        <ele>570.2</ele>
        <time>2012-06-16T08:43:34Z</time>
      </trkpt>
      <trkpt lat="48.0267" lon="6.7799">
        <ele>576.45</ele>
        <time>2012-06-16T08:43:49Z</time>
      </trkpt>
      <trkpt lat="48.02683" lon="6.78031">
        <ele>580.29</ele>
        <time>2012-06-16T08:44:05Z</time>
      </trkpt>
      <trkpt lat="48.0269" lon="6.78057">
        <ele>581.25</ele>
        <time>2012-06-16T08:44:17Z</time>
      </trkpt>
      <trkpt lat="48.02688" lon="6.78077">
        <ele>581.73</ele>
        <time>2012-06-16T08:44:28Z</time>
      </trkpt>
      <trkpt lat="48.02688" lon="6.78086">
        <ele>583.18</ele>
        <time>2012-06-16T08:44:32Z</time>
      </trkpt>
      <trkpt lat="48.02698" lon="6.78122">
        <ele>584.62</ele>
        <time>2012-06-16T08:44:46Z</time>
      </trkpt>
      <trkpt lat="48.02701" lon="6.78137">
        <ele>582.7</ele>
        <time>2012-06-16T08:44:52Z</time>
      </trkpt>
      <trkpt lat="48.02701" lon="6.78166">
        <ele>584.14</ele>
        <time>2012-06-16T08:45:07Z</time>
      </trkpt>
      <trkpt lat="48.02701" lon="6.78167">
        <ele>584.14</ele>
        <time>2012-06-16T08:45:08Z</time>
      </trkpt>
      <trkpt lat="48.02693" lon="6.78206">
        <ele>585.1</ele>
        <time>2012-06-16T08:45:24Z</time>
      </trkpt>
      <trkpt lat="48.0269" lon="6.78244">
        <ele>591.83</ele>
        <time>2012-06-16T08:45:40Z</time>
      </trkpt>
      <trkpt lat="48.02689" lon="6.78264">
        <ele>595.19</ele>
        <time>2012-06-16T08:45:49Z</time>
      </trkpt>
      <trkpt lat="48.02683" lon="6.78302">
        <ele>605.29</ele>
        <time>2012-06-16T08:46:08Z</time>
      </trkpt>
      <trkpt lat="48.02684" lon="6.78305">
        <ele>606.25</ele>
        <time>2012-06-16T08:46:10Z</time>
      </trkpt>
      <trkpt lat="48.02685" lon="6.78328">
        <ele>614.9</ele>
        <time>2012-06-16T08:46:22Z</time>
      </trkpt>
      <trkpt lat="48.02686" lon="6.78371">
        <ele>620.67</ele>
        <time>2012-06-16T08:46:38Z</time>
      </trkpt>
      <trkpt lat="48.02684" lon="6.78406">
        <ele>627.4</ele>
        <time>2012-06-16T08:46:52Z</time>
      </trkpt>
      <trkpt lat="48.02685" lon="6.78418">
        <ele>630.76</ele>
        <time>2012-06-16T08:47:04Z</time>
      </trkpt>
      <trkpt lat="48.02685" lon="6.78421">
        <ele>631.72</ele>
        <time>2012-06-16T08:47:07Z</time>
      </trkpt>
      <trkpt lat="48.0269" lon="6.78433">
        <ele>632.68</ele>
        <time>2012-06-16T08:47:15Z</time>
      </trkpt>
      <trkpt lat="48.02695" lon="6.78437">
        <ele>633.65</ele>
        <time>2012-06-16T08:47:19Z</time>
      </trkpt>
      <trkpt lat="48.02725" lon="6.78457">
        <ele>634.61</ele>
        <time>2012-06-16T08:47:31Z</time>
      </trkpt>
      <trkpt lat="48.02768" lon="6.78483">
        <ele>637.01</ele>
        <time>2012-06-16T08:47:42Z</time>
      </trkpt>
      <trkpt lat="48.02784" lon="6.78495">
        <ele>637.97</ele>
        <time>2012-06-16T08:47:45Z</time>
      </trkpt>
      <trkpt lat="48.02795" lon="6.78502">
        <ele>637.97</ele>
        <time>2012-06-16T08:47:47Z</time>
      </trkpt>
      <trkpt lat="48.02831" lon="6.78514">
        <ele>639.41</ele>
        <time>2012-06-16T08:47:58Z</time>
      </trkpt>
      <trkpt lat="48.02863" lon="6.78529">
        <ele>640.38</ele>
        <time>2012-06-16T08:48:11Z</time>
      </trkpt>
      <trkpt lat="48.02887" lon="6.78543">
        <ele>637.97</ele>
        <time>2012-06-16T08:48:22Z</time>
      </trkpt>
      <trkpt lat="48.02896" lon="6.78543">
        <ele>624.99</ele>
        <time>2012-06-16T08:48:34Z</time>
      </trkpt>
      <trkpt lat="48.029" lon="6.78544">
        <ele>618.75</ele>
        <time>2012-06-16T08:48:53Z</time>
      </trkpt>
      <trkpt lat="48.02901" lon="6.78543">
        <ele>612.98</ele>
        <time>2012-06-16T08:49:09Z</time>
      </trkpt>
      <trkpt lat="48.02898" lon="6.78541">
        <ele>607.21</ele>
        <time>2012-06-16T08:49:27Z</time>
      </trkpt>
      <trkpt lat="48.02916" lon="6.78572">
        <ele>606.25</ele>
        <time>2012-06-16T08:49:37Z</time>
      </trkpt>
      <trkpt lat="48.02937" lon="6.78604">
        <ele>610.57</ele>
        <time>2012-06-16T08:49:50Z</time>
      </trkpt>
      <trkpt lat="48.02953" lon="6.7862">
        <ele>612.02</ele>
        <time>2012-06-16T08:50:02Z</time>
      </trkpt>
      <trkpt lat="48.02967" lon="6.7864">
        <ele>615.38</ele>
        <time>2012-06-16T08:50:17Z</time>
      </trkpt>
      <trkpt lat="48.02983" lon="6.78666">
        <ele>620.19</ele>
        <time>2012-06-16T08:50:30Z</time>
      </trkpt>
      <trkpt lat="48.02991" lon="6.78717">
        <ele>622.59</ele>
        <time>2012-06-16T08:50:42Z</time>
      </trkpt>
      <trkpt lat="48.03004" lon="6.78771">
        <ele>624.51</ele>
        <time>2012-06-16T08:50:54Z</time>
      </trkpt>
      <trkpt lat="48.03014" lon="6.78807">
        <ele>622.59</ele>
        <time>2012-06-16T08:51:03Z</time>
      </trkpt>
      <trkpt lat="48.03047" lon="6.7883">
        <ele>615.38</ele>
        <time>2012-06-16T08:51:13Z</time>
      </trkpt>
      <trkpt lat="48.03074" lon="6.78853">
        <ele>608.65</ele>
        <time>2012-06-16T08:51:20Z</time>
      </trkpt>
      <trkpt lat="48.03077" lon="6.78858">
        <ele>608.17</ele>
        <time>2012-06-16T08:51:21Z</time>
      </trkpt>
      <trkpt lat="48.03079" lon="6.78864">
        <ele>607.21</ele>
        <time>2012-06-16T08:51:22Z</time>
      </trkpt>
      <trkpt lat="48.03081" lon="6.78872">
        <ele>607.21</ele>
        <time>2012-06-16T08:51:23Z</time>
      </trkpt>
      <trkpt lat="48.03082" lon="6.7888">
        <ele>607.21</ele>
        <time>2012-06-16T08:51:24Z</time>
      </trkpt>
      <trkpt lat="48.03082" lon="6.78888">
        <ele>607.21</ele>
        <time>2012-06-16T08:51:25Z</time>
      </trkpt>
      <trkpt lat="48.03096" lon="6.78939">
        <ele>604.81</ele>
        <time>2012-06-16T08:51:34Z</time>
      </trkpt>
      <trkpt lat="48.03115" lon="6.78979">
        <ele>602.4</ele>
        <time>2012-06-16T08:51:46Z</time>
      </trkpt>
      <trkpt lat="48.03135" lon="6.79037">
        <ele>600.96</ele>
        <time>2012-06-16T08:52:03Z</time>
      </trkpt>
      <trkpt lat="48.03139" lon="6.7905">
        <ele>600.48</ele>
        <time>2012-06-16T08:52:09Z</time>
      </trkpt>
      <trkpt lat="48.03138" lon="6.79052">
        <ele>600.48</ele>
        <time>2012-06-16T08:52:10Z</time>
      </trkpt>
      <trkpt lat="48.0313" lon="6.79044">
        <ele>600.96</ele>
        <time>2012-06-16T08:52:17Z</time>
      </trkpt>
      <trkpt lat="48.03111" lon="6.79024">
        <ele>601.44</ele>
        <time>2012-06-16T08:52:32Z</time>
      </trkpt>
      <trkpt lat="48.03097" lon="6.79003">
        <ele>602.4</ele>
        <time>2012-06-16T08:52:47Z</time>
      </trkpt>
      <trkpt lat="48.0309" lon="6.78999">
        <ele>603.85</ele>
        <time>2012-06-16T08:52:55Z</time>
      </trkpt>
      <trkpt lat="48.03083" lon="6.78994">
        <ele>604.81</ele>
        <time>2012-06-16T08:52:59Z</time>
      </trkpt>
      <trkpt lat="48.03076" lon="6.78991">
        <ele>606.25</ele>
        <time>2012-06-16T08:53:04Z</time>
      </trkpt>
      <trkpt lat="48.03048" lon="6.78973">
        <ele>609.61</ele>
        <time>2012-06-16T08:53:17Z</time>
      </trkpt>
      <trkpt lat="48.03029" lon="6.78945">
        <ele>613.46</ele>
        <time>2012-06-16T08:53:32Z</time>
      </trkpt>
      <trkpt lat="48.03026" lon="6.7893">
        <ele>617.78</ele>
        <time>2012-06-16T08:53:40Z</time>
      </trkpt>
      <trkpt lat="48.03016" lon="6.78917">
        <ele>621.15</ele>
        <time>2012-06-16T08:53:47Z</time>
      </trkpt>
      <trkpt lat="48.03002" lon="6.78908">
        <ele>623.55</ele>
        <time>2012-06-16T08:53:56Z</time>
      </trkpt>
      <trkpt lat="48.02993" lon="6.78899">
        <ele>624.99</ele>
        <time>2012-06-16T08:54:01Z</time>
      </trkpt>
      <trkpt lat="48.02978" lon="6.78877">
        <ele>628.84</ele>
        <time>2012-06-16T08:54:14Z</time>
      </trkpt>
      <trkpt lat="48.02974" lon="6.78867">
        <ele>632.68</ele>
        <time>2012-06-16T08:54:22Z</time>
      </trkpt>
      <trkpt lat="48.02972" lon="6.78862">
        <ele>634.61</ele>
        <time>2012-06-16T08:54:25Z</time>
      </trkpt>
      <trkpt lat="48.02953" lon="6.78827">
        <ele>640.38</ele>
        <time>2012-06-16T08:54:39Z</time>
      </trkpt>
      <trkpt lat="48.02922" lon="6.78792">
        <ele>645.18</ele>
        <time>2012-06-16T08:54:53Z</time>
      </trkpt>
      <trkpt lat="48.02908" lon="6.78771">
        <ele>637.01</ele>
        <time>2012-06-16T08:55:00Z</time>
      </trkpt>
      <trkpt lat="48.02899" lon="6.78769">
        <ele>633.65</ele>
        <time>2012-06-16T08:55:06Z</time>
      </trkpt>
      <trkpt lat="48.02903" lon="6.78775">
        <ele>633.65</ele>
        <time>2012-06-16T08:55:10Z</time>
      </trkpt>
      <trkpt lat="48.02909" lon="6.78783">
        <ele>634.61</ele>
        <time>2012-06-16T08:55:27Z</time>
      </trkpt>
      <trkpt lat="48.0292" lon="6.78798">
        <ele>635.09</ele>
        <time>2012-06-16T08:55:37Z</time>
      </trkpt>
      <trkpt lat="48.02942" lon="6.78829">
        <ele>636.05</ele>
        <time>2012-06-16T08:55:48Z</time>
      </trkpt>
      <trkpt lat="48.0296" lon="6.78865">
        <ele>640.38</ele>
        <time>2012-06-16T08:56:03Z</time>
      </trkpt>
      <trkpt lat="48.02961" lon="6.78894">
        <ele>638.93</ele>
        <time>2012-06-16T08:56:18Z</time>
      </trkpt>
      <trkpt lat="48.02971" lon="6.78938">
        <ele>635.57</ele>
        <time>2012-06-16T08:56:33Z</time>
      </trkpt>
      <trkpt lat="48.02992" lon="6.7899">
        <ele>636.53</ele>
        <time>2012-06-16T08:56:48Z</time>
      </trkpt>
      <trkpt lat="48.02966" lon="6.78973">
        <ele>642.3</ele>
        <time>2012-06-16T08:57:01Z</time>
      </trkpt>
      <trkpt lat="48.02954" lon="6.78942">
        <ele>646.14</ele>
        <time>2012-06-16T08:57:14Z</time>
      </trkpt>
      <trkpt lat="48.02934" lon="6.78904">
        <ele>652.39</ele>
        <time>2012-06-16T08:57:29Z</time>
      </trkpt>
      <trkpt lat="48.02904" lon="6.78879">
        <ele>656.24</ele>
        <time>2012-06-16T08:57:43Z</time>
      </trkpt>
      <trkpt lat="48.02865" lon="6.78851">
        <ele>661.04</ele>
        <time>2012-06-16T08:57:57Z</time>
      </trkpt>
      <trkpt lat="48.02838" lon="6.78825">
        <ele>666.33</ele>
        <time>2012-06-16T08:58:10Z</time>
      </trkpt>
      <trkpt lat="48.02807" lon="6.78791">
        <ele>672.1</ele>
        <time>2012-06-16T08:58:24Z</time>
      </trkpt>
      <trkpt lat="48.02783" lon="6.78777">
        <ele>675.94</ele>
        <time>2012-06-16T08:58:35Z</time>
      </trkpt>
      <trkpt lat="48.02739" lon="6.78755">
        <ele>677.87</ele>
        <time>2012-06-16T08:58:51Z</time>
      </trkpt>
      <trkpt lat="48.02704" lon="6.78739">
        <ele>675.94</ele>
        <time>2012-06-16T08:59:03Z</time>
      </trkpt>
      <trkpt lat="48.02673" lon="6.78757">
        <ele>677.87</ele>
        <time>2012-06-16T08:59:16Z</time>
      </trkpt>
      <trkpt lat="48.0266" lon="6.78805">
        <ele>674.98</ele>
        <time>2012-06-16T08:59:28Z</time>
      </trkpt>
      <trkpt lat="48.02643" lon="6.78856">
        <ele>672.1</ele>
        <time>2012-06-16T08:59:41Z</time>
      </trkpt>
      <trkpt lat="48.02629" lon="6.78907">
        <ele>671.14</ele>
        <time>2012-06-16T08:59:55Z</time>
      </trkpt>
      <trkpt lat="48.02627" lon="6.78918">
        <ele>671.62</ele>
        <time>2012-06-16T08:59:59Z</time>
      </trkpt>
      <trkpt lat="48.02622" lon="6.78922">
        <ele>673.54</ele>
        <time>2012-06-16T09:00:12Z</time>
      </trkpt>
      <trkpt lat="48.02619" lon="6.78923">
        <ele>674.5</ele>
        <time>2012-06-16T09:00:30Z</time>
      </trkpt>
      <trkpt lat="48.02618" lon="6.78919">
        <ele>676.91</ele>
        <time>2012-06-16T09:00:50Z</time>
      </trkpt>
      <trkpt lat="48.02618" lon="6.78926">
        <ele>678.83</ele>
        <time>2012-06-16T09:01:11Z</time>
      </trkpt>
      <trkpt lat="48.02619" lon="6.78931">
        <ele>677.87</ele>
        <time>2012-06-16T09:01:39Z</time>
      </trkpt>
      <trkpt lat="48.02619" lon="6.78932">
        <ele>676.91</ele>
        <time>2012-06-16T09:02:05Z</time>
      </trkpt>
      <trkpt lat="48.02618" lon="6.78933">
        <ele>678.35</ele>
        <time>2012-06-16T09:02:35Z</time>
      </trkpt>
      <trkpt lat="48.02618" lon="6.78933">
        <ele>679.31</ele>
        <time>2012-06-16T09:03:03Z</time>
      </trkpt>
      <trkpt lat="48.02617" lon="6.78932">
        <ele>679.79</ele>
        <time>2012-06-16T09:03:27Z</time>
      </trkpt>
      <trkpt lat="48.02617" lon="6.78933">
        <ele>679.79</ele>
        <time>2012-06-16T09:03:52Z</time>
      </trkpt>
      <trkpt lat="48.02617" lon="6.78931">
        <ele>680.27</ele>
        <time>2012-06-16T09:04:13Z</time>
      </trkpt>
      <trkpt lat="48.02617" lon="6.78931">
        <ele>680.27</ele>
        <time>2012-06-16T09:04:42Z</time>
      </trkpt>
      <trkpt lat="48.02617" lon="6.78931">
        <ele>680.27</ele>
        <time>2012-06-16T09:05:02Z</time>
      </trkpt>
      <trkpt lat="48.02616" lon="6.7893">
        <ele>681.23</ele>
        <time>2012-06-16T09:05:22Z</time>
      </trkpt>
      <trkpt lat="48.02616" lon="6.7893">
        <ele>681.23</ele>
        <time>2012-06-16T09:05:41Z</time>
      </trkpt>
      <trkpt lat="48.02616" lon="6.78929">
        <ele>681.23</ele>
        <time>2012-06-16T09:05:46Z</time>
      </trkpt>
      <trkpt lat="48.02597" lon="6.78898">
        <ele>685.56</ele>
        <time>2012-06-16T09:05:59Z</time>
      </trkpt>
      <trkpt lat="48.02592" lon="6.78877">
        <ele>687.48</ele>
        <time>2012-06-16T09:06:08Z</time>
      </trkpt>
      <trkpt lat="48.02585" lon="6.78848">
        <ele>685.08</ele>
        <time>2012-06-16T09:06:21Z</time>
      </trkpt>
      <trkpt lat="48.0258" lon="6.78827">
        <ele>686.04</ele>
        <time>2012-06-16T09:06:25Z</time>
      </trkpt>
      <trkpt lat="48.02565" lon="6.78784">
        <ele>687.96</ele>
        <time>2012-06-16T09:06:37Z</time>
      </trkpt>
      <trkpt lat="48.02562" lon="6.78746">
        <ele>688.92</ele>
        <time>2012-06-16T09:06:45Z</time>
      </trkpt>
      <trkpt lat="48.0256" lon="6.78722">
        <ele>689.4</ele>
        <time>2012-06-16T09:06:50Z</time>
      </trkpt>
      <trkpt lat="48.02558" lon="6.78713">
        <ele>689.88</ele>
        <time>2012-06-16T09:06:56Z</time>
      </trkpt>
      <trkpt lat="48.0255" lon="6.7867">
        <ele>692.29</ele>
        <time>2012-06-16T09:07:08Z</time>
      </trkpt>
      <trkpt lat="48.02537" lon="6.78601">
        <ele>697.57</ele>
        <time>2012-06-16T09:07:19Z</time>
      </trkpt>
      <trkpt lat="48.02539" lon="6.78558">
        <ele>699.98</ele>
        <time>2012-06-16T09:07:24Z</time>
      </trkpt>
      <trkpt lat="48.02533" lon="6.78516">
        <ele>701.9</ele>
        <time>2012-06-16T09:07:33Z</time>
      </trkpt>
      <trkpt lat="48.02522" lon="6.78486">
        <ele>701.9</ele>
        <time>2012-06-16T09:07:43Z</time>
      </trkpt>
      <trkpt lat="48.02517" lon="6.78466">
        <ele>703.34</ele>
        <time>2012-06-16T09:07:47Z</time>
      </trkpt>
      <trkpt lat="48.02522" lon="6.78425">
        <ele>705.26</ele>
        <time>2012-06-16T09:07:55Z</time>
      </trkpt>
      <trkpt lat="48.02522" lon="6.78418">
        <ele>705.75</ele>
        <time>2012-06-16T09:07:56Z</time>
      </trkpt>
      <trkpt lat="48.02521" lon="6.78402">
        <ele>706.71</ele>
        <time>2012-06-16T09:07:58Z</time>
      </trkpt>
      <trkpt lat="48.02521" lon="6.78396">
        <ele>707.19</ele>
        <time>2012-06-16T09:07:59Z</time>
      </trkpt>
      <trkpt lat="48.02521" lon="6.78394">
        <ele>707.67</ele>
        <time>2012-06-16T09:08:00Z</time>
      </trkpt>
      <trkpt lat="48.02521" lon="6.78391">
        <ele>707.67</ele>
        <time>2012-06-16T09:08:01Z</time>
      </trkpt>
      <trkpt lat="48.0252" lon="6.78388">
        <ele>707.19</ele>
        <time>2012-06-16T09:08:02Z</time>
      </trkpt>
      <trkpt lat="48.02519" lon="6.78385">
        <ele>707.67</ele>
        <time>2012-06-16T09:08:03Z</time>
      </trkpt>
      <trkpt lat="48.02519" lon="6.7838">
        <ele>707.67</ele>
        <time>2012-06-16T09:08:04Z</time>
      </trkpt>
      <trkpt lat="48.0252" lon="6.78374">
        <ele>707.67</ele>
        <time>2012-06-16T09:08:05Z</time>
      </trkpt>
      <trkpt lat="48.02522" lon="6.7836">
        <ele>707.67</ele>
        <time>2012-06-16T09:08:07Z</time>
      </trkpt>
      <trkpt lat="48.02522" lon="6.78353">
        <ele>707.19</ele>
        <time>2012-06-16T09:08:08Z</time>
      </trkpt>
      <trkpt lat="48.0252" lon="6.78346">
        <ele>707.19</ele>
        <time>2012-06-16T09:08:09Z</time>
      </trkpt>
      <trkpt lat="48.02519" lon="6.7834">
        <ele>706.71</ele>
        <time>2012-06-16T09:08:10Z</time>
      </trkpt>
      <trkpt lat="48.02516" lon="6.78334">
        <ele>706.23</ele>
        <time>2012-06-16T09:08:11Z</time>
      </trkpt>
      <trkpt lat="48.02513" lon="6.78329">
        <ele>706.23</ele>
        <time>2012-06-16T09:08:12Z</time>
      </trkpt>
      <trkpt lat="48.0251" lon="6.78324">
        <ele>706.23</ele>
        <time>2012-06-16T09:08:13Z</time>
      </trkpt>
      <trkpt lat="48.02499" lon="6.7831">
        <ele>707.19</ele>
        <time>2012-06-16T09:08:16Z</time>
      </trkpt>
      <trkpt lat="48.02497" lon="6.78302">
        <ele>706.71</ele>
        <time>2012-06-16T09:08:17Z</time>
      </trkpt>
      <trkpt lat="48.02474" lon="6.78242">
        <ele>708.15</ele>
        <time>2012-06-16T09:08:24Z</time>
      </trkpt>
      <trkpt lat="48.02472" lon="6.78234">
        <ele>708.15</ele>
        <time>2012-06-16T09:08:25Z</time>
      </trkpt>
      <trkpt lat="48.02468" lon="6.78199">
        <ele>709.59</ele>
        <time>2012-06-16T09:08:31Z</time>
      </trkpt>
      <trkpt lat="48.02468" lon="6.78193">
        <ele>709.59</ele>
        <time>2012-06-16T09:08:32Z</time>
      </trkpt>
      <trkpt lat="48.0247" lon="6.78183">
        <ele>709.11</ele>
        <time>2012-06-16T09:08:34Z</time>
      </trkpt>
      <trkpt lat="48.02471" lon="6.78178">
        <ele>709.11</ele>
        <time>2012-06-16T09:08:35Z</time>
      </trkpt>
      <trkpt lat="48.02473" lon="6.78165">
        <ele>706.71</ele>
        <time>2012-06-16T09:08:39Z</time>
      </trkpt>
      <trkpt lat="48.02472" lon="6.78161">
        <ele>704.78</ele>
        <time>2012-06-16T09:08:40Z</time>
      </trkpt>
      <trkpt lat="48.02468" lon="6.78133">
        <ele>699.98</ele>
        <time>2012-06-16T09:08:51Z</time>
      </trkpt>
      <trkpt lat="48.02466" lon="6.78099">
        <ele>701.42</ele>
        <time>2012-06-16T09:08:57Z</time>
      </trkpt>
      <trkpt lat="48.02465" lon="6.78083">
        <ele>701.9</ele>
        <time>2012-06-16T09:08:59Z</time>
      </trkpt>
      <trkpt lat="48.02465" lon="6.78067">
        <ele>701.9</ele>
        <time>2012-06-16T09:09:01Z</time>
      </trkpt>
      <trkpt lat="48.02462" lon="6.78039">
        <ele>701.9</ele>
        <time>2012-06-16T09:09:04Z</time>
      </trkpt>
      <trkpt lat="48.02461" lon="6.78023">
        <ele>701.9</ele>
        <time>2012-06-16T09:09:06Z</time>
      </trkpt>
      <trkpt lat="48.02461" lon="6.78014">
        <ele>701.42</ele>
        <time>2012-06-16T09:09:07Z</time>
      </trkpt>
      <trkpt lat="48.02455" lon="6.77945">
        <ele>698.53</ele>
        <time>2012-06-16T09:09:14Z</time>
      </trkpt>
      <trkpt lat="48.02455" lon="6.77937">
        <ele>698.05</ele>
        <time>2012-06-16T09:09:15Z</time>
      </trkpt>
      <trkpt lat="48.02454" lon="6.77928">
        <ele>697.09</ele>
        <time>2012-06-16T09:09:16Z</time>
      </trkpt>
      <trkpt lat="48.02453" lon="6.77924">
        <ele>695.65</ele>
        <time>2012-06-16T09:09:17Z</time>
      </trkpt>
      <trkpt lat="48.02452" lon="6.7792">
        <ele>695.17</ele>
        <time>2012-06-16T09:09:18Z</time>
      </trkpt>
      <trkpt lat="48.02423" lon="6.77898">
        <ele>690.36</ele>
        <time>2012-06-16T09:09:28Z</time>
      </trkpt>
      <trkpt lat="48.02416" lon="6.77888">
        <ele>677.87</ele>
        <time>2012-06-16T09:09:37Z</time>
      </trkpt>
      <trkpt lat="48.02424" lon="6.77886">
        <ele>663.93</ele>
        <time>2012-06-16T09:09:51Z</time>
      </trkpt>
      <trkpt lat="48.02423" lon="6.77881">
        <ele>649.03</ele>
        <time>2012-06-16T09:10:09Z</time>
      </trkpt>
      <trkpt lat="48.02429" lon="6.77874">
        <ele>647.1</ele>
        <time>2012-06-16T09:10:21Z</time>
      </trkpt>
      <trkpt lat="48.02431" lon="6.77867">
        <ele>645.66</ele>
        <time>2012-06-16T09:10:39Z</time>
      </trkpt>
      <trkpt lat="48.02432" lon="6.77868">
        <ele>644.7</ele>
        <time>2012-06-16T09:11:00Z</time>
      </trkpt>
      <trkpt lat="48.02433" lon="6.77869">
        <ele>644.7</ele>
        <time>2012-06-16T09:11:26Z</time>
      </trkpt>
      <trkpt lat="48.02433" lon="6.7787">
        <ele>644.7</ele>
        <time>2012-06-16T09:11:41Z</time>
      </trkpt>
      <trkpt lat="48.02439" lon="6.77843">
        <ele>644.7</ele>
        <time>2012-06-16T09:11:48Z</time>
      </trkpt>
      <trkpt lat="48.02436" lon="6.77831">
        <ele>644.7</ele>
        <time>2012-06-16T09:11:50Z</time>
      </trkpt>
      <trkpt lat="48.02433" lon="6.77818">
        <ele>645.18</ele>
        <time>2012-06-16T09:11:53Z</time>
      </trkpt>
      <trkpt lat="48.02411" lon="6.77829">
        <ele>641.34</ele>
        <time>2012-06-16T09:12:02Z</time>
      </trkpt>
      <trkpt lat="48.0241" lon="6.77827">
        <ele>639.89</ele>
        <time>2012-06-16T09:12:05Z</time>
      </trkpt>
      <trkpt lat="48.0242" lon="6.77779">
        <ele>637.49</ele>
        <time>2012-06-16T09:12:15Z</time>
      </trkpt>
      <trkpt lat="48.02422" lon="6.77759">
        <ele>637.49</ele>
        <time>2012-06-16T09:12:20Z</time>
      </trkpt>
      <trkpt lat="48.0242" lon="6.77758">
        <ele>637.49</ele>
        <time>2012-06-16T09:12:21Z</time>
      </trkpt>
      <trkpt lat="48.02419" lon="6.77754">
        <ele>636.53</ele>
        <time>2012-06-16T09:12:29Z</time>
      </trkpt>
      <trkpt lat="48.02419" lon="6.77751">
        <ele>636.05</ele>
        <time>2012-06-16T09:12:30Z</time>
      </trkpt>
      <trkpt lat="48.02419" lon="6.77748">
        <ele>636.05</ele>
        <time>2012-06-16T09:12:31Z</time>
      </trkpt>
      <trkpt lat="48.02419" lon="6.77746">
        <ele>636.05</ele>
        <time>2012-06-16T09:12:32Z</time>
      </trkpt>
      <trkpt lat="48.02419" lon="6.77743">
        <ele>636.05</ele>
        <time>2012-06-16T09:12:33Z</time>
      </trkpt>
      <trkpt lat="48.02418" lon="6.77741">
        <ele>635.57</ele>
        <time>2012-06-16T09:12:34Z</time>
      </trkpt>
      <trkpt lat="48.02418" lon="6.77737">
        <ele>635.57</ele>
        <time>2012-06-16T09:12:35Z</time>
      </trkpt>
      <trkpt lat="48.02417" lon="6.77734">
        <ele>635.57</ele>
        <time>2012-06-16T09:12:36Z</time>
      </trkpt>
      <trkpt lat="48.02416" lon="6.77729">
        <ele>635.57</ele>
        <time>2012-06-16T09:12:37Z</time>
      </trkpt>
      <trkpt lat="48.02404" lon="6.77685">
        <ele>634.13</ele>
        <time>2012-06-16T09:12:44Z</time>
      </trkpt>
      <trkpt lat="48.02387" lon="6.77639">
        <ele>634.13</ele>
        <time>2012-06-16T09:12:51Z</time>
      </trkpt>
      <trkpt lat="48.02365" lon="6.77656">
        <ele>630.76</ele>
        <time>2012-06-16T09:13:02Z</time>
      </trkpt>
      <trkpt lat="48.02365" lon="6.77658">
        <ele>630.28</ele>
        <time>2012-06-16T09:13:03Z</time>
      </trkpt>
      <trkpt lat="48.02369" lon="6.77677">
        <ele>626.92</ele>
        <time>2012-06-16T09:13:09Z</time>
      </trkpt>
      <trkpt lat="48.02369" lon="6.77684">
        <ele>626.44</ele>
        <time>2012-06-16T09:13:10Z</time>
      </trkpt>
      <trkpt lat="48.02368" lon="6.77691">
        <ele>625.96</ele>
        <time>2012-06-16T09:13:11Z</time>
      </trkpt>
      <trkpt lat="48.02367" lon="6.77698">
        <ele>624.99</ele>
        <time>2012-06-16T09:13:12Z</time>
      </trkpt>
      <trkpt lat="48.02366" lon="6.77704">
        <ele>624.51</ele>
        <time>2012-06-16T09:13:13Z</time>
      </trkpt>
      <trkpt lat="48.02367" lon="6.77765">
        <ele>613.46</ele>
        <time>2012-06-16T09:13:24Z</time>
      </trkpt>
      <trkpt lat="48.02367" lon="6.77803">
        <ele>609.13</ele>
        <time>2012-06-16T09:13:32Z</time>
      </trkpt>
      <trkpt lat="48.02358" lon="6.77816">
        <ele>604.81</ele>
        <time>2012-06-16T09:13:40Z</time>
      </trkpt>
      <trkpt lat="48.02357" lon="6.77818">
        <ele>600.48</ele>
        <time>2012-06-16T09:13:51Z</time>
      </trkpt>
      <trkpt lat="48.02358" lon="6.77821">
        <ele>599.52</ele>
        <time>2012-06-16T09:13:55Z</time>
      </trkpt>
      <trkpt lat="48.02357" lon="6.77807">
        <ele>600.48</ele>
        <time>2012-06-16T09:14:08Z</time>
      </trkpt>
      <trkpt lat="48.02356" lon="6.77806">
        <ele>599.52</ele>
        <time>2012-06-16T09:14:29Z</time>
      </trkpt>
      <trkpt lat="48.02356" lon="6.77808">
        <ele>599.04</ele>
        <time>2012-06-16T09:14:31Z</time>
      </trkpt>
      <trkpt lat="48.02357" lon="6.77817">
        <ele>595.67</ele>
        <time>2012-06-16T09:14:43Z</time>
      </trkpt>
      <trkpt lat="48.02358" lon="6.77836">
        <ele>595.19</ele>
        <time>2012-06-16T09:14:55Z</time>
      </trkpt>
      <trkpt lat="48.02359" lon="6.77899">
        <ele>594.23</ele>
        <time>2012-06-16T09:15:03Z</time>
      </trkpt>
      <trkpt lat="48.02359" lon="6.77991">
        <ele>591.83</ele>
        <time>2012-06-16T09:15:14Z</time>
      </trkpt>
      <trkpt lat="48.02358" lon="6.77992">
        <ele>591.83</ele>
        <time>2012-06-16T09:15:15Z</time>
      </trkpt>
      <trkpt lat="48.02356" lon="6.77992">
        <ele>591.35</ele>
        <time>2012-06-16T09:15:16Z</time>
      </trkpt>
      <trkpt lat="48.0235" lon="6.77986">
        <ele>590.39</ele>
        <time>2012-06-16T09:15:20Z</time>
      </trkpt>
      <trkpt lat="48.02349" lon="6.77985">
        <ele>590.39</ele>
        <time>2012-06-16T09:15:21Z</time>
      </trkpt>
      <trkpt lat="48.02347" lon="6.77986">
        <ele>589.91</ele>
        <time>2012-06-16T09:15:22Z</time>
      </trkpt>
      <trkpt lat="48.02324" lon="6.77997">
        <ele>587.02</ele>
        <time>2012-06-16T09:15:31Z</time>
      </trkpt>
      <trkpt lat="48.02322" lon="6.77987">
        <ele>585.58</ele>
        <time>2012-06-16T09:15:33Z</time>
      </trkpt>
      <trkpt lat="48.0232" lon="6.77981">
        <ele>585.1</ele>
        <time>2012-06-16T09:15:34Z</time>
      </trkpt>
      <trkpt lat="48.02319" lon="6.77974">
        <ele>584.62</ele>
        <time>2012-06-16T09:15:35Z</time>
      </trkpt>
      <trkpt lat="48.02315" lon="6.77968">
        <ele>583.18</ele>
        <time>2012-06-16T09:15:36Z</time>
      </trkpt>
      <trkpt lat="48.02314" lon="6.77966">
        <ele>582.22</ele>
        <time>2012-06-16T09:15:37Z</time>
      </trkpt>
      <trkpt lat="48.02312" lon="6.77966">
        <ele>578.37</ele>
        <time>2012-06-16T09:15:45Z</time>
      </trkpt>
      <trkpt lat="48.02312" lon="6.77963">
        <ele>572.12</ele>
        <time>2012-06-16T09:16:08Z</time>
      </trkpt>
      <trkpt lat="48.02312" lon="6.77963">
        <ele>570.68</ele>
        <time>2012-06-16T09:16:32Z</time>
      </trkpt>
      <trkpt lat="48.02312" lon="6.77966">
        <ele>569.24</ele>
        <time>2012-06-16T09:16:56Z</time>
      </trkpt>
      <trkpt lat="48.02311" lon="6.77969">
        <ele>569.24</ele>
        <time>2012-06-16T09:16:57Z</time>
      </trkpt>
      <trkpt lat="48.02311" lon="6.77971">
        <ele>569.24</ele>
        <time>2012-06-16T09:16:58Z</time>
      </trkpt>
      <trkpt lat="48.02311" lon="6.77974">
        <ele>569.24</ele>
        <time>2012-06-16T09:16:59Z</time>
      </trkpt>
      <trkpt lat="48.02311" lon="6.77977">
        <ele>568.76</ele>
        <time>2012-06-16T09:17:00Z</time>
      </trkpt>
      <trkpt lat="48.02311" lon="6.7798">
        <ele>568.76</ele>
        <time>2012-06-16T09:17:01Z</time>
      </trkpt>
      <trkpt lat="48.0231" lon="6.77984">
        <ele>568.76</ele>
        <time>2012-06-16T09:17:02Z</time>
      </trkpt>
      <trkpt lat="48.02311" lon="6.77989">
        <ele>568.28</ele>
        <time>2012-06-16T09:17:03Z</time>
      </trkpt>
      <trkpt lat="48.02311" lon="6.7802">
        <ele>566.83</ele>
        <time>2012-06-16T09:17:09Z</time>
      </trkpt>
      <trkpt lat="48.0231" lon="6.7804">
        <ele>565.87</ele>
        <time>2012-06-16T09:17:12Z</time>
      </trkpt>
      <trkpt lat="48.02309" lon="6.78047">
        <ele>565.39</ele>
        <time>2012-06-16T09:17:13Z</time>
      </trkpt>
      <trkpt lat="48.02303" lon="6.78166">
        <ele>560.59</ele>
        <time>2012-06-16T09:17:27Z</time>
      </trkpt>
      <trkpt lat="48.02304" lon="6.78316">
        <ele>555.78</ele>
        <time>2012-06-16T09:17:40Z</time>
      </trkpt>
      <trkpt lat="48.02284" lon="6.78426">
        <ele>553.38</ele>
        <time>2012-06-16T09:17:51Z</time>
      </trkpt>
      <trkpt lat="48.0228" lon="6.78442">
        <ele>552.9</ele>
        <time>2012-06-16T09:17:53Z</time>
      </trkpt>
      <trkpt lat="48.02262" lon="6.78528">
        <ele>552.41</ele>
        <time>2012-06-16T09:18:03Z</time>
      </trkpt>
      <trkpt lat="48.02244" lon="6.78659">
        <ele>550.97</ele>
        <time>2012-06-16T09:18:16Z</time>
      </trkpt>
      <trkpt lat="48.02241" lon="6.78665">
        <ele>550.97</ele>
        <time>2012-06-16T09:18:17Z</time>
      </trkpt>
      <trkpt lat="48.02233" lon="6.78678">
        <ele>550.97</ele>
        <time>2012-06-16T09:18:19Z</time>
      </trkpt>
      <trkpt lat="48.02229" lon="6.78687">
        <ele>550.49</ele>
        <time>2012-06-16T09:18:20Z</time>
      </trkpt>
      <trkpt lat="48.02225" lon="6.78695">
        <ele>550.49</ele>
        <time>2012-06-16T09:18:21Z</time>
      </trkpt>
      <trkpt lat="48.02221" lon="6.78702">
        <ele>550.01</ele>
        <time>2012-06-16T09:18:22Z</time>
      </trkpt>
      <trkpt lat="48.02216" lon="6.78706">
        <ele>550.01</ele>
        <time>2012-06-16T09:18:23Z</time>
      </trkpt>
      <trkpt lat="48.0221" lon="6.78708">
        <ele>550.01</ele>
        <time>2012-06-16T09:18:24Z</time>
      </trkpt>
      <trkpt lat="48.02206" lon="6.78709">
        <ele>550.01</ele>
        <time>2012-06-16T09:18:25Z</time>
      </trkpt>
      <trkpt lat="48.02202" lon="6.78709">
        <ele>550.01</ele>
        <time>2012-06-16T09:18:26Z</time>
      </trkpt>
      <trkpt lat="48.02193" lon="6.78709">
        <ele>550.49</ele>
        <time>2012-06-16T09:18:35Z</time>
      </trkpt>
      <trkpt lat="48.02195" lon="6.78707">
        <ele>552.9</ele>
        <time>2012-06-16T09:18:54Z</time>
      </trkpt>
      <trkpt lat="48.02195" lon="6.78706">
        <ele>555.3</ele>
        <time>2012-06-16T09:19:17Z</time>
      </trkpt>
      <trkpt lat="48.02195" lon="6.78705">
        <ele>557.7</ele>
        <time>2012-06-16T09:19:42Z</time>
      </trkpt>
      <trkpt lat="48.02195" lon="6.78706">
        <ele>556.74</ele>
        <time>2012-06-16T09:20:07Z</time>
      </trkpt>
      <trkpt lat="48.02194" lon="6.78707">
        <ele>557.7</ele>
        <time>2012-06-16T09:20:22Z</time>
      </trkpt>
      <trkpt lat="48.02193" lon="6.78708">
        <ele>558.18</ele>
        <time>2012-06-16T09:20:23Z</time>
      </trkpt>
      <trkpt lat="48.02193" lon="6.78711">
        <ele>558.66</ele>
        <time>2012-06-16T09:20:24Z</time>
      </trkpt>
      <trkpt lat="48.02194" lon="6.78717">
        <ele>560.11</ele>
        <time>2012-06-16T09:20:26Z</time>
      </trkpt>
      <trkpt lat="48.02193" lon="6.7872">
        <ele>560.59</ele>
        <time>2012-06-16T09:20:27Z</time>
      </trkpt>
      <trkpt lat="48.02191" lon="6.78724">
        <ele>561.07</ele>
        <time>2012-06-16T09:20:28Z</time>
      </trkpt>
      <trkpt lat="48.0219" lon="6.78729">
        <ele>562.03</ele>
        <time>2012-06-16T09:20:29Z</time>
      </trkpt>
      <trkpt lat="48.02189" lon="6.78733">
        <ele>562.51</ele>
        <time>2012-06-16T09:20:30Z</time>
      </trkpt>
      <trkpt lat="48.02187" lon="6.78738">
        <ele>562.99</ele>
        <time>2012-06-16T09:20:31Z</time>
      </trkpt>
      <trkpt lat="48.02185" lon="6.78742">
        <ele>563.47</ele>
        <time>2012-06-16T09:20:32Z</time>
      </trkpt>
      <trkpt lat="48.02183" lon="6.78745">
        <ele>563.95</ele>
        <time>2012-06-16T09:20:33Z</time>
      </trkpt>
      <trkpt lat="48.0218" lon="6.78748">
        <ele>564.43</ele>
        <time>2012-06-16T09:20:34Z</time>
      </trkpt>
      <trkpt lat="48.02177" lon="6.78748">
        <ele>564.91</ele>
        <time>2012-06-16T09:20:35Z</time>
      </trkpt>
      <trkpt lat="48.02175" lon="6.78749">
        <ele>565.39</ele>
        <time>2012-06-16T09:20:36Z</time>
      </trkpt>
      <trkpt lat="48.02172" lon="6.78749">
        <ele>565.39</ele>
        <time>2012-06-16T09:20:37Z</time>
      </trkpt>
      <trkpt lat="48.02153" lon="6.78732">
        <ele>566.35</ele>
        <time>2012-06-16T09:20:46Z</time>
      </trkpt>
      <trkpt lat="48.02142" lon="6.78656">
        <ele>562.03</ele>
        <time>2012-06-16T09:21:00Z</time>
      </trkpt>
      <trkpt lat="48.02138" lon="6.78621">
        <ele>559.14</ele>
        <time>2012-06-16T09:21:06Z</time>
      </trkpt>
      <trkpt lat="48.02136" lon="6.78615">
        <ele>558.66</ele>
        <time>2012-06-16T09:21:07Z</time>
      </trkpt>
      <trkpt lat="48.02134" lon="6.78611">
        <ele>558.18</ele>
        <time>2012-06-16T09:21:08Z</time>
      </trkpt>
      <trkpt lat="48.02131" lon="6.78607">
        <ele>557.7</ele>
        <time>2012-06-16T09:21:09Z</time>
      </trkpt>
      <trkpt lat="48.02127" lon="6.78605">
        <ele>557.22</ele>
        <time>2012-06-16T09:21:10Z</time>
      </trkpt>
      <trkpt lat="48.02124" lon="6.78604">
        <ele>557.22</ele>
        <time>2012-06-16T09:21:11Z</time>
      </trkpt>
      <trkpt lat="48.02121" lon="6.78604">
        <ele>556.74</ele>
        <time>2012-06-16T09:21:12Z</time>
      </trkpt>
      <trkpt lat="48.02118" lon="6.78604">
        <ele>556.74</ele>
        <time>2012-06-16T09:21:13Z</time>
      </trkpt>
      <trkpt lat="48.02081" lon="6.78601">
        <ele>555.3</ele>
        <time>2012-06-16T09:21:29Z</time>
      </trkpt>
      <trkpt lat="48.02057" lon="6.78557">
        <ele>553.86</ele>
        <time>2012-06-16T09:21:48Z</time>
      </trkpt>
      <trkpt lat="48.02036" lon="6.78496">
        <ele>554.82</ele>
        <time>2012-06-16T09:22:09Z</time>
      </trkpt>
      <trkpt lat="48.02016" lon="6.78437">
        <ele>558.18</ele>
        <time>2012-06-16T09:22:29Z</time>
      </trkpt>
      <trkpt lat="48.0201" lon="6.7838">
        <ele>559.14</ele>
        <time>2012-06-16T09:22:42Z</time>
      </trkpt>
      <trkpt lat="48.01997" lon="6.78306">
        <ele>557.7</ele>
        <time>2012-06-16T09:22:58Z</time>
      </trkpt>
      <trkpt lat="48.01986" lon="6.78252">
        <ele>557.7</ele>
        <time>2012-06-16T09:23:09Z</time>
      </trkpt>
      <trkpt lat="48.01966" lon="6.78177">
        <ele>558.18</ele>
        <time>2012-06-16T09:23:26Z</time>
      </trkpt>
      <trkpt lat="48.01941" lon="6.78098">
        <ele>559.62</ele>
        <time>2012-06-16T09:23:43Z</time>
      </trkpt>
      <trkpt lat="48.01927" lon="6.78063">
        <ele>560.59</ele>
        <time>2012-06-16T09:23:51Z</time>
      </trkpt>
      <trkpt lat="48.01924" lon="6.78058">
        <ele>560.59</ele>
        <time>2012-06-16T09:23:52Z</time>
      </trkpt>
      <trkpt lat="48.0192" lon="6.78054">
        <ele>560.11</ele>
        <time>2012-06-16T09:23:53Z</time>
      </trkpt>
      <trkpt lat="48.01908" lon="6.78039">
        <ele>560.11</ele>
        <time>2012-06-16T09:23:56Z</time>
      </trkpt>
      <trkpt lat="48.01905" lon="6.78032">
        <ele>560.11</ele>
        <time>2012-06-16T09:23:57Z</time>
      </trkpt>
      <trkpt lat="48.01902" lon="6.78025">
        <ele>560.11</ele>
        <time>2012-06-16T09:23:58Z</time>
      </trkpt>
      <trkpt lat="48.019" lon="6.78018">
        <ele>560.11</ele>
        <time>2012-06-16T09:23:59Z</time>
      </trkpt>
      <trkpt lat="48.01899" lon="6.7801">
        <ele>560.11</ele>
        <time>2012-06-16T09:24:00Z</time>
      </trkpt>
      <trkpt lat="48.01898" lon="6.78003">
        <ele>560.11</ele>
        <time>2012-06-16T09:24:01Z</time>
      </trkpt>
      <trkpt lat="48.01897" lon="6.77997">
        <ele>560.11</ele>
        <time>2012-06-16T09:24:02Z</time>
      </trkpt>
      <trkpt lat="48.01898" lon="6.77991">
        <ele>560.11</ele>
        <time>2012-06-16T09:24:03Z</time>
      </trkpt>
      <trkpt lat="48.01898" lon="6.77986">
        <ele>560.11</ele>
        <time>2012-06-16T09:24:04Z</time>
      </trkpt>
      <trkpt lat="48.01899" lon="6.77982">
        <ele>560.11</ele>
        <time>2012-06-16T09:24:05Z</time>
      </trkpt>
      <trkpt lat="48.019" lon="6.77979">
        <ele>560.11</ele>
        <time>2012-06-16T09:24:06Z</time>
      </trkpt>
      <trkpt lat="48.01901" lon="6.77975">
        <ele>560.11</ele>
        <time>2012-06-16T09:24:07Z</time>
      </trkpt>
      <trkpt lat="48.01902" lon="6.77972">
        <ele>560.11</ele>
        <time>2012-06-16T09:24:08Z</time>
      </trkpt>
      <trkpt lat="48.01894" lon="6.7793">
        <ele>559.62</ele>
        <time>2012-06-16T09:24:17Z</time>
      </trkpt>
      <trkpt lat="48.01893" lon="6.77924">
        <ele>559.62</ele>
        <time>2012-06-16T09:24:18Z</time>
      </trkpt>
      <trkpt lat="48.01893" lon="6.77918">
        <ele>559.62</ele>
        <time>2012-06-16T09:24:19Z</time>
      </trkpt>
      <trkpt lat="48.01893" lon="6.77912">
        <ele>559.62</ele>
        <time>2012-06-16T09:24:20Z</time>
      </trkpt>
      <trkpt lat="48.01893" lon="6.77906">
        <ele>560.11</ele>
        <time>2012-06-16T09:24:21Z</time>
      </trkpt>
      <trkpt lat="48.01894" lon="6.779">
        <ele>560.11</ele>
        <time>2012-06-16T09:24:22Z</time>
      </trkpt>
      <trkpt lat="48.01887" lon="6.77856">
        <ele>559.62</ele>
        <time>2012-06-16T09:24:32Z</time>
      </trkpt>
      <trkpt lat="48.01854" lon="6.77812">
        <ele>559.14</ele>
        <time>2012-06-16T09:24:45Z</time>
      </trkpt>
      <trkpt lat="48.01851" lon="6.77782">
        <ele>560.59</ele>
        <time>2012-06-16T09:24:51Z</time>
      </trkpt>
      <trkpt lat="48.01852" lon="6.77774">
        <ele>560.59</ele>
        <time>2012-06-16T09:24:52Z</time>
      </trkpt>
      <trkpt lat="48.01858" lon="6.7772">
        <ele>560.59</ele>
        <time>2012-06-16T09:24:57Z</time>
      </trkpt>
      <trkpt lat="48.01855" lon="6.77643">
        <ele>560.59</ele>
        <time>2012-06-16T09:25:04Z</time>
      </trkpt>
      <trkpt lat="48.01851" lon="6.77634">
        <ele>560.59</ele>
        <time>2012-06-16T09:25:05Z</time>
      </trkpt>
      <trkpt lat="48.01847" lon="6.77626">
        <ele>561.07</ele>
        <time>2012-06-16T09:25:06Z</time>
      </trkpt>
      <trkpt lat="48.01845" lon="6.77619">
        <ele>561.07</ele>
        <time>2012-06-16T09:25:07Z</time>
      </trkpt>
      <trkpt lat="48.0184" lon="6.77612">
        <ele>561.55</ele>
        <time>2012-06-16T09:25:08Z</time>
      </trkpt>
      <trkpt lat="48.01832" lon="6.77605">
        <ele>561.55</ele>
        <time>2012-06-16T09:25:09Z</time>
      </trkpt>
      <trkpt lat="48.01828" lon="6.77598">
        <ele>561.55</ele>
        <time>2012-06-16T09:25:10Z</time>
      </trkpt>
      <trkpt lat="48.01811" lon="6.77573">
        <ele>561.55</ele>
        <time>2012-06-16T09:25:13Z</time>
      </trkpt>
      <trkpt lat="48.01779" lon="6.77493">
        <ele>564.43</ele>
        <time>2012-06-16T09:25:25Z</time>
      </trkpt>
      <trkpt lat="48.01744" lon="6.77414">
        <ele>562.99</ele>
        <time>2012-06-16T09:25:40Z</time>
      </trkpt>
      <trkpt lat="48.01718" lon="6.77376">
        <ele>562.03</ele>
        <time>2012-06-16T09:25:51Z</time>
      </trkpt>
      <trkpt lat="48.01711" lon="6.77365">
        <ele>561.55</ele>
        <time>2012-06-16T09:25:54Z</time>
      </trkpt>
      <trkpt lat="48.01701" lon="6.7735">
        <ele>561.07</ele>
        <time>2012-06-16T09:25:57Z</time>
      </trkpt>
      <trkpt lat="48.01698" lon="6.77343">
        <ele>560.59</ele>
        <time>2012-06-16T09:25:58Z</time>
      </trkpt>
      <trkpt lat="48.01696" lon="6.77336">
        <ele>560.59</ele>
        <time>2012-06-16T09:25:59Z</time>
      </trkpt>
      <trkpt lat="48.01694" lon="6.7733">
        <ele>560.59</ele>
        <time>2012-06-16T09:26:00Z</time>
      </trkpt>
      <trkpt lat="48.01692" lon="6.77324">
        <ele>560.11</ele>
        <time>2012-06-16T09:26:01Z</time>
      </trkpt>
      <trkpt lat="48.0169" lon="6.77319">
        <ele>560.11</ele>
        <time>2012-06-16T09:26:02Z</time>
      </trkpt>
      <trkpt lat="48.01688" lon="6.77314">
        <ele>560.11</ele>
        <time>2012-06-16T09:26:03Z</time>
      </trkpt>
      <trkpt lat="48.01684" lon="6.77308">
        <ele>559.62</ele>
        <time>2012-06-16T09:26:04Z</time>
      </trkpt>
      <trkpt lat="48.0168" lon="6.77304">
        <ele>559.62</ele>
        <time>2012-06-16T09:26:05Z</time>
      </trkpt>
      <trkpt lat="48.01675" lon="6.773">
        <ele>559.14</ele>
        <time>2012-06-16T09:26:06Z</time>
      </trkpt>
      <trkpt lat="48.0167" lon="6.77296">
        <ele>559.14</ele>
        <time>2012-06-16T09:26:07Z</time>
      </trkpt>
      <trkpt lat="48.01659" lon="6.77287">
        <ele>558.18</ele>
        <time>2012-06-16T09:26:09Z</time>
      </trkpt>
      <trkpt lat="48.01655" lon="6.77281">
        <ele>558.18</ele>
        <time>2012-06-16T09:26:10Z</time>
      </trkpt>
      <trkpt lat="48.01652" lon="6.77272">
        <ele>557.7</ele>
        <time>2012-06-16T09:26:11Z</time>
      </trkpt>
      <trkpt lat="48.0165" lon="6.77262">
        <ele>557.7</ele>
        <time>2012-06-16T09:26:12Z</time>
      </trkpt>
      <trkpt lat="48.01649" lon="6.77253">
        <ele>557.22</ele>
        <time>2012-06-16T09:26:13Z</time>
      </trkpt>
      <trkpt lat="48.01649" lon="6.77246">
        <ele>557.22</ele>
        <time>2012-06-16T09:26:14Z</time>
      </trkpt>
      <trkpt lat="48.0165" lon="6.77239">
        <ele>556.74</ele>
        <time>2012-06-16T09:26:15Z</time>
      </trkpt>
      <trkpt lat="48.01651" lon="6.77233">
        <ele>556.26</ele>
        <time>2012-06-16T09:26:16Z</time>
      </trkpt>
      <trkpt lat="48.01651" lon="6.77227">
        <ele>555.78</ele>
        <time>2012-06-16T09:26:17Z</time>
      </trkpt>
      <trkpt lat="48.01654" lon="6.77176">
        <ele>551.93</ele>
        <time>2012-06-16T09:26:28Z</time>
      </trkpt>
      <trkpt lat="48.01636" lon="6.77147">
        <ele>554.34</ele>
        <time>2012-06-16T09:26:41Z</time>
      </trkpt>
      <trkpt lat="48.01609" lon="6.77103">
        <ele>556.26</ele>
        <time>2012-06-16T09:26:54Z</time>
      </trkpt>
      <trkpt lat="48.01609" lon="6.77045">
        <ele>559.62</ele>
        <time>2012-06-16T09:27:06Z</time>
      </trkpt>
      <trkpt lat="48.01589" lon="6.77016">
        <ele>561.55</ele>
        <time>2012-06-16T09:27:17Z</time>
      </trkpt>
      <trkpt lat="48.01547" lon="6.76993">
        <ele>563.95</ele>
        <time>2012-06-16T09:27:32Z</time>
      </trkpt>
      <trkpt lat="48.01508" lon="6.76979">
        <ele>565.87</ele>
        <time>2012-06-16T09:27:46Z</time>
      </trkpt>
      <trkpt lat="48.01478" lon="6.76957">
        <ele>566.35</ele>
        <time>2012-06-16T09:27:57Z</time>
      </trkpt>
      <trkpt lat="48.01449" lon="6.76909">
        <ele>565.39</ele>
        <time>2012-06-16T09:28:10Z</time>
      </trkpt>
      <trkpt lat="48.01437" lon="6.76867">
        <ele>566.35</ele>
        <time>2012-06-16T09:28:22Z</time>
      </trkpt>
      <trkpt lat="48.01436" lon="6.76831">
        <ele>566.83</ele>
        <time>2012-06-16T09:28:33Z</time>
      </trkpt>
      <trkpt lat="48.01431" lon="6.76791">
        <ele>567.8</ele>
        <time>2012-06-16T09:28:47Z</time>
      </trkpt>
      <trkpt lat="48.01429" lon="6.76776">
        <ele>570.68</ele>
        <time>2012-06-16T09:29:00Z</time>
      </trkpt>
      <trkpt lat="48.01428" lon="6.76775">
        <ele>570.68</ele>
        <time>2012-06-16T09:29:04Z</time>
      </trkpt>
      <trkpt lat="48.01428" lon="6.76773">
        <ele>570.68</ele>
        <time>2012-06-16T09:29:05Z</time>
      </trkpt>
      <trkpt lat="48.01428" lon="6.76769">
        <ele>570.68</ele>
        <time>2012-06-16T09:29:06Z</time>
      </trkpt>
      <trkpt lat="48.01424" lon="6.76756">
        <ele>570.68</ele>
        <time>2012-06-16T09:29:08Z</time>
      </trkpt>
      <trkpt lat="48.01416" lon="6.76734">
        <ele>570.68</ele>
        <time>2012-06-16T09:29:11Z</time>
      </trkpt>
      <trkpt lat="48.01414" lon="6.76729">
        <ele>570.68</ele>
        <time>2012-06-16T09:29:12Z</time>
      </trkpt>
      <trkpt lat="48.01395" lon="6.767">
        <ele>571.16</ele>
        <time>2012-06-16T09:29:23Z</time>
      </trkpt>
      <trkpt lat="48.01357" lon="6.76666">
        <ele>571.16</ele>
        <time>2012-06-16T09:29:31Z</time>
      </trkpt>
      <trkpt lat="48.01354" lon="6.76659">
        <ele>571.16</ele>
        <time>2012-06-16T09:29:32Z</time>
      </trkpt>
      <trkpt lat="48.01351" lon="6.76652">
        <ele>571.64</ele>
        <time>2012-06-16T09:29:33Z</time>
      </trkpt>
      <trkpt lat="48.01349" lon="6.76643">
        <ele>571.64</ele>
        <time>2012-06-16T09:29:34Z</time>
      </trkpt>
      <trkpt lat="48.01347" lon="6.76633">
        <ele>571.64</ele>
        <time>2012-06-16T09:29:35Z</time>
      </trkpt>
      <trkpt lat="48.01343" lon="6.76625">
        <ele>571.64</ele>
        <time>2012-06-16T09:29:36Z</time>
      </trkpt>
      <trkpt lat="48.0134" lon="6.76615">
        <ele>571.64</ele>
        <time>2012-06-16T09:29:37Z</time>
      </trkpt>
      <trkpt lat="48.01317" lon="6.76583">
        <ele>571.16</ele>
        <time>2012-06-16T09:29:41Z</time>
      </trkpt>
      <trkpt lat="48.01285" lon="6.76529">
        <ele>571.16</ele>
        <time>2012-06-16T09:29:47Z</time>
      </trkpt>
      <trkpt lat="48.01276" lon="6.76499">
        <ele>571.16</ele>
        <time>2012-06-16T09:29:50Z</time>
      </trkpt>
      <trkpt lat="48.01265" lon="6.76444">
        <ele>571.64</ele>
        <time>2012-06-16T09:29:59Z</time>
      </trkpt>
      <trkpt lat="48.01262" lon="6.76404">
        <ele>571.64</ele>
        <time>2012-06-16T09:30:06Z</time>
      </trkpt>
      <trkpt lat="48.01263" lon="6.76398">
        <ele>571.64</ele>
        <time>2012-06-16T09:30:07Z</time>
      </trkpt>
      <trkpt lat="48.01266" lon="6.76389">
        <ele>571.16</ele>
        <time>2012-06-16T09:30:09Z</time>
      </trkpt>
      <trkpt lat="48.01289" lon="6.76401">
        <ele>569.72</ele>
        <time>2012-06-16T09:30:17Z</time>
      </trkpt>
      <trkpt lat="48.01286" lon="6.76415">
        <ele>569.24</ele>
        <time>2012-06-16T09:30:21Z</time>
      </trkpt>
      <trkpt lat="48.01284" lon="6.76421">
        <ele>569.24</ele>
        <time>2012-06-16T09:30:22Z</time>
      </trkpt>
      <trkpt lat="48.01284" lon="6.76428">
        <ele>569.24</ele>
        <time>2012-06-16T09:30:23Z</time>
      </trkpt>
      <trkpt lat="48.01285" lon="6.76435">
        <ele>569.24</ele>
        <time>2012-06-16T09:30:24Z</time>
      </trkpt>
      <trkpt lat="48.01286" lon="6.76442">
        <ele>569.24</ele>
        <time>2012-06-16T09:30:25Z</time>
      </trkpt>
      <trkpt lat="48.01291" lon="6.76479">
        <ele>568.76</ele>
        <time>2012-06-16T09:30:35Z</time>
      </trkpt>
      <trkpt lat="48.01299" lon="6.76485">
        <ele>568.28</ele>
        <time>2012-06-16T09:30:38Z</time>
      </trkpt>
      <trkpt lat="48.01302" lon="6.76486">
        <ele>568.28</ele>
        <time>2012-06-16T09:30:39Z</time>
      </trkpt>
      <trkpt lat="48.01305" lon="6.76485">
        <ele>568.28</ele>
        <time>2012-06-16T09:30:40Z</time>
      </trkpt>
      <trkpt lat="48.01308" lon="6.76483">
        <ele>568.28</ele>
        <time>2012-06-16T09:30:41Z</time>
      </trkpt>
      <trkpt lat="48.01312" lon="6.7648">
        <ele>568.28</ele>
        <time>2012-06-16T09:30:42Z</time>
      </trkpt>
      <trkpt lat="48.01335" lon="6.76474">
        <ele>567.8</ele>
        <time>2012-06-16T09:30:48Z</time>
      </trkpt>
      <trkpt lat="48.01338" lon="6.76478">
        <ele>567.8</ele>
        <time>2012-06-16T09:30:49Z</time>
      </trkpt>
      <trkpt lat="48.01342" lon="6.76485">
        <ele>567.8</ele>
        <time>2012-06-16T09:30:50Z</time>
      </trkpt>
      <trkpt lat="48.01353" lon="6.76497">
        <ele>567.8</ele>
        <time>2012-06-16T09:30:53Z</time>
      </trkpt>
      <trkpt lat="48.01357" lon="6.76494">
        <ele>567.32</ele>
        <time>2012-06-16T09:30:54Z</time>
      </trkpt>
      <trkpt lat="48.0136" lon="6.76491">
        <ele>567.32</ele>
        <time>2012-06-16T09:30:55Z</time>
      </trkpt>
      <trkpt lat="48.01363" lon="6.76488">
        <ele>566.83</ele>
        <time>2012-06-16T09:30:56Z</time>
      </trkpt>
      <trkpt lat="48.01365" lon="6.76485">
        <ele>566.35</ele>
        <time>2012-06-16T09:30:57Z</time>
      </trkpt>
      <trkpt lat="48.01365" lon="6.7648">
        <ele>565.87</ele>
        <time>2012-06-16T09:30:58Z</time>
      </trkpt>
      <trkpt lat="48.01368" lon="6.76477">
        <ele>563.47</ele>
        <time>2012-06-16T09:31:02Z</time>
      </trkpt>
      <trkpt lat="48.01369" lon="6.76483">
        <ele>562.51</ele>
        <time>2012-06-16T09:31:03Z</time>
      </trkpt>
      <trkpt lat="48.01375" lon="6.765">
        <ele>552.9</ele>
        <time>2012-06-16T09:31:12Z</time>
      </trkpt>
      <trkpt lat="48.01373" lon="6.76504">
        <ele>542.32</ele>
        <time>2012-06-16T09:31:36Z</time>
      </trkpt>
      <trkpt lat="48.01372" lon="6.76505">
        <ele>538.96</ele>
        <time>2012-06-16T09:31:56Z</time>
      </trkpt>
      <trkpt lat="48.01372" lon="6.76505">
        <ele>537.51</ele>
        <time>2012-06-16T09:32:19Z</time>
      </trkpt>
      <trkpt lat="48.01372" lon="6.76506">
        <ele>536.55</ele>
        <time>2012-06-16T09:32:35Z</time>
      </trkpt>
      <trkpt lat="48.01373" lon="6.76509">
        <ele>535.59</ele>
        <time>2012-06-16T09:32:48Z</time>
      </trkpt>
      <trkpt lat="48.01383" lon="6.76521">
        <ele>534.63</ele>
        <time>2012-06-16T09:32:56Z</time>
      </trkpt>
      <trkpt lat="48.01397" lon="6.76529">
        <ele>534.15</ele>
        <time>2012-06-16T09:32:59Z</time>
      </trkpt>
      <trkpt lat="48.01401" lon="6.76532">
        <ele>533.67</ele>
        <time>2012-06-16T09:33:00Z</time>
      </trkpt>
      <trkpt lat="48.01404" lon="6.76535">
        <ele>533.67</ele>
        <time>2012-06-16T09:33:01Z</time>
      </trkpt>
      <trkpt lat="48.01448" lon="6.76586">
        <ele>531.75</ele>
        <time>2012-06-16T09:33:14Z</time>
      </trkpt>
      <trkpt lat="48.01456" lon="6.76588">
        <ele>531.27</ele>
        <time>2012-06-16T09:33:15Z</time>
      </trkpt>
      <trkpt lat="48.01506" lon="6.76607">
        <ele>529.82</ele>
        <time>2012-06-16T09:33:21Z</time>
      </trkpt>
      <trkpt lat="48.01513" lon="6.76613">
        <ele>529.34</ele>
        <time>2012-06-16T09:33:22Z</time>
      </trkpt>
      <trkpt lat="48.0152" lon="6.7662">
        <ele>528.86</ele>
        <time>2012-06-16T09:33:23Z</time>
      </trkpt>
      <trkpt lat="48.01562" lon="6.7667">
        <ele>525.98</ele>
        <time>2012-06-16T09:33:29Z</time>
      </trkpt>
      <trkpt lat="48.01635" lon="6.76811">
        <ele>519.25</ele>
        <time>2012-06-16T09:33:42Z</time>
      </trkpt>
      <trkpt lat="48.01639" lon="6.76819">
        <ele>519.25</ele>
        <time>2012-06-16T09:33:43Z</time>
      </trkpt>
      <trkpt lat="48.01643" lon="6.76824">
        <ele>518.77</ele>
        <time>2012-06-16T09:33:44Z</time>
      </trkpt>
      <trkpt lat="48.01651" lon="6.76834">
        <ele>517.81</ele>
        <time>2012-06-16T09:33:46Z</time>
      </trkpt>
      <trkpt lat="48.0166" lon="6.7685">
        <ele>516.37</ele>
        <time>2012-06-16T09:33:49Z</time>
      </trkpt>
      <trkpt lat="48.01662" lon="6.76856">
        <ele>515.88</ele>
        <time>2012-06-16T09:33:50Z</time>
      </trkpt>
      <trkpt lat="48.01688" lon="6.76926">
        <ele>512.52</ele>
        <time>2012-06-16T09:34:02Z</time>
      </trkpt>
      <trkpt lat="48.01689" lon="6.76932">
        <ele>512.04</ele>
        <time>2012-06-16T09:34:03Z</time>
      </trkpt>
      <trkpt lat="48.01691" lon="6.76938">
        <ele>511.56</ele>
        <time>2012-06-16T09:34:04Z</time>
      </trkpt>
      <trkpt lat="48.01693" lon="6.76943">
        <ele>511.08</ele>
        <time>2012-06-16T09:34:05Z</time>
      </trkpt>
      <trkpt lat="48.01696" lon="6.76946">
        <ele>510.6</ele>
        <time>2012-06-16T09:34:06Z</time>
      </trkpt>
      <trkpt lat="48.01699" lon="6.76947">
        <ele>510.12</ele>
        <time>2012-06-16T09:34:07Z</time>
      </trkpt>
      <trkpt lat="48.01703" lon="6.76947">
        <ele>510.12</ele>
        <time>2012-06-16T09:34:08Z</time>
      </trkpt>
      <trkpt lat="48.01707" lon="6.76947">
        <ele>510.12</ele>
        <time>2012-06-16T09:34:09Z</time>
      </trkpt>
      <trkpt lat="48.01711" lon="6.76948">
        <ele>510.12</ele>
        <time>2012-06-16T09:34:10Z</time>
      </trkpt>
      <trkpt lat="48.01715" lon="6.76951">
        <ele>510.12</ele>
        <time>2012-06-16T09:34:11Z</time>
      </trkpt>
      <trkpt lat="48.01718" lon="6.76957">
        <ele>510.12</ele>
        <time>2012-06-16T09:34:12Z</time>
      </trkpt>
      <trkpt lat="48.01721" lon="6.76962">
        <ele>510.12</ele>
        <time>2012-06-16T09:34:13Z</time>
      </trkpt>
      <trkpt lat="48.01725" lon="6.76967">
        <ele>510.12</ele>
        <time>2012-06-16T09:34:14Z</time>
      </trkpt>
      <trkpt lat="48.01728" lon="6.76971">
        <ele>509.64</ele>
        <time>2012-06-16T09:34:15Z</time>
      </trkpt>
      <trkpt lat="48.01764" lon="6.7701">
        <ele>510.6</ele>
        <time>2012-06-16T09:34:27Z</time>
      </trkpt>
      <trkpt lat="48.01778" lon="6.77032">
        <ele>513</ele>
        <time>2012-06-16T09:34:32Z</time>
      </trkpt>
      <trkpt lat="48.01826" lon="6.77061">
        <ele>516.37</ele>
        <time>2012-06-16T09:34:44Z</time>
      </trkpt>
      <trkpt lat="48.01867" lon="6.77056">
        <ele>521.65</ele>
        <time>2012-06-16T09:34:55Z</time>
      </trkpt>
      <trkpt lat="48.01879" lon="6.77017">
        <ele>526.46</ele>
        <time>2012-06-16T09:35:08Z</time>
      </trkpt>
      <trkpt lat="48.01873" lon="6.76981">
        <ele>524.06</ele>
        <time>2012-06-16T09:35:19Z</time>
      </trkpt>
      <trkpt lat="48.01859" lon="6.76951">
        <ele>523.09</ele>
        <time>2012-06-16T09:35:25Z</time>
      </trkpt>
      <trkpt lat="48.01858" lon="6.76945">
        <ele>522.61</ele>
        <time>2012-06-16T09:35:26Z</time>
      </trkpt>
      <trkpt lat="48.01858" lon="6.76939">
        <ele>522.61</ele>
        <time>2012-06-16T09:35:27Z</time>
      </trkpt>
      <trkpt lat="48.01855" lon="6.76903">
        <ele>522.13</ele>
        <time>2012-06-16T09:35:37Z</time>
      </trkpt>
      <trkpt lat="48.01854" lon="6.769">
        <ele>522.13</ele>
        <time>2012-06-16T09:35:38Z</time>
      </trkpt>
      <trkpt lat="48.01853" lon="6.76897">
        <ele>521.65</ele>
        <time>2012-06-16T09:35:39Z</time>
      </trkpt>
      <trkpt lat="48.01831" lon="6.76845">
        <ele>520.21</ele>
        <time>2012-06-16T09:35:53Z</time>
      </trkpt>
      <trkpt lat="48.01823" lon="6.76816">
        <ele>519.73</ele>
        <time>2012-06-16T09:36:01Z</time>
      </trkpt>
      <trkpt lat="48.01823" lon="6.76813">
        <ele>519.73</ele>
        <time>2012-06-16T09:36:02Z</time>
      </trkpt>
      <trkpt lat="48.0182" lon="6.76789">
        <ele>519.73</ele>
        <time>2012-06-16T09:36:15Z</time>
      </trkpt>
      <trkpt lat="48.01817" lon="6.76767">
        <ele>520.69</ele>
        <time>2012-06-16T09:36:25Z</time>
      </trkpt>
      <trkpt lat="48.01813" lon="6.76756">
        <ele>522.61</ele>
        <time>2012-06-16T09:36:28Z</time>
      </trkpt>
      <trkpt lat="48.0181" lon="6.76741">
        <ele>523.58</ele>
        <time>2012-06-16T09:36:41Z</time>
      </trkpt>
      <trkpt lat="48.01803" lon="6.76724">
        <ele>526.94</ele>
        <time>2012-06-16T09:36:53Z</time>
      </trkpt>
      <trkpt lat="48.01802" lon="6.76666">
        <ele>529.34</ele>
        <time>2012-06-16T09:37:05Z</time>
      </trkpt>
      <trkpt lat="48.0182" lon="6.76634">
        <ele>534.63</ele>
        <time>2012-06-16T09:37:17Z</time>
      </trkpt>
      <trkpt lat="48.01838" lon="6.76595">
        <ele>535.59</ele>
        <time>2012-06-16T09:37:28Z</time>
      </trkpt>
      <trkpt lat="48.01837" lon="6.76576">
        <ele>535.59</ele>
        <time>2012-06-16T09:37:38Z</time>
      </trkpt>
      <trkpt lat="48.01842" lon="6.7658">
        <ele>534.15</ele>
        <time>2012-06-16T09:37:45Z</time>
      </trkpt>
      <trkpt lat="48.01849" lon="6.76581">
        <ele>533.67</ele>
        <time>2012-06-16T09:37:57Z</time>
      </trkpt>
      <trkpt lat="48.01853" lon="6.76581">
        <ele>533.19</ele>
        <time>2012-06-16T09:38:01Z</time>
      </trkpt>
      <trkpt lat="48.01851" lon="6.76578">
        <ele>534.15</ele>
        <time>2012-06-16T09:38:04Z</time>
      </trkpt>
      <trkpt lat="48.01843" lon="6.76575">
        <ele>535.11</ele>
        <time>2012-06-16T09:38:10Z</time>
      </trkpt>
      <trkpt lat="48.01843" lon="6.76572">
        <ele>536.55</ele>
        <time>2012-06-16T09:38:13Z</time>
      </trkpt>
      <trkpt lat="48.0184" lon="6.76561">
        <ele>537.99</ele>
        <time>2012-06-16T09:38:19Z</time>
      </trkpt>
      <trkpt lat="48.01841" lon="6.76546">
        <ele>541.84</ele>
        <time>2012-06-16T09:38:26Z</time>
      </trkpt>
      <trkpt lat="48.01838" lon="6.76532">
        <ele>542.32</ele>
        <time>2012-06-16T09:38:30Z</time>
      </trkpt>
      <trkpt lat="48.01835" lon="6.76505">
        <ele>543.76</ele>
        <time>2012-06-16T09:38:40Z</time>
      </trkpt>
      <trkpt lat="48.01837" lon="6.76504">
        <ele>547.13</ele>
        <time>2012-06-16T09:39:03Z</time>
      </trkpt>
      <trkpt lat="48.01837" lon="6.76484">
        <ele>546.65</ele>
        <time>2012-06-16T09:39:20Z</time>
      </trkpt>
      <trkpt lat="48.01835" lon="6.76466">
        <ele>546.65</ele>
        <time>2012-06-16T09:39:27Z</time>
      </trkpt>
      <trkpt lat="48.01847" lon="6.76452">
        <ele>547.61</ele>
        <time>2012-06-16T09:39:36Z</time>
      </trkpt>
      <trkpt lat="48.01845" lon="6.76443">
        <ele>548.09</ele>
        <time>2012-06-16T09:39:41Z</time>
      </trkpt>
      <trkpt lat="48.01841" lon="6.76441">
        <ele>548.57</ele>
        <time>2012-06-16T09:39:44Z</time>
      </trkpt>
      <trkpt lat="48.01806" lon="6.76432">
        <ele>550.49</ele>
        <time>2012-06-16T09:39:57Z</time>
      </trkpt>
      <trkpt lat="48.01777" lon="6.76409">
        <ele>550.01</ele>
        <time>2012-06-16T09:40:08Z</time>
      </trkpt>
      <trkpt lat="48.01756" lon="6.76377">
        <ele>546.17</ele>
        <time>2012-06-16T09:40:17Z</time>
      </trkpt>
      <trkpt lat="48.01753" lon="6.76373">
        <ele>545.69</ele>
        <time>2012-06-16T09:40:18Z</time>
      </trkpt>
      <trkpt lat="48.0175" lon="6.76369">
        <ele>544.72</ele>
        <time>2012-06-16T09:40:19Z</time>
      </trkpt>
      <trkpt lat="48.01743" lon="6.7636">
        <ele>543.76</ele>
        <time>2012-06-16T09:40:21Z</time>
      </trkpt>
      <trkpt lat="48.01723" lon="6.76331">
        <ele>542.32</ele>
        <time>2012-06-16T09:40:30Z</time>
      </trkpt>
      <trkpt lat="48.01727" lon="6.76291">
        <ele>541.36</ele>
        <time>2012-06-16T09:40:44Z</time>
      </trkpt>
      <trkpt lat="48.01728" lon="6.76258">
        <ele>544.24</ele>
        <time>2012-06-16T09:40:56Z</time>
      </trkpt>
      <trkpt lat="48.01727" lon="6.76254">
        <ele>544.24</ele>
        <time>2012-06-16T09:40:57Z</time>
      </trkpt>
      <trkpt lat="48.01713" lon="6.76199">
        <ele>545.69</ele>
        <time>2012-06-16T09:41:09Z</time>
      </trkpt>
      <trkpt lat="48.01686" lon="6.7617">
        <ele>544.72</ele>
        <time>2012-06-16T09:41:20Z</time>
      </trkpt>
      <trkpt lat="48.0168" lon="6.76162">
        <ele>544.72</ele>
        <time>2012-06-16T09:41:24Z</time>
      </trkpt>
      <trkpt lat="48.01701" lon="6.76123">
        <ele>547.61</ele>
        <time>2012-06-16T09:41:37Z</time>
      </trkpt>
      <trkpt lat="48.01699" lon="6.7612">
        <ele>546.65</ele>
        <time>2012-06-16T09:42:00Z</time>
      </trkpt>
      <trkpt lat="48.01699" lon="6.76122">
        <ele>546.65</ele>
        <time>2012-06-16T09:42:19Z</time>
      </trkpt>
      <trkpt lat="48.017" lon="6.76123">
        <ele>545.69</ele>
        <time>2012-06-16T09:42:42Z</time>
      </trkpt>
      <trkpt lat="48.01701" lon="6.76123">
        <ele>545.2</ele>
        <time>2012-06-16T09:42:58Z</time>
      </trkpt>
      <trkpt lat="48.01707" lon="6.76127">
        <ele>544.72</ele>
        <time>2012-06-16T09:43:02Z</time>
      </trkpt>
      <trkpt lat="48.01733" lon="6.76148">
        <ele>548.09</ele>
        <time>2012-06-16T09:43:16Z</time>
      </trkpt>
      <trkpt lat="48.01736" lon="6.76153">
        <ele>548.09</ele>
        <time>2012-06-16T09:43:18Z</time>
      </trkpt>
      <trkpt lat="48.01743" lon="6.76152">
        <ele>550.49</ele>
        <time>2012-06-16T09:43:22Z</time>
      </trkpt>
      <trkpt lat="48.01756" lon="6.76144">
        <ele>554.82</ele>
        <time>2012-06-16T09:43:33Z</time>
      </trkpt>
      <trkpt lat="48.01763" lon="6.76156">
        <ele>554.82</ele>
        <time>2012-06-16T09:43:41Z</time>
      </trkpt>
      <trkpt lat="48.01767" lon="6.76177">
        <ele>554.82</ele>
        <time>2012-06-16T09:43:53Z</time>
      </trkpt>
      <trkpt lat="48.01775" lon="6.76206">
        <ele>554.82</ele>
        <time>2012-06-16T09:44:07Z</time>
      </trkpt>
      <trkpt lat="48.01777" lon="6.76219">
        <ele>556.74</ele>
        <time>2012-06-16T09:44:13Z</time>
      </trkpt>
      <trkpt lat="48.01786" lon="6.7622">
        <ele>559.14</ele>
        <time>2012-06-16T09:44:18Z</time>
      </trkpt>
      <trkpt lat="48.01793" lon="6.76239">
        <ele>560.59</ele>
        <time>2012-06-16T09:44:24Z</time>
      </trkpt>
      <trkpt lat="48.01799" lon="6.76261">
        <ele>563.95</ele>
        <time>2012-06-16T09:44:33Z</time>
      </trkpt>
      <trkpt lat="48.01821" lon="6.76297">
        <ele>562.99</ele>
        <time>2012-06-16T09:44:46Z</time>
      </trkpt>
      <trkpt lat="48.01823" lon="6.76307">
        <ele>562.99</ele>
        <time>2012-06-16T09:44:49Z</time>
      </trkpt>
      <trkpt lat="48.01841" lon="6.76323">
        <ele>562.51</ele>
        <time>2012-06-16T09:44:54Z</time>
      </trkpt>
      <trkpt lat="48.01865" lon="6.76337">
        <ele>562.51</ele>
        <time>2012-06-16T09:45:01Z</time>
      </trkpt>
      <trkpt lat="48.01869" lon="6.76367">
        <ele>561.55</ele>
        <time>2012-06-16T09:45:06Z</time>
      </trkpt>
      <trkpt lat="48.01876" lon="6.76401">
        <ele>559.62</ele>
        <time>2012-06-16T09:45:12Z</time>
      </trkpt>
      <trkpt lat="48.01903" lon="6.76401">
        <ele>559.62</ele>
        <time>2012-06-16T09:45:21Z</time>
      </trkpt>
      <trkpt lat="48.0191" lon="6.76415">
        <ele>558.66</ele>
        <time>2012-06-16T09:45:23Z</time>
      </trkpt>
      <trkpt lat="48.01923" lon="6.76451">
        <ele>556.74</ele>
        <time>2012-06-16T09:45:32Z</time>
      </trkpt>
      <trkpt lat="48.01927" lon="6.76482">
        <ele>555.3</ele>
        <time>2012-06-16T09:45:39Z</time>
      </trkpt>
      <trkpt lat="48.01921" lon="6.76494">
        <ele>554.82</ele>
        <time>2012-06-16T09:45:44Z</time>
      </trkpt>
      <trkpt lat="48.01918" lon="6.765">
        <ele>554.34</ele>
        <time>2012-06-16T09:45:46Z</time>
      </trkpt>
      <trkpt lat="48.01917" lon="6.76509">
        <ele>554.82</ele>
        <time>2012-06-16T09:45:48Z</time>
      </trkpt>
      <trkpt lat="48.01935" lon="6.76546">
        <ele>555.78</ele>
        <time>2012-06-16T09:45:54Z</time>
      </trkpt>
      <trkpt lat="48.01936" lon="6.76551">
        <ele>555.78</ele>
        <time>2012-06-16T09:45:55Z</time>
      </trkpt>
      <trkpt lat="48.01941" lon="6.76555">
        <ele>555.3</ele>
        <time>2012-06-16T09:46:03Z</time>
      </trkpt>
      <trkpt lat="48.01943" lon="6.76553">
        <ele>553.38</ele>
        <time>2012-06-16T09:46:20Z</time>
      </trkpt>
      <trkpt lat="48.01945" lon="6.76551">
        <ele>552.9</ele>
        <time>2012-06-16T09:46:21Z</time>
      </trkpt>
      <trkpt lat="48.01947" lon="6.76549">
        <ele>552.9</ele>
        <time>2012-06-16T09:46:22Z</time>
      </trkpt>
      <trkpt lat="48.01949" lon="6.76548">
        <ele>552.9</ele>
        <time>2012-06-16T09:46:23Z</time>
      </trkpt>
      <trkpt lat="48.01951" lon="6.76548">
        <ele>552.41</ele>
        <time>2012-06-16T09:46:24Z</time>
      </trkpt>
      <trkpt lat="48.01953" lon="6.76549">
        <ele>552.41</ele>
        <time>2012-06-16T09:46:25Z</time>
      </trkpt>
      <trkpt lat="48.01956" lon="6.7655">
        <ele>551.93</ele>
        <time>2012-06-16T09:46:26Z</time>
      </trkpt>
      <trkpt lat="48.01958" lon="6.76553">
        <ele>551.93</ele>
        <time>2012-06-16T09:46:27Z</time>
      </trkpt>
      <trkpt lat="48.01956" lon="6.76566">
        <ele>550.97</ele>
        <time>2012-06-16T09:46:31Z</time>
      </trkpt>
      <trkpt lat="48.01953" lon="6.76581">
        <ele>550.01</ele>
        <time>2012-06-16T09:46:35Z</time>
      </trkpt>
      <trkpt lat="48.01969" lon="6.7658">
        <ele>550.01</ele>
        <time>2012-06-16T09:46:42Z</time>
      </trkpt>
      <trkpt lat="48.01994" lon="6.76585">
        <ele>550.49</ele>
        <time>2012-06-16T09:46:56Z</time>
      </trkpt>
      <trkpt lat="48.01997" lon="6.76596">
        <ele>550.49</ele>
        <time>2012-06-16T09:47:01Z</time>
      </trkpt>
      <trkpt lat="48.02012" lon="6.76622">
        <ele>549.05</ele>
        <time>2012-06-16T09:47:15Z</time>
      </trkpt>
      <trkpt lat="48.02024" lon="6.76638">
        <ele>549.05</ele>
        <time>2012-06-16T09:47:20Z</time>
      </trkpt>
      <trkpt lat="48.02027" lon="6.7664">
        <ele>549.53</ele>
        <time>2012-06-16T09:47:22Z</time>
      </trkpt>
      <trkpt lat="48.02048" lon="6.76642">
        <ele>548.09</ele>
        <time>2012-06-16T09:47:33Z</time>
      </trkpt>
      <trkpt lat="48.02064" lon="6.76653">
        <ele>548.57</ele>
        <time>2012-06-16T09:47:45Z</time>
      </trkpt>
      <trkpt lat="48.02065" lon="6.76658">
        <ele>548.57</ele>
        <time>2012-06-16T09:47:47Z</time>
      </trkpt>
      <trkpt lat="48.02063" lon="6.76667">
        <ele>548.09</ele>
        <time>2012-06-16T09:47:54Z</time>
      </trkpt>
      <trkpt lat="48.0205" lon="6.76664">
        <ele>549.05</ele>
        <time>2012-06-16T09:48:06Z</time>
      </trkpt>
      <trkpt lat="48.02049" lon="6.76667">
        <ele>549.05</ele>
        <time>2012-06-16T09:48:08Z</time>
      </trkpt>
      <trkpt lat="48.02045" lon="6.76676">
        <ele>550.01</ele>
        <time>2012-06-16T09:48:15Z</time>
      </trkpt>
      <trkpt lat="48.02038" lon="6.7669">
        <ele>550.49</ele>
        <time>2012-06-16T09:48:23Z</time>
      </trkpt>
      <trkpt lat="48.02047" lon="6.76723">
        <ele>553.86</ele>
        <time>2012-06-16T09:48:39Z</time>
      </trkpt>
      <trkpt lat="48.02048" lon="6.76725">
        <ele>553.86</ele>
        <time>2012-06-16T09:48:40Z</time>
      </trkpt>
      <trkpt lat="48.02059" lon="6.76757">
        <ele>556.26</ele>
        <time>2012-06-16T09:48:55Z</time>
      </trkpt>
      <trkpt lat="48.02066" lon="6.76788">
        <ele>562.51</ele>
        <time>2012-06-16T09:49:12Z</time>
      </trkpt>
      <trkpt lat="48.02075" lon="6.76816">
        <ele>568.76</ele>
        <time>2012-06-16T09:49:26Z</time>
      </trkpt>
      <trkpt lat="48.02081" lon="6.76834">
        <ele>570.68</ele>
        <time>2012-06-16T09:49:34Z</time>
      </trkpt>
      <trkpt lat="48.02083" lon="6.76844">
        <ele>570.68</ele>
        <time>2012-06-16T09:49:38Z</time>
      </trkpt>
      <trkpt lat="48.02098" lon="6.76892">
        <ele>571.64</ele>
        <time>2012-06-16T09:49:55Z</time>
      </trkpt>
      <trkpt lat="48.02111" lon="6.76918">
        <ele>575.97</ele>
        <time>2012-06-16T09:50:10Z</time>
      </trkpt>
      <trkpt lat="48.02126" lon="6.76937">
        <ele>577.41</ele>
        <time>2012-06-16T09:50:21Z</time>
      </trkpt>
      <trkpt lat="48.02131" lon="6.7694">
        <ele>576.93</ele>
        <time>2012-06-16T09:50:23Z</time>
      </trkpt>
      <trkpt lat="48.02137" lon="6.76925">
        <ele>576.93</ele>
        <time>2012-06-16T09:50:27Z</time>
      </trkpt>
      <trkpt lat="48.02138" lon="6.76917">
        <ele>576.93</ele>
        <time>2012-06-16T09:50:28Z</time>
      </trkpt>
      <trkpt lat="48.02138" lon="6.76911">
        <ele>575.97</ele>
        <time>2012-06-16T09:50:29Z</time>
      </trkpt>
      <trkpt lat="48.02136" lon="6.76891">
        <ele>575.01</ele>
        <time>2012-06-16T09:50:32Z</time>
      </trkpt>
      <trkpt lat="48.02117" lon="6.76823">
        <ele>575.49</ele>
        <time>2012-06-16T09:50:41Z</time>
      </trkpt>
      <trkpt lat="48.02115" lon="6.76816">
        <ele>575.49</ele>
        <time>2012-06-16T09:50:42Z</time>
      </trkpt>
      <trkpt lat="48.02107" lon="6.76781">
        <ele>575.01</ele>
        <time>2012-06-16T09:50:47Z</time>
      </trkpt>
      <trkpt lat="48.02104" lon="6.76776">
        <ele>575.01</ele>
        <time>2012-06-16T09:50:48Z</time>
      </trkpt>
      <trkpt lat="48.0209" lon="6.76738">
        <ele>574.04</ele>
        <time>2012-06-16T09:50:54Z</time>
      </trkpt>
      <trkpt lat="48.02088" lon="6.76729">
        <ele>574.04</ele>
        <time>2012-06-16T09:50:55Z</time>
      </trkpt>
      <trkpt lat="48.02083" lon="6.76704">
        <ele>573.56</ele>
        <time>2012-06-16T09:50:58Z</time>
      </trkpt>
      <trkpt lat="48.02081" lon="6.76697">
        <ele>573.56</ele>
        <time>2012-06-16T09:50:59Z</time>
      </trkpt>
      <trkpt lat="48.02079" lon="6.7669">
        <ele>573.56</ele>
        <time>2012-06-16T09:51:00Z</time>
      </trkpt>
      <trkpt lat="48.02079" lon="6.76683">
        <ele>573.08</ele>
        <time>2012-06-16T09:51:01Z</time>
      </trkpt>
      <trkpt lat="48.02079" lon="6.76677">
        <ele>573.08</ele>
        <time>2012-06-16T09:51:02Z</time>
      </trkpt>
      <trkpt lat="48.0208" lon="6.7667">
        <ele>573.08</ele>
        <time>2012-06-16T09:51:03Z</time>
      </trkpt>
      <trkpt lat="48.02082" lon="6.76663">
        <ele>573.08</ele>
        <time>2012-06-16T09:51:04Z</time>
      </trkpt>
      <trkpt lat="48.02089" lon="6.76631">
        <ele>570.68</ele>
        <time>2012-06-16T09:51:14Z</time>
      </trkpt>
      <trkpt lat="48.02088" lon="6.7663">
        <ele>570.68</ele>
        <time>2012-06-16T09:51:15Z</time>
      </trkpt>
      <trkpt lat="48.02083" lon="6.76627">
        <ele>570.2</ele>
        <time>2012-06-16T09:51:16Z</time>
      </trkpt>
      <trkpt lat="48.02049" lon="6.76616">
        <ele>568.76</ele>
        <time>2012-06-16T09:51:24Z</time>
      </trkpt>
      <trkpt lat="48.02045" lon="6.76614">
        <ele>568.76</ele>
        <time>2012-06-16T09:51:25Z</time>
      </trkpt>
      <trkpt lat="48.02041" lon="6.76612">
        <ele>568.28</ele>
        <time>2012-06-16T09:51:26Z</time>
      </trkpt>
      <trkpt lat="48.02039" lon="6.76609">
        <ele>567.32</ele>
        <time>2012-06-16T09:51:27Z</time>
      </trkpt>
      <trkpt lat="48.02038" lon="6.76608">
        <ele>566.83</ele>
        <time>2012-06-16T09:51:28Z</time>
      </trkpt>
      <trkpt lat="48.02039" lon="6.76614">
        <ele>558.66</ele>
        <time>2012-06-16T09:51:42Z</time>
      </trkpt>
      <trkpt lat="48.02039" lon="6.76611">
        <ele>552.41</ele>
        <time>2012-06-16T09:51:58Z</time>
      </trkpt>
      <trkpt lat="48.02039" lon="6.76609">
        <ele>551.93</ele>
        <time>2012-06-16T09:51:59Z</time>
      </trkpt>
      <trkpt lat="48.02039" lon="6.76606">
        <ele>551.45</ele>
        <time>2012-06-16T09:52:00Z</time>
      </trkpt>
      <trkpt lat="48.02038" lon="6.76604">
        <ele>551.45</ele>
        <time>2012-06-16T09:52:01Z</time>
      </trkpt>
      <trkpt lat="48.02036" lon="6.76601">
        <ele>550.97</ele>
        <time>2012-06-16T09:52:02Z</time>
      </trkpt>
      <trkpt lat="48.02035" lon="6.76593">
        <ele>550.49</ele>
        <time>2012-06-16T09:52:05Z</time>
      </trkpt>
      <trkpt lat="48.02046" lon="6.76553">
        <ele>548.57</ele>
        <time>2012-06-16T09:52:16Z</time>
      </trkpt>
      <trkpt lat="48.0205" lon="6.76545">
        <ele>548.09</ele>
        <time>2012-06-16T09:52:20Z</time>
      </trkpt>
      <trkpt lat="48.02072" lon="6.76546">
        <ele>541.36</ele>
        <time>2012-06-16T09:52:36Z</time>
      </trkpt>
      <trkpt lat="48.02077" lon="6.76552">
        <ele>537.51</ele>
        <time>2012-06-16T09:52:48Z</time>
      </trkpt>
      <trkpt lat="48.0208" lon="6.76553">
        <ele>537.03</ele>
        <time>2012-06-16T09:52:50Z</time>
      </trkpt>
      <trkpt lat="48.02113" lon="6.76569">
        <ele>532.71</ele>
        <time>2012-06-16T09:53:04Z</time>
      </trkpt>
      <trkpt lat="48.02115" lon="6.7657">
        <ele>532.71</ele>
        <time>2012-06-16T09:53:06Z</time>
      </trkpt>
      <trkpt lat="48.02136" lon="6.76609">
        <ele>528.86</ele>
        <time>2012-06-16T09:53:21Z</time>
      </trkpt>
      <trkpt lat="48.02137" lon="6.76609">
        <ele>528.38</ele>
        <time>2012-06-16T09:53:27Z</time>
      </trkpt>
      <trkpt lat="48.02139" lon="6.76622">
        <ele>525.5</ele>
        <time>2012-06-16T09:53:31Z</time>
      </trkpt>
      <trkpt lat="48.02143" lon="6.76682">
        <ele>520.69</ele>
        <time>2012-06-16T09:53:39Z</time>
      </trkpt>
      <trkpt lat="48.02144" lon="6.76691">
        <ele>520.21</ele>
        <time>2012-06-16T09:53:40Z</time>
      </trkpt>
      <trkpt lat="48.02147" lon="6.767">
        <ele>519.73</ele>
        <time>2012-06-16T09:53:41Z</time>
      </trkpt>
      <trkpt lat="48.0215" lon="6.76708">
        <ele>519.25</ele>
        <time>2012-06-16T09:53:42Z</time>
      </trkpt>
      <trkpt lat="48.02154" lon="6.76715">
        <ele>518.77</ele>
        <time>2012-06-16T09:53:43Z</time>
      </trkpt>
      <trkpt lat="48.02159" lon="6.76721">
        <ele>518.29</ele>
        <time>2012-06-16T09:53:44Z</time>
      </trkpt>
      <trkpt lat="48.02166" lon="6.76725">
        <ele>518.29</ele>
        <time>2012-06-16T09:53:45Z</time>
      </trkpt>
      <trkpt lat="48.02181" lon="6.76735">
        <ele>517.33</ele>
        <time>2012-06-16T09:53:47Z</time>
      </trkpt>
      <trkpt lat="48.02215" lon="6.76751">
        <ele>515.4</ele>
        <time>2012-06-16T09:53:52Z</time>
      </trkpt>
      <trkpt lat="48.02221" lon="6.76749">
        <ele>514.92</ele>
        <time>2012-06-16T09:53:53Z</time>
      </trkpt>
      <trkpt lat="48.02228" lon="6.76745">
        <ele>514.44</ele>
        <time>2012-06-16T09:53:54Z</time>
      </trkpt>
      <trkpt lat="48.02239" lon="6.76734">
        <ele>514.44</ele>
        <time>2012-06-16T09:53:56Z</time>
      </trkpt>
      <trkpt lat="48.02245" lon="6.76723">
        <ele>513.48</ele>
        <time>2012-06-16T09:53:57Z</time>
      </trkpt>
      <trkpt lat="48.02248" lon="6.76709">
        <ele>513</ele>
        <time>2012-06-16T09:53:58Z</time>
      </trkpt>
      <trkpt lat="48.0225" lon="6.76698">
        <ele>512.52</ele>
        <time>2012-06-16T09:53:59Z</time>
      </trkpt>
      <trkpt lat="48.0225" lon="6.76685">
        <ele>512.52</ele>
        <time>2012-06-16T09:54:00Z</time>
      </trkpt>
      <trkpt lat="48.02249" lon="6.76672">
        <ele>512.52</ele>
        <time>2012-06-16T09:54:01Z</time>
      </trkpt>
      <trkpt lat="48.02247" lon="6.76568">
        <ele>511.56</ele>
        <time>2012-06-16T09:54:10Z</time>
      </trkpt>
      <trkpt lat="48.02247" lon="6.76556">
        <ele>510.6</ele>
        <time>2012-06-16T09:54:15Z</time>
      </trkpt>
      <trkpt lat="48.02248" lon="6.76554">
        <ele>510.6</ele>
        <time>2012-06-16T09:54:16Z</time>
      </trkpt>
      <trkpt lat="48.02252" lon="6.76538">
        <ele>510.12</ele>
        <time>2012-06-16T09:54:20Z</time>
      </trkpt>
      <trkpt lat="48.02252" lon="6.7653">
        <ele>510.12</ele>
        <time>2012-06-16T09:54:21Z</time>
      </trkpt>
      <trkpt lat="48.0225" lon="6.76522">
        <ele>509.64</ele>
        <time>2012-06-16T09:54:22Z</time>
      </trkpt>
      <trkpt lat="48.02232" lon="6.76471">
        <ele>507.23</ele>
        <time>2012-06-16T09:54:30Z</time>
      </trkpt>
      <trkpt lat="48.02229" lon="6.76467">
        <ele>505.31</ele>
        <time>2012-06-16T09:54:31Z</time>
      </trkpt>
      <trkpt lat="48.02217" lon="6.76453">
        <ele>497.14</ele>
        <time>2012-06-16T09:54:41Z</time>
      </trkpt>
      <trkpt lat="48.02214" lon="6.76451">
        <ele>490.89</ele>
        <time>2012-06-16T09:54:52Z</time>
      </trkpt>
      <trkpt lat="48.02213" lon="6.7645">
        <ele>490.89</ele>
        <time>2012-06-16T09:54:53Z</time>
      </trkpt>
      <trkpt lat="48.02209" lon="6.7645">
        <ele>487.05</ele>
        <time>2012-06-16T09:54:59Z</time>
      </trkpt>
      <trkpt lat="48.02208" lon="6.76448">
        <ele>486.56</ele>
        <time>2012-06-16T09:55:00Z</time>
      </trkpt>
      <trkpt lat="48.02178" lon="6.76418">
        <ele>484.16</ele>
        <time>2012-06-16T09:55:11Z</time>
      </trkpt>
      <trkpt lat="48.02163" lon="6.76405">
        <ele>482.24</ele>
        <time>2012-06-16T09:55:15Z</time>
      </trkpt>
      <trkpt lat="48.02159" lon="6.76399">
        <ele>481.76</ele>
        <time>2012-06-16T09:55:16Z</time>
      </trkpt>
      <trkpt lat="48.02154" lon="6.76393">
        <ele>481.28</ele>
        <time>2012-06-16T09:55:17Z</time>
      </trkpt>
      <trkpt lat="48.0215" lon="6.76386">
        <ele>481.28</ele>
        <time>2012-06-16T09:55:18Z</time>
      </trkpt>
      <trkpt lat="48.02147" lon="6.76377">
        <ele>480.8</ele>
        <time>2012-06-16T09:55:19Z</time>
      </trkpt>
      <trkpt lat="48.02145" lon="6.76368">
        <ele>480.8</ele>
        <time>2012-06-16T09:55:20Z</time>
      </trkpt>
      <trkpt lat="48.02143" lon="6.76359">
        <ele>480.8</ele>
        <time>2012-06-16T09:55:21Z</time>
      </trkpt>
      <trkpt lat="48.02142" lon="6.7635">
        <ele>480.32</ele>
        <time>2012-06-16T09:55:22Z</time>
      </trkpt>
      <trkpt lat="48.02142" lon="6.76341">
        <ele>480.32</ele>
        <time>2012-06-16T09:55:23Z</time>
      </trkpt>
      <trkpt lat="48.02141" lon="6.76333">
        <ele>479.84</ele>
        <time>2012-06-16T09:55:24Z</time>
      </trkpt>
      <trkpt lat="48.02128" lon="6.76195">
        <ele>476.95</ele>
        <time>2012-06-16T09:55:39Z</time>
      </trkpt>
      <trkpt lat="48.02113" lon="6.76079">
        <ele>474.55</ele>
        <time>2012-06-16T09:55:53Z</time>
      </trkpt>
      <trkpt lat="48.02083" lon="6.75959">
        <ele>473.59</ele>
        <time>2012-06-16T09:56:09Z</time>
      </trkpt>
      <trkpt lat="48.02049" lon="6.75864">
        <ele>474.55</ele>
        <time>2012-06-16T09:56:24Z</time>
      </trkpt>
      <trkpt lat="48.0204" lon="6.75851">
        <ele>474.07</ele>
        <time>2012-06-16T09:56:27Z</time>
      </trkpt>
      <trkpt lat="48.02036" lon="6.75849">
        <ele>474.07</ele>
        <time>2012-06-16T09:56:28Z</time>
      </trkpt>
      <trkpt lat="48.02031" lon="6.7585">
        <ele>474.07</ele>
        <time>2012-06-16T09:56:29Z</time>
      </trkpt>
      <trkpt lat="48.02028" lon="6.75852">
        <ele>474.07</ele>
        <time>2012-06-16T09:56:30Z</time>
      </trkpt>
      <trkpt lat="48.02024" lon="6.75855">
        <ele>474.07</ele>
        <time>2012-06-16T09:56:31Z</time>
      </trkpt>
      <trkpt lat="48.02021" lon="6.75857">
        <ele>474.07</ele>
        <time>2012-06-16T09:56:32Z</time>
      </trkpt>
      <trkpt lat="48.0199" lon="6.75873">
        <ele>476.47</ele>
        <time>2012-06-16T09:56:46Z</time>
      </trkpt>
      <trkpt lat="48.01961" lon="6.75869">
        <ele>478.39</ele>
        <time>2012-06-16T09:56:59Z</time>
      </trkpt>
      <trkpt lat="48.01928" lon="6.75851">
        <ele>482.24</ele>
        <time>2012-06-16T09:57:15Z</time>
      </trkpt>
      <trkpt lat="48.01899" lon="6.75835">
        <ele>486.56</ele>
        <time>2012-06-16T09:57:28Z</time>
      </trkpt>
      <trkpt lat="48.01861" lon="6.75817">
        <ele>490.41</ele>
        <time>2012-06-16T09:57:46Z</time>
      </trkpt>
      <trkpt lat="48.01829" lon="6.75799">
        <ele>493.29</ele>
        <time>2012-06-16T09:58:01Z</time>
      </trkpt>
      <trkpt lat="48.01797" lon="6.75767">
        <ele>496.66</ele>
        <time>2012-06-16T09:58:18Z</time>
      </trkpt>
      <trkpt lat="48.0178" lon="6.75733">
        <ele>498.58</ele>
        <time>2012-06-16T09:58:31Z</time>
      </trkpt>
      <trkpt lat="48.01774" lon="6.75723">
        <ele>499.54</ele>
        <time>2012-06-16T09:58:40Z</time>
      </trkpt>
      <trkpt lat="48.01773" lon="6.75721">
        <ele>500.02</ele>
        <time>2012-06-16T09:58:41Z</time>
      </trkpt>
      <trkpt lat="48.01773" lon="6.7572">
        <ele>500.02</ele>
        <time>2012-06-16T09:58:42Z</time>
      </trkpt>
      <trkpt lat="48.01754" lon="6.75684">
        <ele>501.46</ele>
        <time>2012-06-16T09:59:00Z</time>
      </trkpt>
      <trkpt lat="48.01726" lon="6.75662">
        <ele>501.46</ele>
        <time>2012-06-16T09:59:16Z</time>
      </trkpt>
      <trkpt lat="48.01698" lon="6.75641">
        <ele>503.39</ele>
        <time>2012-06-16T09:59:30Z</time>
      </trkpt>
      <trkpt lat="48.01684" lon="6.75608">
        <ele>504.83</ele>
        <time>2012-06-16T09:59:43Z</time>
      </trkpt>
      <trkpt lat="48.01663" lon="6.75538">
        <ele>507.71</ele>
        <time>2012-06-16T10:00:01Z</time>
      </trkpt>
      <trkpt lat="48.0165" lon="6.75479">
        <ele>508.19</ele>
        <time>2012-06-16T10:00:16Z</time>
      </trkpt>
      <trkpt lat="48.01636" lon="6.75409">
        <ele>513.48</ele>
        <time>2012-06-16T10:00:29Z</time>
      </trkpt>
      <trkpt lat="48.01604" lon="6.75381">
        <ele>517.81</ele>
        <time>2012-06-16T10:00:41Z</time>
      </trkpt>
      <trkpt lat="48.01561" lon="6.75362">
        <ele>517.81</ele>
        <time>2012-06-16T10:00:52Z</time>
      </trkpt>
      <trkpt lat="48.01558" lon="6.7536">
        <ele>517.81</ele>
        <time>2012-06-16T10:00:53Z</time>
      </trkpt>
      <trkpt lat="48.01503" lon="6.75344">
        <ele>516.37</ele>
        <time>2012-06-16T10:01:09Z</time>
      </trkpt>
      <trkpt lat="48.01446" lon="6.75331">
        <ele>515.4</ele>
        <time>2012-06-16T10:01:24Z</time>
      </trkpt>
      <trkpt lat="48.01397" lon="6.75362">
        <ele>513.96</ele>
        <time>2012-06-16T10:01:36Z</time>
      </trkpt>
      <trkpt lat="48.01346" lon="6.75387">
        <ele>514.92</ele>
        <time>2012-06-16T10:01:47Z</time>
      </trkpt>
      <trkpt lat="48.0134" lon="6.75386">
        <ele>514.92</ele>
        <time>2012-06-16T10:01:48Z</time>
      </trkpt>
      <trkpt lat="48.01334" lon="6.75385">
        <ele>514.92</ele>
        <time>2012-06-16T10:01:49Z</time>
      </trkpt>
      <trkpt lat="48.01328" lon="6.75383">
        <ele>514.92</ele>
        <time>2012-06-16T10:01:50Z</time>
      </trkpt>
      <trkpt lat="48.01323" lon="6.7538">
        <ele>514.92</ele>
        <time>2012-06-16T10:01:51Z</time>
      </trkpt>
      <trkpt lat="48.01317" lon="6.75376">
        <ele>514.92</ele>
        <time>2012-06-16T10:01:52Z</time>
      </trkpt>
      <trkpt lat="48.01312" lon="6.75373">
        <ele>515.4</ele>
        <time>2012-06-16T10:01:53Z</time>
      </trkpt>
      <trkpt lat="48.01307" lon="6.75369">
        <ele>515.4</ele>
        <time>2012-06-16T10:01:54Z</time>
      </trkpt>
      <trkpt lat="48.01302" lon="6.75367">
        <ele>514.92</ele>
        <time>2012-06-16T10:01:55Z</time>
      </trkpt>
      <trkpt lat="48.01297" lon="6.75365">
        <ele>514.92</ele>
        <time>2012-06-16T10:01:56Z</time>
      </trkpt>
      <trkpt lat="48.01292" lon="6.75366">
        <ele>514.92</ele>
        <time>2012-06-16T10:01:57Z</time>
      </trkpt>
      <trkpt lat="48.01286" lon="6.75367">
        <ele>514.44</ele>
        <time>2012-06-16T10:01:58Z</time>
      </trkpt>
      <trkpt lat="48.01281" lon="6.75369">
        <ele>514.44</ele>
        <time>2012-06-16T10:01:59Z</time>
      </trkpt>
      <trkpt lat="48.01226" lon="6.75398">
        <ele>511.56</ele>
        <time>2012-06-16T10:02:09Z</time>
      </trkpt>
      <trkpt lat="48.01221" lon="6.75403">
        <ele>511.08</ele>
        <time>2012-06-16T10:02:10Z</time>
      </trkpt>
      <trkpt lat="48.01216" lon="6.75409">
        <ele>510.6</ele>
        <time>2012-06-16T10:02:11Z</time>
      </trkpt>
      <trkpt lat="48.01211" lon="6.75416">
        <ele>510.6</ele>
        <time>2012-06-16T10:02:12Z</time>
      </trkpt>
      <trkpt lat="48.01207" lon="6.75424">
        <ele>510.12</ele>
        <time>2012-06-16T10:02:13Z</time>
      </trkpt>
      <trkpt lat="48.01203" lon="6.75432">
        <ele>509.64</ele>
        <time>2012-06-16T10:02:14Z</time>
      </trkpt>
      <trkpt lat="48.01183" lon="6.75474">
        <ele>506.75</ele>
        <time>2012-06-16T10:02:22Z</time>
      </trkpt>
      <trkpt lat="48.01173" lon="6.75495">
        <ele>502.91</ele>
        <time>2012-06-16T10:02:32Z</time>
      </trkpt>
      <trkpt lat="48.01174" lon="6.75495">
        <ele>501.46</ele>
        <time>2012-06-16T10:02:55Z</time>
      </trkpt>
      <trkpt lat="48.01167" lon="6.75503">
        <ele>501.95</ele>
        <time>2012-06-16T10:03:15Z</time>
      </trkpt>
      <trkpt lat="48.01161" lon="6.75509">
        <ele>501.95</ele>
        <time>2012-06-16T10:03:17Z</time>
      </trkpt>
      <trkpt lat="48.01108" lon="6.75571">
        <ele>501.95</ele>
        <time>2012-06-16T10:03:27Z</time>
      </trkpt>
      <trkpt lat="48.01049" lon="6.7562">
        <ele>500.02</ele>
        <time>2012-06-16T10:03:35Z</time>
      </trkpt>
      <trkpt lat="48.01038" lon="6.75625">
        <ele>499.54</ele>
        <time>2012-06-16T10:03:37Z</time>
      </trkpt>
      <trkpt lat="48.01032" lon="6.75625">
        <ele>499.54</ele>
        <time>2012-06-16T10:03:38Z</time>
      </trkpt>
      <trkpt lat="48.01027" lon="6.75625">
        <ele>499.54</ele>
        <time>2012-06-16T10:03:39Z</time>
      </trkpt>
      <trkpt lat="48.01021" lon="6.75624">
        <ele>499.54</ele>
        <time>2012-06-16T10:03:40Z</time>
      </trkpt>
      <trkpt lat="48.01016" lon="6.75622">
        <ele>499.54</ele>
        <time>2012-06-16T10:03:41Z</time>
      </trkpt>
      <trkpt lat="48.01012" lon="6.75619">
        <ele>499.54</ele>
        <time>2012-06-16T10:03:42Z</time>
      </trkpt>
      <trkpt lat="48.01008" lon="6.75615">
        <ele>499.54</ele>
        <time>2012-06-16T10:03:43Z</time>
      </trkpt>
      <trkpt lat="48.01004" lon="6.7561">
        <ele>499.54</ele>
        <time>2012-06-16T10:03:44Z</time>
      </trkpt>
      <trkpt lat="48.01001" lon="6.75606">
        <ele>499.54</ele>
        <time>2012-06-16T10:03:45Z</time>
      </trkpt>
      <trkpt lat="48.00998" lon="6.75601">
        <ele>499.54</ele>
        <time>2012-06-16T10:03:46Z</time>
      </trkpt>
      <trkpt lat="48.00996" lon="6.75596">
        <ele>499.54</ele>
        <time>2012-06-16T10:03:47Z</time>
      </trkpt>
      <trkpt lat="48.00994" lon="6.7559">
        <ele>499.54</ele>
        <time>2012-06-16T10:03:48Z</time>
      </trkpt>
      <trkpt lat="48.00992" lon="6.75584">
        <ele>499.54</ele>
        <time>2012-06-16T10:03:49Z</time>
      </trkpt>
      <trkpt lat="48.00991" lon="6.75578">
        <ele>499.54</ele>
        <time>2012-06-16T10:03:50Z</time>
      </trkpt>
      <trkpt lat="48.00982" lon="6.7553">
        <ele>499.06</ele>
        <time>2012-06-16T10:04:02Z</time>
      </trkpt>
      <trkpt lat="48.00972" lon="6.75502">
        <ele>499.54</ele>
        <time>2012-06-16T10:04:14Z</time>
      </trkpt>
      <trkpt lat="48.00975" lon="6.75501">
        <ele>496.18</ele>
        <time>2012-06-16T10:04:31Z</time>
      </trkpt>
      <trkpt lat="48.00975" lon="6.75501">
        <ele>493.29</ele>
        <time>2012-06-16T10:04:47Z</time>
      </trkpt>
      <trkpt lat="48.00973" lon="6.755">
        <ele>492.81</ele>
        <time>2012-06-16T10:05:15Z</time>
      </trkpt>
      <trkpt lat="48.00972" lon="6.755">
        <ele>493.29</ele>
        <time>2012-06-16T10:05:35Z</time>
      </trkpt>
      <trkpt lat="48.00973" lon="6.75499">
        <ele>492.33</ele>
        <time>2012-06-16T10:06:00Z</time>
      </trkpt>
      <trkpt lat="48.00974" lon="6.75499">
        <ele>492.33</ele>
        <time>2012-06-16T10:06:16Z</time>
      </trkpt>
      <trkpt lat="48.00974" lon="6.75499">
        <ele>492.33</ele>
        <time>2012-06-16T10:06:18Z</time>
      </trkpt>
      <trkpt lat="48.00976" lon="6.75497">
        <ele>492.81</ele>
        <time>2012-06-16T10:06:30Z</time>
      </trkpt>
      <trkpt lat="48.00978" lon="6.75496">
        <ele>492.33</ele>
        <time>2012-06-16T10:06:47Z</time>
      </trkpt>
      <trkpt lat="48.0098" lon="6.75496">
        <ele>492.33</ele>
        <time>2012-06-16T10:06:57Z</time>
      </trkpt>
      <trkpt lat="48.00981" lon="6.75496">
        <ele>492.33</ele>
        <time>2012-06-16T10:07:09Z</time>
      </trkpt>
      <trkpt lat="48.00981" lon="6.75495">
        <ele>492.33</ele>
        <time>2012-06-16T10:07:10Z</time>
      </trkpt>
      <trkpt lat="48.00978" lon="6.75496">
        <ele>492.33</ele>
        <time>2012-06-16T10:07:21Z</time>
      </trkpt>
      <trkpt lat="48.00977" lon="6.75496">
        <ele>491.85</ele>
        <time>2012-06-16T10:07:37Z</time>
      </trkpt>
      <trkpt lat="48.00977" lon="6.75496">
        <ele>491.37</ele>
        <time>2012-06-16T10:07:57Z</time>
      </trkpt>
      <trkpt lat="48.00977" lon="6.75497">
        <ele>490.89</ele>
        <time>2012-06-16T10:08:02Z</time>
      </trkpt>
      <trkpt lat="48.00977" lon="6.75496">
        <ele>490.89</ele>
        <time>2012-06-16T10:08:14Z</time>
      </trkpt>
      <trkpt lat="48.00977" lon="6.75497">
        <ele>489.93</ele>
        <time>2012-06-16T10:08:34Z</time>
      </trkpt>
      <trkpt lat="48.00977" lon="6.75497">
        <ele>489.45</ele>
        <time>2012-06-16T10:08:55Z</time>
      </trkpt>
      <trkpt lat="48.00979" lon="6.75503">
        <ele>489.93</ele>
        <time>2012-06-16T10:09:09Z</time>
      </trkpt>
      <trkpt lat="48.00981" lon="6.75506">
        <ele>490.89</ele>
        <time>2012-06-16T10:09:14Z</time>
      </trkpt>
      <trkpt lat="48.00984" lon="6.75512">
        <ele>491.85</ele>
        <time>2012-06-16T10:09:23Z</time>
      </trkpt>
      <trkpt lat="48.00984" lon="6.75517">
        <ele>493.77</ele>
        <time>2012-06-16T10:09:36Z</time>
      </trkpt>
      <trkpt lat="48.00986" lon="6.75528">
        <ele>494.26</ele>
        <time>2012-06-16T10:09:50Z</time>
      </trkpt>
      <trkpt lat="48.00988" lon="6.75532">
        <ele>492.81</ele>
        <time>2012-06-16T10:10:05Z</time>
      </trkpt>
      <trkpt lat="48.00988" lon="6.7553">
        <ele>492.81</ele>
        <time>2012-06-16T10:10:23Z</time>
      </trkpt>
      <trkpt lat="48.0099" lon="6.75529">
        <ele>490.89</ele>
        <time>2012-06-16T10:10:52Z</time>
      </trkpt>
      <trkpt lat="48.00991" lon="6.75528">
        <ele>490.41</ele>
        <time>2012-06-16T10:11:25Z</time>
      </trkpt>
      <trkpt lat="48.00991" lon="6.75528">
        <ele>490.41</ele>
        <time>2012-06-16T10:11:52Z</time>
      </trkpt>
      <trkpt lat="48.00991" lon="6.75527">
        <ele>489.93</ele>
        <time>2012-06-16T10:12:14Z</time>
      </trkpt>
      <trkpt lat="48.00992" lon="6.75529">
        <ele>489.93</ele>
        <time>2012-06-16T10:12:54Z</time>
      </trkpt>
      <trkpt lat="48.00991" lon="6.7553">
        <ele>489.45</ele>
        <time>2012-06-16T10:13:30Z</time>
      </trkpt>
      <trkpt lat="48.00991" lon="6.7553">
        <ele>489.45</ele>
        <time>2012-06-16T10:14:02Z</time>
      </trkpt>
      <trkpt lat="48.0099" lon="6.75532">
        <ele>488.97</ele>
        <time>2012-06-16T10:14:23Z</time>
      </trkpt>
      <trkpt lat="48.00991" lon="6.75532">
        <ele>489.45</ele>
        <time>2012-06-16T10:14:52Z</time>
      </trkpt>
      <trkpt lat="48.00991" lon="6.75533">
        <ele>488.97</ele>
        <time>2012-06-16T10:15:29Z</time>
      </trkpt>
      <trkpt lat="48.00992" lon="6.75534">
        <ele>489.93</ele>
        <time>2012-06-16T10:16:07Z</time>
      </trkpt>
      <trkpt lat="48.00992" lon="6.75533">
        <ele>490.41</ele>
        <time>2012-06-16T10:16:24Z</time>
      </trkpt>
      <trkpt lat="48.00992" lon="6.75532">
        <ele>490.41</ele>
        <time>2012-06-16T10:17:01Z</time>
      </trkpt>
      <trkpt lat="48.00993" lon="6.75533">
        <ele>490.41</ele>
        <time>2012-06-16T10:17:39Z</time>
      </trkpt>
      <trkpt lat="48.00994" lon="6.75532">
        <ele>490.89</ele>
        <time>2012-06-16T10:18:10Z</time>
      </trkpt>
      <trkpt lat="48.00994" lon="6.75531">
        <ele>491.85</ele>
        <time>2012-06-16T10:18:43Z</time>
      </trkpt>
      <trkpt lat="48.00995" lon="6.75531">
        <ele>491.37</ele>
        <time>2012-06-16T10:19:12Z</time>
      </trkpt>
      <trkpt lat="48.00995" lon="6.75531">
        <ele>491.37</ele>
        <time>2012-06-16T10:19:38Z</time>
      </trkpt>
      <trkpt lat="48.00995" lon="6.75531">
        <ele>490.89</ele>
        <time>2012-06-16T10:20:09Z</time>
      </trkpt>
      <trkpt lat="48.00994" lon="6.7553">
        <ele>491.85</ele>
        <time>2012-06-16T10:20:44Z</time>
      </trkpt>
      <trkpt lat="48.00993" lon="6.7553">
        <ele>491.85</ele>
        <time>2012-06-16T10:21:20Z</time>
      </trkpt>
      <trkpt lat="48.00993" lon="6.75531">
        <ele>491.37</ele>
        <time>2012-06-16T10:21:49Z</time>
      </trkpt>
      <trkpt lat="48.00994" lon="6.7553">
        <ele>491.37</ele>
        <time>2012-06-16T10:22:18Z</time>
      </trkpt>
      <trkpt lat="48.00994" lon="6.7553">
        <ele>491.37</ele>
        <time>2012-06-16T10:22:48Z</time>
      </trkpt>
      <trkpt lat="48.00994" lon="6.7553">
        <ele>491.37</ele>
        <time>2012-06-16T10:23:13Z</time>
      </trkpt>
      <trkpt lat="48.00994" lon="6.75529">
        <ele>491.37</ele>
        <time>2012-06-16T10:23:43Z</time>
      </trkpt>
      <trkpt lat="48.00995" lon="6.75529">
        <ele>491.85</ele>
        <time>2012-06-16T10:24:14Z</time>
      </trkpt>
      <trkpt lat="48.00995" lon="6.75529">
        <ele>491.37</ele>
        <time>2012-06-16T10:24:46Z</time>
      </trkpt>
      <trkpt lat="48.00994" lon="6.75528">
        <ele>491.85</ele>
        <time>2012-06-16T10:25:16Z</time>
      </trkpt>
      <trkpt lat="48.00994" lon="6.75527">
        <ele>490.89</ele>
        <time>2012-06-16T10:25:49Z</time>
      </trkpt>
      <trkpt lat="48.00994" lon="6.75528">
        <ele>490.89</ele>
        <time>2012-06-16T10:26:17Z</time>
      </trkpt>
      <trkpt lat="48.00995" lon="6.75528">
        <ele>490.41</ele>
        <time>2012-06-16T10:26:48Z</time>
      </trkpt>
      <trkpt lat="48.00995" lon="6.75529">
        <ele>489.45</ele>
        <time>2012-06-16T10:27:18Z</time>
      </trkpt>
      <trkpt lat="48.00995" lon="6.75529">
        <ele>489.93</ele>
        <time>2012-06-16T10:27:46Z</time>
      </trkpt>
      <trkpt lat="48.00995" lon="6.75529">
        <ele>489.45</ele>
        <time>2012-06-16T10:28:14Z</time>
      </trkpt>
      <trkpt lat="48.00995" lon="6.7553">
        <ele>489.45</ele>
        <time>2012-06-16T10:28:43Z</time>
      </trkpt>
      <trkpt lat="48.00995" lon="6.75529">
        <ele>489.45</ele>
        <time>2012-06-16T10:29:08Z</time>
      </trkpt>
      <trkpt lat="48.00995" lon="6.75529">
        <ele>489.45</ele>
        <time>2012-06-16T10:29:43Z</time>
      </trkpt>
      <trkpt lat="48.00996" lon="6.75529">
        <ele>489.93</ele>
        <time>2012-06-16T10:30:15Z</time>
      </trkpt>
      <trkpt lat="48.00996" lon="6.75528">
        <ele>489.45</ele>
        <time>2012-06-16T10:30:52Z</time>
      </trkpt>
      <trkpt lat="48.00995" lon="6.75528">
        <ele>489.45</ele>
        <time>2012-06-16T10:31:23Z</time>
      </trkpt>
      <trkpt lat="48.00995" lon="6.75529">
        <ele>489.45</ele>
        <time>2012-06-16T10:31:55Z</time>
      </trkpt>
      <trkpt lat="48.00995" lon="6.7553">
        <ele>488.97</ele>
        <time>2012-06-16T10:32:23Z</time>
      </trkpt>
      <trkpt lat="48.00994" lon="6.75531">
        <ele>489.93</ele>
        <time>2012-06-16T10:32:57Z</time>
      </trkpt>
      <trkpt lat="48.00994" lon="6.7553">
        <ele>490.41</ele>
        <time>2012-06-16T10:33:26Z</time>
      </trkpt>
      <trkpt lat="48.00994" lon="6.75529">
        <ele>490.89</ele>
        <time>2012-06-16T10:34:01Z</time>
      </trkpt>
      <trkpt lat="48.00994" lon="6.7553">
        <ele>490.89</ele>
        <time>2012-06-16T10:34:23Z</time>
      </trkpt>
      <trkpt lat="48.00994" lon="6.75529">
        <ele>491.37</ele>
        <time>2012-06-16T10:34:47Z</time>
      </trkpt>
      <trkpt lat="48.00994" lon="6.7553">
        <ele>490.41</ele>
        <time>2012-06-16T10:35:15Z</time>
      </trkpt>
      <trkpt lat="48.00994" lon="6.75531">
        <ele>489.93</ele>
        <time>2012-06-16T10:35:43Z</time>
      </trkpt>
      <trkpt lat="48.00994" lon="6.75531">
        <ele>489.93</ele>
        <time>2012-06-16T10:36:09Z</time>
      </trkpt>
      <trkpt lat="48.00995" lon="6.75532">
        <ele>489.45</ele>
        <time>2012-06-16T10:36:39Z</time>
      </trkpt>
      <trkpt lat="48.00994" lon="6.75531">
        <ele>488.97</ele>
        <time>2012-06-16T10:37:09Z</time>
      </trkpt>
      <trkpt lat="48.00994" lon="6.7553">
        <ele>488.01</ele>
        <time>2012-06-16T10:37:37Z</time>
      </trkpt>
      <trkpt lat="48.00994" lon="6.75529">
        <ele>487.53</ele>
        <time>2012-06-16T10:38:03Z</time>
      </trkpt>
      <trkpt lat="48.00995" lon="6.75529">
        <ele>487.53</ele>
        <time>2012-06-16T10:38:33Z</time>
      </trkpt>
      <trkpt lat="48.00994" lon="6.75528">
        <ele>486.56</ele>
        <time>2012-06-16T10:39:02Z</time>
      </trkpt>
      <trkpt lat="48.00991" lon="6.75528">
        <ele>486.56</ele>
        <time>2012-06-16T10:39:26Z</time>
      </trkpt>
      <trkpt lat="48.00992" lon="6.75527">
        <ele>487.05</ele>
        <time>2012-06-16T10:39:55Z</time>
      </trkpt>
      <trkpt lat="48.00993" lon="6.75527">
        <ele>487.53</ele>
        <time>2012-06-16T10:40:21Z</time>
      </trkpt>
      <trkpt lat="48.00992" lon="6.75526">
        <ele>487.53</ele>
        <time>2012-06-16T10:40:47Z</time>
      </trkpt>
      <trkpt lat="48.00991" lon="6.75526">
        <ele>487.53</ele>
        <time>2012-06-16T10:41:21Z</time>
      </trkpt>
      <trkpt lat="48.00991" lon="6.75527">
        <ele>487.53</ele>
        <time>2012-06-16T10:41:42Z</time>
      </trkpt>
      <trkpt lat="48.00992" lon="6.75528">
        <ele>487.53</ele>
        <time>2012-06-16T10:42:03Z</time>
      </trkpt>
      <trkpt lat="48.00995" lon="6.75534">
        <ele>487.05</ele>
        <time>2012-06-16T10:42:22Z</time>
      </trkpt>
      <trkpt lat="48.00997" lon="6.75535">
        <ele>487.05</ele>
        <time>2012-06-16T10:42:40Z</time>
      </trkpt>
      <trkpt lat="48.01001" lon="6.75533">
        <ele>487.53</ele>
        <time>2012-06-16T10:42:55Z</time>
      </trkpt>
      <trkpt lat="48.01001" lon="6.75527">
        <ele>487.53</ele>
        <time>2012-06-16T10:43:15Z</time>
      </trkpt>
      <trkpt lat="48.01001" lon="6.75524">
        <ele>487.05</ele>
        <time>2012-06-16T10:43:43Z</time>
      </trkpt>
      <trkpt lat="48.01001" lon="6.75522">
        <ele>487.05</ele>
        <time>2012-06-16T10:44:10Z</time>
      </trkpt>
      <trkpt lat="48.01001" lon="6.75521">
        <ele>488.49</ele>
        <time>2012-06-16T10:44:40Z</time>
      </trkpt>
      <trkpt lat="48.01" lon="6.7552">
        <ele>488.97</ele>
        <time>2012-06-16T10:45:04Z</time>
      </trkpt>
      <trkpt lat="48.01001" lon="6.75518">
        <ele>488.97</ele>
        <time>2012-06-16T10:45:20Z</time>
      </trkpt>
      <trkpt lat="48.01002" lon="6.75523">
        <ele>489.93</ele>
        <time>2012-06-16T10:45:36Z</time>
      </trkpt>
      <trkpt lat="48.01002" lon="6.75524">
        <ele>488.97</ele>
        <time>2012-06-16T10:46:00Z</time>
      </trkpt>
      <trkpt lat="48.01001" lon="6.75524">
        <ele>488.01</ele>
        <time>2012-06-16T10:46:25Z</time>
      </trkpt>
      <trkpt lat="48.01001" lon="6.75525">
        <ele>488.01</ele>
        <time>2012-06-16T10:46:52Z</time>
      </trkpt>
      <trkpt lat="48.01" lon="6.75528">
        <ele>488.01</ele>
        <time>2012-06-16T10:47:27Z</time>
      </trkpt>
      <trkpt lat="48.00999" lon="6.75528">
        <ele>488.01</ele>
        <time>2012-06-16T10:47:57Z</time>
      </trkpt>
      <trkpt lat="48.00999" lon="6.75528">
        <ele>488.49</ele>
        <time>2012-06-16T10:48:21Z</time>
      </trkpt>
      <trkpt lat="48.00998" lon="6.75528">
        <ele>488.49</ele>
        <time>2012-06-16T10:48:43Z</time>
      </trkpt>
      <trkpt lat="48.00997" lon="6.75528">
        <ele>488.01</ele>
        <time>2012-06-16T10:49:11Z</time>
      </trkpt>
      <trkpt lat="48.00997" lon="6.75528">
        <ele>487.53</ele>
        <time>2012-06-16T10:49:34Z</time>
      </trkpt>
      <trkpt lat="48.00996" lon="6.75529">
        <ele>486.56</ele>
        <time>2012-06-16T10:49:56Z</time>
      </trkpt>
      <trkpt lat="48.00996" lon="6.75531">
        <ele>487.53</ele>
        <time>2012-06-16T10:50:16Z</time>
      </trkpt>
      <trkpt lat="48.00994" lon="6.75535">
        <ele>489.45</ele>
        <time>2012-06-16T10:50:32Z</time>
      </trkpt>
      <trkpt lat="48.00992" lon="6.75533">
        <ele>490.41</ele>
        <time>2012-06-16T10:50:46Z</time>
      </trkpt>
      <trkpt lat="48.00988" lon="6.7552">
        <ele>491.85</ele>
        <time>2012-06-16T10:50:59Z</time>
      </trkpt>
      <trkpt lat="48.00983" lon="6.75513">
        <ele>495.7</ele>
        <time>2012-06-16T10:51:14Z</time>
      </trkpt>
      <trkpt lat="48.00984" lon="6.75513">
        <ele>497.62</ele>
        <time>2012-06-16T10:51:33Z</time>
      </trkpt>
      <trkpt lat="48.00983" lon="6.75507">
        <ele>496.66</ele>
        <time>2012-06-16T10:51:50Z</time>
      </trkpt>
      <trkpt lat="48.00982" lon="6.75503">
        <ele>495.7</ele>
        <time>2012-06-16T10:52:10Z</time>
      </trkpt>
      <trkpt lat="48.00982" lon="6.75499">
        <ele>493.77</ele>
        <time>2012-06-16T10:52:33Z</time>
      </trkpt>
      <trkpt lat="48.00981" lon="6.75498">
        <ele>492.81</ele>
        <time>2012-06-16T10:52:49Z</time>
      </trkpt>
      <trkpt lat="48.00982" lon="6.75498">
        <ele>491.85</ele>
        <time>2012-06-16T10:53:09Z</time>
      </trkpt>
      <trkpt lat="48.00982" lon="6.75496">
        <ele>490.89</ele>
        <time>2012-06-16T10:53:31Z</time>
      </trkpt>
      <trkpt lat="48.00982" lon="6.75496">
        <ele>490.41</ele>
        <time>2012-06-16T10:53:54Z</time>
      </trkpt>
      <trkpt lat="48.00982" lon="6.75495">
        <ele>490.89</ele>
        <time>2012-06-16T10:54:26Z</time>
      </trkpt>
      <trkpt lat="48.00982" lon="6.75495">
        <ele>491.37</ele>
        <time>2012-06-16T10:54:45Z</time>
      </trkpt>
      <trkpt lat="48.00982" lon="6.75494">
        <ele>491.37</ele>
        <time>2012-06-16T10:55:03Z</time>
      </trkpt>
      <trkpt lat="48.00983" lon="6.75494">
        <ele>489.93</ele>
        <time>2012-06-16T10:55:34Z</time>
      </trkpt>
      <trkpt lat="48.00983" lon="6.75493">
        <ele>490.41</ele>
        <time>2012-06-16T10:56:05Z</time>
      </trkpt>
      <trkpt lat="48.00983" lon="6.75493">
        <ele>490.89</ele>
        <time>2012-06-16T10:56:25Z</time>
      </trkpt>
      <trkpt lat="48.00983" lon="6.75493">
        <ele>490.89</ele>
        <time>2012-06-16T10:56:39Z</time>
      </trkpt>
      <trkpt lat="48.00984" lon="6.75494">
        <ele>490.89</ele>
        <time>2012-06-16T10:56:55Z</time>
      </trkpt>
      <trkpt lat="48.00984" lon="6.75495">
        <ele>491.37</ele>
        <time>2012-06-16T10:57:11Z</time>
      </trkpt>
      <trkpt lat="48.00982" lon="6.75494">
        <ele>492.33</ele>
        <time>2012-06-16T10:57:22Z</time>
      </trkpt>
      <trkpt lat="48.00984" lon="6.75492">
        <ele>493.29</ele>
        <time>2012-06-16T10:57:47Z</time>
      </trkpt>
      <trkpt lat="48.00984" lon="6.75493">
        <ele>491.85</ele>
        <time>2012-06-16T10:58:06Z</time>
      </trkpt>
      <trkpt lat="48.00984" lon="6.75494">
        <ele>492.33</ele>
        <time>2012-06-16T10:58:24Z</time>
      </trkpt>
      <trkpt lat="48.00983" lon="6.75495">
        <ele>492.81</ele>
        <time>2012-06-16T10:58:41Z</time>
      </trkpt>
      <trkpt lat="48.00983" lon="6.75495">
        <ele>492.33</ele>
        <time>2012-06-16T10:58:55Z</time>
      </trkpt>
      <trkpt lat="48.00983" lon="6.75495">
        <ele>492.33</ele>
        <time>2012-06-16T10:59:08Z</time>
      </trkpt>
      <trkpt lat="48.00984" lon="6.75495">
        <ele>494.26</ele>
        <time>2012-06-16T10:59:33Z</time>
      </trkpt>
      <trkpt lat="48.00984" lon="6.75495">
        <ele>494.26</ele>
        <time>2012-06-16T10:59:51Z</time>
      </trkpt>
      <trkpt lat="48.00985" lon="6.75504">
        <ele>494.26</ele>
        <time>2012-06-16T11:00:18Z</time>
      </trkpt>
      <trkpt lat="48.00985" lon="6.75505">
        <ele>494.74</ele>
        <time>2012-06-16T11:00:19Z</time>
      </trkpt>
      <trkpt lat="48.00983" lon="6.75505">
        <ele>494.74</ele>
        <time>2012-06-16T11:00:21Z</time>
      </trkpt>
      <trkpt lat="48.0098" lon="6.75502">
        <ele>493.29</ele>
        <time>2012-06-16T11:00:37Z</time>
      </trkpt>
      <trkpt lat="48.0098" lon="6.75503">
        <ele>492.33</ele>
        <time>2012-06-16T11:01:01Z</time>
      </trkpt>
      <trkpt lat="48.00979" lon="6.75502">
        <ele>490.89</ele>
        <time>2012-06-16T11:01:31Z</time>
      </trkpt>
      <trkpt lat="48.0098" lon="6.75504">
        <ele>493.77</ele>
        <time>2012-06-16T11:01:55Z</time>
      </trkpt>
      <trkpt lat="48.00981" lon="6.75505">
        <ele>494.26</ele>
        <time>2012-06-16T11:02:18Z</time>
      </trkpt>
      <trkpt lat="48.00981" lon="6.75505">
        <ele>494.26</ele>
        <time>2012-06-16T11:02:43Z</time>
      </trkpt>
      <trkpt lat="48.00981" lon="6.75505">
        <ele>493.77</ele>
        <time>2012-06-16T11:03:02Z</time>
      </trkpt>
      <trkpt lat="48.0098" lon="6.75505">
        <ele>493.77</ele>
        <time>2012-06-16T11:03:29Z</time>
      </trkpt>
      <trkpt lat="48.0098" lon="6.75505">
        <ele>494.26</ele>
        <time>2012-06-16T11:03:56Z</time>
      </trkpt>
      <trkpt lat="48.0098" lon="6.75504">
        <ele>494.26</ele>
        <time>2012-06-16T11:04:15Z</time>
      </trkpt>
      <trkpt lat="48.00967" lon="6.75498">
        <ele>494.26</ele>
        <time>2012-06-16T11:04:24Z</time>
      </trkpt>
      <trkpt lat="48.00951" lon="6.75447">
        <ele>497.14</ele>
        <time>2012-06-16T11:04:38Z</time>
      </trkpt>
      <trkpt lat="48.00938" lon="6.75396">
        <ele>499.06</ele>
        <time>2012-06-16T11:04:51Z</time>
      </trkpt>
      <trkpt lat="48.00919" lon="6.75339">
        <ele>495.22</ele>
        <time>2012-06-16T11:05:08Z</time>
      </trkpt>
      <trkpt lat="48.009" lon="6.75288">
        <ele>494.26</ele>
        <time>2012-06-16T11:05:23Z</time>
      </trkpt>
      <trkpt lat="48.00868" lon="6.75249">
        <ele>493.29</ele>
        <time>2012-06-16T11:05:38Z</time>
      </trkpt>
      <trkpt lat="48.00825" lon="6.7521">
        <ele>494.26</ele>
        <time>2012-06-16T11:05:56Z</time>
      </trkpt>
      <trkpt lat="48.00794" lon="6.75167">
        <ele>494.74</ele>
        <time>2012-06-16T11:06:11Z</time>
      </trkpt>
      <trkpt lat="48.00765" lon="6.75116">
        <ele>494.26</ele>
        <time>2012-06-16T11:06:25Z</time>
      </trkpt>
      <trkpt lat="48.00722" lon="6.75038">
        <ele>493.77</ele>
        <time>2012-06-16T11:06:45Z</time>
      </trkpt>
      <trkpt lat="48.00684" lon="6.7497">
        <ele>494.26</ele>
        <time>2012-06-16T11:07:03Z</time>
      </trkpt>
      <trkpt lat="48.0068" lon="6.74955">
        <ele>493.77</ele>
        <time>2012-06-16T11:07:12Z</time>
      </trkpt>
      <trkpt lat="48.00681" lon="6.74955">
        <ele>493.77</ele>
        <time>2012-06-16T11:07:14Z</time>
      </trkpt>
      <trkpt lat="48.00665" lon="6.74932">
        <ele>493.77</ele>
        <time>2012-06-16T11:07:20Z</time>
      </trkpt>
      <trkpt lat="48.00654" lon="6.74918">
        <ele>493.77</ele>
        <time>2012-06-16T11:07:23Z</time>
      </trkpt>
      <trkpt lat="48.0065" lon="6.74914">
        <ele>493.77</ele>
        <time>2012-06-16T11:07:24Z</time>
      </trkpt>
      <trkpt lat="48.00646" lon="6.74911">
        <ele>493.77</ele>
        <time>2012-06-16T11:07:25Z</time>
      </trkpt>
      <trkpt lat="48.00641" lon="6.7491">
        <ele>494.26</ele>
        <time>2012-06-16T11:07:26Z</time>
      </trkpt>
      <trkpt lat="48.00636" lon="6.7491">
        <ele>494.26</ele>
        <time>2012-06-16T11:07:27Z</time>
      </trkpt>
      <trkpt lat="48.00632" lon="6.74912">
        <ele>494.26</ele>
        <time>2012-06-16T11:07:28Z</time>
      </trkpt>
      <trkpt lat="48.00628" lon="6.74913">
        <ele>494.26</ele>
        <time>2012-06-16T11:07:29Z</time>
      </trkpt>
      <trkpt lat="48.00605" lon="6.74919">
        <ele>495.22</ele>
        <time>2012-06-16T11:07:36Z</time>
      </trkpt>
      <trkpt lat="48.00559" lon="6.74906">
        <ele>500.02</ele>
        <time>2012-06-16T11:07:51Z</time>
      </trkpt>
      <trkpt lat="48.00556" lon="6.74907">
        <ele>500.5</ele>
        <time>2012-06-16T11:08:01Z</time>
      </trkpt>
      <trkpt lat="48.00555" lon="6.74908">
        <ele>500.98</ele>
        <time>2012-06-16T11:08:03Z</time>
      </trkpt>
      <trkpt lat="48.00553" lon="6.74909">
        <ele>500.98</ele>
        <time>2012-06-16T11:08:04Z</time>
      </trkpt>
      <trkpt lat="48.00551" lon="6.7491">
        <ele>500.98</ele>
        <time>2012-06-16T11:08:05Z</time>
      </trkpt>
      <trkpt lat="48.00498" lon="6.74923">
        <ele>502.43</ele>
        <time>2012-06-16T11:08:18Z</time>
      </trkpt>
      <trkpt lat="48.00479" lon="6.74929">
        <ele>502.91</ele>
        <time>2012-06-16T11:08:23Z</time>
      </trkpt>
      <trkpt lat="48.00475" lon="6.74931">
        <ele>502.91</ele>
        <time>2012-06-16T11:08:24Z</time>
      </trkpt>
      <trkpt lat="48.00472" lon="6.74934">
        <ele>502.91</ele>
        <time>2012-06-16T11:08:25Z</time>
      </trkpt>
      <trkpt lat="48.00455" lon="6.74987">
        <ele>503.39</ele>
        <time>2012-06-16T11:08:37Z</time>
      </trkpt>
      <trkpt lat="48.0045" lon="6.75069">
        <ele>502.91</ele>
        <time>2012-06-16T11:08:53Z</time>
      </trkpt>
      <trkpt lat="48.00414" lon="6.75102">
        <ele>502.43</ele>
        <time>2012-06-16T11:09:05Z</time>
      </trkpt>
      <trkpt lat="48.00358" lon="6.75114">
        <ele>503.39</ele>
        <time>2012-06-16T11:09:23Z</time>
      </trkpt>
      <trkpt lat="48.00326" lon="6.75102">
        <ele>505.31</ele>
        <time>2012-06-16T11:09:35Z</time>
      </trkpt>
      <trkpt lat="48.00301" lon="6.75077">
        <ele>508.19</ele>
        <time>2012-06-16T11:09:47Z</time>
      </trkpt>
      <trkpt lat="48.00275" lon="6.75053">
        <ele>512.52</ele>
        <time>2012-06-16T11:10:00Z</time>
      </trkpt>
      <trkpt lat="48.00231" lon="6.75049">
        <ele>514.92</ele>
        <time>2012-06-16T11:10:15Z</time>
      </trkpt>
      <trkpt lat="48.00172" lon="6.75032">
        <ele>516.85</ele>
        <time>2012-06-16T11:10:31Z</time>
      </trkpt>
      <trkpt lat="48.0013" lon="6.75025">
        <ele>519.25</ele>
        <time>2012-06-16T11:10:46Z</time>
      </trkpt>
      <trkpt lat="48.00101" lon="6.74982">
        <ele>520.21</ele>
        <time>2012-06-16T11:10:58Z</time>
      </trkpt>
      <trkpt lat="48.00095" lon="6.74965">
        <ele>519.25</ele>
        <time>2012-06-16T11:11:01Z</time>
      </trkpt>
      <trkpt lat="48.00093" lon="6.74958">
        <ele>518.77</ele>
        <time>2012-06-16T11:11:02Z</time>
      </trkpt>
      <trkpt lat="48.00092" lon="6.7495">
        <ele>518.29</ele>
        <time>2012-06-16T11:11:03Z</time>
      </trkpt>
      <trkpt lat="48.00092" lon="6.74941">
        <ele>517.33</ele>
        <time>2012-06-16T11:11:04Z</time>
      </trkpt>
      <trkpt lat="48.00093" lon="6.74932">
        <ele>516.85</ele>
        <time>2012-06-16T11:11:05Z</time>
      </trkpt>
      <trkpt lat="48.00095" lon="6.74922">
        <ele>516.37</ele>
        <time>2012-06-16T11:11:06Z</time>
      </trkpt>
      <trkpt lat="48.00096" lon="6.74913">
        <ele>515.88</ele>
        <time>2012-06-16T11:11:07Z</time>
      </trkpt>
      <trkpt lat="48.00105" lon="6.74808">
        <ele>513</ele>
        <time>2012-06-16T11:11:17Z</time>
      </trkpt>
      <trkpt lat="48.00106" lon="6.74787">
        <ele>513</ele>
        <time>2012-06-16T11:11:19Z</time>
      </trkpt>
      <trkpt lat="48.00105" lon="6.74777">
        <ele>513</ele>
        <time>2012-06-16T11:11:20Z</time>
      </trkpt>
      <trkpt lat="48.00103" lon="6.74768">
        <ele>512.52</ele>
        <time>2012-06-16T11:11:21Z</time>
      </trkpt>
      <trkpt lat="48.00099" lon="6.74757">
        <ele>512.52</ele>
        <time>2012-06-16T11:11:22Z</time>
      </trkpt>
      <trkpt lat="48.00093" lon="6.74744">
        <ele>512.04</ele>
        <time>2012-06-16T11:11:23Z</time>
      </trkpt>
      <trkpt lat="48.00058" lon="6.74637">
        <ele>511.08</ele>
        <time>2012-06-16T11:11:31Z</time>
      </trkpt>
      <trkpt lat="48.0004" lon="6.74533">
        <ele>508.19</ele>
        <time>2012-06-16T11:11:40Z</time>
      </trkpt>
      <trkpt lat="48.0004" lon="6.74522">
        <ele>507.71</ele>
        <time>2012-06-16T11:11:41Z</time>
      </trkpt>
      <trkpt lat="48.00042" lon="6.74489">
        <ele>507.23</ele>
        <time>2012-06-16T11:11:44Z</time>
      </trkpt>
      <trkpt lat="48.00042" lon="6.74477">
        <ele>506.75</ele>
        <time>2012-06-16T11:11:45Z</time>
      </trkpt>
      <trkpt lat="48.00035" lon="6.74387">
        <ele>505.31</ele>
        <time>2012-06-16T11:11:53Z</time>
      </trkpt>
      <trkpt lat="48.00025" lon="6.74326">
        <ele>504.83</ele>
        <time>2012-06-16T11:11:59Z</time>
      </trkpt>
      <trkpt lat="48.00026" lon="6.74316">
        <ele>504.83</ele>
        <time>2012-06-16T11:12:00Z</time>
      </trkpt>
      <trkpt lat="48.00027" lon="6.74306">
        <ele>504.83</ele>
        <time>2012-06-16T11:12:01Z</time>
      </trkpt>
      <trkpt lat="48.0004" lon="6.74226">
        <ele>501.46</ele>
        <time>2012-06-16T11:12:08Z</time>
      </trkpt>
      <trkpt lat="48.00046" lon="6.74192">
        <ele>499.54</ele>
        <time>2012-06-16T11:12:11Z</time>
      </trkpt>
      <trkpt lat="48.00045" lon="6.74137">
        <ele>491.85</ele>
        <time>2012-06-16T11:12:18Z</time>
      </trkpt>
      <trkpt lat="48.00041" lon="6.74123">
        <ele>490.41</ele>
        <time>2012-06-16T11:12:20Z</time>
      </trkpt>
      <trkpt lat="48.0004" lon="6.74104">
        <ele>489.45</ele>
        <time>2012-06-16T11:12:22Z</time>
      </trkpt>
      <trkpt lat="48.00043" lon="6.74055">
        <ele>487.05</ele>
        <time>2012-06-16T11:12:26Z</time>
      </trkpt>
      <trkpt lat="48.00046" lon="6.74042">
        <ele>486.56</ele>
        <time>2012-06-16T11:12:27Z</time>
      </trkpt>
      <trkpt lat="48.0005" lon="6.7403">
        <ele>486.08</ele>
        <time>2012-06-16T11:12:28Z</time>
      </trkpt>
      <trkpt lat="48.00056" lon="6.74019">
        <ele>485.12</ele>
        <time>2012-06-16T11:12:29Z</time>
      </trkpt>
      <trkpt lat="48.00063" lon="6.74009">
        <ele>484.16</ele>
        <time>2012-06-16T11:12:30Z</time>
      </trkpt>
      <trkpt lat="48.0007" lon="6.73999">
        <ele>483.2</ele>
        <time>2012-06-16T11:12:31Z</time>
      </trkpt>
      <trkpt lat="48.00076" lon="6.73988">
        <ele>482.24</ele>
        <time>2012-06-16T11:12:32Z</time>
      </trkpt>
      <trkpt lat="48.00081" lon="6.73976">
        <ele>480.8</ele>
        <time>2012-06-16T11:12:33Z</time>
      </trkpt>
      <trkpt lat="48.00085" lon="6.73963">
        <ele>479.35</ele>
        <time>2012-06-16T11:12:34Z</time>
      </trkpt>
      <trkpt lat="48.00087" lon="6.73952">
        <ele>478.39</ele>
        <time>2012-06-16T11:12:35Z</time>
      </trkpt>
      <trkpt lat="48.0009" lon="6.73942">
        <ele>476.95</ele>
        <time>2012-06-16T11:12:36Z</time>
      </trkpt>
      <trkpt lat="48.00093" lon="6.73933">
        <ele>475.51</ele>
        <time>2012-06-16T11:12:37Z</time>
      </trkpt>
      <trkpt lat="48.00098" lon="6.73925">
        <ele>473.59</ele>
        <time>2012-06-16T11:12:38Z</time>
      </trkpt>
      <trkpt lat="48.00103" lon="6.73917">
        <ele>472.14</ele>
        <time>2012-06-16T11:12:39Z</time>
      </trkpt>
      <trkpt lat="48.00107" lon="6.73909">
        <ele>470.7</ele>
        <time>2012-06-16T11:12:40Z</time>
      </trkpt>
      <trkpt lat="48.00111" lon="6.73902">
        <ele>469.74</ele>
        <time>2012-06-16T11:12:41Z</time>
      </trkpt>
      <trkpt lat="48.00113" lon="6.73896">
        <ele>468.3</ele>
        <time>2012-06-16T11:12:42Z</time>
      </trkpt>
      <trkpt lat="48.00113" lon="6.73892">
        <ele>467.34</ele>
        <time>2012-06-16T11:12:43Z</time>
      </trkpt>
      <trkpt lat="48.00111" lon="6.73889">
        <ele>466.86</ele>
        <time>2012-06-16T11:12:44Z</time>
      </trkpt>
      <trkpt lat="48.00108" lon="6.73887">
        <ele>465.9</ele>
        <time>2012-06-16T11:12:45Z</time>
      </trkpt>
      <trkpt lat="48.00105" lon="6.73887">
        <ele>465.42</ele>
        <time>2012-06-16T11:12:46Z</time>
      </trkpt>
      <trkpt lat="48.00102" lon="6.73888">
        <ele>464.45</ele>
        <time>2012-06-16T11:12:47Z</time>
      </trkpt>
      <trkpt lat="48.001" lon="6.73888">
        <ele>463.97</ele>
        <time>2012-06-16T11:12:48Z</time>
      </trkpt>
      <trkpt lat="48.00097" lon="6.73889">
        <ele>463.01</ele>
        <time>2012-06-16T11:12:49Z</time>
      </trkpt>
      <trkpt lat="48.00093" lon="6.7389">
        <ele>462.53</ele>
        <time>2012-06-16T11:12:50Z</time>
      </trkpt>
      <trkpt lat="48.0009" lon="6.7389">
        <ele>462.05</ele>
        <time>2012-06-16T11:12:51Z</time>
      </trkpt>
      <trkpt lat="48.00055" lon="6.73903">
        <ele>458.21</ele>
        <time>2012-06-16T11:13:03Z</time>
      </trkpt>
      <trkpt lat="48.00023" lon="6.73913">
        <ele>457.72</ele>
        <time>2012-06-16T11:13:15Z</time>
      </trkpt>
      <trkpt lat="47.99987" lon="6.73918">
        <ele>456.76</ele>
        <time>2012-06-16T11:13:26Z</time>
      </trkpt>
      <trkpt lat="47.99941" lon="6.73897">
        <ele>459.17</ele>
        <time>2012-06-16T11:13:41Z</time>
      </trkpt>
      <trkpt lat="47.99937" lon="6.73893">
        <ele>459.65</ele>
        <time>2012-06-16T11:13:43Z</time>
      </trkpt>
      <trkpt lat="47.99937" lon="6.73892">
        <ele>461.09</ele>
        <time>2012-06-16T11:13:57Z</time>
      </trkpt>
      <trkpt lat="47.99937" lon="6.73891">
        <ele>461.09</ele>
        <time>2012-06-16T11:13:59Z</time>
      </trkpt>
      <trkpt lat="47.99917" lon="6.73859">
        <ele>460.61</ele>
        <time>2012-06-16T11:14:12Z</time>
      </trkpt>
      <trkpt lat="47.99883" lon="6.73812">
        <ele>464.45</ele>
        <time>2012-06-16T11:14:28Z</time>
      </trkpt>
      <trkpt lat="47.99851" lon="6.73788">
        <ele>466.86</ele>
        <time>2012-06-16T11:14:42Z</time>
      </trkpt>
      <trkpt lat="47.99824" lon="6.73768">
        <ele>467.82</ele>
        <time>2012-06-16T11:14:58Z</time>
      </trkpt>
      <trkpt lat="47.99826" lon="6.73764">
        <ele>468.3</ele>
        <time>2012-06-16T11:15:03Z</time>
      </trkpt>
      <trkpt lat="47.99829" lon="6.73762">
        <ele>468.78</ele>
        <time>2012-06-16T11:15:15Z</time>
      </trkpt>
      <trkpt lat="47.99828" lon="6.73762">
        <ele>467.82</ele>
        <time>2012-06-16T11:15:36Z</time>
      </trkpt>
      <trkpt lat="47.99829" lon="6.73762">
        <ele>467.82</ele>
        <time>2012-06-16T11:15:38Z</time>
      </trkpt>
      <trkpt lat="47.99824" lon="6.7377">
        <ele>467.34</ele>
        <time>2012-06-16T11:15:50Z</time>
      </trkpt>
      <trkpt lat="47.99824" lon="6.7377">
        <ele>466.86</ele>
        <time>2012-06-16T11:15:58Z</time>
      </trkpt>
      <trkpt lat="47.9982" lon="6.73767">
        <ele>467.82</ele>
        <time>2012-06-16T11:16:12Z</time>
      </trkpt>
      <trkpt lat="47.9982" lon="6.73765">
        <ele>469.26</ele>
        <time>2012-06-16T11:16:29Z</time>
      </trkpt>
      <trkpt lat="47.9982" lon="6.73764">
        <ele>470.22</ele>
        <time>2012-06-16T11:16:45Z</time>
      </trkpt>
      <trkpt lat="47.9982" lon="6.73764">
        <ele>470.7</ele>
        <time>2012-06-16T11:17:05Z</time>
      </trkpt>
      <trkpt lat="47.99821" lon="6.73766">
        <ele>470.22</ele>
        <time>2012-06-16T11:17:19Z</time>
      </trkpt>
      <trkpt lat="47.9982" lon="6.73766">
        <ele>469.74</ele>
        <time>2012-06-16T11:17:57Z</time>
      </trkpt>
      <trkpt lat="47.9982" lon="6.73766">
        <ele>469.26</ele>
        <time>2012-06-16T11:18:44Z</time>
      </trkpt>
      <trkpt lat="47.9982" lon="6.73766">
        <ele>468.78</ele>
        <time>2012-06-16T11:19:19Z</time>
      </trkpt>
      <trkpt lat="47.99819" lon="6.73767">
        <ele>468.3</ele>
        <time>2012-06-16T11:19:40Z</time>
      </trkpt>
      <trkpt lat="47.99819" lon="6.73769">
        <ele>468.78</ele>
        <time>2012-06-16T11:20:00Z</time>
      </trkpt>
      <trkpt lat="47.9982" lon="6.73766">
        <ele>467.34</ele>
        <time>2012-06-16T11:20:15Z</time>
      </trkpt>
      <trkpt lat="47.9982" lon="6.73764">
        <ele>469.26</ele>
        <time>2012-06-16T11:20:40Z</time>
      </trkpt>
      <trkpt lat="47.99817" lon="6.73765">
        <ele>470.7</ele>
        <time>2012-06-16T11:20:50Z</time>
      </trkpt>
      <trkpt lat="47.99805" lon="6.73753">
        <ele>472.14</ele>
        <time>2012-06-16T11:21:02Z</time>
      </trkpt>
      <trkpt lat="47.99805" lon="6.73752">
        <ele>471.18</ele>
        <time>2012-06-16T11:21:17Z</time>
      </trkpt>
      <trkpt lat="47.99805" lon="6.73753">
        <ele>473.11</ele>
        <time>2012-06-16T11:21:46Z</time>
      </trkpt>
      <trkpt lat="47.99804" lon="6.73753">
        <ele>472.14</ele>
        <time>2012-06-16T11:22:08Z</time>
      </trkpt>
      <trkpt lat="47.99801" lon="6.73748">
        <ele>472.63</ele>
        <time>2012-06-16T11:22:12Z</time>
      </trkpt>
      <trkpt lat="47.99763" lon="6.73705">
        <ele>473.59</ele>
        <time>2012-06-16T11:22:28Z</time>
      </trkpt>
      <trkpt lat="47.99718" lon="6.73664">
        <ele>474.07</ele>
        <time>2012-06-16T11:22:43Z</time>
      </trkpt>
      <trkpt lat="47.99695" lon="6.73664">
        <ele>474.07</ele>
        <time>2012-06-16T11:22:49Z</time>
      </trkpt>
      <trkpt lat="47.99692" lon="6.73661">
        <ele>474.55</ele>
        <time>2012-06-16T11:22:50Z</time>
      </trkpt>
      <trkpt lat="47.99689" lon="6.73656">
        <ele>474.07</ele>
        <time>2012-06-16T11:22:51Z</time>
      </trkpt>
      <trkpt lat="47.99687" lon="6.7365">
        <ele>474.55</ele>
        <time>2012-06-16T11:22:52Z</time>
      </trkpt>
      <trkpt lat="47.99685" lon="6.73644">
        <ele>474.55</ele>
        <time>2012-06-16T11:22:53Z</time>
      </trkpt>
      <trkpt lat="47.99685" lon="6.73638">
        <ele>474.07</ele>
        <time>2012-06-16T11:22:54Z</time>
      </trkpt>
      <trkpt lat="47.99685" lon="6.73632">
        <ele>474.07</ele>
        <time>2012-06-16T11:22:55Z</time>
      </trkpt>
      <trkpt lat="47.99686" lon="6.73626">
        <ele>474.07</ele>
        <time>2012-06-16T11:22:56Z</time>
      </trkpt>
      <trkpt lat="47.99687" lon="6.73621">
        <ele>474.07</ele>
        <time>2012-06-16T11:22:57Z</time>
      </trkpt>
      <trkpt lat="47.99703" lon="6.73549">
        <ele>478.39</ele>
        <time>2012-06-16T11:23:12Z</time>
      </trkpt>
      <trkpt lat="47.99704" lon="6.73464">
        <ele>480.32</ele>
        <time>2012-06-16T11:23:29Z</time>
      </trkpt>
      <trkpt lat="47.99706" lon="6.73413">
        <ele>481.28</ele>
        <time>2012-06-16T11:23:42Z</time>
      </trkpt>
      <trkpt lat="47.99691" lon="6.73365">
        <ele>481.76</ele>
        <time>2012-06-16T11:23:54Z</time>
      </trkpt>
      <trkpt lat="47.9967" lon="6.73294">
        <ele>485.12</ele>
        <time>2012-06-16T11:24:12Z</time>
      </trkpt>
      <trkpt lat="47.9964" lon="6.7327">
        <ele>487.05</ele>
        <time>2012-06-16T11:24:26Z</time>
      </trkpt>
      <trkpt lat="47.99606" lon="6.73293">
        <ele>489.93</ele>
        <time>2012-06-16T11:24:41Z</time>
      </trkpt>
      <trkpt lat="47.99573" lon="6.7332">
        <ele>493.29</ele>
        <time>2012-06-16T11:24:56Z</time>
      </trkpt>
      <trkpt lat="47.99539" lon="6.73347">
        <ele>499.54</ele>
        <time>2012-06-16T11:25:13Z</time>
      </trkpt>
      <trkpt lat="47.99509" lon="6.73382">
        <ele>502.91</ele>
        <time>2012-06-16T11:25:30Z</time>
      </trkpt>
      <trkpt lat="47.9948" lon="6.73396">
        <ele>501.95</ele>
        <time>2012-06-16T11:25:40Z</time>
      </trkpt>
      <trkpt lat="47.99407" lon="6.73458">
        <ele>500.5</ele>
        <time>2012-06-16T11:25:55Z</time>
      </trkpt>
      <trkpt lat="47.99337" lon="6.73502">
        <ele>495.7</ele>
        <time>2012-06-16T11:26:06Z</time>
      </trkpt>
      <trkpt lat="47.99332" lon="6.73504">
        <ele>495.22</ele>
        <time>2012-06-16T11:26:07Z</time>
      </trkpt>
      <trkpt lat="47.99275" lon="6.73508">
        <ele>492.33</ele>
        <time>2012-06-16T11:26:19Z</time>
      </trkpt>
      <trkpt lat="47.9927" lon="6.73508">
        <ele>492.33</ele>
        <time>2012-06-16T11:26:20Z</time>
      </trkpt>
      <trkpt lat="47.9922" lon="6.73521">
        <ele>491.37</ele>
        <time>2012-06-16T11:26:31Z</time>
      </trkpt>
      <trkpt lat="47.99216" lon="6.7352">
        <ele>491.37</ele>
        <time>2012-06-16T11:26:32Z</time>
      </trkpt>
      <trkpt lat="47.99211" lon="6.73518">
        <ele>491.37</ele>
        <time>2012-06-16T11:26:33Z</time>
      </trkpt>
      <trkpt lat="47.99207" lon="6.73517">
        <ele>491.37</ele>
        <time>2012-06-16T11:26:34Z</time>
      </trkpt>
      <trkpt lat="47.99202" lon="6.73516">
        <ele>491.37</ele>
        <time>2012-06-16T11:26:35Z</time>
      </trkpt>
      <trkpt lat="47.99197" lon="6.73518">
        <ele>491.37</ele>
        <time>2012-06-16T11:26:36Z</time>
      </trkpt>
      <trkpt lat="47.99193" lon="6.73522">
        <ele>490.89</ele>
        <time>2012-06-16T11:26:37Z</time>
      </trkpt>
      <trkpt lat="47.99189" lon="6.73528">
        <ele>490.89</ele>
        <time>2012-06-16T11:26:38Z</time>
      </trkpt>
      <trkpt lat="47.99185" lon="6.73534">
        <ele>490.41</ele>
        <time>2012-06-16T11:26:39Z</time>
      </trkpt>
      <trkpt lat="47.99158" lon="6.73578">
        <ele>488.97</ele>
        <time>2012-06-16T11:26:45Z</time>
      </trkpt>
      <trkpt lat="47.99153" lon="6.73583">
        <ele>488.49</ele>
        <time>2012-06-16T11:26:46Z</time>
      </trkpt>
      <trkpt lat="47.99147" lon="6.73587">
        <ele>488.01</ele>
        <time>2012-06-16T11:26:47Z</time>
      </trkpt>
      <trkpt lat="47.99075" lon="6.73659">
        <ele>485.12</ele>
        <time>2012-06-16T11:27:02Z</time>
      </trkpt>
      <trkpt lat="47.99042" lon="6.73734">
        <ele>483.2</ele>
        <time>2012-06-16T11:27:11Z</time>
      </trkpt>
      <trkpt lat="47.99037" lon="6.73741">
        <ele>482.72</ele>
        <time>2012-06-16T11:27:12Z</time>
      </trkpt>
      <trkpt lat="47.99032" lon="6.73746">
        <ele>482.72</ele>
        <time>2012-06-16T11:27:13Z</time>
      </trkpt>
      <trkpt lat="47.99028" lon="6.73751">
        <ele>482.24</ele>
        <time>2012-06-16T11:27:14Z</time>
      </trkpt>
      <trkpt lat="47.99023" lon="6.73755">
        <ele>482.24</ele>
        <time>2012-06-16T11:27:15Z</time>
      </trkpt>
      <trkpt lat="47.99019" lon="6.73759">
        <ele>481.76</ele>
        <time>2012-06-16T11:27:16Z</time>
      </trkpt>
      <trkpt lat="47.99015" lon="6.73764">
        <ele>481.76</ele>
        <time>2012-06-16T11:27:17Z</time>
      </trkpt>
      <trkpt lat="47.99011" lon="6.73769">
        <ele>481.76</ele>
        <time>2012-06-16T11:27:18Z</time>
      </trkpt>
      <trkpt lat="47.99008" lon="6.73775">
        <ele>481.76</ele>
        <time>2012-06-16T11:27:19Z</time>
      </trkpt>
      <trkpt lat="47.98989" lon="6.73811">
        <ele>481.28</ele>
        <time>2012-06-16T11:27:31Z</time>
      </trkpt>
      <trkpt lat="47.98972" lon="6.73839">
        <ele>484.64</ele>
        <time>2012-06-16T11:27:46Z</time>
      </trkpt>
      <trkpt lat="47.98961" lon="6.73864">
        <ele>489.45</ele>
        <time>2012-06-16T11:28:00Z</time>
      </trkpt>
      <trkpt lat="47.98948" lon="6.7387">
        <ele>494.74</ele>
        <time>2012-06-16T11:28:11Z</time>
      </trkpt>
      <trkpt lat="47.98942" lon="6.7387">
        <ele>496.66</ele>
        <time>2012-06-16T11:28:16Z</time>
      </trkpt>
      <trkpt lat="47.9893" lon="6.73873">
        <ele>496.66</ele>
        <time>2012-06-16T11:28:20Z</time>
      </trkpt>
      <trkpt lat="47.98919" lon="6.73877">
        <ele>498.1</ele>
        <time>2012-06-16T11:28:28Z</time>
      </trkpt>
      <trkpt lat="47.98885" lon="6.73872">
        <ele>503.39</ele>
        <time>2012-06-16T11:28:44Z</time>
      </trkpt>
      <trkpt lat="47.98861" lon="6.73869">
        <ele>505.31</ele>
        <time>2012-06-16T11:28:54Z</time>
      </trkpt>
      <trkpt lat="47.98826" lon="6.7388">
        <ele>507.23</ele>
        <time>2012-06-16T11:29:10Z</time>
      </trkpt>
      <trkpt lat="47.98812" lon="6.73908">
        <ele>511.08</ele>
        <time>2012-06-16T11:29:26Z</time>
      </trkpt>
      <trkpt lat="47.98802" lon="6.7395">
        <ele>513.96</ele>
        <time>2012-06-16T11:29:45Z</time>
      </trkpt>
      <trkpt lat="47.98794" lon="6.73971">
        <ele>515.88</ele>
        <time>2012-06-16T11:29:56Z</time>
      </trkpt>
      <trkpt lat="47.98779" lon="6.73996">
        <ele>521.65</ele>
        <time>2012-06-16T11:30:10Z</time>
      </trkpt>
      <trkpt lat="47.98772" lon="6.74014">
        <ele>524.06</ele>
        <time>2012-06-16T11:30:20Z</time>
      </trkpt>
      <trkpt lat="47.9877" lon="6.74017">
        <ele>524.54</ele>
        <time>2012-06-16T11:30:23Z</time>
      </trkpt>
      <trkpt lat="47.98758" lon="6.74017">
        <ele>525.5</ele>
        <time>2012-06-16T11:30:40Z</time>
      </trkpt>
      <trkpt lat="47.98741" lon="6.74">
        <ele>527.9</ele>
        <time>2012-06-16T11:30:57Z</time>
      </trkpt>
      <trkpt lat="47.9872" lon="6.73964">
        <ele>530.79</ele>
        <time>2012-06-16T11:31:15Z</time>
      </trkpt>
      <trkpt lat="47.98693" lon="6.73922">
        <ele>533.19</ele>
        <time>2012-06-16T11:31:34Z</time>
      </trkpt>
      <trkpt lat="47.98664" lon="6.73898">
        <ele>533.19</ele>
        <time>2012-06-16T11:31:49Z</time>
      </trkpt>
      <trkpt lat="47.98633" lon="6.73867">
        <ele>536.55</ele>
        <time>2012-06-16T11:32:04Z</time>
      </trkpt>
      <trkpt lat="47.98611" lon="6.73832">
        <ele>537.51</ele>
        <time>2012-06-16T11:32:17Z</time>
      </trkpt>
      <trkpt lat="47.98584" lon="6.73789">
        <ele>540.88</ele>
        <time>2012-06-16T11:32:33Z</time>
      </trkpt>
      <trkpt lat="47.98563" lon="6.73746">
        <ele>543.76</ele>
        <time>2012-06-16T11:32:49Z</time>
      </trkpt>
      <trkpt lat="47.98561" lon="6.73741">
        <ele>544.72</ele>
        <time>2012-06-16T11:33:04Z</time>
      </trkpt>
      <trkpt lat="47.9856" lon="6.73741">
        <ele>544.72</ele>
        <time>2012-06-16T11:33:31Z</time>
      </trkpt>
      <trkpt lat="47.9856" lon="6.73741">
        <ele>544.72</ele>
        <time>2012-06-16T11:33:59Z</time>
      </trkpt>
      <trkpt lat="47.98558" lon="6.73741">
        <ele>543.28</ele>
        <time>2012-06-16T11:34:33Z</time>
      </trkpt>
      <trkpt lat="47.98559" lon="6.73723">
        <ele>542.32</ele>
        <time>2012-06-16T11:34:57Z</time>
      </trkpt>
      <trkpt lat="47.98562" lon="6.73661">
        <ele>543.28</ele>
        <time>2012-06-16T11:35:13Z</time>
      </trkpt>
      <trkpt lat="47.98556" lon="6.73607">
        <ele>542.8</ele>
        <time>2012-06-16T11:35:27Z</time>
      </trkpt>
      <trkpt lat="47.9854" lon="6.73535">
        <ele>545.69</ele>
        <time>2012-06-16T11:35:48Z</time>
      </trkpt>
      <trkpt lat="47.98523" lon="6.73502">
        <ele>547.61</ele>
        <time>2012-06-16T11:36:02Z</time>
      </trkpt>
      <trkpt lat="47.98514" lon="6.73462">
        <ele>551.93</ele>
        <time>2012-06-16T11:36:16Z</time>
      </trkpt>
      <trkpt lat="47.98501" lon="6.73437">
        <ele>558.18</ele>
        <time>2012-06-16T11:36:29Z</time>
      </trkpt>
      <trkpt lat="47.98474" lon="6.7343">
        <ele>561.55</ele>
        <time>2012-06-16T11:36:43Z</time>
      </trkpt>
      <trkpt lat="47.98433" lon="6.73445">
        <ele>562.03</ele>
        <time>2012-06-16T11:36:56Z</time>
      </trkpt>
      <trkpt lat="47.98419" lon="6.73449">
        <ele>561.55</ele>
        <time>2012-06-16T11:36:59Z</time>
      </trkpt>
      <trkpt lat="47.98415" lon="6.73449">
        <ele>561.55</ele>
        <time>2012-06-16T11:37:00Z</time>
      </trkpt>
      <trkpt lat="47.9841" lon="6.73448">
        <ele>561.07</ele>
        <time>2012-06-16T11:37:01Z</time>
      </trkpt>
      <trkpt lat="47.98406" lon="6.73446">
        <ele>561.07</ele>
        <time>2012-06-16T11:37:02Z</time>
      </trkpt>
      <trkpt lat="47.98403" lon="6.73443">
        <ele>561.07</ele>
        <time>2012-06-16T11:37:03Z</time>
      </trkpt>
      <trkpt lat="47.98399" lon="6.73439">
        <ele>560.59</ele>
        <time>2012-06-16T11:37:04Z</time>
      </trkpt>
      <trkpt lat="47.98396" lon="6.73435">
        <ele>560.59</ele>
        <time>2012-06-16T11:37:05Z</time>
      </trkpt>
      <trkpt lat="47.98394" lon="6.73429">
        <ele>560.11</ele>
        <time>2012-06-16T11:37:06Z</time>
      </trkpt>
      <trkpt lat="47.98368" lon="6.73391">
        <ele>559.14</ele>
        <time>2012-06-16T11:37:16Z</time>
      </trkpt>
      <trkpt lat="47.98337" lon="6.73397">
        <ele>559.62</ele>
        <time>2012-06-16T11:37:26Z</time>
      </trkpt>
      <trkpt lat="47.98311" lon="6.73382">
        <ele>562.51</ele>
        <time>2012-06-16T11:37:40Z</time>
      </trkpt>
      <trkpt lat="47.98276" lon="6.73383">
        <ele>566.35</ele>
        <time>2012-06-16T11:37:53Z</time>
      </trkpt>
      <trkpt lat="47.98236" lon="6.73396">
        <ele>569.72</ele>
        <time>2012-06-16T11:38:06Z</time>
      </trkpt>
      <trkpt lat="47.98205" lon="6.73395">
        <ele>574.04</ele>
        <time>2012-06-16T11:38:18Z</time>
      </trkpt>
      <trkpt lat="47.98173" lon="6.73378">
        <ele>580.77</ele>
        <time>2012-06-16T11:38:31Z</time>
      </trkpt>
      <trkpt lat="47.98127" lon="6.73367">
        <ele>587.5</ele>
        <time>2012-06-16T11:38:46Z</time>
      </trkpt>
      <trkpt lat="47.98092" lon="6.73377">
        <ele>591.35</ele>
        <time>2012-06-16T11:38:57Z</time>
      </trkpt>
      <trkpt lat="47.98059" lon="6.73405">
        <ele>594.23</ele>
        <time>2012-06-16T11:39:08Z</time>
      </trkpt>
      <trkpt lat="47.98055" lon="6.73408">
        <ele>594.71</ele>
        <time>2012-06-16T11:39:09Z</time>
      </trkpt>
      <trkpt lat="47.97997" lon="6.73456">
        <ele>598.08</ele>
        <time>2012-06-16T11:39:22Z</time>
      </trkpt>
      <trkpt lat="47.97943" lon="6.73486">
        <ele>596.64</ele>
        <time>2012-06-16T11:39:33Z</time>
      </trkpt>
      <trkpt lat="47.97915" lon="6.73514">
        <ele>590.87</ele>
        <time>2012-06-16T11:39:44Z</time>
      </trkpt>
      <trkpt lat="47.97918" lon="6.73534">
        <ele>583.18</ele>
        <time>2012-06-16T11:40:06Z</time>
      </trkpt>
      <trkpt lat="47.97919" lon="6.73537">
        <ele>581.73</ele>
        <time>2012-06-16T11:40:31Z</time>
      </trkpt>
      <trkpt lat="47.97919" lon="6.73537">
        <ele>580.77</ele>
        <time>2012-06-16T11:41:00Z</time>
      </trkpt>
      <trkpt lat="47.9792" lon="6.73538">
        <ele>580.29</ele>
        <time>2012-06-16T11:41:25Z</time>
      </trkpt>
      <trkpt lat="47.9792" lon="6.73538">
        <ele>579.81</ele>
        <time>2012-06-16T11:41:50Z</time>
      </trkpt>
      <trkpt lat="47.97904" lon="6.7356">
        <ele>578.85</ele>
        <time>2012-06-16T11:42:02Z</time>
      </trkpt>
      <trkpt lat="47.9788" lon="6.736">
        <ele>579.81</ele>
        <time>2012-06-16T11:42:16Z</time>
      </trkpt>
      <trkpt lat="47.9786" lon="6.73645">
        <ele>582.7</ele>
        <time>2012-06-16T11:42:29Z</time>
      </trkpt>
      <trkpt lat="47.97844" lon="6.73684">
        <ele>584.62</ele>
        <time>2012-06-16T11:42:41Z</time>
      </trkpt>
      <trkpt lat="47.97821" lon="6.73722">
        <ele>583.18</ele>
        <time>2012-06-16T11:42:56Z</time>
      </trkpt>
      <trkpt lat="47.97793" lon="6.73763">
        <ele>582.7</ele>
        <time>2012-06-16T11:43:11Z</time>
      </trkpt>
      <trkpt lat="47.97771" lon="6.73799">
        <ele>582.7</ele>
        <time>2012-06-16T11:43:24Z</time>
      </trkpt>
      <trkpt lat="47.97744" lon="6.73848">
        <ele>584.62</ele>
        <time>2012-06-16T11:43:39Z</time>
      </trkpt>
      <trkpt lat="47.97725" lon="6.7389">
        <ele>587.98</ele>
        <time>2012-06-16T11:43:50Z</time>
      </trkpt>
      <trkpt lat="47.9771" lon="6.73922">
        <ele>591.35</ele>
        <time>2012-06-16T11:44:01Z</time>
      </trkpt>
      <trkpt lat="47.97692" lon="6.73951">
        <ele>597.6</ele>
        <time>2012-06-16T11:44:14Z</time>
      </trkpt>
      <trkpt lat="47.97686" lon="6.73964">
        <ele>601.44</ele>
        <time>2012-06-16T11:44:21Z</time>
      </trkpt>
      <trkpt lat="47.97686" lon="6.73967">
        <ele>601.44</ele>
        <time>2012-06-16T11:44:22Z</time>
      </trkpt>
      <trkpt lat="47.97687" lon="6.73969">
        <ele>601.44</ele>
        <time>2012-06-16T11:44:23Z</time>
      </trkpt>
      <trkpt lat="47.97687" lon="6.7397">
        <ele>602.4</ele>
        <time>2012-06-16T11:44:24Z</time>
      </trkpt>
      <trkpt lat="47.97688" lon="6.73971">
        <ele>602.88</ele>
        <time>2012-06-16T11:44:25Z</time>
      </trkpt>
      <trkpt lat="47.97693" lon="6.73975">
        <ele>605.29</ele>
        <time>2012-06-16T11:44:40Z</time>
      </trkpt>
      <trkpt lat="47.97693" lon="6.73974">
        <ele>606.73</ele>
        <time>2012-06-16T11:45:02Z</time>
      </trkpt>
      <trkpt lat="47.97697" lon="6.73978">
        <ele>608.17</ele>
        <time>2012-06-16T11:45:27Z</time>
      </trkpt>
      <trkpt lat="47.97701" lon="6.73973">
        <ele>609.13</ele>
        <time>2012-06-16T11:45:39Z</time>
      </trkpt>
      <trkpt lat="47.97703" lon="6.7397">
        <ele>610.09</ele>
        <time>2012-06-16T11:45:41Z</time>
      </trkpt>
      <trkpt lat="47.97736" lon="6.73937">
        <ele>623.07</ele>
        <time>2012-06-16T11:45:56Z</time>
      </trkpt>
      <trkpt lat="47.97761" lon="6.73905">
        <ele>630.76</ele>
        <time>2012-06-16T11:46:08Z</time>
      </trkpt>
      <trkpt lat="47.97789" lon="6.73856">
        <ele>645.66</ele>
        <time>2012-06-16T11:46:21Z</time>
      </trkpt>
      <trkpt lat="47.97821" lon="6.73811">
        <ele>648.55</ele>
        <time>2012-06-16T11:46:31Z</time>
      </trkpt>
      <trkpt lat="47.97825" lon="6.73806">
        <ele>648.55</ele>
        <time>2012-06-16T11:46:32Z</time>
      </trkpt>
      <trkpt lat="47.97828" lon="6.73801">
        <ele>648.55</ele>
        <time>2012-06-16T11:46:33Z</time>
      </trkpt>
      <trkpt lat="47.97831" lon="6.73797">
        <ele>648.55</ele>
        <time>2012-06-16T11:46:34Z</time>
      </trkpt>
      <trkpt lat="47.97834" lon="6.73792">
        <ele>649.03</ele>
        <time>2012-06-16T11:46:35Z</time>
      </trkpt>
      <trkpt lat="47.97837" lon="6.73788">
        <ele>649.51</ele>
        <time>2012-06-16T11:46:36Z</time>
      </trkpt>
      <trkpt lat="47.97839" lon="6.73785">
        <ele>649.99</ele>
        <time>2012-06-16T11:46:37Z</time>
      </trkpt>
      <trkpt lat="47.97842" lon="6.73783">
        <ele>649.99</ele>
        <time>2012-06-16T11:46:38Z</time>
      </trkpt>
      <trkpt lat="47.97851" lon="6.73778">
        <ele>649.99</ele>
        <time>2012-06-16T11:46:41Z</time>
      </trkpt>
      <trkpt lat="47.97867" lon="6.73773">
        <ele>651.43</ele>
        <time>2012-06-16T11:46:48Z</time>
      </trkpt>
      <trkpt lat="47.97869" lon="6.73773">
        <ele>651.91</ele>
        <time>2012-06-16T11:46:49Z</time>
      </trkpt>
      <trkpt lat="47.97885" lon="6.73764">
        <ele>657.2</ele>
        <time>2012-06-16T11:47:00Z</time>
      </trkpt>
      <trkpt lat="47.97896" lon="6.73757">
        <ele>661.52</ele>
        <time>2012-06-16T11:47:07Z</time>
      </trkpt>
      <trkpt lat="47.97898" lon="6.73755">
        <ele>662.97</ele>
        <time>2012-06-16T11:47:09Z</time>
      </trkpt>
      <trkpt lat="47.9791" lon="6.73748">
        <ele>669.7</ele>
        <time>2012-06-16T11:47:18Z</time>
      </trkpt>
      <trkpt lat="47.97945" lon="6.7373">
        <ele>675.46</ele>
        <time>2012-06-16T11:47:33Z</time>
      </trkpt>
      <trkpt lat="47.97959" lon="6.73729">
        <ele>672.58</ele>
        <time>2012-06-16T11:47:38Z</time>
      </trkpt>
      <trkpt lat="47.97985" lon="6.73719">
        <ele>671.14</ele>
        <time>2012-06-16T11:47:53Z</time>
      </trkpt>
      <trkpt lat="47.97989" lon="6.73719">
        <ele>671.62</ele>
        <time>2012-06-16T11:47:55Z</time>
      </trkpt>
      <trkpt lat="47.98009" lon="6.73715">
        <ele>667.77</ele>
        <time>2012-06-16T11:48:06Z</time>
      </trkpt>
      <trkpt lat="47.98025" lon="6.73706">
        <ele>668.25</ele>
        <time>2012-06-16T11:48:16Z</time>
      </trkpt>
      <trkpt lat="47.98038" lon="6.73703">
        <ele>670.18</ele>
        <time>2012-06-16T11:48:25Z</time>
      </trkpt>
      <trkpt lat="47.98069" lon="6.737">
        <ele>673.54</ele>
        <time>2012-06-16T11:48:41Z</time>
      </trkpt>
      <trkpt lat="47.98106" lon="6.73706">
        <ele>669.7</ele>
        <time>2012-06-16T11:48:54Z</time>
      </trkpt>
      <trkpt lat="47.98109" lon="6.73707">
        <ele>668.73</ele>
        <time>2012-06-16T11:48:55Z</time>
      </trkpt>
      <trkpt lat="47.98117" lon="6.73715">
        <ele>666.81</ele>
        <time>2012-06-16T11:49:00Z</time>
      </trkpt>
      <trkpt lat="47.98125" lon="6.73716">
        <ele>664.41</ele>
        <time>2012-06-16T11:49:13Z</time>
      </trkpt>
      <trkpt lat="47.98129" lon="6.73717">
        <ele>660.08</ele>
        <time>2012-06-16T11:49:33Z</time>
      </trkpt>
      <trkpt lat="47.98133" lon="6.73722">
        <ele>656.72</ele>
        <time>2012-06-16T11:49:58Z</time>
      </trkpt>
      <trkpt lat="47.98136" lon="6.73723">
        <ele>651.91</ele>
        <time>2012-06-16T11:50:31Z</time>
      </trkpt>
      <trkpt lat="47.98138" lon="6.73723">
        <ele>648.55</ele>
        <time>2012-06-16T11:51:04Z</time>
      </trkpt>
      <trkpt lat="47.98139" lon="6.73723">
        <ele>647.1</ele>
        <time>2012-06-16T11:51:30Z</time>
      </trkpt>
      <trkpt lat="47.98139" lon="6.73722">
        <ele>646.62</ele>
        <time>2012-06-16T11:51:51Z</time>
      </trkpt>
      <trkpt lat="47.9814" lon="6.73722">
        <ele>646.62</ele>
        <time>2012-06-16T11:52:12Z</time>
      </trkpt>
      <trkpt lat="47.98143" lon="6.73727">
        <ele>646.14</ele>
        <time>2012-06-16T11:52:40Z</time>
      </trkpt>
      <trkpt lat="47.98171" lon="6.7374">
        <ele>644.7</ele>
        <time>2012-06-16T11:52:54Z</time>
      </trkpt>
      <trkpt lat="47.98175" lon="6.73741">
        <ele>644.7</ele>
        <time>2012-06-16T11:52:56Z</time>
      </trkpt>
      <trkpt lat="47.98184" lon="6.73751">
        <ele>646.14</ele>
        <time>2012-06-16T11:53:00Z</time>
      </trkpt>
      <trkpt lat="47.98167" lon="6.73789">
        <ele>649.51</ele>
        <time>2012-06-16T11:53:13Z</time>
      </trkpt>
      <trkpt lat="47.98146" lon="6.73804">
        <ele>650.95</ele>
        <time>2012-06-16T11:53:24Z</time>
      </trkpt>
      <trkpt lat="47.9812" lon="6.73818">
        <ele>654.31</ele>
        <time>2012-06-16T11:53:38Z</time>
      </trkpt>
      <trkpt lat="47.98113" lon="6.73822">
        <ele>655.28</ele>
        <time>2012-06-16T11:53:42Z</time>
      </trkpt>
      <trkpt lat="47.98083" lon="6.73852">
        <ele>659.12</ele>
        <time>2012-06-16T11:53:57Z</time>
      </trkpt>
      <trkpt lat="47.98064" lon="6.73866">
        <ele>660.56</ele>
        <time>2012-06-16T11:54:11Z</time>
      </trkpt>
      <trkpt lat="47.98039" lon="6.73875">
        <ele>663.45</ele>
        <time>2012-06-16T11:54:24Z</time>
      </trkpt>
      <trkpt lat="47.98024" lon="6.73885">
        <ele>664.89</ele>
        <time>2012-06-16T11:54:30Z</time>
      </trkpt>
      <trkpt lat="47.9802" lon="6.73889">
        <ele>664.89</ele>
        <time>2012-06-16T11:54:31Z</time>
      </trkpt>
      <trkpt lat="47.97997" lon="6.73916">
        <ele>665.85</ele>
        <time>2012-06-16T11:54:37Z</time>
      </trkpt>
      <trkpt lat="47.97954" lon="6.73947">
        <ele>665.37</ele>
        <time>2012-06-16T11:54:45Z</time>
      </trkpt>
      <trkpt lat="47.97949" lon="6.7395">
        <ele>665.37</ele>
        <time>2012-06-16T11:54:46Z</time>
      </trkpt>
      <trkpt lat="47.97926" lon="6.73965">
        <ele>664.89</ele>
        <time>2012-06-16T11:54:50Z</time>
      </trkpt>
      <trkpt lat="47.97918" lon="6.73968">
        <ele>664.41</ele>
        <time>2012-06-16T11:54:51Z</time>
      </trkpt>
      <trkpt lat="47.97913" lon="6.73973">
        <ele>664.41</ele>
        <time>2012-06-16T11:54:52Z</time>
      </trkpt>
      <trkpt lat="47.97909" lon="6.73978">
        <ele>664.41</ele>
        <time>2012-06-16T11:54:53Z</time>
      </trkpt>
      <trkpt lat="47.97905" lon="6.73983">
        <ele>663.93</ele>
        <time>2012-06-16T11:54:54Z</time>
      </trkpt>
      <trkpt lat="47.97901" lon="6.73988">
        <ele>663.93</ele>
        <time>2012-06-16T11:54:55Z</time>
      </trkpt>
      <trkpt lat="47.97897" lon="6.73994">
        <ele>663.45</ele>
        <time>2012-06-16T11:54:56Z</time>
      </trkpt>
      <trkpt lat="47.9787" lon="6.74038">
        <ele>662.97</ele>
        <time>2012-06-16T11:55:06Z</time>
      </trkpt>
      <trkpt lat="47.97835" lon="6.74086">
        <ele>662.01</ele>
        <time>2012-06-16T11:55:18Z</time>
      </trkpt>
      <trkpt lat="47.97803" lon="6.74116">
        <ele>661.52</ele>
        <time>2012-06-16T11:55:28Z</time>
      </trkpt>
      <trkpt lat="47.97781" lon="6.74148">
        <ele>662.97</ele>
        <time>2012-06-16T11:55:39Z</time>
      </trkpt>
      <trkpt lat="47.9776" lon="6.74177">
        <ele>661.04</ele>
        <time>2012-06-16T11:55:49Z</time>
      </trkpt>
      <trkpt lat="47.97729" lon="6.74214">
        <ele>659.6</ele>
        <time>2012-06-16T11:56:00Z</time>
      </trkpt>
      <trkpt lat="47.97713" lon="6.74254">
        <ele>658.64</ele>
        <time>2012-06-16T11:56:11Z</time>
      </trkpt>
      <trkpt lat="47.97712" lon="6.74257">
        <ele>658.64</ele>
        <time>2012-06-16T11:56:28Z</time>
      </trkpt>
      <trkpt lat="47.97711" lon="6.74258">
        <ele>659.12</ele>
        <time>2012-06-16T11:56:29Z</time>
      </trkpt>
      <trkpt lat="47.97709" lon="6.7426">
        <ele>659.12</ele>
        <time>2012-06-16T11:56:30Z</time>
      </trkpt>
      <trkpt lat="47.97708" lon="6.74263">
        <ele>659.6</ele>
        <time>2012-06-16T11:56:31Z</time>
      </trkpt>
      <trkpt lat="47.97706" lon="6.74265">
        <ele>660.56</ele>
        <time>2012-06-16T11:56:32Z</time>
      </trkpt>
      <trkpt lat="47.97704" lon="6.74268">
        <ele>661.04</ele>
        <time>2012-06-16T11:56:33Z</time>
      </trkpt>
      <trkpt lat="47.97702" lon="6.74272">
        <ele>662.01</ele>
        <time>2012-06-16T11:56:34Z</time>
      </trkpt>
      <trkpt lat="47.97674" lon="6.74347">
        <ele>671.14</ele>
        <time>2012-06-16T11:56:47Z</time>
      </trkpt>
      <trkpt lat="47.97668" lon="6.74371">
        <ele>674.02</ele>
        <time>2012-06-16T11:56:51Z</time>
      </trkpt>
      <trkpt lat="47.97666" lon="6.74378">
        <ele>674.5</ele>
        <time>2012-06-16T11:56:52Z</time>
      </trkpt>
      <trkpt lat="47.97642" lon="6.74443">
        <ele>678.83</ele>
        <time>2012-06-16T11:57:04Z</time>
      </trkpt>
      <trkpt lat="47.97633" lon="6.74483">
        <ele>678.35</ele>
        <time>2012-06-16T11:57:10Z</time>
      </trkpt>
      <trkpt lat="47.97594" lon="6.74568">
        <ele>675.46</ele>
        <time>2012-06-16T11:57:23Z</time>
      </trkpt>
      <trkpt lat="47.97589" lon="6.74579">
        <ele>674.98</ele>
        <time>2012-06-16T11:57:25Z</time>
      </trkpt>
      <trkpt lat="47.97587" lon="6.74583">
        <ele>674.98</ele>
        <time>2012-06-16T11:57:26Z</time>
      </trkpt>
      <trkpt lat="47.97585" lon="6.74588">
        <ele>674.98</ele>
        <time>2012-06-16T11:57:27Z</time>
      </trkpt>
      <trkpt lat="47.97583" lon="6.74592">
        <ele>674.98</ele>
        <time>2012-06-16T11:57:28Z</time>
      </trkpt>
      <trkpt lat="47.97581" lon="6.74596">
        <ele>674.98</ele>
        <time>2012-06-16T11:57:29Z</time>
      </trkpt>
      <trkpt lat="47.97548" lon="6.74638">
        <ele>673.54</ele>
        <time>2012-06-16T11:57:43Z</time>
      </trkpt>
      <trkpt lat="47.97529" lon="6.7467">
        <ele>671.62</ele>
        <time>2012-06-16T11:57:55Z</time>
      </trkpt>
      <trkpt lat="47.9751" lon="6.74713">
        <ele>668.25</ele>
        <time>2012-06-16T11:58:08Z</time>
      </trkpt>
      <trkpt lat="47.97486" lon="6.74748">
        <ele>667.77</ele>
        <time>2012-06-16T11:58:21Z</time>
      </trkpt>
      <trkpt lat="47.97455" lon="6.74784">
        <ele>671.14</ele>
        <time>2012-06-16T11:58:35Z</time>
      </trkpt>
      <trkpt lat="47.97428" lon="6.74808">
        <ele>674.5</ele>
        <time>2012-06-16T11:58:47Z</time>
      </trkpt>
      <trkpt lat="47.97401" lon="6.74827">
        <ele>678.35</ele>
        <time>2012-06-16T11:59:00Z</time>
      </trkpt>
      <trkpt lat="47.97378" lon="6.74845">
        <ele>684.6</ele>
        <time>2012-06-16T11:59:11Z</time>
      </trkpt>
      <trkpt lat="47.97376" lon="6.74848">
        <ele>691.81</ele>
        <time>2012-06-16T11:59:31Z</time>
      </trkpt>
      <trkpt lat="47.97377" lon="6.7485">
        <ele>691.81</ele>
        <time>2012-06-16T11:59:34Z</time>
      </trkpt>
      <trkpt lat="47.97359" lon="6.74875">
        <ele>695.65</ele>
        <time>2012-06-16T11:59:49Z</time>
      </trkpt>
      <trkpt lat="47.9734" lon="6.74905">
        <ele>692.77</ele>
        <time>2012-06-16T12:00:01Z</time>
      </trkpt>
      <trkpt lat="47.97326" lon="6.74912">
        <ele>694.21</ele>
        <time>2012-06-16T12:00:09Z</time>
      </trkpt>
      <trkpt lat="47.9732" lon="6.74921">
        <ele>694.21</ele>
        <time>2012-06-16T12:00:15Z</time>
      </trkpt>
      <trkpt lat="47.97316" lon="6.74934">
        <ele>697.09</ele>
        <time>2012-06-16T12:00:28Z</time>
      </trkpt>
      <trkpt lat="47.97323" lon="6.7495">
        <ele>687.96</ele>
        <time>2012-06-16T12:00:52Z</time>
      </trkpt>
      <trkpt lat="47.97323" lon="6.7495">
        <ele>687</ele>
        <time>2012-06-16T12:01:19Z</time>
      </trkpt>
      <trkpt lat="47.97323" lon="6.74949">
        <ele>685.08</ele>
        <time>2012-06-16T12:01:46Z</time>
      </trkpt>
      <trkpt lat="47.97323" lon="6.74948">
        <ele>683.15</ele>
        <time>2012-06-16T12:02:17Z</time>
      </trkpt>
      <trkpt lat="47.97324" lon="6.74948">
        <ele>682.19</ele>
        <time>2012-06-16T12:02:44Z</time>
      </trkpt>
      <trkpt lat="47.97324" lon="6.74948">
        <ele>682.19</ele>
        <time>2012-06-16T12:03:14Z</time>
      </trkpt>
      <trkpt lat="47.97324" lon="6.74949">
        <ele>681.71</ele>
        <time>2012-06-16T12:03:30Z</time>
      </trkpt>
      <trkpt lat="47.97316" lon="6.74958">
        <ele>681.23</ele>
        <time>2012-06-16T12:03:44Z</time>
      </trkpt>
      <trkpt lat="47.973" lon="6.74984">
        <ele>682.67</ele>
        <time>2012-06-16T12:03:59Z</time>
      </trkpt>
      <trkpt lat="47.97287" lon="6.75023">
        <ele>684.6</ele>
        <time>2012-06-16T12:04:17Z</time>
      </trkpt>
      <trkpt lat="47.97283" lon="6.75055">
        <ele>687</ele>
        <time>2012-06-16T12:04:29Z</time>
      </trkpt>
      <trkpt lat="47.97282" lon="6.75093">
        <ele>690.84</ele>
        <time>2012-06-16T12:04:42Z</time>
      </trkpt>
      <trkpt lat="47.9728" lon="6.75135">
        <ele>696.13</ele>
        <time>2012-06-16T12:04:56Z</time>
      </trkpt>
      <trkpt lat="47.97284" lon="6.75172">
        <ele>701.9</ele>
        <time>2012-06-16T12:05:06Z</time>
      </trkpt>
      <trkpt lat="47.97291" lon="6.75196">
        <ele>705.26</ele>
        <time>2012-06-16T12:05:14Z</time>
      </trkpt>
      <trkpt lat="47.97312" lon="6.75226">
        <ele>709.11</ele>
        <time>2012-06-16T12:05:27Z</time>
      </trkpt>
      <trkpt lat="47.97324" lon="6.75252">
        <ele>711.51</ele>
        <time>2012-06-16T12:05:39Z</time>
      </trkpt>
      <trkpt lat="47.97328" lon="6.75261">
        <ele>712.95</ele>
        <time>2012-06-16T12:05:43Z</time>
      </trkpt>
      <trkpt lat="47.97331" lon="6.75273">
        <ele>713.92</ele>
        <time>2012-06-16T12:05:47Z</time>
      </trkpt>
      <trkpt lat="47.97331" lon="6.75279">
        <ele>714.4</ele>
        <time>2012-06-16T12:05:49Z</time>
      </trkpt>
      <trkpt lat="47.97338" lon="6.75316">
        <ele>718.72</ele>
        <time>2012-06-16T12:05:59Z</time>
      </trkpt>
      <trkpt lat="47.97342" lon="6.7533">
        <ele>720.16</ele>
        <time>2012-06-16T12:06:03Z</time>
      </trkpt>
      <trkpt lat="47.97343" lon="6.75377">
        <ele>724.01</ele>
        <time>2012-06-16T12:06:15Z</time>
      </trkpt>
      <trkpt lat="47.97345" lon="6.75391">
        <ele>725.93</ele>
        <time>2012-06-16T12:06:20Z</time>
      </trkpt>
      <trkpt lat="47.97353" lon="6.75423">
        <ele>730.74</ele>
        <time>2012-06-16T12:06:33Z</time>
      </trkpt>
      <trkpt lat="47.97359" lon="6.75452">
        <ele>731.22</ele>
        <time>2012-06-16T12:06:42Z</time>
      </trkpt>
      <trkpt lat="47.97364" lon="6.75473">
        <ele>732.18</ele>
        <time>2012-06-16T12:06:49Z</time>
      </trkpt>
      <trkpt lat="47.97378" lon="6.75508">
        <ele>732.18</ele>
        <time>2012-06-16T12:07:02Z</time>
      </trkpt>
      <trkpt lat="47.97382" lon="6.75511">
        <ele>732.18</ele>
        <time>2012-06-16T12:07:04Z</time>
      </trkpt>
      <trkpt lat="47.97392" lon="6.75522">
        <ele>732.18</ele>
        <time>2012-06-16T12:07:11Z</time>
      </trkpt>
      <trkpt lat="47.97401" lon="6.7554">
        <ele>736.99</ele>
        <time>2012-06-16T12:07:24Z</time>
      </trkpt>
      <trkpt lat="47.97401" lon="6.75559">
        <ele>740.35</ele>
        <time>2012-06-16T12:07:32Z</time>
      </trkpt>
      <trkpt lat="47.97413" lon="6.75596">
        <ele>743.24</ele>
        <time>2012-06-16T12:07:46Z</time>
      </trkpt>
      <trkpt lat="47.97426" lon="6.75615">
        <ele>745.64</ele>
        <time>2012-06-16T12:07:57Z</time>
      </trkpt>
      <trkpt lat="47.97428" lon="6.75623">
        <ele>747.08</ele>
        <time>2012-06-16T12:08:02Z</time>
      </trkpt>
      <trkpt lat="47.97438" lon="6.75656">
        <ele>751.89</ele>
        <time>2012-06-16T12:08:17Z</time>
      </trkpt>
      <trkpt lat="47.97441" lon="6.7566">
        <ele>753.33</ele>
        <time>2012-06-16T12:08:20Z</time>
      </trkpt>
      <trkpt lat="47.97447" lon="6.75664">
        <ele>754.29</ele>
        <time>2012-06-16T12:08:24Z</time>
      </trkpt>
      <trkpt lat="47.97455" lon="6.75652">
        <ele>761.5</ele>
        <time>2012-06-16T12:08:40Z</time>
      </trkpt>
      <trkpt lat="47.97463" lon="6.75615">
        <ele>777.36</ele>
        <time>2012-06-16T12:08:58Z</time>
      </trkpt>
      <trkpt lat="47.97471" lon="6.75586">
        <ele>786.02</ele>
        <time>2012-06-16T12:09:13Z</time>
      </trkpt>
      <trkpt lat="47.97477" lon="6.75559">
        <ele>792.74</ele>
        <time>2012-06-16T12:09:27Z</time>
      </trkpt>
      <trkpt lat="47.97486" lon="6.75525">
        <ele>798.51</ele>
        <time>2012-06-16T12:09:42Z</time>
      </trkpt>
      <trkpt lat="47.97493" lon="6.75492">
        <ele>802.84</ele>
        <time>2012-06-16T12:09:57Z</time>
      </trkpt>
      <trkpt lat="47.97496" lon="6.75465">
        <ele>811.97</ele>
        <time>2012-06-16T12:10:12Z</time>
      </trkpt>
      <trkpt lat="47.975" lon="6.75438">
        <ele>814.85</ele>
        <time>2012-06-16T12:10:27Z</time>
      </trkpt>
      <trkpt lat="47.975" lon="6.75426">
        <ele>812.93</ele>
        <time>2012-06-16T12:10:42Z</time>
      </trkpt>
      <trkpt lat="47.97499" lon="6.75417">
        <ele>811.01</ele>
        <time>2012-06-16T12:11:05Z</time>
      </trkpt>
      <trkpt lat="47.975" lon="6.75415">
        <ele>809.09</ele>
        <time>2012-06-16T12:11:31Z</time>
      </trkpt>
      <trkpt lat="47.975" lon="6.75411">
        <ele>806.68</ele>
        <time>2012-06-16T12:11:53Z</time>
      </trkpt>
      <trkpt lat="47.975" lon="6.75412">
        <ele>806.2</ele>
        <time>2012-06-16T12:12:23Z</time>
      </trkpt>
      <trkpt lat="47.975" lon="6.75409">
        <ele>804.28</ele>
        <time>2012-06-16T12:12:51Z</time>
      </trkpt>
      <trkpt lat="47.97501" lon="6.75407">
        <ele>801.88</ele>
        <time>2012-06-16T12:13:21Z</time>
      </trkpt>
      <trkpt lat="47.97503" lon="6.75404">
        <ele>798.03</ele>
        <time>2012-06-16T12:13:54Z</time>
      </trkpt>
      <trkpt lat="47.97503" lon="6.75403">
        <ele>796.59</ele>
        <time>2012-06-16T12:14:19Z</time>
      </trkpt>
      <trkpt lat="47.97504" lon="6.75404">
        <ele>795.15</ele>
        <time>2012-06-16T12:14:48Z</time>
      </trkpt>
      <trkpt lat="47.97504" lon="6.75402">
        <ele>793.22</ele>
        <time>2012-06-16T12:15:14Z</time>
      </trkpt>
      <trkpt lat="47.97504" lon="6.75401">
        <ele>791.78</ele>
        <time>2012-06-16T12:15:38Z</time>
      </trkpt>
      <trkpt lat="47.97504" lon="6.754">
        <ele>791.3</ele>
        <time>2012-06-16T12:16:05Z</time>
      </trkpt>
      <trkpt lat="47.97504" lon="6.75399">
        <ele>790.82</ele>
        <time>2012-06-16T12:16:33Z</time>
      </trkpt>
      <trkpt lat="47.97505" lon="6.75397">
        <ele>789.38</ele>
        <time>2012-06-16T12:17:02Z</time>
      </trkpt>
      <trkpt lat="47.97505" lon="6.75397">
        <ele>788.42</ele>
        <time>2012-06-16T12:17:24Z</time>
      </trkpt>
      <trkpt lat="47.97504" lon="6.75398">
        <ele>788.42</ele>
        <time>2012-06-16T12:17:54Z</time>
      </trkpt>
      <trkpt lat="47.97507" lon="6.75395">
        <ele>786.98</ele>
        <time>2012-06-16T12:18:14Z</time>
      </trkpt>
      <trkpt lat="47.97512" lon="6.75372">
        <ele>789.86</ele>
        <time>2012-06-16T12:18:30Z</time>
      </trkpt>
      <trkpt lat="47.97512" lon="6.7537">
        <ele>790.34</ele>
        <time>2012-06-16T12:18:31Z</time>
      </trkpt>
      <trkpt lat="47.97516" lon="6.75328">
        <ele>797.07</ele>
        <time>2012-06-16T12:18:48Z</time>
      </trkpt>
      <trkpt lat="47.97523" lon="6.75312">
        <ele>798.03</ele>
        <time>2012-06-16T12:18:56Z</time>
      </trkpt>
      <trkpt lat="47.97533" lon="6.75297">
        <ele>806.2</ele>
        <time>2012-06-16T12:19:11Z</time>
      </trkpt>
      <trkpt lat="47.97538" lon="6.7529">
        <ele>809.09</ele>
        <time>2012-06-16T12:19:17Z</time>
      </trkpt>
      <trkpt lat="47.97573" lon="6.75247">
        <ele>798.99</ele>
        <time>2012-06-16T12:19:33Z</time>
      </trkpt>
      <trkpt lat="47.97584" lon="6.75236">
        <ele>796.59</ele>
        <time>2012-06-16T12:19:39Z</time>
      </trkpt>
      <trkpt lat="47.97611" lon="6.75226">
        <ele>792.26</ele>
        <time>2012-06-16T12:19:53Z</time>
      </trkpt>
      <trkpt lat="47.97614" lon="6.75228">
        <ele>787.46</ele>
        <time>2012-06-16T12:19:58Z</time>
      </trkpt>
      <trkpt lat="47.97609" lon="6.75247">
        <ele>782.17</ele>
        <time>2012-06-16T12:20:11Z</time>
      </trkpt>
      <trkpt lat="47.97607" lon="6.75254">
        <ele>782.17</ele>
        <time>2012-06-16T12:20:14Z</time>
      </trkpt>
      <trkpt lat="47.97597" lon="6.75282">
        <ele>786.5</ele>
        <time>2012-06-16T12:20:29Z</time>
      </trkpt>
      <trkpt lat="47.97588" lon="6.75303">
        <ele>788.42</ele>
        <time>2012-06-16T12:20:39Z</time>
      </trkpt>
      <trkpt lat="47.97573" lon="6.75353">
        <ele>787.94</ele>
        <time>2012-06-16T12:20:54Z</time>
      </trkpt>
      <trkpt lat="47.97569" lon="6.75407">
        <ele>787.94</ele>
        <time>2012-06-16T12:21:09Z</time>
      </trkpt>
      <trkpt lat="47.97567" lon="6.75459">
        <ele>790.82</ele>
        <time>2012-06-16T12:21:26Z</time>
      </trkpt>
      <trkpt lat="47.9757" lon="6.75517">
        <ele>795.63</ele>
        <time>2012-06-16T12:21:43Z</time>
      </trkpt>
      <trkpt lat="47.97576" lon="6.75562">
        <ele>795.15</ele>
        <time>2012-06-16T12:21:56Z</time>
      </trkpt>
      <trkpt lat="47.97591" lon="6.75591">
        <ele>795.63</ele>
        <time>2012-06-16T12:22:08Z</time>
      </trkpt>
      <trkpt lat="47.9761" lon="6.75612">
        <ele>796.11</ele>
        <time>2012-06-16T12:22:18Z</time>
      </trkpt>
      <trkpt lat="47.97612" lon="6.75627">
        <ele>797.07</ele>
        <time>2012-06-16T12:22:23Z</time>
      </trkpt>
      <trkpt lat="47.97622" lon="6.75658">
        <ele>798.99</ele>
        <time>2012-06-16T12:22:34Z</time>
      </trkpt>
      <trkpt lat="47.97619" lon="6.75662">
        <ele>799.47</ele>
        <time>2012-06-16T12:22:45Z</time>
      </trkpt>
      <trkpt lat="47.97619" lon="6.75663">
        <ele>799.47</ele>
        <time>2012-06-16T12:22:59Z</time>
      </trkpt>
      <trkpt lat="47.97618" lon="6.75664">
        <ele>799.47</ele>
        <time>2012-06-16T12:23:20Z</time>
      </trkpt>
      <trkpt lat="47.97615" lon="6.75665">
        <ele>799.47</ele>
        <time>2012-06-16T12:23:36Z</time>
      </trkpt>
      <trkpt lat="47.97615" lon="6.75666">
        <ele>799.47</ele>
        <time>2012-06-16T12:23:54Z</time>
      </trkpt>
      <trkpt lat="47.97615" lon="6.75667">
        <ele>799.47</ele>
        <time>2012-06-16T12:24:12Z</time>
      </trkpt>
      <trkpt lat="47.97615" lon="6.75664">
        <ele>798.51</ele>
        <time>2012-06-16T12:24:33Z</time>
      </trkpt>
      <trkpt lat="47.97616" lon="6.75664">
        <ele>798.03</ele>
        <time>2012-06-16T12:24:58Z</time>
      </trkpt>
      <trkpt lat="47.97611" lon="6.75675">
        <ele>796.59</ele>
        <time>2012-06-16T12:25:18Z</time>
      </trkpt>
      <trkpt lat="47.9762" lon="6.7566">
        <ele>796.11</ele>
        <time>2012-06-16T12:28:13Z</time>
      </trkpt>
      <trkpt lat="47.97617" lon="6.75664">
        <ele>804.76</ele>
        <time>2012-06-16T12:28:53Z</time>
      </trkpt>
      <trkpt lat="47.97618" lon="6.75672">
        <ele>799.95</ele>
        <time>2012-06-16T12:29:07Z</time>
      </trkpt>
      <trkpt lat="47.97616" lon="6.75678">
        <ele>800.92</ele>
        <time>2012-06-16T12:29:26Z</time>
      </trkpt>
      <trkpt lat="47.97615" lon="6.75678">
        <ele>802.36</ele>
        <time>2012-06-16T12:29:45Z</time>
      </trkpt>
      <trkpt lat="47.97618" lon="6.7568">
        <ele>801.4</ele>
        <time>2012-06-16T12:30:04Z</time>
      </trkpt>
      <trkpt lat="47.97618" lon="6.75677">
        <ele>800.92</ele>
        <time>2012-06-16T12:30:31Z</time>
      </trkpt>
      <trkpt lat="47.97617" lon="6.75678">
        <ele>800.92</ele>
        <time>2012-06-16T12:31:03Z</time>
      </trkpt>
      <trkpt lat="47.97616" lon="6.75678">
        <ele>801.4</ele>
        <time>2012-06-16T12:31:30Z</time>
      </trkpt>
      <trkpt lat="47.97617" lon="6.75677">
        <ele>799.95</ele>
        <time>2012-06-16T12:31:53Z</time>
      </trkpt>
      <trkpt lat="47.97616" lon="6.75676">
        <ele>800.92</ele>
        <time>2012-06-16T12:32:24Z</time>
      </trkpt>
      <trkpt lat="47.97616" lon="6.75672">
        <ele>800.44</ele>
        <time>2012-06-16T12:32:45Z</time>
      </trkpt>
      <trkpt lat="47.97618" lon="6.7567">
        <ele>800.44</ele>
        <time>2012-06-16T12:33:03Z</time>
      </trkpt>
      <trkpt lat="47.97619" lon="6.75669">
        <ele>800.44</ele>
        <time>2012-06-16T12:33:20Z</time>
      </trkpt>
      <trkpt lat="47.97618" lon="6.75668">
        <ele>800.92</ele>
        <time>2012-06-16T12:33:41Z</time>
      </trkpt>
      <trkpt lat="47.97618" lon="6.75667">
        <ele>801.4</ele>
        <time>2012-06-16T12:34:00Z</time>
      </trkpt>
      <trkpt lat="47.97618" lon="6.75665">
        <ele>800.44</ele>
        <time>2012-06-16T12:34:20Z</time>
      </trkpt>
      <trkpt lat="47.97618" lon="6.75665">
        <ele>802.36</ele>
        <time>2012-06-16T12:34:48Z</time>
      </trkpt>
      <trkpt lat="47.97618" lon="6.75665">
        <ele>802.36</ele>
        <time>2012-06-16T12:34:50Z</time>
      </trkpt>
      <trkpt lat="47.9763" lon="6.75674">
        <ele>802.36</ele>
        <time>2012-06-16T12:35:00Z</time>
      </trkpt>
      <trkpt lat="47.97651" lon="6.75692">
        <ele>805.72</ele>
        <time>2012-06-16T12:35:16Z</time>
      </trkpt>
      <trkpt lat="47.97667" lon="6.75709">
        <ele>811.97</ele>
        <time>2012-06-16T12:35:29Z</time>
      </trkpt>
      <trkpt lat="47.97678" lon="6.75725">
        <ele>815.34</ele>
        <time>2012-06-16T12:35:39Z</time>
      </trkpt>
      <trkpt lat="47.97698" lon="6.75752">
        <ele>828.31</ele>
        <time>2012-06-16T12:35:58Z</time>
      </trkpt>
      <trkpt lat="47.97711" lon="6.75777">
        <ele>835.04</ele>
        <time>2012-06-16T12:36:12Z</time>
      </trkpt>
      <trkpt lat="47.97713" lon="6.75781">
        <ele>836</ele>
        <time>2012-06-16T12:36:14Z</time>
      </trkpt>
      <trkpt lat="47.97725" lon="6.75805">
        <ele>840.81</ele>
        <time>2012-06-16T12:36:28Z</time>
      </trkpt>
      <trkpt lat="47.97728" lon="6.75829">
        <ele>846.1</ele>
        <time>2012-06-16T12:36:43Z</time>
      </trkpt>
      <trkpt lat="47.97732" lon="6.75841">
        <ele>847.06</ele>
        <time>2012-06-16T12:36:48Z</time>
      </trkpt>
      <trkpt lat="47.9774" lon="6.75885">
        <ele>846.58</ele>
        <time>2012-06-16T12:37:03Z</time>
      </trkpt>
      <trkpt lat="47.97742" lon="6.75896">
        <ele>847.06</ele>
        <time>2012-06-16T12:37:08Z</time>
      </trkpt>
      <trkpt lat="47.97743" lon="6.75904">
        <ele>848.98</ele>
        <time>2012-06-16T12:37:14Z</time>
      </trkpt>
      <trkpt lat="47.9773" lon="6.75931">
        <ele>855.23</ele>
        <time>2012-06-16T12:37:29Z</time>
      </trkpt>
      <trkpt lat="47.9772" lon="6.75959">
        <ele>860.04</ele>
        <time>2012-06-16T12:37:42Z</time>
      </trkpt>
      <trkpt lat="47.97711" lon="6.76001">
        <ele>858.11</ele>
        <time>2012-06-16T12:37:56Z</time>
      </trkpt>
      <trkpt lat="47.97703" lon="6.76036">
        <ele>862.92</ele>
        <time>2012-06-16T12:38:10Z</time>
      </trkpt>
      <trkpt lat="47.97716" lon="6.76051">
        <ele>871.09</ele>
        <time>2012-06-16T12:38:24Z</time>
      </trkpt>
      <trkpt lat="47.97726" lon="6.76063">
        <ele>879.74</ele>
        <time>2012-06-16T12:38:34Z</time>
      </trkpt>
      <trkpt lat="47.97739" lon="6.76069">
        <ele>888.4</ele>
        <time>2012-06-16T12:38:49Z</time>
      </trkpt>
      <trkpt lat="47.97746" lon="6.76058">
        <ele>888.4</ele>
        <time>2012-06-16T12:39:05Z</time>
      </trkpt>
      <trkpt lat="47.97748" lon="6.76073">
        <ele>888.88</ele>
        <time>2012-06-16T12:39:17Z</time>
      </trkpt>
      <trkpt lat="47.97741" lon="6.76084">
        <ele>885.99</ele>
        <time>2012-06-16T12:39:30Z</time>
      </trkpt>
      <trkpt lat="47.97732" lon="6.76078">
        <ele>886.47</ele>
        <time>2012-06-16T12:39:50Z</time>
      </trkpt>
      <trkpt lat="47.97732" lon="6.76079">
        <ele>886.95</ele>
        <time>2012-06-16T12:40:04Z</time>
      </trkpt>
      <trkpt lat="47.97733" lon="6.76082">
        <ele>885.51</ele>
        <time>2012-06-16T12:40:20Z</time>
      </trkpt>
      <trkpt lat="47.97712" lon="6.7608">
        <ele>891.28</ele>
        <time>2012-06-16T12:40:31Z</time>
      </trkpt>
      <trkpt lat="47.97683" lon="6.76114">
        <ele>877.82</ele>
        <time>2012-06-16T12:40:41Z</time>
      </trkpt>
      <trkpt lat="47.97646" lon="6.76165">
        <ele>854.75</ele>
        <time>2012-06-16T12:40:55Z</time>
      </trkpt>
      <trkpt lat="47.97647" lon="6.76171">
        <ele>850.42</ele>
        <time>2012-06-16T12:41:24Z</time>
      </trkpt>
      <trkpt lat="47.97647" lon="6.76172">
        <ele>849.94</ele>
        <time>2012-06-16T12:41:50Z</time>
      </trkpt>
      <trkpt lat="47.97648" lon="6.76173">
        <ele>849.46</ele>
        <time>2012-06-16T12:42:15Z</time>
      </trkpt>
      <trkpt lat="47.97647" lon="6.76173">
        <ele>848.5</ele>
        <time>2012-06-16T12:42:43Z</time>
      </trkpt>
      <trkpt lat="47.97647" lon="6.76173">
        <ele>847.54</ele>
        <time>2012-06-16T12:43:07Z</time>
      </trkpt>
      <trkpt lat="47.97645" lon="6.76178">
        <ele>846.58</ele>
        <time>2012-06-16T12:43:25Z</time>
      </trkpt>
      <trkpt lat="47.97643" lon="6.76221">
        <ele>847.54</ele>
        <time>2012-06-16T12:43:38Z</time>
      </trkpt>
      <trkpt lat="47.97643" lon="6.76256">
        <ele>852.35</ele>
        <time>2012-06-16T12:43:50Z</time>
      </trkpt>
      <trkpt lat="47.97651" lon="6.76319">
        <ele>858.59</ele>
        <time>2012-06-16T12:44:04Z</time>
      </trkpt>
      <trkpt lat="47.9765" lon="6.76381">
        <ele>861.96</ele>
        <time>2012-06-16T12:44:16Z</time>
      </trkpt>
      <trkpt lat="47.97654" lon="6.76442">
        <ele>862.92</ele>
        <time>2012-06-16T12:44:28Z</time>
      </trkpt>
      <trkpt lat="47.97652" lon="6.76498">
        <ele>864.36</ele>
        <time>2012-06-16T12:44:40Z</time>
      </trkpt>
      <trkpt lat="47.97655" lon="6.76545">
        <ele>865.32</ele>
        <time>2012-06-16T12:44:49Z</time>
      </trkpt>
      <trkpt lat="47.97653" lon="6.76603">
        <ele>868.69</ele>
        <time>2012-06-16T12:45:05Z</time>
      </trkpt>
      <trkpt lat="47.97653" lon="6.76651">
        <ele>867.25</ele>
        <time>2012-06-16T12:45:19Z</time>
      </trkpt>
      <trkpt lat="47.9765" lon="6.76701">
        <ele>865.8</ele>
        <time>2012-06-16T12:45:30Z</time>
      </trkpt>
      <trkpt lat="47.97649" lon="6.76707">
        <ele>865.8</ele>
        <time>2012-06-16T12:45:31Z</time>
      </trkpt>
      <trkpt lat="47.97648" lon="6.76712">
        <ele>865.8</ele>
        <time>2012-06-16T12:45:32Z</time>
      </trkpt>
      <trkpt lat="47.97643" lon="6.76729">
        <ele>865.32</ele>
        <time>2012-06-16T12:45:35Z</time>
      </trkpt>
      <trkpt lat="47.97643" lon="6.76735">
        <ele>865.32</ele>
        <time>2012-06-16T12:45:36Z</time>
      </trkpt>
      <trkpt lat="47.97643" lon="6.76741">
        <ele>865.32</ele>
        <time>2012-06-16T12:45:37Z</time>
      </trkpt>
      <trkpt lat="47.97643" lon="6.76745">
        <ele>865.32</ele>
        <time>2012-06-16T12:45:38Z</time>
      </trkpt>
      <trkpt lat="47.97642" lon="6.76749">
        <ele>864.84</ele>
        <time>2012-06-16T12:45:39Z</time>
      </trkpt>
      <trkpt lat="47.97643" lon="6.76795">
        <ele>863.4</ele>
        <time>2012-06-16T12:45:52Z</time>
      </trkpt>
      <trkpt lat="47.97633" lon="6.76833">
        <ele>866.29</ele>
        <time>2012-06-16T12:46:06Z</time>
      </trkpt>
      <trkpt lat="47.97625" lon="6.76867">
        <ele>865.8</ele>
        <time>2012-06-16T12:46:19Z</time>
      </trkpt>
      <trkpt lat="47.97625" lon="6.7687">
        <ele>865.8</ele>
        <time>2012-06-16T12:46:20Z</time>
      </trkpt>
      <trkpt lat="47.97624" lon="6.76872">
        <ele>865.8</ele>
        <time>2012-06-16T12:46:21Z</time>
      </trkpt>
      <trkpt lat="47.97624" lon="6.76873">
        <ele>866.29</ele>
        <time>2012-06-16T12:46:22Z</time>
      </trkpt>
      <trkpt lat="47.97624" lon="6.76876">
        <ele>866.29</ele>
        <time>2012-06-16T12:46:24Z</time>
      </trkpt>
      <trkpt lat="47.97624" lon="6.76878">
        <ele>866.77</ele>
        <time>2012-06-16T12:46:25Z</time>
      </trkpt>
      <trkpt lat="47.97624" lon="6.76882">
        <ele>866.77</ele>
        <time>2012-06-16T12:46:26Z</time>
      </trkpt>
      <trkpt lat="47.97623" lon="6.76886">
        <ele>867.25</ele>
        <time>2012-06-16T12:46:27Z</time>
      </trkpt>
      <trkpt lat="47.97621" lon="6.76888">
        <ele>867.25</ele>
        <time>2012-06-16T12:46:28Z</time>
      </trkpt>
      <trkpt lat="47.97617" lon="6.76891">
        <ele>867.25</ele>
        <time>2012-06-16T12:46:29Z</time>
      </trkpt>
      <trkpt lat="47.97614" lon="6.76895">
        <ele>867.25</ele>
        <time>2012-06-16T12:46:30Z</time>
      </trkpt>
      <trkpt lat="47.97612" lon="6.769">
        <ele>867.25</ele>
        <time>2012-06-16T12:46:31Z</time>
      </trkpt>
      <trkpt lat="47.97611" lon="6.76903">
        <ele>867.25</ele>
        <time>2012-06-16T12:46:32Z</time>
      </trkpt>
      <trkpt lat="47.9761" lon="6.76905">
        <ele>867.25</ele>
        <time>2012-06-16T12:46:33Z</time>
      </trkpt>
      <trkpt lat="47.97609" lon="6.7691">
        <ele>868.21</ele>
        <time>2012-06-16T12:46:36Z</time>
      </trkpt>
      <trkpt lat="47.97608" lon="6.76913">
        <ele>869.17</ele>
        <time>2012-06-16T12:46:47Z</time>
      </trkpt>
      <trkpt lat="47.97609" lon="6.76914">
        <ele>869.65</ele>
        <time>2012-06-16T12:46:57Z</time>
      </trkpt>
      <trkpt lat="47.97608" lon="6.76915">
        <ele>870.13</ele>
        <time>2012-06-16T12:46:58Z</time>
      </trkpt>
      <trkpt lat="47.97607" lon="6.76918">
        <ele>870.13</ele>
        <time>2012-06-16T12:46:59Z</time>
      </trkpt>
      <trkpt lat="47.97606" lon="6.76921">
        <ele>870.13</ele>
        <time>2012-06-16T12:47:00Z</time>
      </trkpt>
      <trkpt lat="47.97605" lon="6.76924">
        <ele>870.13</ele>
        <time>2012-06-16T12:47:01Z</time>
      </trkpt>
      <trkpt lat="47.97604" lon="6.76928">
        <ele>870.13</ele>
        <time>2012-06-16T12:47:02Z</time>
      </trkpt>
      <trkpt lat="47.97604" lon="6.76931">
        <ele>869.65</ele>
        <time>2012-06-16T12:47:03Z</time>
      </trkpt>
      <trkpt lat="47.97598" lon="6.76961">
        <ele>873.5</ele>
        <time>2012-06-16T12:47:17Z</time>
      </trkpt>
      <trkpt lat="47.97598" lon="6.76965">
        <ele>874.94</ele>
        <time>2012-06-16T12:47:20Z</time>
      </trkpt>
      <trkpt lat="47.97589" lon="6.76977">
        <ele>878.3</ele>
        <time>2012-06-16T12:47:26Z</time>
      </trkpt>
      <trkpt lat="47.97582" lon="6.76982">
        <ele>879.74</ele>
        <time>2012-06-16T12:47:28Z</time>
      </trkpt>
      <trkpt lat="47.97577" lon="6.76987">
        <ele>880.22</ele>
        <time>2012-06-16T12:47:29Z</time>
      </trkpt>
      <trkpt lat="47.97574" lon="6.76993">
        <ele>880.71</ele>
        <time>2012-06-16T12:47:30Z</time>
      </trkpt>
      <trkpt lat="47.9757" lon="6.77">
        <ele>881.19</ele>
        <time>2012-06-16T12:47:31Z</time>
      </trkpt>
      <trkpt lat="47.97567" lon="6.77005">
        <ele>881.67</ele>
        <time>2012-06-16T12:47:32Z</time>
      </trkpt>
      <trkpt lat="47.97565" lon="6.77008">
        <ele>882.15</ele>
        <time>2012-06-16T12:47:33Z</time>
      </trkpt>
      <trkpt lat="47.97563" lon="6.7701">
        <ele>882.63</ele>
        <time>2012-06-16T12:47:34Z</time>
      </trkpt>
      <trkpt lat="47.97561" lon="6.7701">
        <ele>883.11</ele>
        <time>2012-06-16T12:47:35Z</time>
      </trkpt>
      <trkpt lat="47.97559" lon="6.77011">
        <ele>883.59</ele>
        <time>2012-06-16T12:47:36Z</time>
      </trkpt>
      <trkpt lat="47.97557" lon="6.77012">
        <ele>884.07</ele>
        <time>2012-06-16T12:47:37Z</time>
      </trkpt>
      <trkpt lat="47.97527" lon="6.77013">
        <ele>888.4</ele>
        <time>2012-06-16T12:47:47Z</time>
      </trkpt>
      <trkpt lat="47.97522" lon="6.77011">
        <ele>888.88</ele>
        <time>2012-06-16T12:47:48Z</time>
      </trkpt>
      <trkpt lat="47.97496" lon="6.76999">
        <ele>890.8</ele>
        <time>2012-06-16T12:47:53Z</time>
      </trkpt>
      <trkpt lat="47.9747" lon="6.76987">
        <ele>892.24</ele>
        <time>2012-06-16T12:47:57Z</time>
      </trkpt>
      <trkpt lat="47.97455" lon="6.76984">
        <ele>892.72</ele>
        <time>2012-06-16T12:47:59Z</time>
      </trkpt>
      <trkpt lat="47.97439" lon="6.76983">
        <ele>893.2</ele>
        <time>2012-06-16T12:48:01Z</time>
      </trkpt>
      <trkpt lat="47.97431" lon="6.76985">
        <ele>893.2</ele>
        <time>2012-06-16T12:48:02Z</time>
      </trkpt>
      <trkpt lat="47.97364" lon="6.77017">
        <ele>892.24</ele>
        <time>2012-06-16T12:48:12Z</time>
      </trkpt>
      <trkpt lat="47.97324" lon="6.7705">
        <ele>888.4</ele>
        <time>2012-06-16T12:48:19Z</time>
      </trkpt>
      <trkpt lat="47.9732" lon="6.77057">
        <ele>887.43</ele>
        <time>2012-06-16T12:48:20Z</time>
      </trkpt>
      <trkpt lat="47.97286" lon="6.77111">
        <ele>879.26</ele>
        <time>2012-06-16T12:48:31Z</time>
      </trkpt>
      <trkpt lat="47.97278" lon="6.77131">
        <ele>867.25</ele>
        <time>2012-06-16T12:48:52Z</time>
      </trkpt>
      <trkpt lat="47.97268" lon="6.77146">
        <ele>866.29</ele>
        <time>2012-06-16T12:48:55Z</time>
      </trkpt>
      <trkpt lat="47.97265" lon="6.77152">
        <ele>866.29</ele>
        <time>2012-06-16T12:48:56Z</time>
      </trkpt>
      <trkpt lat="47.97262" lon="6.77158">
        <ele>865.8</ele>
        <time>2012-06-16T12:48:57Z</time>
      </trkpt>
      <trkpt lat="47.97252" lon="6.77183">
        <ele>864.84</ele>
        <time>2012-06-16T12:49:01Z</time>
      </trkpt>
      <trkpt lat="47.97241" lon="6.77236">
        <ele>861.96</ele>
        <time>2012-06-16T12:49:13Z</time>
      </trkpt>
      <trkpt lat="47.97236" lon="6.77316">
        <ele>860.52</ele>
        <time>2012-06-16T12:49:28Z</time>
      </trkpt>
      <trkpt lat="47.97232" lon="6.77399">
        <ele>861.48</ele>
        <time>2012-06-16T12:49:44Z</time>
      </trkpt>
      <trkpt lat="47.97233" lon="6.77419">
        <ele>862.44</ele>
        <time>2012-06-16T12:49:48Z</time>
      </trkpt>
      <trkpt lat="47.97234" lon="6.77426">
        <ele>862.92</ele>
        <time>2012-06-16T12:49:49Z</time>
      </trkpt>
      <trkpt lat="47.97235" lon="6.77433">
        <ele>862.92</ele>
        <time>2012-06-16T12:49:50Z</time>
      </trkpt>
      <trkpt lat="47.97238" lon="6.77494">
        <ele>862.44</ele>
        <time>2012-06-16T12:50:01Z</time>
      </trkpt>
      <trkpt lat="47.97238" lon="6.77521">
        <ele>862.44</ele>
        <time>2012-06-16T12:50:14Z</time>
      </trkpt>
      <trkpt lat="47.97237" lon="6.77562">
        <ele>864.36</ele>
        <time>2012-06-16T12:50:23Z</time>
      </trkpt>
      <trkpt lat="47.97242" lon="6.77621">
        <ele>870.61</ele>
        <time>2012-06-16T12:50:35Z</time>
      </trkpt>
      <trkpt lat="47.97243" lon="6.77667">
        <ele>877.82</ele>
        <time>2012-06-16T12:50:49Z</time>
      </trkpt>
      <trkpt lat="47.97244" lon="6.77681">
        <ele>878.3</ele>
        <time>2012-06-16T12:51:03Z</time>
      </trkpt>
      <trkpt lat="47.97247" lon="6.77714">
        <ele>879.26</ele>
        <time>2012-06-16T12:51:15Z</time>
      </trkpt>
      <trkpt lat="47.97245" lon="6.77777">
        <ele>874.94</ele>
        <time>2012-06-16T12:51:28Z</time>
      </trkpt>
      <trkpt lat="47.97235" lon="6.77832">
        <ele>874.46</ele>
        <time>2012-06-16T12:51:41Z</time>
      </trkpt>
      <trkpt lat="47.97227" lon="6.779">
        <ele>866.77</ele>
        <time>2012-06-16T12:51:55Z</time>
      </trkpt>
      <trkpt lat="47.97225" lon="6.77918">
        <ele>866.29</ele>
        <time>2012-06-16T12:51:58Z</time>
      </trkpt>
      <trkpt lat="47.97224" lon="6.77971">
        <ele>864.84</ele>
        <time>2012-06-16T12:52:06Z</time>
      </trkpt>
      <trkpt lat="47.97222" lon="6.77977">
        <ele>864.84</ele>
        <time>2012-06-16T12:52:07Z</time>
      </trkpt>
      <trkpt lat="47.9722" lon="6.77984">
        <ele>864.84</ele>
        <time>2012-06-16T12:52:08Z</time>
      </trkpt>
      <trkpt lat="47.97203" lon="6.78029">
        <ele>862.44</ele>
        <time>2012-06-16T12:52:18Z</time>
      </trkpt>
      <trkpt lat="47.972" lon="6.78034">
        <ele>861.96</ele>
        <time>2012-06-16T12:52:20Z</time>
      </trkpt>
      <trkpt lat="47.97199" lon="6.78039">
        <ele>861.48</ele>
        <time>2012-06-16T12:52:34Z</time>
      </trkpt>
      <trkpt lat="47.97199" lon="6.7804">
        <ele>860.04</ele>
        <time>2012-06-16T12:52:56Z</time>
      </trkpt>
      <trkpt lat="47.97199" lon="6.7804">
        <ele>860.04</ele>
        <time>2012-06-16T12:53:10Z</time>
      </trkpt>
      <trkpt lat="47.97199" lon="6.7804">
        <ele>859.56</ele>
        <time>2012-06-16T12:53:34Z</time>
      </trkpt>
      <trkpt lat="47.97197" lon="6.78034">
        <ele>861.48</ele>
        <time>2012-06-16T12:53:47Z</time>
      </trkpt>
      <trkpt lat="47.97197" lon="6.78033">
        <ele>862.44</ele>
        <time>2012-06-16T12:54:04Z</time>
      </trkpt>
      <trkpt lat="47.97196" lon="6.78033">
        <ele>862.92</ele>
        <time>2012-06-16T12:54:29Z</time>
      </trkpt>
      <trkpt lat="47.97195" lon="6.78036">
        <ele>863.4</ele>
        <time>2012-06-16T12:54:42Z</time>
      </trkpt>
      <trkpt lat="47.97194" lon="6.78037">
        <ele>863.4</ele>
        <time>2012-06-16T12:55:03Z</time>
      </trkpt>
      <trkpt lat="47.97196" lon="6.78034">
        <ele>863.4</ele>
        <time>2012-06-16T12:55:17Z</time>
      </trkpt>
      <trkpt lat="47.97197" lon="6.78034">
        <ele>863.88</ele>
        <time>2012-06-16T12:55:19Z</time>
      </trkpt>
      <trkpt lat="47.97198" lon="6.7803">
        <ele>863.88</ele>
        <time>2012-06-16T12:55:25Z</time>
      </trkpt>
      <trkpt lat="47.97213" lon="6.78009">
        <ele>864.84</ele>
        <time>2012-06-16T12:55:37Z</time>
      </trkpt>
      <trkpt lat="47.97222" lon="6.77997">
        <ele>865.32</ele>
        <time>2012-06-16T12:55:49Z</time>
      </trkpt>
      <trkpt lat="47.97223" lon="6.77998">
        <ele>865.32</ele>
        <time>2012-06-16T12:55:57Z</time>
      </trkpt>
      <trkpt lat="47.97235" lon="6.78004">
        <ele>865.32</ele>
        <time>2012-06-16T12:56:03Z</time>
      </trkpt>
      <trkpt lat="47.97265" lon="6.78042">
        <ele>868.21</ele>
        <time>2012-06-16T12:56:17Z</time>
      </trkpt>
      <trkpt lat="47.97302" lon="6.78067">
        <ele>871.57</ele>
        <time>2012-06-16T12:56:29Z</time>
      </trkpt>
      <trkpt lat="47.97307" lon="6.78071">
        <ele>871.09</ele>
        <time>2012-06-16T12:56:40Z</time>
      </trkpt>
      <trkpt lat="47.97328" lon="6.78087">
        <ele>873.01</ele>
        <time>2012-06-16T12:56:48Z</time>
      </trkpt>
      <trkpt lat="47.97337" lon="6.78118">
        <ele>874.94</ele>
        <time>2012-06-16T12:56:53Z</time>
      </trkpt>
      <trkpt lat="47.97338" lon="6.78124">
        <ele>874.94</ele>
        <time>2012-06-16T12:56:54Z</time>
      </trkpt>
      <trkpt lat="47.97341" lon="6.7813">
        <ele>874.94</ele>
        <time>2012-06-16T12:56:55Z</time>
      </trkpt>
      <trkpt lat="47.97343" lon="6.78136">
        <ele>875.42</ele>
        <time>2012-06-16T12:56:56Z</time>
      </trkpt>
      <trkpt lat="47.97346" lon="6.78142">
        <ele>875.42</ele>
        <time>2012-06-16T12:56:57Z</time>
      </trkpt>
      <trkpt lat="47.9735" lon="6.78148">
        <ele>875.9</ele>
        <time>2012-06-16T12:56:58Z</time>
      </trkpt>
      <trkpt lat="47.97354" lon="6.78153">
        <ele>875.9</ele>
        <time>2012-06-16T12:56:59Z</time>
      </trkpt>
      <trkpt lat="47.97357" lon="6.78158">
        <ele>876.38</ele>
        <time>2012-06-16T12:57:00Z</time>
      </trkpt>
      <trkpt lat="47.97361" lon="6.78162">
        <ele>876.38</ele>
        <time>2012-06-16T12:57:01Z</time>
      </trkpt>
      <trkpt lat="47.97365" lon="6.78167">
        <ele>876.86</ele>
        <time>2012-06-16T12:57:02Z</time>
      </trkpt>
      <trkpt lat="47.9738" lon="6.78185">
        <ele>877.82</ele>
        <time>2012-06-16T12:57:06Z</time>
      </trkpt>
      <trkpt lat="47.97383" lon="6.78193">
        <ele>877.34</ele>
        <time>2012-06-16T12:57:07Z</time>
      </trkpt>
      <trkpt lat="47.97385" lon="6.78201">
        <ele>876.86</ele>
        <time>2012-06-16T12:57:08Z</time>
      </trkpt>
      <trkpt lat="47.97397" lon="6.78244">
        <ele>876.86</ele>
        <time>2012-06-16T12:57:14Z</time>
      </trkpt>
      <trkpt lat="47.97399" lon="6.78249">
        <ele>877.34</ele>
        <time>2012-06-16T12:57:15Z</time>
      </trkpt>
      <trkpt lat="47.97402" lon="6.78254">
        <ele>877.34</ele>
        <time>2012-06-16T12:57:16Z</time>
      </trkpt>
      <trkpt lat="47.97428" lon="6.78291">
        <ele>876.86</ele>
        <time>2012-06-16T12:57:24Z</time>
      </trkpt>
      <trkpt lat="47.97432" lon="6.78296">
        <ele>876.38</ele>
        <time>2012-06-16T12:57:25Z</time>
      </trkpt>
      <trkpt lat="47.97435" lon="6.78302">
        <ele>875.9</ele>
        <time>2012-06-16T12:57:26Z</time>
      </trkpt>
      <trkpt lat="47.97438" lon="6.78309">
        <ele>875.42</ele>
        <time>2012-06-16T12:57:27Z</time>
      </trkpt>
      <trkpt lat="47.97441" lon="6.78315">
        <ele>874.94</ele>
        <time>2012-06-16T12:57:28Z</time>
      </trkpt>
      <trkpt lat="47.97444" lon="6.7832">
        <ele>874.94</ele>
        <time>2012-06-16T12:57:29Z</time>
      </trkpt>
      <trkpt lat="47.97451" lon="6.78328">
        <ele>874.46</ele>
        <time>2012-06-16T12:57:31Z</time>
      </trkpt>
      <trkpt lat="47.97474" lon="6.78358">
        <ele>873.01</ele>
        <time>2012-06-16T12:57:37Z</time>
      </trkpt>
      <trkpt lat="47.97478" lon="6.78363">
        <ele>873.01</ele>
        <time>2012-06-16T12:57:38Z</time>
      </trkpt>
      <trkpt lat="47.9748" lon="6.78367">
        <ele>873.01</ele>
        <time>2012-06-16T12:57:39Z</time>
      </trkpt>
      <trkpt lat="47.97508" lon="6.78415">
        <ele>870.61</ele>
        <time>2012-06-16T12:57:51Z</time>
      </trkpt>
      <trkpt lat="47.97519" lon="6.78432">
        <ele>870.61</ele>
        <time>2012-06-16T12:57:57Z</time>
      </trkpt>
      <trkpt lat="47.97522" lon="6.78438">
        <ele>871.09</ele>
        <time>2012-06-16T12:58:00Z</time>
      </trkpt>
      <trkpt lat="47.97523" lon="6.7844">
        <ele>871.57</ele>
        <time>2012-06-16T12:58:01Z</time>
      </trkpt>
      <trkpt lat="47.97554" lon="6.7847">
        <ele>874.46</ele>
        <time>2012-06-16T12:58:17Z</time>
      </trkpt>
      <trkpt lat="47.97584" lon="6.78482">
        <ele>876.38</ele>
        <time>2012-06-16T12:58:27Z</time>
      </trkpt>
      <trkpt lat="47.97621" lon="6.78496">
        <ele>876.38</ele>
        <time>2012-06-16T12:58:39Z</time>
      </trkpt>
      <trkpt lat="47.97652" lon="6.78524">
        <ele>876.38</ele>
        <time>2012-06-16T12:58:49Z</time>
      </trkpt>
      <trkpt lat="47.97694" lon="6.7854">
        <ele>875.42</ele>
        <time>2012-06-16T12:59:02Z</time>
      </trkpt>
      <trkpt lat="47.97728" lon="6.78553">
        <ele>875.42</ele>
        <time>2012-06-16T12:59:16Z</time>
      </trkpt>
      <trkpt lat="47.97741" lon="6.78564">
        <ele>875.9</ele>
        <time>2012-06-16T12:59:23Z</time>
      </trkpt>
      <trkpt lat="47.97742" lon="6.78566">
        <ele>875.9</ele>
        <time>2012-06-16T12:59:24Z</time>
      </trkpt>
      <trkpt lat="47.97744" lon="6.78568">
        <ele>875.9</ele>
        <time>2012-06-16T12:59:25Z</time>
      </trkpt>
      <trkpt lat="47.97746" lon="6.78569">
        <ele>875.42</ele>
        <time>2012-06-16T12:59:26Z</time>
      </trkpt>
      <trkpt lat="47.97748" lon="6.7857">
        <ele>875.42</ele>
        <time>2012-06-16T12:59:27Z</time>
      </trkpt>
      <trkpt lat="47.97754" lon="6.78579">
        <ele>875.9</ele>
        <time>2012-06-16T12:59:31Z</time>
      </trkpt>
      <trkpt lat="47.97755" lon="6.78582">
        <ele>875.9</ele>
        <time>2012-06-16T12:59:32Z</time>
      </trkpt>
      <trkpt lat="47.97756" lon="6.78585">
        <ele>875.9</ele>
        <time>2012-06-16T12:59:33Z</time>
      </trkpt>
      <trkpt lat="47.97757" lon="6.78588">
        <ele>876.38</ele>
        <time>2012-06-16T12:59:34Z</time>
      </trkpt>
      <trkpt lat="47.97758" lon="6.78592">
        <ele>876.86</ele>
        <time>2012-06-16T12:59:35Z</time>
      </trkpt>
      <trkpt lat="47.97759" lon="6.78595">
        <ele>876.86</ele>
        <time>2012-06-16T12:59:36Z</time>
      </trkpt>
      <trkpt lat="47.9776" lon="6.78599">
        <ele>877.34</ele>
        <time>2012-06-16T12:59:37Z</time>
      </trkpt>
      <trkpt lat="47.97762" lon="6.78602">
        <ele>877.82</ele>
        <time>2012-06-16T12:59:38Z</time>
      </trkpt>
      <trkpt lat="47.97763" lon="6.78605">
        <ele>877.82</ele>
        <time>2012-06-16T12:59:39Z</time>
      </trkpt>
      <trkpt lat="47.97764" lon="6.78608">
        <ele>877.82</ele>
        <time>2012-06-16T12:59:40Z</time>
      </trkpt>
      <trkpt lat="47.97765" lon="6.78612">
        <ele>878.3</ele>
        <time>2012-06-16T12:59:41Z</time>
      </trkpt>
      <trkpt lat="47.97767" lon="6.78615">
        <ele>878.78</ele>
        <time>2012-06-16T12:59:42Z</time>
      </trkpt>
      <trkpt lat="47.97768" lon="6.78619">
        <ele>878.78</ele>
        <time>2012-06-16T12:59:43Z</time>
      </trkpt>
      <trkpt lat="47.9777" lon="6.78623">
        <ele>878.78</ele>
        <time>2012-06-16T12:59:44Z</time>
      </trkpt>
      <trkpt lat="47.97771" lon="6.78627">
        <ele>878.78</ele>
        <time>2012-06-16T12:59:45Z</time>
      </trkpt>
      <trkpt lat="47.97773" lon="6.78632">
        <ele>878.78</ele>
        <time>2012-06-16T12:59:46Z</time>
      </trkpt>
      <trkpt lat="47.97775" lon="6.78636">
        <ele>878.3</ele>
        <time>2012-06-16T12:59:47Z</time>
      </trkpt>
      <trkpt lat="47.97776" lon="6.7864">
        <ele>878.78</ele>
        <time>2012-06-16T12:59:48Z</time>
      </trkpt>
      <trkpt lat="47.97777" lon="6.78642">
        <ele>878.78</ele>
        <time>2012-06-16T12:59:49Z</time>
      </trkpt>
      <trkpt lat="47.97778" lon="6.78645">
        <ele>878.78</ele>
        <time>2012-06-16T12:59:50Z</time>
      </trkpt>
      <trkpt lat="47.97779" lon="6.78648">
        <ele>879.26</ele>
        <time>2012-06-16T12:59:51Z</time>
      </trkpt>
      <trkpt lat="47.97793" lon="6.78692">
        <ele>878.78</ele>
        <time>2012-06-16T13:00:05Z</time>
      </trkpt>
      <trkpt lat="47.97813" lon="6.78716">
        <ele>881.19</ele>
        <time>2012-06-16T13:00:18Z</time>
      </trkpt>
      <trkpt lat="47.97827" lon="6.78739">
        <ele>884.07</ele>
        <time>2012-06-16T13:00:31Z</time>
      </trkpt>
      <trkpt lat="47.97833" lon="6.78767">
        <ele>889.84</ele>
        <time>2012-06-16T13:00:45Z</time>
      </trkpt>
      <trkpt lat="47.97838" lon="6.78782">
        <ele>894.16</ele>
        <time>2012-06-16T13:00:58Z</time>
      </trkpt>
      <trkpt lat="47.9784" lon="6.78782">
        <ele>897.53</ele>
        <time>2012-06-16T13:01:24Z</time>
      </trkpt>
      <trkpt lat="47.97838" lon="6.78789">
        <ele>900.41</ele>
        <time>2012-06-16T13:01:52Z</time>
      </trkpt>
      <trkpt lat="47.97837" lon="6.78797">
        <ele>901.85</ele>
        <time>2012-06-16T13:02:08Z</time>
      </trkpt>
      <trkpt lat="47.97836" lon="6.7883">
        <ele>898.97</ele>
        <time>2012-06-16T13:02:20Z</time>
      </trkpt>
      <trkpt lat="47.97832" lon="6.78869">
        <ele>894.64</ele>
        <time>2012-06-16T13:02:33Z</time>
      </trkpt>
      <trkpt lat="47.97829" lon="6.78903">
        <ele>887.43</ele>
        <time>2012-06-16T13:02:47Z</time>
      </trkpt>
      <trkpt lat="47.97828" lon="6.78905">
        <ele>887.43</ele>
        <time>2012-06-16T13:02:48Z</time>
      </trkpt>
      <trkpt lat="47.97827" lon="6.78907">
        <ele>886.95</ele>
        <time>2012-06-16T13:02:49Z</time>
      </trkpt>
      <trkpt lat="47.97818" lon="6.78925">
        <ele>883.59</ele>
        <time>2012-06-16T13:02:57Z</time>
      </trkpt>
      <trkpt lat="47.97828" lon="6.78932">
        <ele>874.46</ele>
        <time>2012-06-16T13:03:10Z</time>
      </trkpt>
      <trkpt lat="47.97829" lon="6.78936">
        <ele>871.57</ele>
        <time>2012-06-16T13:03:24Z</time>
      </trkpt>
      <trkpt lat="47.97829" lon="6.78938">
        <ele>869.17</ele>
        <time>2012-06-16T13:03:47Z</time>
      </trkpt>
      <trkpt lat="47.97828" lon="6.78939">
        <ele>867.25</ele>
        <time>2012-06-16T13:04:04Z</time>
      </trkpt>
      <trkpt lat="47.97824" lon="6.78943">
        <ele>865.8</ele>
        <time>2012-06-16T13:04:26Z</time>
      </trkpt>
      <trkpt lat="47.97821" lon="6.78947">
        <ele>864.84</ele>
        <time>2012-06-16T13:04:47Z</time>
      </trkpt>
      <trkpt lat="47.97821" lon="6.78949">
        <ele>864.36</ele>
        <time>2012-06-16T13:04:48Z</time>
      </trkpt>
      <trkpt lat="47.97821" lon="6.78951">
        <ele>864.36</ele>
        <time>2012-06-16T13:04:49Z</time>
      </trkpt>
      <trkpt lat="47.97822" lon="6.78954">
        <ele>864.36</ele>
        <time>2012-06-16T13:04:50Z</time>
      </trkpt>
      <trkpt lat="47.97822" lon="6.78957">
        <ele>864.36</ele>
        <time>2012-06-16T13:04:51Z</time>
      </trkpt>
      <trkpt lat="47.97823" lon="6.7896">
        <ele>864.36</ele>
        <time>2012-06-16T13:04:52Z</time>
      </trkpt>
      <trkpt lat="47.97824" lon="6.78964">
        <ele>864.36</ele>
        <time>2012-06-16T13:04:53Z</time>
      </trkpt>
      <trkpt lat="47.97825" lon="6.78967">
        <ele>864.36</ele>
        <time>2012-06-16T13:04:54Z</time>
      </trkpt>
      <trkpt lat="47.9784" lon="6.79012">
        <ele>864.36</ele>
        <time>2012-06-16T13:05:07Z</time>
      </trkpt>
      <trkpt lat="47.97843" lon="6.79018">
        <ele>863.88</ele>
        <time>2012-06-16T13:05:11Z</time>
      </trkpt>
      <trkpt lat="47.97842" lon="6.79021">
        <ele>863.4</ele>
        <time>2012-06-16T13:05:24Z</time>
      </trkpt>
      <trkpt lat="47.97843" lon="6.79022">
        <ele>863.4</ele>
        <time>2012-06-16T13:05:49Z</time>
      </trkpt>
      <trkpt lat="47.97843" lon="6.79022">
        <ele>863.4</ele>
        <time>2012-06-16T13:06:09Z</time>
      </trkpt>
      <trkpt lat="47.97841" lon="6.79025">
        <ele>861.48</ele>
        <time>2012-06-16T13:06:23Z</time>
      </trkpt>
      <trkpt lat="47.97842" lon="6.79026">
        <ele>861</ele>
        <time>2012-06-16T13:06:41Z</time>
      </trkpt>
      <trkpt lat="47.97843" lon="6.79024">
        <ele>861</ele>
        <time>2012-06-16T13:07:00Z</time>
      </trkpt>
      <trkpt lat="47.97842" lon="6.79023">
        <ele>861</ele>
        <time>2012-06-16T13:07:26Z</time>
      </trkpt>
      <trkpt lat="47.97843" lon="6.79023">
        <ele>861</ele>
        <time>2012-06-16T13:07:41Z</time>
      </trkpt>
      <trkpt lat="47.97843" lon="6.79024">
        <ele>860.04</ele>
        <time>2012-06-16T13:08:03Z</time>
      </trkpt>
      <trkpt lat="47.97845" lon="6.79021">
        <ele>861</ele>
        <time>2012-06-16T13:08:38Z</time>
      </trkpt>
      <trkpt lat="47.97845" lon="6.79022">
        <ele>861</ele>
        <time>2012-06-16T13:08:58Z</time>
      </trkpt>
      <trkpt lat="47.97845" lon="6.79022">
        <ele>860.52</ele>
        <time>2012-06-16T13:09:15Z</time>
      </trkpt>
      <trkpt lat="47.97849" lon="6.79044">
        <ele>859.56</ele>
        <time>2012-06-16T13:09:26Z</time>
      </trkpt>
      <trkpt lat="47.97849" lon="6.79052">
        <ele>859.08</ele>
        <time>2012-06-16T13:09:27Z</time>
      </trkpt>
      <trkpt lat="47.9785" lon="6.79068">
        <ele>858.59</ele>
        <time>2012-06-16T13:09:29Z</time>
      </trkpt>
      <trkpt lat="47.97852" lon="6.79076">
        <ele>858.59</ele>
        <time>2012-06-16T13:09:30Z</time>
      </trkpt>
      <trkpt lat="47.97855" lon="6.79085">
        <ele>858.11</ele>
        <time>2012-06-16T13:09:31Z</time>
      </trkpt>
      <trkpt lat="47.97858" lon="6.79094">
        <ele>858.11</ele>
        <time>2012-06-16T13:09:32Z</time>
      </trkpt>
      <trkpt lat="47.97861" lon="6.79102">
        <ele>857.63</ele>
        <time>2012-06-16T13:09:33Z</time>
      </trkpt>
      <trkpt lat="47.97872" lon="6.79134">
        <ele>856.19</ele>
        <time>2012-06-16T13:09:37Z</time>
      </trkpt>
      <trkpt lat="47.97874" lon="6.79143">
        <ele>855.71</ele>
        <time>2012-06-16T13:09:38Z</time>
      </trkpt>
      <trkpt lat="47.97875" lon="6.79152">
        <ele>855.71</ele>
        <time>2012-06-16T13:09:39Z</time>
      </trkpt>
      <trkpt lat="47.97877" lon="6.79162">
        <ele>855.23</ele>
        <time>2012-06-16T13:09:40Z</time>
      </trkpt>
      <trkpt lat="47.97879" lon="6.79173">
        <ele>854.75</ele>
        <time>2012-06-16T13:09:41Z</time>
      </trkpt>
      <trkpt lat="47.97883" lon="6.79184">
        <ele>854.27</ele>
        <time>2012-06-16T13:09:42Z</time>
      </trkpt>
      <trkpt lat="47.97898" lon="6.79268">
        <ele>851.87</ele>
        <time>2012-06-16T13:09:49Z</time>
      </trkpt>
      <trkpt lat="47.97899" lon="6.79274">
        <ele>850.42</ele>
        <time>2012-06-16T13:09:57Z</time>
      </trkpt>
      <trkpt lat="47.979" lon="6.79276">
        <ele>850.42</ele>
        <time>2012-06-16T13:09:58Z</time>
      </trkpt>
      <trkpt lat="47.97902" lon="6.79277">
        <ele>850.42</ele>
        <time>2012-06-16T13:09:59Z</time>
      </trkpt>
      <trkpt lat="47.97904" lon="6.79279">
        <ele>850.42</ele>
        <time>2012-06-16T13:10:00Z</time>
      </trkpt>
      <trkpt lat="47.97906" lon="6.7928">
        <ele>850.9</ele>
        <time>2012-06-16T13:10:01Z</time>
      </trkpt>
      <trkpt lat="47.97938" lon="6.79304">
        <ele>852.35</ele>
        <time>2012-06-16T13:10:16Z</time>
      </trkpt>
      <trkpt lat="47.97978" lon="6.7933">
        <ele>854.27</ele>
        <time>2012-06-16T13:10:35Z</time>
      </trkpt>
      <trkpt lat="47.9801" lon="6.79344">
        <ele>856.19</ele>
        <time>2012-06-16T13:10:50Z</time>
      </trkpt>
      <trkpt lat="47.98045" lon="6.79378">
        <ele>857.15</ele>
        <time>2012-06-16T13:11:03Z</time>
      </trkpt>
      <trkpt lat="47.98081" lon="6.79418">
        <ele>855.71</ele>
        <time>2012-06-16T13:11:14Z</time>
      </trkpt>
      <trkpt lat="47.98116" lon="6.79484">
        <ele>854.27</ele>
        <time>2012-06-16T13:11:28Z</time>
      </trkpt>
      <trkpt lat="47.98133" lon="6.79536">
        <ele>857.63</ele>
        <time>2012-06-16T13:11:43Z</time>
      </trkpt>
      <trkpt lat="47.98145" lon="6.79573">
        <ele>862.44</ele>
        <time>2012-06-16T13:11:54Z</time>
      </trkpt>
      <trkpt lat="47.98156" lon="6.79611">
        <ele>867.73</ele>
        <time>2012-06-16T13:12:07Z</time>
      </trkpt>
      <trkpt lat="47.98162" lon="6.79649">
        <ele>871.09</ele>
        <time>2012-06-16T13:12:19Z</time>
      </trkpt>
      <trkpt lat="47.98166" lon="6.79705">
        <ele>876.86</ele>
        <time>2012-06-16T13:12:36Z</time>
      </trkpt>
      <trkpt lat="47.98173" lon="6.79763">
        <ele>878.3</ele>
        <time>2012-06-16T13:12:50Z</time>
      </trkpt>
      <trkpt lat="47.98191" lon="6.79801">
        <ele>879.26</ele>
        <time>2012-06-16T13:13:02Z</time>
      </trkpt>
      <trkpt lat="47.9821" lon="6.79839">
        <ele>882.63</ele>
        <time>2012-06-16T13:13:16Z</time>
      </trkpt>
      <trkpt lat="47.98213" lon="6.7986">
        <ele>884.55</ele>
        <time>2012-06-16T13:13:28Z</time>
      </trkpt>
      <trkpt lat="47.98213" lon="6.79859">
        <ele>884.55</ele>
        <time>2012-06-16T13:13:52Z</time>
      </trkpt>
      <trkpt lat="47.98214" lon="6.7986">
        <ele>884.07</ele>
        <time>2012-06-16T13:14:17Z</time>
      </trkpt>
      <trkpt lat="47.98215" lon="6.7986">
        <ele>885.03</ele>
        <time>2012-06-16T13:14:41Z</time>
      </trkpt>
      <trkpt lat="47.98215" lon="6.7986">
        <ele>885.03</ele>
        <time>2012-06-16T13:14:55Z</time>
      </trkpt>
      <trkpt lat="47.98214" lon="6.79862">
        <ele>885.03</ele>
        <time>2012-06-16T13:14:56Z</time>
      </trkpt>
      <trkpt lat="47.98213" lon="6.79864">
        <ele>884.55</ele>
        <time>2012-06-16T13:14:57Z</time>
      </trkpt>
      <trkpt lat="47.98211" lon="6.79866">
        <ele>884.55</ele>
        <time>2012-06-16T13:14:58Z</time>
      </trkpt>
      <trkpt lat="47.98208" lon="6.7987">
        <ele>884.55</ele>
        <time>2012-06-16T13:14:59Z</time>
      </trkpt>
      <trkpt lat="47.98204" lon="6.79874">
        <ele>884.55</ele>
        <time>2012-06-16T13:15:00Z</time>
      </trkpt>
      <trkpt lat="47.98187" lon="6.79895">
        <ele>884.07</ele>
        <time>2012-06-16T13:15:05Z</time>
      </trkpt>
      <trkpt lat="47.98185" lon="6.79899">
        <ele>884.07</ele>
        <time>2012-06-16T13:15:06Z</time>
      </trkpt>
      <trkpt lat="47.98162" lon="6.79952">
        <ele>882.15</ele>
        <time>2012-06-16T13:15:15Z</time>
      </trkpt>
      <trkpt lat="47.98144" lon="6.80026">
        <ele>879.74</ele>
        <time>2012-06-16T13:15:24Z</time>
      </trkpt>
      <trkpt lat="47.98143" lon="6.80033">
        <ele>879.74</ele>
        <time>2012-06-16T13:15:25Z</time>
      </trkpt>
      <trkpt lat="47.98129" lon="6.80106">
        <ele>877.82</ele>
        <time>2012-06-16T13:15:37Z</time>
      </trkpt>
      <trkpt lat="47.98124" lon="6.80124">
        <ele>878.78</ele>
        <time>2012-06-16T13:15:40Z</time>
      </trkpt>
      <trkpt lat="47.98121" lon="6.80182">
        <ele>881.19</ele>
        <time>2012-06-16T13:15:51Z</time>
      </trkpt>
      <trkpt lat="47.9812" lon="6.80234">
        <ele>883.59</ele>
        <time>2012-06-16T13:16:03Z</time>
      </trkpt>
      <trkpt lat="47.98119" lon="6.8028">
        <ele>883.59</ele>
        <time>2012-06-16T13:16:13Z</time>
      </trkpt>
      <trkpt lat="47.98116" lon="6.80322">
        <ele>884.55</ele>
        <time>2012-06-16T13:16:24Z</time>
      </trkpt>
      <trkpt lat="47.98115" lon="6.80368">
        <ele>884.07</ele>
        <time>2012-06-16T13:16:37Z</time>
      </trkpt>
      <trkpt lat="47.98111" lon="6.80421">
        <ele>888.4</ele>
        <time>2012-06-16T13:16:51Z</time>
      </trkpt>
      <trkpt lat="47.98107" lon="6.80479">
        <ele>891.28</ele>
        <time>2012-06-16T13:17:06Z</time>
      </trkpt>
      <trkpt lat="47.98111" lon="6.80532">
        <ele>894.64</ele>
        <time>2012-06-16T13:17:21Z</time>
      </trkpt>
      <trkpt lat="47.98108" lon="6.80583">
        <ele>897.53</ele>
        <time>2012-06-16T13:17:35Z</time>
      </trkpt>
      <trkpt lat="47.98102" lon="6.80648">
        <ele>900.41</ele>
        <time>2012-06-16T13:17:51Z</time>
      </trkpt>
      <trkpt lat="47.98104" lon="6.80714">
        <ele>901.37</ele>
        <time>2012-06-16T13:18:06Z</time>
      </trkpt>
      <trkpt lat="47.98105" lon="6.80784">
        <ele>903.78</ele>
        <time>2012-06-16T13:18:22Z</time>
      </trkpt>
      <trkpt lat="47.9811" lon="6.80835">
        <ele>906.66</ele>
        <time>2012-06-16T13:18:35Z</time>
      </trkpt>
      <trkpt lat="47.98107" lon="6.80884">
        <ele>910.51</ele>
        <time>2012-06-16T13:18:48Z</time>
      </trkpt>
      <trkpt lat="47.98102" lon="6.80935">
        <ele>913.39</ele>
        <time>2012-06-16T13:19:02Z</time>
      </trkpt>
      <trkpt lat="47.981" lon="6.80979">
        <ele>916.27</ele>
        <time>2012-06-16T13:19:15Z</time>
      </trkpt>
      <trkpt lat="47.981" lon="6.80982">
        <ele>916.27</ele>
        <time>2012-06-16T13:19:16Z</time>
      </trkpt>
      <trkpt lat="47.981" lon="6.80986">
        <ele>916.75</ele>
        <time>2012-06-16T13:19:17Z</time>
      </trkpt>
      <trkpt lat="47.981" lon="6.80989">
        <ele>916.75</ele>
        <time>2012-06-16T13:19:18Z</time>
      </trkpt>
      <trkpt lat="47.98099" lon="6.80992">
        <ele>917.24</ele>
        <time>2012-06-16T13:19:19Z</time>
      </trkpt>
      <trkpt lat="47.98099" lon="6.80996">
        <ele>917.24</ele>
        <time>2012-06-16T13:19:20Z</time>
      </trkpt>
      <trkpt lat="47.9809" lon="6.81058">
        <ele>921.56</ele>
        <time>2012-06-16T13:19:39Z</time>
      </trkpt>
      <trkpt lat="47.98078" lon="6.81093">
        <ele>925.89</ele>
        <time>2012-06-16T13:19:53Z</time>
      </trkpt>
      <trkpt lat="47.98078" lon="6.81101">
        <ele>926.85</ele>
        <time>2012-06-16T13:19:56Z</time>
      </trkpt>
      <trkpt lat="47.98083" lon="6.81112">
        <ele>926.85</ele>
        <time>2012-06-16T13:20:09Z</time>
      </trkpt>
      <trkpt lat="47.98082" lon="6.81111">
        <ele>927.81</ele>
        <time>2012-06-16T13:20:33Z</time>
      </trkpt>
      <trkpt lat="47.98081" lon="6.8111">
        <ele>927.33</ele>
        <time>2012-06-16T13:21:07Z</time>
      </trkpt>
      <trkpt lat="47.98081" lon="6.8111">
        <ele>927.81</ele>
        <time>2012-06-16T13:21:32Z</time>
      </trkpt>
      <trkpt lat="47.98079" lon="6.81111">
        <ele>928.29</ele>
        <time>2012-06-16T13:21:56Z</time>
      </trkpt>
      <trkpt lat="47.98079" lon="6.8111">
        <ele>928.29</ele>
        <time>2012-06-16T13:21:57Z</time>
      </trkpt>
      <trkpt lat="47.98079" lon="6.81109">
        <ele>928.29</ele>
        <time>2012-06-16T13:21:58Z</time>
      </trkpt>
      <trkpt lat="47.98078" lon="6.81106">
        <ele>928.77</ele>
        <time>2012-06-16T13:21:59Z</time>
      </trkpt>
      <trkpt lat="47.98077" lon="6.81104">
        <ele>928.77</ele>
        <time>2012-06-16T13:22:00Z</time>
      </trkpt>
      <trkpt lat="47.98074" lon="6.81102">
        <ele>928.77</ele>
        <time>2012-06-16T13:22:01Z</time>
      </trkpt>
      <trkpt lat="47.98072" lon="6.81102">
        <ele>929.25</ele>
        <time>2012-06-16T13:22:02Z</time>
      </trkpt>
      <trkpt lat="47.98069" lon="6.81104">
        <ele>929.25</ele>
        <time>2012-06-16T13:22:03Z</time>
      </trkpt>
      <trkpt lat="47.98068" lon="6.81106">
        <ele>929.25</ele>
        <time>2012-06-16T13:22:04Z</time>
      </trkpt>
      <trkpt lat="47.98062" lon="6.81133">
        <ele>928.29</ele>
        <time>2012-06-16T13:22:15Z</time>
      </trkpt>
      <trkpt lat="47.9805" lon="6.8117">
        <ele>929.25</ele>
        <time>2012-06-16T13:22:26Z</time>
      </trkpt>
      <trkpt lat="47.98027" lon="6.81216">
        <ele>934.54</ele>
        <time>2012-06-16T13:22:39Z</time>
      </trkpt>
      <trkpt lat="47.98022" lon="6.8122">
        <ele>935.98</ele>
        <time>2012-06-16T13:22:42Z</time>
      </trkpt>
      <trkpt lat="47.9802" lon="6.81221">
        <ele>936.46</ele>
        <time>2012-06-16T13:22:43Z</time>
      </trkpt>
      <trkpt lat="47.98016" lon="6.8122">
        <ele>937.42</ele>
        <time>2012-06-16T13:22:44Z</time>
      </trkpt>
      <trkpt lat="47.98012" lon="6.81219">
        <ele>937.9</ele>
        <time>2012-06-16T13:22:45Z</time>
      </trkpt>
      <trkpt lat="47.98008" lon="6.81217">
        <ele>938.86</ele>
        <time>2012-06-16T13:22:46Z</time>
      </trkpt>
      <trkpt lat="47.98004" lon="6.81215">
        <ele>939.83</ele>
        <time>2012-06-16T13:22:47Z</time>
      </trkpt>
      <trkpt lat="47.9798" lon="6.81198">
        <ele>941.75</ele>
        <time>2012-06-16T13:22:54Z</time>
      </trkpt>
      <trkpt lat="47.97942" lon="6.81182">
        <ele>942.23</ele>
        <time>2012-06-16T13:23:05Z</time>
      </trkpt>
      <trkpt lat="47.97901" lon="6.81162">
        <ele>945.11</ele>
        <time>2012-06-16T13:23:16Z</time>
      </trkpt>
      <trkpt lat="47.97885" lon="6.81156">
        <ele>946.56</ele>
        <time>2012-06-16T13:23:21Z</time>
      </trkpt>
      <trkpt lat="47.97858" lon="6.81168">
        <ele>948.96</ele>
        <time>2012-06-16T13:23:33Z</time>
      </trkpt>
      <trkpt lat="47.97852" lon="6.81173">
        <ele>949.44</ele>
        <time>2012-06-16T13:23:36Z</time>
      </trkpt>
      <trkpt lat="47.97849" lon="6.81174">
        <ele>949.92</ele>
        <time>2012-06-16T13:23:37Z</time>
      </trkpt>
      <trkpt lat="47.97847" lon="6.81175">
        <ele>949.92</ele>
        <time>2012-06-16T13:23:38Z</time>
      </trkpt>
      <trkpt lat="47.97822" lon="6.8118">
        <ele>954.73</ele>
        <time>2012-06-16T13:23:49Z</time>
      </trkpt>
      <trkpt lat="47.97796" lon="6.81191">
        <ele>958.57</ele>
        <time>2012-06-16T13:23:57Z</time>
      </trkpt>
      <trkpt lat="47.97793" lon="6.8119">
        <ele>959.05</ele>
        <time>2012-06-16T13:23:58Z</time>
      </trkpt>
      <trkpt lat="47.97758" lon="6.812">
        <ele>964.82</ele>
        <time>2012-06-16T13:24:11Z</time>
      </trkpt>
      <trkpt lat="47.97725" lon="6.8122">
        <ele>974.91</ele>
        <time>2012-06-16T13:24:25Z</time>
      </trkpt>
      <trkpt lat="47.97705" lon="6.81235">
        <ele>984.05</ele>
        <time>2012-06-16T13:24:38Z</time>
      </trkpt>
      <trkpt lat="47.97692" lon="6.81251">
        <ele>991.26</ele>
        <time>2012-06-16T13:24:46Z</time>
      </trkpt>
      <trkpt lat="47.97662" lon="6.81266">
        <ele>991.74</ele>
        <time>2012-06-16T13:24:58Z</time>
      </trkpt>
      <trkpt lat="47.9763" lon="6.81291">
        <ele>989.81</ele>
        <time>2012-06-16T13:25:09Z</time>
      </trkpt>
      <trkpt lat="47.97616" lon="6.81299">
        <ele>988.85</ele>
        <time>2012-06-16T13:25:14Z</time>
      </trkpt>
      <trkpt lat="47.97614" lon="6.81301">
        <ele>988.37</ele>
        <time>2012-06-16T13:25:15Z</time>
      </trkpt>
      <trkpt lat="47.9761" lon="6.81303">
        <ele>988.37</ele>
        <time>2012-06-16T13:25:16Z</time>
      </trkpt>
      <trkpt lat="47.97607" lon="6.81305">
        <ele>988.37</ele>
        <time>2012-06-16T13:25:17Z</time>
      </trkpt>
      <trkpt lat="47.97603" lon="6.81307">
        <ele>987.89</ele>
        <time>2012-06-16T13:25:18Z</time>
      </trkpt>
      <trkpt lat="47.976" lon="6.81309">
        <ele>987.89</ele>
        <time>2012-06-16T13:25:19Z</time>
      </trkpt>
      <trkpt lat="47.97561" lon="6.81327">
        <ele>985.97</ele>
        <time>2012-06-16T13:25:32Z</time>
      </trkpt>
      <trkpt lat="47.9755" lon="6.81321">
        <ele>985.49</ele>
        <time>2012-06-16T13:25:37Z</time>
      </trkpt>
      <trkpt lat="47.97548" lon="6.8132">
        <ele>985.49</ele>
        <time>2012-06-16T13:25:38Z</time>
      </trkpt>
      <trkpt lat="47.97547" lon="6.81319">
        <ele>985.49</ele>
        <time>2012-06-16T13:25:39Z</time>
      </trkpt>
      <trkpt lat="47.97545" lon="6.81317">
        <ele>985.01</ele>
        <time>2012-06-16T13:25:40Z</time>
      </trkpt>
      <trkpt lat="47.97543" lon="6.81315">
        <ele>985.01</ele>
        <time>2012-06-16T13:25:41Z</time>
      </trkpt>
      <trkpt lat="47.97541" lon="6.81313">
        <ele>984.53</ele>
        <time>2012-06-16T13:25:42Z</time>
      </trkpt>
      <trkpt lat="47.97539" lon="6.81311">
        <ele>984.05</ele>
        <time>2012-06-16T13:25:43Z</time>
      </trkpt>
      <trkpt lat="47.97536" lon="6.81308">
        <ele>984.05</ele>
        <time>2012-06-16T13:25:44Z</time>
      </trkpt>
      <trkpt lat="47.97534" lon="6.81305">
        <ele>983.57</ele>
        <time>2012-06-16T13:25:45Z</time>
      </trkpt>
      <trkpt lat="47.97505" lon="6.81269">
        <ele>978.28</ele>
        <time>2012-06-16T13:25:58Z</time>
      </trkpt>
      <trkpt lat="47.9749" lon="6.81224">
        <ele>976.36</ele>
        <time>2012-06-16T13:26:07Z</time>
      </trkpt>
      <trkpt lat="47.97486" lon="6.81209">
        <ele>976.36</ele>
        <time>2012-06-16T13:26:09Z</time>
      </trkpt>
      <trkpt lat="47.97482" lon="6.81201">
        <ele>975.88</ele>
        <time>2012-06-16T13:26:10Z</time>
      </trkpt>
      <trkpt lat="47.97462" lon="6.81148">
        <ele>974.91</ele>
        <time>2012-06-16T13:26:15Z</time>
      </trkpt>
      <trkpt lat="47.97457" lon="6.8114">
        <ele>973.95</ele>
        <time>2012-06-16T13:26:16Z</time>
      </trkpt>
      <trkpt lat="47.97428" lon="6.81089">
        <ele>970.59</ele>
        <time>2012-06-16T13:26:22Z</time>
      </trkpt>
      <trkpt lat="47.97423" lon="6.81078">
        <ele>970.11</ele>
        <time>2012-06-16T13:26:23Z</time>
      </trkpt>
      <trkpt lat="47.97418" lon="6.81067">
        <ele>969.15</ele>
        <time>2012-06-16T13:26:24Z</time>
      </trkpt>
      <trkpt lat="47.97415" lon="6.81057">
        <ele>968.67</ele>
        <time>2012-06-16T13:26:25Z</time>
      </trkpt>
      <trkpt lat="47.97411" lon="6.81048">
        <ele>968.18</ele>
        <time>2012-06-16T13:26:26Z</time>
      </trkpt>
      <trkpt lat="47.97408" lon="6.81041">
        <ele>967.22</ele>
        <time>2012-06-16T13:26:27Z</time>
      </trkpt>
      <trkpt lat="47.97396" lon="6.81027">
        <ele>962.9</ele>
        <time>2012-06-16T13:26:29Z</time>
      </trkpt>
      <trkpt lat="47.97392" lon="6.81028">
        <ele>962.9</ele>
        <time>2012-06-16T13:26:30Z</time>
      </trkpt>
      <trkpt lat="47.97385" lon="6.81033">
        <ele>961.46</ele>
        <time>2012-06-16T13:26:31Z</time>
      </trkpt>
      <trkpt lat="47.97379" lon="6.81042">
        <ele>960.01</ele>
        <time>2012-06-16T13:26:32Z</time>
      </trkpt>
      <trkpt lat="47.97368" lon="6.81059">
        <ele>956.65</ele>
        <time>2012-06-16T13:26:34Z</time>
      </trkpt>
      <trkpt lat="47.97364" lon="6.81064">
        <ele>955.21</ele>
        <time>2012-06-16T13:26:35Z</time>
      </trkpt>
      <trkpt lat="47.9736" lon="6.81066">
        <ele>954.25</ele>
        <time>2012-06-16T13:26:36Z</time>
      </trkpt>
      <trkpt lat="47.97356" lon="6.81066">
        <ele>953.77</ele>
        <time>2012-06-16T13:26:37Z</time>
      </trkpt>
      <trkpt lat="47.97353" lon="6.81063">
        <ele>953.28</ele>
        <time>2012-06-16T13:26:38Z</time>
      </trkpt>
      <trkpt lat="47.97349" lon="6.81058">
        <ele>952.8</ele>
        <time>2012-06-16T13:26:39Z</time>
      </trkpt>
      <trkpt lat="47.97344" lon="6.81054">
        <ele>952.32</ele>
        <time>2012-06-16T13:26:40Z</time>
      </trkpt>
      <trkpt lat="47.9734" lon="6.8105">
        <ele>951.84</ele>
        <time>2012-06-16T13:26:41Z</time>
      </trkpt>
      <trkpt lat="47.97337" lon="6.81046">
        <ele>951.84</ele>
        <time>2012-06-16T13:26:42Z</time>
      </trkpt>
      <trkpt lat="47.97315" lon="6.81027">
        <ele>951.36</ele>
        <time>2012-06-16T13:26:49Z</time>
      </trkpt>
      <trkpt lat="47.97312" lon="6.81022">
        <ele>951.84</ele>
        <time>2012-06-16T13:26:50Z</time>
      </trkpt>
      <trkpt lat="47.97288" lon="6.80991">
        <ele>951.84</ele>
        <time>2012-06-16T13:26:55Z</time>
      </trkpt>
      <trkpt lat="47.97282" lon="6.80985">
        <ele>951.36</ele>
        <time>2012-06-16T13:26:56Z</time>
      </trkpt>
      <trkpt lat="47.97274" lon="6.80979">
        <ele>950.88</ele>
        <time>2012-06-16T13:26:57Z</time>
      </trkpt>
      <trkpt lat="47.9726" lon="6.80968">
        <ele>950.4</ele>
        <time>2012-06-16T13:26:59Z</time>
      </trkpt>
      <trkpt lat="47.97253" lon="6.80961">
        <ele>949.92</ele>
        <time>2012-06-16T13:27:00Z</time>
      </trkpt>
      <trkpt lat="47.97247" lon="6.80955">
        <ele>948.96</ele>
        <time>2012-06-16T13:27:01Z</time>
      </trkpt>
      <trkpt lat="47.97241" lon="6.80949">
        <ele>948.48</ele>
        <time>2012-06-16T13:27:02Z</time>
      </trkpt>
      <trkpt lat="47.97236" lon="6.80943">
        <ele>948</ele>
        <time>2012-06-16T13:27:03Z</time>
      </trkpt>
      <trkpt lat="47.97232" lon="6.80936">
        <ele>947.52</ele>
        <time>2012-06-16T13:27:04Z</time>
      </trkpt>
      <trkpt lat="47.97229" lon="6.80929">
        <ele>947.52</ele>
        <time>2012-06-16T13:27:05Z</time>
      </trkpt>
      <trkpt lat="47.97226" lon="6.80923">
        <ele>947.04</ele>
        <time>2012-06-16T13:27:06Z</time>
      </trkpt>
      <trkpt lat="47.97212" lon="6.80911">
        <ele>943.19</ele>
        <time>2012-06-16T13:27:14Z</time>
      </trkpt>
      <trkpt lat="47.97207" lon="6.80913">
        <ele>933.1</ele>
        <time>2012-06-16T13:27:40Z</time>
      </trkpt>
      <trkpt lat="47.97208" lon="6.80912">
        <ele>930.69</ele>
        <time>2012-06-16T13:28:10Z</time>
      </trkpt>
      <trkpt lat="47.97207" lon="6.80914">
        <ele>927.81</ele>
        <time>2012-06-16T13:28:38Z</time>
      </trkpt>
      <trkpt lat="47.97205" lon="6.80909">
        <ele>926.85</ele>
        <time>2012-06-16T13:29:00Z</time>
      </trkpt>
      <trkpt lat="47.97205" lon="6.80907">
        <ele>926.85</ele>
        <time>2012-06-16T13:29:01Z</time>
      </trkpt>
      <trkpt lat="47.97204" lon="6.80903">
        <ele>927.33</ele>
        <time>2012-06-16T13:29:02Z</time>
      </trkpt>
      <trkpt lat="47.97204" lon="6.809">
        <ele>927.81</ele>
        <time>2012-06-16T13:29:03Z</time>
      </trkpt>
      <trkpt lat="47.97203" lon="6.80896">
        <ele>928.29</ele>
        <time>2012-06-16T13:29:04Z</time>
      </trkpt>
      <trkpt lat="47.97187" lon="6.80855">
        <ele>931.65</ele>
        <time>2012-06-16T13:29:13Z</time>
      </trkpt>
      <trkpt lat="47.9717" lon="6.80836">
        <ele>935.02</ele>
        <time>2012-06-16T13:29:22Z</time>
      </trkpt>
      <trkpt lat="47.97146" lon="6.80812">
        <ele>935.98</ele>
        <time>2012-06-16T13:29:33Z</time>
      </trkpt>
      <trkpt lat="47.97117" lon="6.80796">
        <ele>934.54</ele>
        <time>2012-06-16T13:29:46Z</time>
      </trkpt>
      <trkpt lat="47.97088" lon="6.80795">
        <ele>935.98</ele>
        <time>2012-06-16T13:29:59Z</time>
      </trkpt>
      <trkpt lat="47.9706" lon="6.80781">
        <ele>937.9</ele>
        <time>2012-06-16T13:30:14Z</time>
      </trkpt>
      <trkpt lat="47.97059" lon="6.80779">
        <ele>937.9</ele>
        <time>2012-06-16T13:30:15Z</time>
      </trkpt>
      <trkpt lat="47.97059" lon="6.80776">
        <ele>938.38</ele>
        <time>2012-06-16T13:30:16Z</time>
      </trkpt>
      <trkpt lat="47.97058" lon="6.80774">
        <ele>938.38</ele>
        <time>2012-06-16T13:30:17Z</time>
      </trkpt>
      <trkpt lat="47.97057" lon="6.80772">
        <ele>938.86</ele>
        <time>2012-06-16T13:30:18Z</time>
      </trkpt>
      <trkpt lat="47.9705" lon="6.80738">
        <ele>941.75</ele>
        <time>2012-06-16T13:30:31Z</time>
      </trkpt>
      <trkpt lat="47.97046" lon="6.80704">
        <ele>945.59</ele>
        <time>2012-06-16T13:30:43Z</time>
      </trkpt>
      <trkpt lat="47.97038" lon="6.80667">
        <ele>954.73</ele>
        <time>2012-06-16T13:30:57Z</time>
      </trkpt>
      <trkpt lat="47.97023" lon="6.8064">
        <ele>959.05</ele>
        <time>2012-06-16T13:31:12Z</time>
      </trkpt>
      <trkpt lat="47.97005" lon="6.80604">
        <ele>956.65</ele>
        <time>2012-06-16T13:31:25Z</time>
      </trkpt>
      <trkpt lat="47.97001" lon="6.80596">
        <ele>957.13</ele>
        <time>2012-06-16T13:31:27Z</time>
      </trkpt>
      <trkpt lat="47.96999" lon="6.80593">
        <ele>957.13</ele>
        <time>2012-06-16T13:31:28Z</time>
      </trkpt>
      <trkpt lat="47.96997" lon="6.8059">
        <ele>957.13</ele>
        <time>2012-06-16T13:31:29Z</time>
      </trkpt>
      <trkpt lat="47.96995" lon="6.80587">
        <ele>957.13</ele>
        <time>2012-06-16T13:31:30Z</time>
      </trkpt>
      <trkpt lat="47.96994" lon="6.80583">
        <ele>957.13</ele>
        <time>2012-06-16T13:31:31Z</time>
      </trkpt>
      <trkpt lat="47.96991" lon="6.80579">
        <ele>957.13</ele>
        <time>2012-06-16T13:31:32Z</time>
      </trkpt>
      <trkpt lat="47.96988" lon="6.80575">
        <ele>957.61</ele>
        <time>2012-06-16T13:31:33Z</time>
      </trkpt>
      <trkpt lat="47.96984" lon="6.80571">
        <ele>957.61</ele>
        <time>2012-06-16T13:31:34Z</time>
      </trkpt>
      <trkpt lat="47.96951" lon="6.80529">
        <ele>958.57</ele>
        <time>2012-06-16T13:31:45Z</time>
      </trkpt>
      <trkpt lat="47.96932" lon="6.80496">
        <ele>955.21</ele>
        <time>2012-06-16T13:31:54Z</time>
      </trkpt>
      <trkpt lat="47.96914" lon="6.80456">
        <ele>955.21</ele>
        <time>2012-06-16T13:32:04Z</time>
      </trkpt>
      <trkpt lat="47.96866" lon="6.80424">
        <ele>943.19</ele>
        <time>2012-06-16T13:32:16Z</time>
      </trkpt>
      <trkpt lat="47.96836" lon="6.80415">
        <ele>939.83</ele>
        <time>2012-06-16T13:32:25Z</time>
      </trkpt>
      <trkpt lat="47.96825" lon="6.80417">
        <ele>939.83</ele>
        <time>2012-06-16T13:32:27Z</time>
      </trkpt>
      <trkpt lat="47.96819" lon="6.80417">
        <ele>939.35</ele>
        <time>2012-06-16T13:32:28Z</time>
      </trkpt>
      <trkpt lat="47.96813" lon="6.80417">
        <ele>939.35</ele>
        <time>2012-06-16T13:32:29Z</time>
      </trkpt>
      <trkpt lat="47.96808" lon="6.80416">
        <ele>939.35</ele>
        <time>2012-06-16T13:32:30Z</time>
      </trkpt>
      <trkpt lat="47.96804" lon="6.80415">
        <ele>939.35</ele>
        <time>2012-06-16T13:32:31Z</time>
      </trkpt>
      <trkpt lat="47.968" lon="6.80414">
        <ele>939.35</ele>
        <time>2012-06-16T13:32:32Z</time>
      </trkpt>
      <trkpt lat="47.96766" lon="6.80418">
        <ele>941.27</ele>
        <time>2012-06-16T13:32:42Z</time>
      </trkpt>
      <trkpt lat="47.96762" lon="6.80421">
        <ele>941.27</ele>
        <time>2012-06-16T13:32:43Z</time>
      </trkpt>
      <trkpt lat="47.96758" lon="6.80426">
        <ele>941.75</ele>
        <time>2012-06-16T13:32:44Z</time>
      </trkpt>
      <trkpt lat="47.96753" lon="6.80431">
        <ele>941.75</ele>
        <time>2012-06-16T13:32:45Z</time>
      </trkpt>
      <trkpt lat="47.96747" lon="6.80435">
        <ele>941.27</ele>
        <time>2012-06-16T13:32:46Z</time>
      </trkpt>
      <trkpt lat="47.96741" lon="6.80436">
        <ele>941.27</ele>
        <time>2012-06-16T13:32:47Z</time>
      </trkpt>
      <trkpt lat="47.96735" lon="6.80437">
        <ele>941.27</ele>
        <time>2012-06-16T13:32:48Z</time>
      </trkpt>
      <trkpt lat="47.96721" lon="6.80435">
        <ele>940.31</ele>
        <time>2012-06-16T13:32:56Z</time>
      </trkpt>
      <trkpt lat="47.96721" lon="6.80439">
        <ele>939.35</ele>
        <time>2012-06-16T13:33:16Z</time>
      </trkpt>
      <trkpt lat="47.96721" lon="6.80441">
        <ele>942.23</ele>
        <time>2012-06-16T13:33:35Z</time>
      </trkpt>
      <trkpt lat="47.96721" lon="6.8044">
        <ele>942.71</ele>
        <time>2012-06-16T13:33:57Z</time>
      </trkpt>
      <trkpt lat="47.96717" lon="6.80441">
        <ele>939.83</ele>
        <time>2012-06-16T13:34:20Z</time>
      </trkpt>
      <trkpt lat="47.96714" lon="6.80444">
        <ele>940.79</ele>
        <time>2012-06-16T13:34:34Z</time>
      </trkpt>
      <trkpt lat="47.96712" lon="6.80446">
        <ele>940.79</ele>
        <time>2012-06-16T13:34:35Z</time>
      </trkpt>
      <trkpt lat="47.96712" lon="6.80447">
        <ele>941.27</ele>
        <time>2012-06-16T13:34:36Z</time>
      </trkpt>
      <trkpt lat="47.96711" lon="6.80449">
        <ele>941.27</ele>
        <time>2012-06-16T13:34:37Z</time>
      </trkpt>
      <trkpt lat="47.9671" lon="6.8045">
        <ele>941.75</ele>
        <time>2012-06-16T13:34:38Z</time>
      </trkpt>
      <trkpt lat="47.96708" lon="6.80452">
        <ele>942.23</ele>
        <time>2012-06-16T13:34:39Z</time>
      </trkpt>
      <trkpt lat="47.96688" lon="6.80487">
        <ele>946.07</ele>
        <time>2012-06-16T13:34:51Z</time>
      </trkpt>
      <trkpt lat="47.96666" lon="6.80507">
        <ele>948.48</ele>
        <time>2012-06-16T13:35:03Z</time>
      </trkpt>
      <trkpt lat="47.96646" lon="6.80532">
        <ele>952.32</ele>
        <time>2012-06-16T13:35:12Z</time>
      </trkpt>
      <trkpt lat="47.96621" lon="6.80559">
        <ele>955.21</ele>
        <time>2012-06-16T13:35:23Z</time>
      </trkpt>
      <trkpt lat="47.96602" lon="6.80564">
        <ele>957.13</ele>
        <time>2012-06-16T13:35:29Z</time>
      </trkpt>
      <trkpt lat="47.96599" lon="6.80562">
        <ele>957.13</ele>
        <time>2012-06-16T13:35:30Z</time>
      </trkpt>
      <trkpt lat="47.96596" lon="6.80558">
        <ele>957.61</ele>
        <time>2012-06-16T13:35:31Z</time>
      </trkpt>
      <trkpt lat="47.96594" lon="6.80554">
        <ele>957.61</ele>
        <time>2012-06-16T13:35:32Z</time>
      </trkpt>
      <trkpt lat="47.96591" lon="6.80548">
        <ele>957.61</ele>
        <time>2012-06-16T13:35:33Z</time>
      </trkpt>
      <trkpt lat="47.96565" lon="6.80498">
        <ele>957.13</ele>
        <time>2012-06-16T13:35:40Z</time>
      </trkpt>
      <trkpt lat="47.9656" lon="6.80492">
        <ele>957.13</ele>
        <time>2012-06-16T13:35:41Z</time>
      </trkpt>
      <trkpt lat="47.96554" lon="6.80486">
        <ele>957.13</ele>
        <time>2012-06-16T13:35:42Z</time>
      </trkpt>
      <trkpt lat="47.96547" lon="6.8048">
        <ele>957.13</ele>
        <time>2012-06-16T13:35:43Z</time>
      </trkpt>
      <trkpt lat="47.96485" lon="6.80462">
        <ele>926.85</ele>
        <time>2012-06-16T13:35:44Z</time>
      </trkpt>
      <trkpt lat="47.96479" lon="6.80451">
        <ele>926.85</ele>
        <time>2012-06-16T13:35:45Z</time>
      </trkpt>
      <trkpt lat="47.96473" lon="6.80445">
        <ele>928.29</ele>
        <time>2012-06-16T13:35:46Z</time>
      </trkpt>
      <trkpt lat="47.96458" lon="6.80412">
        <ele>919.64</ele>
        <time>2012-06-16T13:35:54Z</time>
      </trkpt>
      <trkpt lat="47.96448" lon="6.80398">
        <ele>920.12</ele>
        <time>2012-06-16T13:35:58Z</time>
      </trkpt>
      <trkpt lat="47.96421" lon="6.80363">
        <ele>919.64</ele>
        <time>2012-06-16T13:36:06Z</time>
      </trkpt>
      <trkpt lat="47.96417" lon="6.80362">
        <ele>919.64</ele>
        <time>2012-06-16T13:36:07Z</time>
      </trkpt>
      <trkpt lat="47.96413" lon="6.80359">
        <ele>919.64</ele>
        <time>2012-06-16T13:36:08Z</time>
      </trkpt>
      <trkpt lat="47.9641" lon="6.80355">
        <ele>919.64</ele>
        <time>2012-06-16T13:36:09Z</time>
      </trkpt>
      <trkpt lat="47.96408" lon="6.80351">
        <ele>919.16</ele>
        <time>2012-06-16T13:36:10Z</time>
      </trkpt>
      <trkpt lat="47.96406" lon="6.80346">
        <ele>917.24</ele>
        <time>2012-06-16T13:36:11Z</time>
      </trkpt>
      <trkpt lat="47.96405" lon="6.80342">
        <ele>915.79</ele>
        <time>2012-06-16T13:36:12Z</time>
      </trkpt>
      <trkpt lat="47.96399" lon="6.80326">
        <ele>915.31</ele>
        <time>2012-06-16T13:36:18Z</time>
      </trkpt>
      <trkpt lat="47.96399" lon="6.80297">
        <ele>918.2</ele>
        <time>2012-06-16T13:36:30Z</time>
      </trkpt>
      <trkpt lat="47.96371" lon="6.80283">
        <ele>923.96</ele>
        <time>2012-06-16T13:36:44Z</time>
      </trkpt>
      <trkpt lat="47.9637" lon="6.80283">
        <ele>923.96</ele>
        <time>2012-06-16T13:36:45Z</time>
      </trkpt>
      <trkpt lat="47.9636" lon="6.80268">
        <ele>926.37</ele>
        <time>2012-06-16T13:36:50Z</time>
      </trkpt>
      <trkpt lat="47.96342" lon="6.80256">
        <ele>928.77</ele>
        <time>2012-06-16T13:36:54Z</time>
      </trkpt>
      <trkpt lat="47.96308" lon="6.80241">
        <ele>928.77</ele>
        <time>2012-06-16T13:37:08Z</time>
      </trkpt>
      <trkpt lat="47.96306" lon="6.80242">
        <ele>927.81</ele>
        <time>2012-06-16T13:37:34Z</time>
      </trkpt>
      <trkpt lat="47.96307" lon="6.80242">
        <ele>927.81</ele>
        <time>2012-06-16T13:37:54Z</time>
      </trkpt>
      <trkpt lat="47.96304" lon="6.80241">
        <ele>926.37</ele>
        <time>2012-06-16T13:38:18Z</time>
      </trkpt>
      <trkpt lat="47.96304" lon="6.80238">
        <ele>925.41</ele>
        <time>2012-06-16T13:38:42Z</time>
      </trkpt>
      <trkpt lat="47.96303" lon="6.80237">
        <ele>924.45</ele>
        <time>2012-06-16T13:39:02Z</time>
      </trkpt>
      <trkpt lat="47.96304" lon="6.80238">
        <ele>923.48</ele>
        <time>2012-06-16T13:39:23Z</time>
      </trkpt>
      <trkpt lat="47.96303" lon="6.80239">
        <ele>921.56</ele>
        <time>2012-06-16T13:39:44Z</time>
      </trkpt>
      <trkpt lat="47.96303" lon="6.80238">
        <ele>921.56</ele>
        <time>2012-06-16T13:40:13Z</time>
      </trkpt>
      <trkpt lat="47.96305" lon="6.80239">
        <ele>921.56</ele>
        <time>2012-06-16T13:40:36Z</time>
      </trkpt>
      <trkpt lat="47.96305" lon="6.8024">
        <ele>921.56</ele>
        <time>2012-06-16T13:40:58Z</time>
      </trkpt>
      <trkpt lat="47.96303" lon="6.8024">
        <ele>921.56</ele>
        <time>2012-06-16T13:41:23Z</time>
      </trkpt>
      <trkpt lat="47.96304" lon="6.80245">
        <ele>915.79</ele>
        <time>2012-06-16T13:41:45Z</time>
      </trkpt>
      <trkpt lat="47.96308" lon="6.80248">
        <ele>909.06</ele>
        <time>2012-06-16T13:42:04Z</time>
      </trkpt>
      <trkpt lat="47.96309" lon="6.80249">
        <ele>908.58</ele>
        <time>2012-06-16T13:42:20Z</time>
      </trkpt>
      <trkpt lat="47.96309" lon="6.80249">
        <ele>908.1</ele>
        <time>2012-06-16T13:42:47Z</time>
      </trkpt>
      <trkpt lat="47.96309" lon="6.80249">
        <ele>908.1</ele>
        <time>2012-06-16T13:43:15Z</time>
      </trkpt>
      <trkpt lat="47.96308" lon="6.80249">
        <ele>908.1</ele>
        <time>2012-06-16T13:43:31Z</time>
      </trkpt>
      <trkpt lat="47.96308" lon="6.80249">
        <ele>908.1</ele>
        <time>2012-06-16T13:43:48Z</time>
      </trkpt>
      <trkpt lat="47.96309" lon="6.8025">
        <ele>907.62</ele>
        <time>2012-06-16T13:44:09Z</time>
      </trkpt>
      <trkpt lat="47.96308" lon="6.80247">
        <ele>908.1</ele>
        <time>2012-06-16T13:44:17Z</time>
      </trkpt>
      <trkpt lat="47.96304" lon="6.80238">
        <ele>910.51</ele>
        <time>2012-06-16T13:44:25Z</time>
      </trkpt>
      <trkpt lat="47.963" lon="6.8023">
        <ele>912.91</ele>
        <time>2012-06-16T13:44:30Z</time>
      </trkpt>
      <trkpt lat="47.96295" lon="6.8023">
        <ele>912.91</ele>
        <time>2012-06-16T13:44:33Z</time>
      </trkpt>
      <trkpt lat="47.96278" lon="6.80217">
        <ele>913.39</ele>
        <time>2012-06-16T13:44:41Z</time>
      </trkpt>
      <trkpt lat="47.9627" lon="6.80211">
        <ele>913.87</ele>
        <time>2012-06-16T13:44:44Z</time>
      </trkpt>
      <trkpt lat="47.96251" lon="6.80205">
        <ele>913.39</ele>
        <time>2012-06-16T13:44:50Z</time>
      </trkpt>
      <trkpt lat="47.96241" lon="6.80189">
        <ele>911.47</ele>
        <time>2012-06-16T13:44:55Z</time>
      </trkpt>
      <trkpt lat="47.9624" lon="6.80176">
        <ele>910.51</ele>
        <time>2012-06-16T13:44:58Z</time>
      </trkpt>
      <trkpt lat="47.9623" lon="6.80165">
        <ele>908.58</ele>
        <time>2012-06-16T13:45:02Z</time>
      </trkpt>
      <trkpt lat="47.96224" lon="6.80158">
        <ele>907.62</ele>
        <time>2012-06-16T13:45:04Z</time>
      </trkpt>
      <trkpt lat="47.96219" lon="6.80155">
        <ele>906.66</ele>
        <time>2012-06-16T13:45:05Z</time>
      </trkpt>
      <trkpt lat="47.96214" lon="6.80153">
        <ele>906.18</ele>
        <time>2012-06-16T13:45:06Z</time>
      </trkpt>
      <trkpt lat="47.96201" lon="6.80144">
        <ele>902.33</ele>
        <time>2012-06-16T13:45:07Z</time>
      </trkpt>
      <trkpt lat="47.96195" lon="6.80141">
        <ele>900.89</ele>
        <time>2012-06-16T13:45:08Z</time>
      </trkpt>
      <trkpt lat="47.96191" lon="6.80139">
        <ele>899.45</ele>
        <time>2012-06-16T13:45:09Z</time>
      </trkpt>
      <trkpt lat="47.96188" lon="6.80137">
        <ele>898.49</ele>
        <time>2012-06-16T13:45:10Z</time>
      </trkpt>
      <trkpt lat="47.96186" lon="6.80137">
        <ele>898.49</ele>
        <time>2012-06-16T13:45:11Z</time>
      </trkpt>
      <trkpt lat="47.96184" lon="6.8014">
        <ele>892.24</ele>
        <time>2012-06-16T13:45:24Z</time>
      </trkpt>
      <trkpt lat="47.96182" lon="6.80137">
        <ele>890.32</ele>
        <time>2012-06-16T13:45:47Z</time>
      </trkpt>
      <trkpt lat="47.9617" lon="6.80106">
        <ele>885.99</ele>
        <time>2012-06-16T13:45:56Z</time>
      </trkpt>
      <trkpt lat="47.96167" lon="6.80102">
        <ele>884.55</ele>
        <time>2012-06-16T13:45:58Z</time>
      </trkpt>
      <trkpt lat="47.96164" lon="6.80101">
        <ele>883.59</ele>
        <time>2012-06-16T13:45:59Z</time>
      </trkpt>
      <trkpt lat="47.96161" lon="6.80098">
        <ele>882.63</ele>
        <time>2012-06-16T13:46:00Z</time>
      </trkpt>
      <trkpt lat="47.96158" lon="6.80096">
        <ele>881.67</ele>
        <time>2012-06-16T13:46:01Z</time>
      </trkpt>
      <trkpt lat="47.96155" lon="6.80094">
        <ele>880.71</ele>
        <time>2012-06-16T13:46:02Z</time>
      </trkpt>
      <trkpt lat="47.9615" lon="6.80088">
        <ele>878.78</ele>
        <time>2012-06-16T13:46:04Z</time>
      </trkpt>
      <trkpt lat="47.96148" lon="6.80083">
        <ele>878.3</ele>
        <time>2012-06-16T13:46:05Z</time>
      </trkpt>
      <trkpt lat="47.96145" lon="6.80068">
        <ele>876.38</ele>
        <time>2012-06-16T13:46:07Z</time>
      </trkpt>
      <trkpt lat="47.96143" lon="6.80062">
        <ele>875.42</ele>
        <time>2012-06-16T13:46:08Z</time>
      </trkpt>
      <trkpt lat="47.96139" lon="6.80058">
        <ele>874.46</ele>
        <time>2012-06-16T13:46:09Z</time>
      </trkpt>
      <trkpt lat="47.96135" lon="6.80055">
        <ele>873.98</ele>
        <time>2012-06-16T13:46:10Z</time>
      </trkpt>
      <trkpt lat="47.96133" lon="6.80051">
        <ele>873.01</ele>
        <time>2012-06-16T13:46:11Z</time>
      </trkpt>
      <trkpt lat="47.96132" lon="6.80044">
        <ele>872.05</ele>
        <time>2012-06-16T13:46:12Z</time>
      </trkpt>
      <trkpt lat="47.96132" lon="6.80038">
        <ele>871.09</ele>
        <time>2012-06-16T13:46:13Z</time>
      </trkpt>
      <trkpt lat="47.96132" lon="6.80033">
        <ele>870.61</ele>
        <time>2012-06-16T13:46:14Z</time>
      </trkpt>
      <trkpt lat="47.9613" lon="6.80028">
        <ele>869.65</ele>
        <time>2012-06-16T13:46:15Z</time>
      </trkpt>
      <trkpt lat="47.96127" lon="6.80023">
        <ele>869.17</ele>
        <time>2012-06-16T13:46:16Z</time>
      </trkpt>
      <trkpt lat="47.96123" lon="6.80017">
        <ele>868.69</ele>
        <time>2012-06-16T13:46:17Z</time>
      </trkpt>
      <trkpt lat="47.96119" lon="6.80011">
        <ele>868.21</ele>
        <time>2012-06-16T13:46:18Z</time>
      </trkpt>
      <trkpt lat="47.96111" lon="6.79997">
        <ele>866.77</ele>
        <time>2012-06-16T13:46:20Z</time>
      </trkpt>
      <trkpt lat="47.96108" lon="6.7999">
        <ele>865.8</ele>
        <time>2012-06-16T13:46:21Z</time>
      </trkpt>
      <trkpt lat="47.96104" lon="6.79983">
        <ele>865.32</ele>
        <time>2012-06-16T13:46:22Z</time>
      </trkpt>
      <trkpt lat="47.961" lon="6.79976">
        <ele>864.36</ele>
        <time>2012-06-16T13:46:23Z</time>
      </trkpt>
      <trkpt lat="47.96096" lon="6.79969">
        <ele>863.88</ele>
        <time>2012-06-16T13:46:24Z</time>
      </trkpt>
      <trkpt lat="47.96092" lon="6.79963">
        <ele>863.4</ele>
        <time>2012-06-16T13:46:25Z</time>
      </trkpt>
      <trkpt lat="47.96088" lon="6.79957">
        <ele>862.92</ele>
        <time>2012-06-16T13:46:26Z</time>
      </trkpt>
      <trkpt lat="47.96084" lon="6.7995">
        <ele>862.44</ele>
        <time>2012-06-16T13:46:27Z</time>
      </trkpt>
      <trkpt lat="47.96067" lon="6.79924">
        <ele>859.56</ele>
        <time>2012-06-16T13:46:32Z</time>
      </trkpt>
      <trkpt lat="47.96063" lon="6.79922">
        <ele>859.08</ele>
        <time>2012-06-16T13:46:33Z</time>
      </trkpt>
      <trkpt lat="47.96058" lon="6.79918">
        <ele>858.59</ele>
        <time>2012-06-16T13:46:34Z</time>
      </trkpt>
      <trkpt lat="47.96046" lon="6.79903">
        <ele>856.67</ele>
        <time>2012-06-16T13:46:37Z</time>
      </trkpt>
      <trkpt lat="47.96042" lon="6.79896">
        <ele>856.19</ele>
        <time>2012-06-16T13:46:38Z</time>
      </trkpt>
      <trkpt lat="47.96038" lon="6.79891">
        <ele>855.71</ele>
        <time>2012-06-16T13:46:39Z</time>
      </trkpt>
      <trkpt lat="47.96034" lon="6.79888">
        <ele>854.75</ele>
        <time>2012-06-16T13:46:40Z</time>
      </trkpt>
      <trkpt lat="47.9603" lon="6.79885">
        <ele>854.27</ele>
        <time>2012-06-16T13:46:41Z</time>
      </trkpt>
      <trkpt lat="47.96025" lon="6.79879">
        <ele>853.31</ele>
        <time>2012-06-16T13:46:42Z</time>
      </trkpt>
      <trkpt lat="47.96021" lon="6.79873">
        <ele>852.83</ele>
        <time>2012-06-16T13:46:43Z</time>
      </trkpt>
      <trkpt lat="47.96017" lon="6.79866">
        <ele>851.87</ele>
        <time>2012-06-16T13:46:44Z</time>
      </trkpt>
      <trkpt lat="47.96012" lon="6.7986">
        <ele>851.38</ele>
        <time>2012-06-16T13:46:45Z</time>
      </trkpt>
      <trkpt lat="47.96008" lon="6.79856">
        <ele>851.38</ele>
        <time>2012-06-16T13:46:46Z</time>
      </trkpt>
      <trkpt lat="47.96004" lon="6.79854">
        <ele>850.9</ele>
        <time>2012-06-16T13:46:47Z</time>
      </trkpt>
      <trkpt lat="47.96" lon="6.79851">
        <ele>850.42</ele>
        <time>2012-06-16T13:46:48Z</time>
      </trkpt>
      <trkpt lat="47.95998" lon="6.79848">
        <ele>850.42</ele>
        <time>2012-06-16T13:46:49Z</time>
      </trkpt>
      <trkpt lat="47.95998" lon="6.79844">
        <ele>850.9</ele>
        <time>2012-06-16T13:46:50Z</time>
      </trkpt>
      <trkpt lat="47.95996" lon="6.79841">
        <ele>851.38</ele>
        <time>2012-06-16T13:46:51Z</time>
      </trkpt>
      <trkpt lat="47.95995" lon="6.79838">
        <ele>851.87</ele>
        <time>2012-06-16T13:46:52Z</time>
      </trkpt>
      <trkpt lat="47.95984" lon="6.7982">
        <ele>854.75</ele>
        <time>2012-06-16T13:47:05Z</time>
      </trkpt>
      <trkpt lat="47.95984" lon="6.79819">
        <ele>857.15</ele>
        <time>2012-06-16T13:47:24Z</time>
      </trkpt>
      <trkpt lat="47.95984" lon="6.79821">
        <ele>856.19</ele>
        <time>2012-06-16T13:47:44Z</time>
      </trkpt>
      <trkpt lat="47.95984" lon="6.79822">
        <ele>854.27</ele>
        <time>2012-06-16T13:48:06Z</time>
      </trkpt>
      <trkpt lat="47.95978" lon="6.79809">
        <ele>854.75</ele>
        <time>2012-06-16T13:48:24Z</time>
      </trkpt>
      <trkpt lat="47.95975" lon="6.79798">
        <ele>854.27</ele>
        <time>2012-06-16T13:48:26Z</time>
      </trkpt>
      <trkpt lat="47.95974" lon="6.79793">
        <ele>853.79</ele>
        <time>2012-06-16T13:48:27Z</time>
      </trkpt>
      <trkpt lat="47.95975" lon="6.79787">
        <ele>853.31</ele>
        <time>2012-06-16T13:48:28Z</time>
      </trkpt>
      <trkpt lat="47.95976" lon="6.7978">
        <ele>852.35</ele>
        <time>2012-06-16T13:48:29Z</time>
      </trkpt>
      <trkpt lat="47.95978" lon="6.7977">
        <ele>851.38</ele>
        <time>2012-06-16T13:48:30Z</time>
      </trkpt>
      <trkpt lat="47.95979" lon="6.7976">
        <ele>850.42</ele>
        <time>2012-06-16T13:48:31Z</time>
      </trkpt>
      <trkpt lat="47.95978" lon="6.79752">
        <ele>849.46</ele>
        <time>2012-06-16T13:48:32Z</time>
      </trkpt>
      <trkpt lat="47.95976" lon="6.79748">
        <ele>848.5</ele>
        <time>2012-06-16T13:48:33Z</time>
      </trkpt>
      <trkpt lat="47.95973" lon="6.79743">
        <ele>848.02</ele>
        <time>2012-06-16T13:48:34Z</time>
      </trkpt>
      <trkpt lat="47.9597" lon="6.79736">
        <ele>847.06</ele>
        <time>2012-06-16T13:48:35Z</time>
      </trkpt>
      <trkpt lat="47.95967" lon="6.79729">
        <ele>846.1</ele>
        <time>2012-06-16T13:48:36Z</time>
      </trkpt>
      <trkpt lat="47.95965" lon="6.79723">
        <ele>845.14</ele>
        <time>2012-06-16T13:48:37Z</time>
      </trkpt>
      <trkpt lat="47.95965" lon="6.79717">
        <ele>844.18</ele>
        <time>2012-06-16T13:48:38Z</time>
      </trkpt>
      <trkpt lat="47.95948" lon="6.79694">
        <ele>837.45</ele>
        <time>2012-06-16T13:48:46Z</time>
      </trkpt>
      <trkpt lat="47.95944" lon="6.79694">
        <ele>836.48</ele>
        <time>2012-06-16T13:48:47Z</time>
      </trkpt>
      <trkpt lat="47.9594" lon="6.79694">
        <ele>835.52</ele>
        <time>2012-06-16T13:48:48Z</time>
      </trkpt>
      <trkpt lat="47.95935" lon="6.79692">
        <ele>834.56</ele>
        <time>2012-06-16T13:48:49Z</time>
      </trkpt>
      <trkpt lat="47.95931" lon="6.7969">
        <ele>833.6</ele>
        <time>2012-06-16T13:48:50Z</time>
      </trkpt>
      <trkpt lat="47.95915" lon="6.79687">
        <ele>828.31</ele>
        <time>2012-06-16T13:48:54Z</time>
      </trkpt>
      <trkpt lat="47.95911" lon="6.79686">
        <ele>826.87</ele>
        <time>2012-06-16T13:48:55Z</time>
      </trkpt>
      <trkpt lat="47.95902" lon="6.79685">
        <ele>823.03</ele>
        <time>2012-06-16T13:48:57Z</time>
      </trkpt>
      <trkpt lat="47.95893" lon="6.7967">
        <ele>812.45</ele>
        <time>2012-06-16T13:49:02Z</time>
      </trkpt>
      <trkpt lat="47.95897" lon="6.79685">
        <ele>812.93</ele>
        <time>2012-06-16T13:49:13Z</time>
      </trkpt>
      <trkpt lat="47.95898" lon="6.79685">
        <ele>816.78</ele>
        <time>2012-06-16T13:49:29Z</time>
      </trkpt>
      <trkpt lat="47.95898" lon="6.79684">
        <ele>817.74</ele>
        <time>2012-06-16T13:49:43Z</time>
      </trkpt>
      <trkpt lat="47.95897" lon="6.79683">
        <ele>817.74</ele>
        <time>2012-06-16T13:49:56Z</time>
      </trkpt>
      <trkpt lat="47.95899" lon="6.7967">
        <ele>817.26</ele>
        <time>2012-06-16T13:50:02Z</time>
      </trkpt>
      <trkpt lat="47.95895" lon="6.79657">
        <ele>815.82</ele>
        <time>2012-06-16T13:50:07Z</time>
      </trkpt>
      <trkpt lat="47.95888" lon="6.79639">
        <ele>811.01</ele>
        <time>2012-06-16T13:50:13Z</time>
      </trkpt>
      <trkpt lat="47.95884" lon="6.79627">
        <ele>807.64</ele>
        <time>2012-06-16T13:50:18Z</time>
      </trkpt>
      <trkpt lat="47.9589" lon="6.79615">
        <ele>805.24</ele>
        <time>2012-06-16T13:50:22Z</time>
      </trkpt>
      <trkpt lat="47.95885" lon="6.79607">
        <ele>802.84</ele>
        <time>2012-06-16T13:50:27Z</time>
      </trkpt>
      <trkpt lat="47.95876" lon="6.79604">
        <ele>800.92</ele>
        <time>2012-06-16T13:50:39Z</time>
      </trkpt>
      <trkpt lat="47.95874" lon="6.79604">
        <ele>800.44</ele>
        <time>2012-06-16T13:51:04Z</time>
      </trkpt>
      <trkpt lat="47.95873" lon="6.79602">
        <ele>799.95</ele>
        <time>2012-06-16T13:51:32Z</time>
      </trkpt>
      <trkpt lat="47.95872" lon="6.79602">
        <ele>799.47</ele>
        <time>2012-06-16T13:51:59Z</time>
      </trkpt>
      <trkpt lat="47.95872" lon="6.79602">
        <ele>799.47</ele>
        <time>2012-06-16T13:52:03Z</time>
      </trkpt>
      <trkpt lat="47.95856" lon="6.79606">
        <ele>800.44</ele>
        <time>2012-06-16T13:52:14Z</time>
      </trkpt>
      <trkpt lat="47.95855" lon="6.79606">
        <ele>800.44</ele>
        <time>2012-06-16T13:52:15Z</time>
      </trkpt>
      <trkpt lat="47.95842" lon="6.7961">
        <ele>802.36</ele>
        <time>2012-06-16T13:52:25Z</time>
      </trkpt>
      <trkpt lat="47.95839" lon="6.79606">
        <ele>802.84</ele>
        <time>2012-06-16T13:52:26Z</time>
      </trkpt>
      <trkpt lat="47.95828" lon="6.79599">
        <ele>803.32</ele>
        <time>2012-06-16T13:52:31Z</time>
      </trkpt>
      <trkpt lat="47.95823" lon="6.7959">
        <ele>803.8</ele>
        <time>2012-06-16T13:52:35Z</time>
      </trkpt>
      <trkpt lat="47.95818" lon="6.79575">
        <ele>806.68</ele>
        <time>2012-06-16T13:52:46Z</time>
      </trkpt>
      <trkpt lat="47.95818" lon="6.79573">
        <ele>807.16</ele>
        <time>2012-06-16T13:52:51Z</time>
      </trkpt>
      <trkpt lat="47.95806" lon="6.79551">
        <ele>809.09</ele>
        <time>2012-06-16T13:52:59Z</time>
      </trkpt>
      <trkpt lat="47.95786" lon="6.79514">
        <ele>811.97</ele>
        <time>2012-06-16T13:53:11Z</time>
      </trkpt>
      <trkpt lat="47.95772" lon="6.79499">
        <ele>811.49</ele>
        <time>2012-06-16T13:53:20Z</time>
      </trkpt>
      <trkpt lat="47.95767" lon="6.79497">
        <ele>807.16</ele>
        <time>2012-06-16T13:53:43Z</time>
      </trkpt>
      <trkpt lat="47.95766" lon="6.79498">
        <ele>806.2</ele>
        <time>2012-06-16T13:54:06Z</time>
      </trkpt>
      <trkpt lat="47.95766" lon="6.79498">
        <ele>805.72</ele>
        <time>2012-06-16T13:54:19Z</time>
      </trkpt>
      <trkpt lat="47.95755" lon="6.79505">
        <ele>804.76</ele>
        <time>2012-06-16T13:54:24Z</time>
      </trkpt>
      <trkpt lat="47.95752" lon="6.7951">
        <ele>804.28</ele>
        <time>2012-06-16T13:54:25Z</time>
      </trkpt>
      <trkpt lat="47.95751" lon="6.79517">
        <ele>803.32</ele>
        <time>2012-06-16T13:54:26Z</time>
      </trkpt>
      <trkpt lat="47.95752" lon="6.79525">
        <ele>802.84</ele>
        <time>2012-06-16T13:54:27Z</time>
      </trkpt>
      <trkpt lat="47.95752" lon="6.79534">
        <ele>802.36</ele>
        <time>2012-06-16T13:54:28Z</time>
      </trkpt>
      <trkpt lat="47.95751" lon="6.7956">
        <ele>800.44</ele>
        <time>2012-06-16T13:54:31Z</time>
      </trkpt>
      <trkpt lat="47.95758" lon="6.79599">
        <ele>797.55</ele>
        <time>2012-06-16T13:54:36Z</time>
      </trkpt>
      <trkpt lat="47.95758" lon="6.79608">
        <ele>796.59</ele>
        <time>2012-06-16T13:54:37Z</time>
      </trkpt>
      <trkpt lat="47.95757" lon="6.79617">
        <ele>796.11</ele>
        <time>2012-06-16T13:54:38Z</time>
      </trkpt>
      <trkpt lat="47.95754" lon="6.79634">
        <ele>795.15</ele>
        <time>2012-06-16T13:54:40Z</time>
      </trkpt>
      <trkpt lat="47.95751" lon="6.79647">
        <ele>794.67</ele>
        <time>2012-06-16T13:54:42Z</time>
      </trkpt>
      <trkpt lat="47.9575" lon="6.79653">
        <ele>794.67</ele>
        <time>2012-06-16T13:54:43Z</time>
      </trkpt>
      <trkpt lat="47.95749" lon="6.79679">
        <ele>794.19</ele>
        <time>2012-06-16T13:54:46Z</time>
      </trkpt>
      <trkpt lat="47.95748" lon="6.79689">
        <ele>793.71</ele>
        <time>2012-06-16T13:54:47Z</time>
      </trkpt>
      <trkpt lat="47.95747" lon="6.797">
        <ele>793.71</ele>
        <time>2012-06-16T13:54:48Z</time>
      </trkpt>
      <trkpt lat="47.95746" lon="6.7971">
        <ele>793.71</ele>
        <time>2012-06-16T13:54:49Z</time>
      </trkpt>
      <trkpt lat="47.95746" lon="6.7972">
        <ele>793.22</ele>
        <time>2012-06-16T13:54:50Z</time>
      </trkpt>
      <trkpt lat="47.95747" lon="6.79731">
        <ele>793.22</ele>
        <time>2012-06-16T13:54:51Z</time>
      </trkpt>
      <trkpt lat="47.95749" lon="6.79741">
        <ele>793.22</ele>
        <time>2012-06-16T13:54:52Z</time>
      </trkpt>
      <trkpt lat="47.95762" lon="6.79788">
        <ele>793.22</ele>
        <time>2012-06-16T13:54:57Z</time>
      </trkpt>
      <trkpt lat="47.95764" lon="6.79794">
        <ele>793.22</ele>
        <time>2012-06-16T13:54:58Z</time>
      </trkpt>
      <trkpt lat="47.95767" lon="6.79811">
        <ele>792.74</ele>
        <time>2012-06-16T13:55:00Z</time>
      </trkpt>
      <trkpt lat="47.95767" lon="6.79821">
        <ele>792.74</ele>
        <time>2012-06-16T13:55:01Z</time>
      </trkpt>
      <trkpt lat="47.95765" lon="6.7983">
        <ele>792.74</ele>
        <time>2012-06-16T13:55:02Z</time>
      </trkpt>
      <trkpt lat="47.9576" lon="6.7984">
        <ele>792.26</ele>
        <time>2012-06-16T13:55:04Z</time>
      </trkpt>
      <trkpt lat="47.95751" lon="6.79856">
        <ele>790.82</ele>
        <time>2012-06-16T13:55:07Z</time>
      </trkpt>
      <trkpt lat="47.9575" lon="6.79864">
        <ele>789.86</ele>
        <time>2012-06-16T13:55:08Z</time>
      </trkpt>
      <trkpt lat="47.95749" lon="6.79871">
        <ele>788.9</ele>
        <time>2012-06-16T13:55:09Z</time>
      </trkpt>
      <trkpt lat="47.95739" lon="6.79884">
        <ele>785.53</ele>
        <time>2012-06-16T13:55:14Z</time>
      </trkpt>
      <trkpt lat="47.95729" lon="6.79865">
        <ele>780.25</ele>
        <time>2012-06-16T13:55:21Z</time>
      </trkpt>
      <trkpt lat="47.95727" lon="6.7986">
        <ele>779.29</ele>
        <time>2012-06-16T13:55:22Z</time>
      </trkpt>
      <trkpt lat="47.9572" lon="6.79838">
        <ele>776.88</ele>
        <time>2012-06-16T13:55:26Z</time>
      </trkpt>
      <trkpt lat="47.95711" lon="6.79821">
        <ele>775.44</ele>
        <time>2012-06-16T13:55:29Z</time>
      </trkpt>
      <trkpt lat="47.95708" lon="6.79815">
        <ele>774.48</ele>
        <time>2012-06-16T13:55:30Z</time>
      </trkpt>
      <trkpt lat="47.95704" lon="6.79809">
        <ele>774</ele>
        <time>2012-06-16T13:55:31Z</time>
      </trkpt>
      <trkpt lat="47.95698" lon="6.79802">
        <ele>773.52</ele>
        <time>2012-06-16T13:55:32Z</time>
      </trkpt>
      <trkpt lat="47.95692" lon="6.79795">
        <ele>773.52</ele>
        <time>2012-06-16T13:55:33Z</time>
      </trkpt>
      <trkpt lat="47.95679" lon="6.79781">
        <ele>772.56</ele>
        <time>2012-06-16T13:55:35Z</time>
      </trkpt>
      <trkpt lat="47.95672" lon="6.79775">
        <ele>772.08</ele>
        <time>2012-06-16T13:55:36Z</time>
      </trkpt>
      <trkpt lat="47.95631" lon="6.79742">
        <ele>766.79</ele>
        <time>2012-06-16T13:55:42Z</time>
      </trkpt>
      <trkpt lat="47.956" lon="6.79739">
        <ele>763.9</ele>
        <time>2012-06-16T13:55:48Z</time>
      </trkpt>
      <trkpt lat="47.95597" lon="6.79743">
        <ele>763.42</ele>
        <time>2012-06-16T13:55:49Z</time>
      </trkpt>
      <trkpt lat="47.95596" lon="6.79745">
        <ele>763.42</ele>
        <time>2012-06-16T13:55:50Z</time>
      </trkpt>
      <trkpt lat="47.95594" lon="6.79746">
        <ele>762.94</ele>
        <time>2012-06-16T13:55:51Z</time>
      </trkpt>
      <trkpt lat="47.95592" lon="6.79748">
        <ele>762.94</ele>
        <time>2012-06-16T13:55:52Z</time>
      </trkpt>
      <trkpt lat="47.9559" lon="6.79751">
        <ele>762.94</ele>
        <time>2012-06-16T13:55:53Z</time>
      </trkpt>
      <trkpt lat="47.95588" lon="6.79756">
        <ele>760.06</ele>
        <time>2012-06-16T13:56:03Z</time>
      </trkpt>
      <trkpt lat="47.95586" lon="6.79758">
        <ele>756.21</ele>
        <time>2012-06-16T13:56:23Z</time>
      </trkpt>
      <trkpt lat="47.95586" lon="6.79759">
        <ele>756.69</ele>
        <time>2012-06-16T13:56:29Z</time>
      </trkpt>
      <trkpt lat="47.95584" lon="6.79758">
        <ele>757.18</ele>
        <time>2012-06-16T13:56:30Z</time>
      </trkpt>
      <trkpt lat="47.95572" lon="6.79741">
        <ele>761.02</ele>
        <time>2012-06-16T13:56:39Z</time>
      </trkpt>
      <trkpt lat="47.95568" lon="6.79736">
        <ele>761.02</ele>
        <time>2012-06-16T13:56:40Z</time>
      </trkpt>
      <trkpt lat="47.95561" lon="6.79718">
        <ele>761.98</ele>
        <time>2012-06-16T13:56:43Z</time>
      </trkpt>
      <trkpt lat="47.9556" lon="6.7971">
        <ele>761.98</ele>
        <time>2012-06-16T13:56:44Z</time>
      </trkpt>
      <trkpt lat="47.95559" lon="6.79703">
        <ele>761.98</ele>
        <time>2012-06-16T13:56:45Z</time>
      </trkpt>
      <trkpt lat="47.95558" lon="6.79698">
        <ele>761.98</ele>
        <time>2012-06-16T13:56:46Z</time>
      </trkpt>
      <trkpt lat="47.95558" lon="6.79692">
        <ele>761.5</ele>
        <time>2012-06-16T13:56:47Z</time>
      </trkpt>
      <trkpt lat="47.95559" lon="6.79687">
        <ele>761.5</ele>
        <time>2012-06-16T13:56:48Z</time>
      </trkpt>
      <trkpt lat="47.9556" lon="6.79681">
        <ele>761.5</ele>
        <time>2012-06-16T13:56:49Z</time>
      </trkpt>
      <trkpt lat="47.95562" lon="6.79675">
        <ele>761.5</ele>
        <time>2012-06-16T13:56:50Z</time>
      </trkpt>
      <trkpt lat="47.95564" lon="6.7967">
        <ele>761.98</ele>
        <time>2012-06-16T13:56:51Z</time>
      </trkpt>
      <trkpt lat="47.95579" lon="6.79627">
        <ele>762.94</ele>
        <time>2012-06-16T13:56:58Z</time>
      </trkpt>
      <trkpt lat="47.95581" lon="6.79612">
        <ele>762.46</ele>
        <time>2012-06-16T13:57:00Z</time>
      </trkpt>
      <trkpt lat="47.9558" lon="6.79603">
        <ele>761.98</ele>
        <time>2012-06-16T13:57:01Z</time>
      </trkpt>
      <trkpt lat="47.95579" lon="6.79595">
        <ele>761.5</ele>
        <time>2012-06-16T13:57:02Z</time>
      </trkpt>
      <trkpt lat="47.95581" lon="6.79493">
        <ele>750.93</ele>
        <time>2012-06-16T13:57:13Z</time>
      </trkpt>
      <trkpt lat="47.95577" lon="6.79464">
        <ele>748.04</ele>
        <time>2012-06-16T13:57:16Z</time>
      </trkpt>
      <trkpt lat="47.95571" lon="6.79448">
        <ele>746.6</ele>
        <time>2012-06-16T13:57:18Z</time>
      </trkpt>
      <trkpt lat="47.95565" lon="6.79432">
        <ele>744.2</ele>
        <time>2012-06-16T13:57:20Z</time>
      </trkpt>
      <trkpt lat="47.95562" lon="6.79425">
        <ele>743.24</ele>
        <time>2012-06-16T13:57:21Z</time>
      </trkpt>
      <trkpt lat="47.95558" lon="6.79419">
        <ele>742.28</ele>
        <time>2012-06-16T13:57:22Z</time>
      </trkpt>
      <trkpt lat="47.95555" lon="6.79414">
        <ele>741.31</ele>
        <time>2012-06-16T13:57:23Z</time>
      </trkpt>
      <trkpt lat="47.95551" lon="6.79408">
        <ele>739.87</ele>
        <time>2012-06-16T13:57:24Z</time>
      </trkpt>
      <trkpt lat="47.95548" lon="6.794">
        <ele>738.91</ele>
        <time>2012-06-16T13:57:25Z</time>
      </trkpt>
      <trkpt lat="47.95544" lon="6.79391">
        <ele>737.95</ele>
        <time>2012-06-16T13:57:26Z</time>
      </trkpt>
      <trkpt lat="47.95541" lon="6.79382">
        <ele>736.99</ele>
        <time>2012-06-16T13:57:27Z</time>
      </trkpt>
      <trkpt lat="47.95537" lon="6.79372">
        <ele>736.03</ele>
        <time>2012-06-16T13:57:28Z</time>
      </trkpt>
      <trkpt lat="47.95535" lon="6.79362">
        <ele>734.58</ele>
        <time>2012-06-16T13:57:29Z</time>
      </trkpt>
      <trkpt lat="47.95533" lon="6.79354">
        <ele>733.14</ele>
        <time>2012-06-16T13:57:30Z</time>
      </trkpt>
      <trkpt lat="47.95529" lon="6.79338">
        <ele>730.74</ele>
        <time>2012-06-16T13:57:32Z</time>
      </trkpt>
      <trkpt lat="47.95526" lon="6.79331">
        <ele>729.78</ele>
        <time>2012-06-16T13:57:33Z</time>
      </trkpt>
      <trkpt lat="47.95523" lon="6.79325">
        <ele>728.82</ele>
        <time>2012-06-16T13:57:34Z</time>
      </trkpt>
      <trkpt lat="47.95518" lon="6.79313">
        <ele>726.89</ele>
        <time>2012-06-16T13:57:36Z</time>
      </trkpt>
      <trkpt lat="47.95504" lon="6.79268">
        <ele>719.2</ele>
        <time>2012-06-16T13:57:42Z</time>
      </trkpt>
      <trkpt lat="47.95503" lon="6.79261">
        <ele>717.76</ele>
        <time>2012-06-16T13:57:43Z</time>
      </trkpt>
      <trkpt lat="47.95501" lon="6.79257">
        <ele>716.8</ele>
        <time>2012-06-16T13:57:44Z</time>
      </trkpt>
      <trkpt lat="47.955" lon="6.79256">
        <ele>713.44</ele>
        <time>2012-06-16T13:57:50Z</time>
      </trkpt>
      <trkpt lat="47.955" lon="6.79253">
        <ele>712.47</ele>
        <time>2012-06-16T13:57:51Z</time>
      </trkpt>
      <trkpt lat="47.955" lon="6.79248">
        <ele>710.55</ele>
        <time>2012-06-16T13:57:52Z</time>
      </trkpt>
      <trkpt lat="47.95499" lon="6.79242">
        <ele>709.11</ele>
        <time>2012-06-16T13:57:53Z</time>
      </trkpt>
      <trkpt lat="47.95498" lon="6.79238">
        <ele>707.67</ele>
        <time>2012-06-16T13:57:54Z</time>
      </trkpt>
      <trkpt lat="47.95496" lon="6.79233">
        <ele>706.71</ele>
        <time>2012-06-16T13:57:55Z</time>
      </trkpt>
      <trkpt lat="47.95494" lon="6.79227">
        <ele>705.75</ele>
        <time>2012-06-16T13:57:56Z</time>
      </trkpt>
      <trkpt lat="47.95494" lon="6.7922">
        <ele>704.78</ele>
        <time>2012-06-16T13:57:57Z</time>
      </trkpt>
      <trkpt lat="47.95494" lon="6.79213">
        <ele>703.82</ele>
        <time>2012-06-16T13:57:58Z</time>
      </trkpt>
      <trkpt lat="47.95494" lon="6.79195">
        <ele>701.9</ele>
        <time>2012-06-16T13:58:00Z</time>
      </trkpt>
      <trkpt lat="47.95493" lon="6.79187">
        <ele>700.94</ele>
        <time>2012-06-16T13:58:01Z</time>
      </trkpt>
      <trkpt lat="47.95492" lon="6.79178">
        <ele>699.98</ele>
        <time>2012-06-16T13:58:02Z</time>
      </trkpt>
      <trkpt lat="47.95491" lon="6.7917">
        <ele>698.53</ele>
        <time>2012-06-16T13:58:03Z</time>
      </trkpt>
      <trkpt lat="47.95492" lon="6.79161">
        <ele>697.09</ele>
        <time>2012-06-16T13:58:04Z</time>
      </trkpt>
      <trkpt lat="47.95493" lon="6.79153">
        <ele>695.17</ele>
        <time>2012-06-16T13:58:05Z</time>
      </trkpt>
      <trkpt lat="47.95493" lon="6.79144">
        <ele>693.73</ele>
        <time>2012-06-16T13:58:06Z</time>
      </trkpt>
      <trkpt lat="47.95492" lon="6.79136">
        <ele>692.29</ele>
        <time>2012-06-16T13:58:07Z</time>
      </trkpt>
      <trkpt lat="47.95491" lon="6.7913">
        <ele>690.36</ele>
        <time>2012-06-16T13:58:08Z</time>
      </trkpt>
      <trkpt lat="47.9549" lon="6.79123">
        <ele>688.92</ele>
        <time>2012-06-16T13:58:09Z</time>
      </trkpt>
      <trkpt lat="47.9549" lon="6.7911">
        <ele>686.04</ele>
        <time>2012-06-16T13:58:11Z</time>
      </trkpt>
      <trkpt lat="47.95491" lon="6.79103">
        <ele>684.6</ele>
        <time>2012-06-16T13:58:12Z</time>
      </trkpt>
      <trkpt lat="47.95493" lon="6.79098">
        <ele>683.15</ele>
        <time>2012-06-16T13:58:13Z</time>
      </trkpt>
      <trkpt lat="47.95495" lon="6.79095">
        <ele>681.71</ele>
        <time>2012-06-16T13:58:14Z</time>
      </trkpt>
      <trkpt lat="47.95496" lon="6.79093">
        <ele>680.27</ele>
        <time>2012-06-16T13:58:15Z</time>
      </trkpt>
      <trkpt lat="47.95498" lon="6.79091">
        <ele>678.83</ele>
        <time>2012-06-16T13:58:16Z</time>
      </trkpt>
      <trkpt lat="47.95501" lon="6.79086">
        <ele>677.39</ele>
        <time>2012-06-16T13:58:17Z</time>
      </trkpt>
      <trkpt lat="47.95503" lon="6.79081">
        <ele>676.42</ele>
        <time>2012-06-16T13:58:18Z</time>
      </trkpt>
      <trkpt lat="47.95505" lon="6.79075">
        <ele>674.98</ele>
        <time>2012-06-16T13:58:19Z</time>
      </trkpt>
      <trkpt lat="47.95503" lon="6.79069">
        <ele>674.98</ele>
        <time>2012-06-16T13:58:20Z</time>
      </trkpt>
      <trkpt lat="47.95502" lon="6.79064">
        <ele>674.5</ele>
        <time>2012-06-16T13:58:21Z</time>
      </trkpt>
      <trkpt lat="47.95499" lon="6.79058">
        <ele>674.5</ele>
        <time>2012-06-16T13:58:22Z</time>
      </trkpt>
      <trkpt lat="47.95498" lon="6.79052">
        <ele>674.02</ele>
        <time>2012-06-16T13:58:23Z</time>
      </trkpt>
      <trkpt lat="47.955" lon="6.79039">
        <ele>672.58</ele>
        <time>2012-06-16T13:58:25Z</time>
      </trkpt>
      <trkpt lat="47.95502" lon="6.79032">
        <ele>672.1</ele>
        <time>2012-06-16T13:58:26Z</time>
      </trkpt>
      <trkpt lat="47.95515" lon="6.78999">
        <ele>669.22</ele>
        <time>2012-06-16T13:58:32Z</time>
      </trkpt>
      <trkpt lat="47.95516" lon="6.78992">
        <ele>668.25</ele>
        <time>2012-06-16T13:58:33Z</time>
      </trkpt>
      <trkpt lat="47.95519" lon="6.78976">
        <ele>665.37</ele>
        <time>2012-06-16T13:58:35Z</time>
      </trkpt>
      <trkpt lat="47.95519" lon="6.7897">
        <ele>665.37</ele>
        <time>2012-06-16T13:58:36Z</time>
      </trkpt>
      <trkpt lat="47.9552" lon="6.78956">
        <ele>663.93</ele>
        <time>2012-06-16T13:58:39Z</time>
      </trkpt>
      <trkpt lat="47.95522" lon="6.78951">
        <ele>663.93</ele>
        <time>2012-06-16T13:58:40Z</time>
      </trkpt>
      <trkpt lat="47.95542" lon="6.78915">
        <ele>662.49</ele>
        <time>2012-06-16T13:58:50Z</time>
      </trkpt>
      <trkpt lat="47.95556" lon="6.78898">
        <ele>660.08</ele>
        <time>2012-06-16T13:58:56Z</time>
      </trkpt>
      <trkpt lat="47.95557" lon="6.78895">
        <ele>659.6</ele>
        <time>2012-06-16T13:58:57Z</time>
      </trkpt>
      <trkpt lat="47.95559" lon="6.78893">
        <ele>658.64</ele>
        <time>2012-06-16T13:58:58Z</time>
      </trkpt>
      <trkpt lat="47.9556" lon="6.78891">
        <ele>657.68</ele>
        <time>2012-06-16T13:58:59Z</time>
      </trkpt>
      <trkpt lat="47.95561" lon="6.78891">
        <ele>657.68</ele>
        <time>2012-06-16T13:59:00Z</time>
      </trkpt>
      <trkpt lat="47.95565" lon="6.78888">
        <ele>656.24</ele>
        <time>2012-06-16T13:59:06Z</time>
      </trkpt>
      <trkpt lat="47.95566" lon="6.78882">
        <ele>654.8</ele>
        <time>2012-06-16T13:59:07Z</time>
      </trkpt>
      <trkpt lat="47.95561" lon="6.78862">
        <ele>649.51</ele>
        <time>2012-06-16T13:59:12Z</time>
      </trkpt>
      <trkpt lat="47.95563" lon="6.78856">
        <ele>640.38</ele>
        <time>2012-06-16T13:59:25Z</time>
      </trkpt>
      <trkpt lat="47.95566" lon="6.78849">
        <ele>632.2</ele>
        <time>2012-06-16T13:59:49Z</time>
      </trkpt>
      <trkpt lat="47.95564" lon="6.78846">
        <ele>629.32</ele>
        <time>2012-06-16T14:00:09Z</time>
      </trkpt>
      <trkpt lat="47.95565" lon="6.78843">
        <ele>626.44</ele>
        <time>2012-06-16T14:00:38Z</time>
      </trkpt>
      <trkpt lat="47.95567" lon="6.78844">
        <ele>624.99</ele>
        <time>2012-06-16T14:00:50Z</time>
      </trkpt>
      <trkpt lat="47.95582" lon="6.7884">
        <ele>624.51</ele>
        <time>2012-06-16T14:00:55Z</time>
      </trkpt>
      <trkpt lat="47.95591" lon="6.78836">
        <ele>624.51</ele>
        <time>2012-06-16T14:00:57Z</time>
      </trkpt>
      <trkpt lat="47.95603" lon="6.78829">
        <ele>624.03</ele>
        <time>2012-06-16T14:01:00Z</time>
      </trkpt>
      <trkpt lat="47.95607" lon="6.78826">
        <ele>623.55</ele>
        <time>2012-06-16T14:01:01Z</time>
      </trkpt>
      <trkpt lat="47.9561" lon="6.78822">
        <ele>623.55</ele>
        <time>2012-06-16T14:01:02Z</time>
      </trkpt>
      <trkpt lat="47.95619" lon="6.78808">
        <ele>621.63</ele>
        <time>2012-06-16T14:01:07Z</time>
      </trkpt>
      <trkpt lat="47.95616" lon="6.78793">
        <ele>621.63</ele>
        <time>2012-06-16T14:01:08Z</time>
      </trkpt>
      <trkpt lat="47.95613" lon="6.78776">
        <ele>620.67</ele>
        <time>2012-06-16T14:01:09Z</time>
      </trkpt>
      <trkpt lat="47.9561" lon="6.78724">
        <ele>617.78</ele>
        <time>2012-06-16T14:01:14Z</time>
      </trkpt>
      <trkpt lat="47.95611" lon="6.78697">
        <ele>616.82</ele>
        <time>2012-06-16T14:01:17Z</time>
      </trkpt>
      <trkpt lat="47.95612" lon="6.7869">
        <ele>616.82</ele>
        <time>2012-06-16T14:01:18Z</time>
      </trkpt>
      <trkpt lat="47.95613" lon="6.78684">
        <ele>615.86</ele>
        <time>2012-06-16T14:01:19Z</time>
      </trkpt>
      <trkpt lat="47.95612" lon="6.78678">
        <ele>614.9</ele>
        <time>2012-06-16T14:01:20Z</time>
      </trkpt>
      <trkpt lat="47.95611" lon="6.78673">
        <ele>614.9</ele>
        <time>2012-06-16T14:01:21Z</time>
      </trkpt>
      <trkpt lat="47.95609" lon="6.78668">
        <ele>614.42</ele>
        <time>2012-06-16T14:01:22Z</time>
      </trkpt>
      <trkpt lat="47.95607" lon="6.78664">
        <ele>613.46</ele>
        <time>2012-06-16T14:01:23Z</time>
      </trkpt>
      <trkpt lat="47.95605" lon="6.7866">
        <ele>612.5</ele>
        <time>2012-06-16T14:01:24Z</time>
      </trkpt>
      <trkpt lat="47.95603" lon="6.78658">
        <ele>612.02</ele>
        <time>2012-06-16T14:01:25Z</time>
      </trkpt>
      <trkpt lat="47.95601" lon="6.78656">
        <ele>611.54</ele>
        <time>2012-06-16T14:01:26Z</time>
      </trkpt>
      <trkpt lat="47.95602" lon="6.78657">
        <ele>610.09</ele>
        <time>2012-06-16T14:01:27Z</time>
      </trkpt>
      <trkpt lat="47.95601" lon="6.78658">
        <ele>609.61</ele>
        <time>2012-06-16T14:01:28Z</time>
      </trkpt>
      <trkpt lat="47.95601" lon="6.78659">
        <ele>608.65</ele>
        <time>2012-06-16T14:01:29Z</time>
      </trkpt>
      <trkpt lat="47.956" lon="6.78658">
        <ele>608.17</ele>
        <time>2012-06-16T14:01:30Z</time>
      </trkpt>
      <trkpt lat="47.95601" lon="6.78659">
        <ele>607.69</ele>
        <time>2012-06-16T14:01:31Z</time>
      </trkpt>
      <trkpt lat="47.95603" lon="6.78664">
        <ele>600.48</ele>
        <time>2012-06-16T14:01:41Z</time>
      </trkpt>
      <trkpt lat="47.95606" lon="6.78665">
        <ele>594.71</ele>
        <time>2012-06-16T14:01:59Z</time>
      </trkpt>
      <trkpt lat="47.95606" lon="6.78667">
        <ele>592.31</ele>
        <time>2012-06-16T14:02:14Z</time>
      </trkpt>
      <trkpt lat="47.9559" lon="6.78676">
        <ele>589.43</ele>
        <time>2012-06-16T14:02:31Z</time>
      </trkpt>
      <trkpt lat="47.95582" lon="6.7868">
        <ele>589.43</ele>
        <time>2012-06-16T14:02:33Z</time>
      </trkpt>
      <trkpt lat="47.9552" lon="6.78701">
        <ele>586.06</ele>
        <time>2012-06-16T14:02:43Z</time>
      </trkpt>
      <trkpt lat="47.95515" lon="6.78697">
        <ele>586.06</ele>
        <time>2012-06-16T14:02:44Z</time>
      </trkpt>
      <trkpt lat="47.95511" lon="6.78692">
        <ele>586.06</ele>
        <time>2012-06-16T14:02:45Z</time>
      </trkpt>
      <trkpt lat="47.95507" lon="6.78686">
        <ele>585.58</ele>
        <time>2012-06-16T14:02:46Z</time>
      </trkpt>
      <trkpt lat="47.95503" lon="6.78678">
        <ele>585.58</ele>
        <time>2012-06-16T14:02:47Z</time>
      </trkpt>
      <trkpt lat="47.95499" lon="6.7867">
        <ele>585.58</ele>
        <time>2012-06-16T14:02:48Z</time>
      </trkpt>
      <trkpt lat="47.95494" lon="6.78663">
        <ele>585.58</ele>
        <time>2012-06-16T14:02:49Z</time>
      </trkpt>
      <trkpt lat="47.95488" lon="6.78655">
        <ele>585.1</ele>
        <time>2012-06-16T14:02:50Z</time>
      </trkpt>
      <trkpt lat="47.95482" lon="6.78648">
        <ele>585.1</ele>
        <time>2012-06-16T14:02:51Z</time>
      </trkpt>
      <trkpt lat="47.95476" lon="6.78643">
        <ele>584.62</ele>
        <time>2012-06-16T14:02:52Z</time>
      </trkpt>
      <trkpt lat="47.95471" lon="6.78641">
        <ele>583.66</ele>
        <time>2012-06-16T14:02:53Z</time>
      </trkpt>
      <trkpt lat="47.95467" lon="6.7864">
        <ele>582.22</ele>
        <time>2012-06-16T14:02:54Z</time>
      </trkpt>
      <trkpt lat="47.95463" lon="6.7864">
        <ele>581.73</ele>
        <time>2012-06-16T14:02:55Z</time>
      </trkpt>
      <trkpt lat="47.9546" lon="6.78643">
        <ele>581.25</ele>
        <time>2012-06-16T14:02:56Z</time>
      </trkpt>
      <trkpt lat="47.95456" lon="6.78647">
        <ele>580.29</ele>
        <time>2012-06-16T14:02:57Z</time>
      </trkpt>
      <trkpt lat="47.95453" lon="6.78652">
        <ele>579.81</ele>
        <time>2012-06-16T14:02:58Z</time>
      </trkpt>
      <trkpt lat="47.95447" lon="6.78655">
        <ele>578.37</ele>
        <time>2012-06-16T14:02:59Z</time>
      </trkpt>
      <trkpt lat="47.9544" lon="6.78658">
        <ele>577.41</ele>
        <time>2012-06-16T14:03:00Z</time>
      </trkpt>
      <trkpt lat="47.95434" lon="6.7866">
        <ele>576.93</ele>
        <time>2012-06-16T14:03:01Z</time>
      </trkpt>
      <trkpt lat="47.95428" lon="6.78661">
        <ele>576.45</ele>
        <time>2012-06-16T14:03:02Z</time>
      </trkpt>
      <trkpt lat="47.95421" lon="6.78662">
        <ele>576.45</ele>
        <time>2012-06-16T14:03:03Z</time>
      </trkpt>
      <trkpt lat="47.95414" lon="6.78664">
        <ele>575.49</ele>
        <time>2012-06-16T14:03:04Z</time>
      </trkpt>
      <trkpt lat="47.95406" lon="6.78668">
        <ele>575.01</ele>
        <time>2012-06-16T14:03:05Z</time>
      </trkpt>
      <trkpt lat="47.95398" lon="6.78675">
        <ele>574.53</ele>
        <time>2012-06-16T14:03:06Z</time>
      </trkpt>
      <trkpt lat="47.9539" lon="6.78683">
        <ele>574.04</ele>
        <time>2012-06-16T14:03:07Z</time>
      </trkpt>
      <trkpt lat="47.95383" lon="6.78692">
        <ele>573.08</ele>
        <time>2012-06-16T14:03:08Z</time>
      </trkpt>
      <trkpt lat="47.95375" lon="6.78699">
        <ele>573.08</ele>
        <time>2012-06-16T14:03:09Z</time>
      </trkpt>
      <trkpt lat="47.95368" lon="6.78705">
        <ele>572.6</ele>
        <time>2012-06-16T14:03:10Z</time>
      </trkpt>
      <trkpt lat="47.95362" lon="6.78708">
        <ele>572.12</ele>
        <time>2012-06-16T14:03:11Z</time>
      </trkpt>
      <trkpt lat="47.95358" lon="6.78708">
        <ele>572.12</ele>
        <time>2012-06-16T14:03:12Z</time>
      </trkpt>
      <trkpt lat="47.95356" lon="6.78705">
        <ele>571.64</ele>
        <time>2012-06-16T14:03:13Z</time>
      </trkpt>
      <trkpt lat="47.95356" lon="6.78702">
        <ele>571.16</ele>
        <time>2012-06-16T14:03:14Z</time>
      </trkpt>
      <trkpt lat="47.95356" lon="6.78701">
        <ele>568.76</ele>
        <time>2012-06-16T14:03:15Z</time>
      </trkpt>
      <trkpt lat="47.95356" lon="6.78699">
        <ele>567.32</ele>
        <time>2012-06-16T14:03:16Z</time>
      </trkpt>
      <trkpt lat="47.95356" lon="6.78696">
        <ele>565.39</ele>
        <time>2012-06-16T14:03:18Z</time>
      </trkpt>
      <trkpt lat="47.95354" lon="6.78696">
        <ele>563.95</ele>
        <time>2012-06-16T14:03:21Z</time>
      </trkpt>
      <trkpt lat="47.95352" lon="6.78695">
        <ele>563.47</ele>
        <time>2012-06-16T14:03:22Z</time>
      </trkpt>
      <trkpt lat="47.95348" lon="6.78694">
        <ele>562.51</ele>
        <time>2012-06-16T14:03:23Z</time>
      </trkpt>
      <trkpt lat="47.95344" lon="6.78694">
        <ele>562.03</ele>
        <time>2012-06-16T14:03:24Z</time>
      </trkpt>
      <trkpt lat="47.9534" lon="6.78694">
        <ele>561.55</ele>
        <time>2012-06-16T14:03:25Z</time>
      </trkpt>
      <trkpt lat="47.95337" lon="6.78696">
        <ele>560.59</ele>
        <time>2012-06-16T14:03:26Z</time>
      </trkpt>
      <trkpt lat="47.95334" lon="6.78698">
        <ele>560.11</ele>
        <time>2012-06-16T14:03:27Z</time>
      </trkpt>
      <trkpt lat="47.95331" lon="6.787">
        <ele>559.62</ele>
        <time>2012-06-16T14:03:28Z</time>
      </trkpt>
      <trkpt lat="47.95327" lon="6.78701">
        <ele>559.14</ele>
        <time>2012-06-16T14:03:29Z</time>
      </trkpt>
      <trkpt lat="47.95323" lon="6.78701">
        <ele>558.66</ele>
        <time>2012-06-16T14:03:30Z</time>
      </trkpt>
      <trkpt lat="47.95319" lon="6.78701">
        <ele>558.18</ele>
        <time>2012-06-16T14:03:31Z</time>
      </trkpt>
      <trkpt lat="47.95315" lon="6.787">
        <ele>558.18</ele>
        <time>2012-06-16T14:03:32Z</time>
      </trkpt>
      <trkpt lat="47.9531" lon="6.78698">
        <ele>557.7</ele>
        <time>2012-06-16T14:03:33Z</time>
      </trkpt>
      <trkpt lat="47.95271" lon="6.78698">
        <ele>557.7</ele>
        <time>2012-06-16T14:03:40Z</time>
      </trkpt>
      <trkpt lat="47.95265" lon="6.78698">
        <ele>557.7</ele>
        <time>2012-06-16T14:03:41Z</time>
      </trkpt>
      <trkpt lat="47.95254" lon="6.78705">
        <ele>557.7</ele>
        <time>2012-06-16T14:03:49Z</time>
      </trkpt>
      <trkpt lat="47.95258" lon="6.78723">
        <ele>547.13</ele>
        <time>2012-06-16T14:04:06Z</time>
      </trkpt>
      <trkpt lat="47.95254" lon="6.78721">
        <ele>545.2</ele>
        <time>2012-06-16T14:04:12Z</time>
      </trkpt>
      <trkpt lat="47.95249" lon="6.78709">
        <ele>544.72</ele>
        <time>2012-06-16T14:04:20Z</time>
      </trkpt>
      <trkpt lat="47.95245" lon="6.787">
        <ele>543.28</ele>
        <time>2012-06-16T14:04:28Z</time>
      </trkpt>
      <trkpt lat="47.95238" lon="6.78701">
        <ele>541.84</ele>
        <time>2012-06-16T14:04:34Z</time>
      </trkpt>
      <trkpt lat="47.95218" lon="6.78702">
        <ele>540.4</ele>
        <time>2012-06-16T14:04:42Z</time>
      </trkpt>
      <trkpt lat="47.95212" lon="6.787">
        <ele>540.88</ele>
        <time>2012-06-16T14:04:46Z</time>
      </trkpt>
      <trkpt lat="47.95211" lon="6.78694">
        <ele>540.4</ele>
        <time>2012-06-16T14:04:49Z</time>
      </trkpt>
      <trkpt lat="47.95207" lon="6.78689">
        <ele>539.44</ele>
        <time>2012-06-16T14:04:53Z</time>
      </trkpt>
      <trkpt lat="47.95203" lon="6.78664">
        <ele>537.51</ele>
        <time>2012-06-16T14:04:58Z</time>
      </trkpt>
      <trkpt lat="47.95199" lon="6.78653">
        <ele>535.59</ele>
        <time>2012-06-16T14:05:02Z</time>
      </trkpt>
      <trkpt lat="47.95202" lon="6.78628">
        <ele>533.19</ele>
        <time>2012-06-16T14:05:07Z</time>
      </trkpt>
      <trkpt lat="47.95213" lon="6.78607">
        <ele>531.27</ele>
        <time>2012-06-16T14:05:10Z</time>
      </trkpt>
      <trkpt lat="47.95216" lon="6.78599">
        <ele>530.3</ele>
        <time>2012-06-16T14:05:11Z</time>
      </trkpt>
      <trkpt lat="47.95219" lon="6.7859">
        <ele>528.86</ele>
        <time>2012-06-16T14:05:12Z</time>
      </trkpt>
      <trkpt lat="47.9522" lon="6.78582">
        <ele>527.42</ele>
        <time>2012-06-16T14:05:13Z</time>
      </trkpt>
      <trkpt lat="47.9522" lon="6.78575">
        <ele>526.46</ele>
        <time>2012-06-16T14:05:14Z</time>
      </trkpt>
      <trkpt lat="47.9522" lon="6.78569">
        <ele>525.98</ele>
        <time>2012-06-16T14:05:15Z</time>
      </trkpt>
      <trkpt lat="47.9522" lon="6.78564">
        <ele>525.02</ele>
        <time>2012-06-16T14:05:16Z</time>
      </trkpt>
      <trkpt lat="47.95221" lon="6.78558">
        <ele>524.06</ele>
        <time>2012-06-16T14:05:17Z</time>
      </trkpt>
      <trkpt lat="47.95222" lon="6.78553">
        <ele>523.09</ele>
        <time>2012-06-16T14:05:18Z</time>
      </trkpt>
      <trkpt lat="47.95237" lon="6.78528">
        <ele>512.04</ele>
        <time>2012-06-16T14:05:28Z</time>
      </trkpt>
      <trkpt lat="47.95238" lon="6.78526">
        <ele>511.56</ele>
        <time>2012-06-16T14:05:29Z</time>
      </trkpt>
      <trkpt lat="47.95238" lon="6.78523">
        <ele>511.56</ele>
        <time>2012-06-16T14:05:30Z</time>
      </trkpt>
      <trkpt lat="47.95239" lon="6.78521">
        <ele>511.08</ele>
        <time>2012-06-16T14:05:31Z</time>
      </trkpt>
      <trkpt lat="47.95239" lon="6.78519">
        <ele>510.6</ele>
        <time>2012-06-16T14:05:32Z</time>
      </trkpt>
      <trkpt lat="47.95235" lon="6.78499">
        <ele>506.27</ele>
        <time>2012-06-16T14:05:45Z</time>
      </trkpt>
      <trkpt lat="47.95233" lon="6.78496">
        <ele>505.79</ele>
        <time>2012-06-16T14:06:01Z</time>
      </trkpt>
      <trkpt lat="47.95232" lon="6.78492">
        <ele>509.16</ele>
        <time>2012-06-16T14:06:25Z</time>
      </trkpt>
      <trkpt lat="47.95232" lon="6.78491">
        <ele>510.12</ele>
        <time>2012-06-16T14:06:37Z</time>
      </trkpt>
      <trkpt lat="47.95231" lon="6.7849">
        <ele>510.6</ele>
        <time>2012-06-16T14:06:38Z</time>
      </trkpt>
      <trkpt lat="47.95229" lon="6.78489">
        <ele>510.6</ele>
        <time>2012-06-16T14:06:39Z</time>
      </trkpt>
      <trkpt lat="47.95227" lon="6.78488">
        <ele>510.6</ele>
        <time>2012-06-16T14:06:40Z</time>
      </trkpt>
      <trkpt lat="47.95214" lon="6.78478">
        <ele>510.6</ele>
        <time>2012-06-16T14:06:44Z</time>
      </trkpt>
      <trkpt lat="47.95211" lon="6.78472">
        <ele>510.6</ele>
        <time>2012-06-16T14:06:45Z</time>
      </trkpt>
      <trkpt lat="47.95207" lon="6.78464">
        <ele>510.12</ele>
        <time>2012-06-16T14:06:46Z</time>
      </trkpt>
      <trkpt lat="47.95203" lon="6.78454">
        <ele>510.12</ele>
        <time>2012-06-16T14:06:47Z</time>
      </trkpt>
      <trkpt lat="47.95184" lon="6.78441">
        <ele>510.12</ele>
        <time>2012-06-16T14:06:52Z</time>
      </trkpt>
      <trkpt lat="47.95168" lon="6.78463">
        <ele>506.27</ele>
        <time>2012-06-16T14:06:58Z</time>
      </trkpt>
      <trkpt lat="47.95164" lon="6.78465">
        <ele>506.27</ele>
        <time>2012-06-16T14:06:59Z</time>
      </trkpt>
      <trkpt lat="47.95159" lon="6.78467">
        <ele>505.79</ele>
        <time>2012-06-16T14:07:00Z</time>
      </trkpt>
      <trkpt lat="47.95153" lon="6.78466">
        <ele>504.83</ele>
        <time>2012-06-16T14:07:01Z</time>
      </trkpt>
      <trkpt lat="47.95148" lon="6.78464">
        <ele>504.35</ele>
        <time>2012-06-16T14:07:02Z</time>
      </trkpt>
      <trkpt lat="47.95145" lon="6.78461">
        <ele>503.87</ele>
        <time>2012-06-16T14:07:03Z</time>
      </trkpt>
      <trkpt lat="47.95142" lon="6.78458">
        <ele>502.91</ele>
        <time>2012-06-16T14:07:04Z</time>
      </trkpt>
      <trkpt lat="47.9514" lon="6.78455">
        <ele>501.46</ele>
        <time>2012-06-16T14:07:05Z</time>
      </trkpt>
      <trkpt lat="47.95126" lon="6.78445">
        <ele>494.26</ele>
        <time>2012-06-16T14:07:15Z</time>
      </trkpt>
      <trkpt lat="47.95124" lon="6.78448">
        <ele>489.93</ele>
        <time>2012-06-16T14:07:27Z</time>
      </trkpt>
      <trkpt lat="47.95122" lon="6.78447">
        <ele>488.97</ele>
        <time>2012-06-16T14:07:33Z</time>
      </trkpt>
      <trkpt lat="47.95096" lon="6.78428">
        <ele>488.97</ele>
        <time>2012-06-16T14:07:44Z</time>
      </trkpt>
      <trkpt lat="47.9505" lon="6.78398">
        <ele>488.01</ele>
        <time>2012-06-16T14:07:59Z</time>
      </trkpt>
      <trkpt lat="47.95041" lon="6.78393">
        <ele>488.01</ele>
        <time>2012-06-16T14:08:02Z</time>
      </trkpt>
      <trkpt lat="47.9504" lon="6.7839">
        <ele>488.01</ele>
        <time>2012-06-16T14:08:03Z</time>
      </trkpt>
      <trkpt lat="47.95039" lon="6.78387">
        <ele>488.01</ele>
        <time>2012-06-16T14:08:04Z</time>
      </trkpt>
      <trkpt lat="47.95035" lon="6.7838">
        <ele>487.53</ele>
        <time>2012-06-16T14:08:07Z</time>
      </trkpt>
      <trkpt lat="47.95033" lon="6.78379">
        <ele>487.05</ele>
        <time>2012-06-16T14:08:08Z</time>
      </trkpt>
      <trkpt lat="47.95031" lon="6.78381">
        <ele>487.05</ele>
        <time>2012-06-16T14:08:09Z</time>
      </trkpt>
      <trkpt lat="47.95029" lon="6.78385">
        <ele>487.05</ele>
        <time>2012-06-16T14:08:10Z</time>
      </trkpt>
      <trkpt lat="47.95028" lon="6.78388">
        <ele>487.05</ele>
        <time>2012-06-16T14:08:11Z</time>
      </trkpt>
      <trkpt lat="47.95026" lon="6.78391">
        <ele>487.05</ele>
        <time>2012-06-16T14:08:12Z</time>
      </trkpt>
      <trkpt lat="47.95023" lon="6.78393">
        <ele>487.05</ele>
        <time>2012-06-16T14:08:13Z</time>
      </trkpt>
      <trkpt lat="47.9502" lon="6.78396">
        <ele>487.05</ele>
        <time>2012-06-16T14:08:14Z</time>
      </trkpt>
      <trkpt lat="47.95018" lon="6.78399">
        <ele>487.05</ele>
        <time>2012-06-16T14:08:15Z</time>
      </trkpt>
      <trkpt lat="47.94992" lon="6.78424">
        <ele>488.49</ele>
        <time>2012-06-16T14:08:25Z</time>
      </trkpt>
      <trkpt lat="47.94989" lon="6.78424">
        <ele>488.49</ele>
        <time>2012-06-16T14:08:26Z</time>
      </trkpt>
      <trkpt lat="47.94951" lon="6.78384">
        <ele>482.24</ele>
        <time>2012-06-16T14:08:38Z</time>
      </trkpt>
      <trkpt lat="47.94914" lon="6.78348">
        <ele>480.32</ele>
        <time>2012-06-16T14:08:51Z</time>
      </trkpt>
      <trkpt lat="47.94912" lon="6.78343">
        <ele>480.32</ele>
        <time>2012-06-16T14:08:52Z</time>
      </trkpt>
      <trkpt lat="47.94908" lon="6.7833">
        <ele>480.32</ele>
        <time>2012-06-16T14:08:54Z</time>
      </trkpt>
      <trkpt lat="47.94907" lon="6.78323">
        <ele>479.84</ele>
        <time>2012-06-16T14:08:55Z</time>
      </trkpt>
      <trkpt lat="47.94905" lon="6.78316">
        <ele>479.84</ele>
        <time>2012-06-16T14:08:56Z</time>
      </trkpt>
      <trkpt lat="47.94881" lon="6.78206">
        <ele>477.43</ele>
        <time>2012-06-16T14:09:13Z</time>
      </trkpt>
      <trkpt lat="47.94876" lon="6.78194">
        <ele>476.95</ele>
        <time>2012-06-16T14:09:15Z</time>
      </trkpt>
      <trkpt lat="47.94873" lon="6.78189">
        <ele>476.95</ele>
        <time>2012-06-16T14:09:16Z</time>
      </trkpt>
      <trkpt lat="47.94866" lon="6.78178">
        <ele>476.47</ele>
        <time>2012-06-16T14:09:18Z</time>
      </trkpt>
      <trkpt lat="47.94862" lon="6.78173">
        <ele>476.47</ele>
        <time>2012-06-16T14:09:19Z</time>
      </trkpt>
      <trkpt lat="47.94853" lon="6.78165">
        <ele>475.99</ele>
        <time>2012-06-16T14:09:21Z</time>
      </trkpt>
      <trkpt lat="47.94834" lon="6.78152">
        <ele>475.03</ele>
        <time>2012-06-16T14:09:25Z</time>
      </trkpt>
      <trkpt lat="47.94762" lon="6.78114">
        <ele>473.59</ele>
        <time>2012-06-16T14:09:41Z</time>
      </trkpt>
      <trkpt lat="47.94753" lon="6.78109">
        <ele>473.11</ele>
        <time>2012-06-16T14:09:43Z</time>
      </trkpt>
      <trkpt lat="47.9472" lon="6.78063">
        <ele>473.59</ele>
        <time>2012-06-16T14:09:54Z</time>
      </trkpt>
      <trkpt lat="47.94703" lon="6.78002">
        <ele>472.63</ele>
        <time>2012-06-16T14:10:03Z</time>
      </trkpt>
      <trkpt lat="47.94702" lon="6.77995">
        <ele>472.14</ele>
        <time>2012-06-16T14:10:04Z</time>
      </trkpt>
      <trkpt lat="47.94701" lon="6.77989">
        <ele>472.14</ele>
        <time>2012-06-16T14:10:05Z</time>
      </trkpt>
      <trkpt lat="47.94697" lon="6.77977">
        <ele>472.63</ele>
        <time>2012-06-16T14:10:07Z</time>
      </trkpt>
      <trkpt lat="47.94677" lon="6.77908">
        <ele>473.59</ele>
        <time>2012-06-16T14:10:19Z</time>
      </trkpt>
      <trkpt lat="47.94655" lon="6.77829">
        <ele>474.55</ele>
        <time>2012-06-16T14:10:32Z</time>
      </trkpt>
      <trkpt lat="47.94647" lon="6.77804">
        <ele>474.07</ele>
        <time>2012-06-16T14:10:36Z</time>
      </trkpt>
      <trkpt lat="47.94645" lon="6.77797">
        <ele>474.07</ele>
        <time>2012-06-16T14:10:37Z</time>
      </trkpt>
      <trkpt lat="47.94618" lon="6.77712">
        <ele>472.14</ele>
        <time>2012-06-16T14:10:51Z</time>
      </trkpt>
      <trkpt lat="47.94597" lon="6.7767">
        <ele>471.66</ele>
        <time>2012-06-16T14:11:00Z</time>
      </trkpt>
      <trkpt lat="47.94588" lon="6.77657">
        <ele>471.66</ele>
        <time>2012-06-16T14:11:03Z</time>
      </trkpt>
      <trkpt lat="47.94585" lon="6.77653">
        <ele>471.66</ele>
        <time>2012-06-16T14:11:04Z</time>
      </trkpt>
      <trkpt lat="47.94581" lon="6.7765">
        <ele>471.66</ele>
        <time>2012-06-16T14:11:05Z</time>
      </trkpt>
      <trkpt lat="47.94578" lon="6.77647">
        <ele>471.66</ele>
        <time>2012-06-16T14:11:06Z</time>
      </trkpt>
      <trkpt lat="47.94575" lon="6.77644">
        <ele>472.14</ele>
        <time>2012-06-16T14:11:07Z</time>
      </trkpt>
      <trkpt lat="47.94571" lon="6.77641">
        <ele>472.63</ele>
        <time>2012-06-16T14:11:08Z</time>
      </trkpt>
      <trkpt lat="47.94568" lon="6.77637">
        <ele>472.63</ele>
        <time>2012-06-16T14:11:09Z</time>
      </trkpt>
      <trkpt lat="47.9455" lon="6.77616">
        <ele>474.55</ele>
        <time>2012-06-16T14:11:14Z</time>
      </trkpt>
      <trkpt lat="47.94547" lon="6.77613">
        <ele>474.07</ele>
        <time>2012-06-16T14:11:15Z</time>
      </trkpt>
      <trkpt lat="47.94545" lon="6.77611">
        <ele>474.07</ele>
        <time>2012-06-16T14:11:16Z</time>
      </trkpt>
      <trkpt lat="47.94542" lon="6.77609">
        <ele>473.59</ele>
        <time>2012-06-16T14:11:17Z</time>
      </trkpt>
      <trkpt lat="47.9454" lon="6.77607">
        <ele>473.59</ele>
        <time>2012-06-16T14:11:18Z</time>
      </trkpt>
      <trkpt lat="47.94537" lon="6.77605">
        <ele>473.59</ele>
        <time>2012-06-16T14:11:19Z</time>
      </trkpt>
      <trkpt lat="47.94535" lon="6.77602">
        <ele>473.11</ele>
        <time>2012-06-16T14:11:20Z</time>
      </trkpt>
      <trkpt lat="47.94535" lon="6.77598">
        <ele>473.11</ele>
        <time>2012-06-16T14:11:21Z</time>
      </trkpt>
      <trkpt lat="47.94535" lon="6.77594">
        <ele>473.11</ele>
        <time>2012-06-16T14:11:22Z</time>
      </trkpt>
      <trkpt lat="47.94535" lon="6.77589">
        <ele>473.11</ele>
        <time>2012-06-16T14:11:23Z</time>
      </trkpt>
      <trkpt lat="47.94534" lon="6.77585">
        <ele>473.11</ele>
        <time>2012-06-16T14:11:24Z</time>
      </trkpt>
      <trkpt lat="47.94536" lon="6.7751">
        <ele>471.18</ele>
        <time>2012-06-16T14:11:37Z</time>
      </trkpt>
      <trkpt lat="47.94539" lon="6.77459">
        <ele>471.66</ele>
        <time>2012-06-16T14:11:45Z</time>
      </trkpt>
      <trkpt lat="47.94542" lon="6.77417">
        <ele>471.18</ele>
        <time>2012-06-16T14:11:51Z</time>
      </trkpt>
      <trkpt lat="47.9455" lon="6.77381">
        <ele>470.7</ele>
        <time>2012-06-16T14:11:56Z</time>
      </trkpt>
      <trkpt lat="47.94553" lon="6.77374">
        <ele>470.7</ele>
        <time>2012-06-16T14:11:57Z</time>
      </trkpt>
      <trkpt lat="47.94567" lon="6.77341">
        <ele>470.22</ele>
        <time>2012-06-16T14:12:02Z</time>
      </trkpt>
      <trkpt lat="47.94569" lon="6.77334">
        <ele>470.22</ele>
        <time>2012-06-16T14:12:03Z</time>
      </trkpt>
      <trkpt lat="47.94571" lon="6.77318">
        <ele>469.74</ele>
        <time>2012-06-16T14:12:05Z</time>
      </trkpt>
      <trkpt lat="47.94579" lon="6.77206">
        <ele>466.86</ele>
        <time>2012-06-16T14:12:20Z</time>
      </trkpt>
      <trkpt lat="47.94584" lon="6.77076">
        <ele>465.42</ele>
        <time>2012-06-16T14:12:38Z</time>
      </trkpt>
      <trkpt lat="47.94581" lon="6.76994">
        <ele>464.45</ele>
        <time>2012-06-16T14:12:51Z</time>
      </trkpt>
      <trkpt lat="47.94578" lon="6.76991">
        <ele>464.45</ele>
        <time>2012-06-16T14:12:52Z</time>
      </trkpt>
      <trkpt lat="47.94574" lon="6.76989">
        <ele>464.45</ele>
        <time>2012-06-16T14:12:53Z</time>
      </trkpt>
      <trkpt lat="47.94549" lon="6.76976">
        <ele>464.45</ele>
        <time>2012-06-16T14:13:00Z</time>
      </trkpt>
      <trkpt lat="47.94547" lon="6.76972">
        <ele>464.45</ele>
        <time>2012-06-16T14:13:01Z</time>
      </trkpt>
      <trkpt lat="47.94547" lon="6.76967">
        <ele>464.45</ele>
        <time>2012-06-16T14:13:02Z</time>
      </trkpt>
      <trkpt lat="47.94551" lon="6.7692">
        <ele>466.38</ele>
        <time>2012-06-16T14:13:17Z</time>
      </trkpt>
      <trkpt lat="47.94554" lon="6.76918">
        <ele>466.38</ele>
        <time>2012-06-16T14:13:22Z</time>
      </trkpt>
      <trkpt lat="47.94557" lon="6.76918">
        <ele>466.38</ele>
        <time>2012-06-16T14:13:27Z</time>
      </trkpt>
      <trkpt lat="47.94558" lon="6.76919">
        <ele>466.38</ele>
        <time>2012-06-16T14:13:28Z</time>
      </trkpt>
      <trkpt lat="47.94559" lon="6.7692">
        <ele>466.86</ele>
        <time>2012-06-16T14:13:29Z</time>
      </trkpt>
      <trkpt lat="47.9456" lon="6.76921">
        <ele>466.86</ele>
        <time>2012-06-16T14:13:30Z</time>
      </trkpt>
      <trkpt lat="47.94562" lon="6.76921">
        <ele>466.38</ele>
        <time>2012-06-16T14:13:31Z</time>
      </trkpt>
      <trkpt lat="47.94563" lon="6.76922">
        <ele>466.86</ele>
        <time>2012-06-16T14:13:43Z</time>
      </trkpt>
      <trkpt lat="47.94563" lon="6.76921">
        <ele>466.86</ele>
        <time>2012-06-16T14:13:59Z</time>
      </trkpt>
      <trkpt lat="47.94564" lon="6.76923">
        <ele>466.86</ele>
        <time>2012-06-16T14:14:00Z</time>
      </trkpt>
      <trkpt lat="47.94565" lon="6.76924">
        <ele>467.34</ele>
        <time>2012-06-16T14:14:02Z</time>
      </trkpt>
      <trkpt lat="47.94567" lon="6.76924">
        <ele>466.86</ele>
        <time>2012-06-16T14:14:03Z</time>
      </trkpt>
      <trkpt lat="47.94567" lon="6.76921">
        <ele>466.86</ele>
        <time>2012-06-16T14:14:06Z</time>
      </trkpt>
      <trkpt lat="47.94565" lon="6.76919">
        <ele>467.34</ele>
        <time>2012-06-16T14:14:08Z</time>
      </trkpt>
      <trkpt lat="47.94564" lon="6.76919">
        <ele>467.82</ele>
        <time>2012-06-16T14:14:22Z</time>
      </trkpt>
      <trkpt lat="47.94564" lon="6.76915">
        <ele>468.3</ele>
        <time>2012-06-16T14:14:31Z</time>
      </trkpt>
      <trkpt lat="47.94564" lon="6.76878">
        <ele>465.42</ele>
        <time>2012-06-16T14:14:43Z</time>
      </trkpt>
      <trkpt lat="47.94565" lon="6.76873">
        <ele>465.42</ele>
        <time>2012-06-16T14:14:44Z</time>
      </trkpt>
      <trkpt lat="47.94566" lon="6.76868">
        <ele>465.42</ele>
        <time>2012-06-16T14:14:45Z</time>
      </trkpt>
      <trkpt lat="47.94566" lon="6.76813">
        <ele>465.42</ele>
        <time>2012-06-16T14:14:57Z</time>
      </trkpt>
      <trkpt lat="47.94568" lon="6.76759">
        <ele>464.93</ele>
        <time>2012-06-16T14:15:08Z</time>
      </trkpt>
      <trkpt lat="47.94569" lon="6.76672">
        <ele>462.05</ele>
        <time>2012-06-16T14:15:21Z</time>
      </trkpt>
      <trkpt lat="47.94568" lon="6.76666">
        <ele>462.05</ele>
        <time>2012-06-16T14:15:22Z</time>
      </trkpt>
      <trkpt lat="47.94569" lon="6.76608">
        <ele>462.05</ele>
        <time>2012-06-16T14:15:31Z</time>
      </trkpt>
      <trkpt lat="47.94569" lon="6.76541">
        <ele>462.53</ele>
        <time>2012-06-16T14:15:41Z</time>
      </trkpt>
      <trkpt lat="47.94567" lon="6.76487">
        <ele>463.49</ele>
        <time>2012-06-16T14:15:49Z</time>
      </trkpt>
      <trkpt lat="47.9457" lon="6.76442">
        <ele>464.93</ele>
        <time>2012-06-16T14:15:56Z</time>
      </trkpt>
      <trkpt lat="47.94571" lon="6.76436">
        <ele>464.93</ele>
        <time>2012-06-16T14:15:57Z</time>
      </trkpt>
      <trkpt lat="47.94589" lon="6.76348">
        <ele>463.49</ele>
        <time>2012-06-16T14:16:11Z</time>
      </trkpt>
      <trkpt lat="47.9459" lon="6.76342">
        <ele>463.49</ele>
        <time>2012-06-16T14:16:12Z</time>
      </trkpt>
      <trkpt lat="47.94591" lon="6.76335">
        <ele>463.49</ele>
        <time>2012-06-16T14:16:13Z</time>
      </trkpt>
      <trkpt lat="47.946" lon="6.76285">
        <ele>463.49</ele>
        <time>2012-06-16T14:16:21Z</time>
      </trkpt>
      <trkpt lat="47.94601" lon="6.76278">
        <ele>463.97</ele>
        <time>2012-06-16T14:16:22Z</time>
      </trkpt>
      <trkpt lat="47.94601" lon="6.7627">
        <ele>463.97</ele>
        <time>2012-06-16T14:16:23Z</time>
      </trkpt>
      <trkpt lat="47.94602" lon="6.76233">
        <ele>463.97</ele>
        <time>2012-06-16T14:16:28Z</time>
      </trkpt>
      <trkpt lat="47.94602" lon="6.76225">
        <ele>463.97</ele>
        <time>2012-06-16T14:16:29Z</time>
      </trkpt>
      <trkpt lat="47.94603" lon="6.76099">
        <ele>460.13</ele>
        <time>2012-06-16T14:16:45Z</time>
      </trkpt>
      <trkpt lat="47.94612" lon="6.75944">
        <ele>453.4</ele>
        <time>2012-06-16T14:17:03Z</time>
      </trkpt>
      <trkpt lat="47.94632" lon="6.7585">
        <ele>449.07</ele>
        <time>2012-06-16T14:17:14Z</time>
      </trkpt>
      <trkpt lat="47.94635" lon="6.75842">
        <ele>448.59</ele>
        <time>2012-06-16T14:17:15Z</time>
      </trkpt>
      <trkpt lat="47.94638" lon="6.75834">
        <ele>448.59</ele>
        <time>2012-06-16T14:17:16Z</time>
      </trkpt>
      <trkpt lat="47.94642" lon="6.75818">
        <ele>449.07</ele>
        <time>2012-06-16T14:17:18Z</time>
      </trkpt>
      <trkpt lat="47.94675" lon="6.75728">
        <ele>449.07</ele>
        <time>2012-06-16T14:17:30Z</time>
      </trkpt>
      <trkpt lat="47.947" lon="6.75688">
        <ele>450.03</ele>
        <time>2012-06-16T14:17:36Z</time>
      </trkpt>
      <trkpt lat="47.94727" lon="6.75644">
        <ele>451</ele>
        <time>2012-06-16T14:17:43Z</time>
      </trkpt>
      <trkpt lat="47.94731" lon="6.75637">
        <ele>451</ele>
        <time>2012-06-16T14:17:44Z</time>
      </trkpt>
      <trkpt lat="47.94741" lon="6.75618">
        <ele>451</ele>
        <time>2012-06-16T14:17:47Z</time>
      </trkpt>
      <trkpt lat="47.94745" lon="6.75612">
        <ele>451</ele>
        <time>2012-06-16T14:17:48Z</time>
      </trkpt>
      <trkpt lat="47.94749" lon="6.75605">
        <ele>451</ele>
        <time>2012-06-16T14:17:49Z</time>
      </trkpt>
      <trkpt lat="47.94753" lon="6.75599">
        <ele>450.52</ele>
        <time>2012-06-16T14:17:50Z</time>
      </trkpt>
      <trkpt lat="47.94757" lon="6.75593">
        <ele>450.52</ele>
        <time>2012-06-16T14:17:51Z</time>
      </trkpt>
      <trkpt lat="47.9477" lon="6.75567">
        <ele>449.55</ele>
        <time>2012-06-16T14:17:55Z</time>
      </trkpt>
      <trkpt lat="47.94774" lon="6.7556">
        <ele>449.55</ele>
        <time>2012-06-16T14:17:56Z</time>
      </trkpt>
      <trkpt lat="47.94777" lon="6.75554">
        <ele>449.55</ele>
        <time>2012-06-16T14:17:57Z</time>
      </trkpt>
      <trkpt lat="47.94799" lon="6.7552">
        <ele>449.07</ele>
        <time>2012-06-16T14:18:03Z</time>
      </trkpt>
      <trkpt lat="47.94802" lon="6.75514">
        <ele>449.07</ele>
        <time>2012-06-16T14:18:04Z</time>
      </trkpt>
      <trkpt lat="47.94808" lon="6.75502">
        <ele>448.59</ele>
        <time>2012-06-16T14:18:06Z</time>
      </trkpt>
      <trkpt lat="47.94811" lon="6.75497">
        <ele>448.59</ele>
        <time>2012-06-16T14:18:07Z</time>
      </trkpt>
      <trkpt lat="47.94815" lon="6.75491">
        <ele>448.59</ele>
        <time>2012-06-16T14:18:08Z</time>
      </trkpt>
      <trkpt lat="47.94828" lon="6.7547">
        <ele>449.07</ele>
        <time>2012-06-16T14:18:12Z</time>
      </trkpt>
      <trkpt lat="47.94858" lon="6.75439">
        <ele>454.36</ele>
        <time>2012-06-16T14:18:23Z</time>
      </trkpt>
      <trkpt lat="47.94861" lon="6.75438">
        <ele>457.24</ele>
        <time>2012-06-16T14:18:34Z</time>
      </trkpt>
      <trkpt lat="47.94862" lon="6.75438">
        <ele>456.76</ele>
        <time>2012-06-16T14:19:03Z</time>
      </trkpt>
      <trkpt lat="47.94863" lon="6.75438">
        <ele>457.24</ele>
        <time>2012-06-16T14:19:24Z</time>
      </trkpt>
      <trkpt lat="47.94862" lon="6.75438">
        <ele>457.72</ele>
        <time>2012-06-16T14:19:53Z</time>
      </trkpt>
      <trkpt lat="47.94861" lon="6.75437">
        <ele>460.61</ele>
        <time>2012-06-16T14:20:24Z</time>
      </trkpt>
      <trkpt lat="47.94861" lon="6.75439">
        <ele>461.09</ele>
        <time>2012-06-16T14:20:51Z</time>
      </trkpt>
      <trkpt lat="47.94861" lon="6.75439">
        <ele>459.65</ele>
        <time>2012-06-16T14:21:20Z</time>
      </trkpt>
      <trkpt lat="47.94862" lon="6.75438">
        <ele>460.13</ele>
        <time>2012-06-16T14:21:34Z</time>
      </trkpt>
      <trkpt lat="47.94862" lon="6.75438">
        <ele>460.61</ele>
        <time>2012-06-16T14:21:49Z</time>
      </trkpt>
      <trkpt lat="47.94863" lon="6.75439">
        <ele>461.09</ele>
        <time>2012-06-16T14:22:02Z</time>
      </trkpt>
      <trkpt lat="47.94862" lon="6.75437">
        <ele>462.53</ele>
        <time>2012-06-16T14:22:31Z</time>
      </trkpt>
      <trkpt lat="47.94862" lon="6.75437">
        <ele>463.01</ele>
        <time>2012-06-16T14:22:53Z</time>
      </trkpt>
      <trkpt lat="47.94861" lon="6.75437">
        <ele>463.01</ele>
        <time>2012-06-16T14:22:55Z</time>
      </trkpt>
      <trkpt lat="47.9486" lon="6.75438">
        <ele>463.01</ele>
        <time>2012-06-16T14:22:56Z</time>
      </trkpt>
      <trkpt lat="47.94859" lon="6.75439">
        <ele>463.01</ele>
        <time>2012-06-16T14:22:57Z</time>
      </trkpt>
      <trkpt lat="47.94859" lon="6.75441">
        <ele>463.49</ele>
        <time>2012-06-16T14:22:58Z</time>
      </trkpt>
      <trkpt lat="47.94859" lon="6.75445">
        <ele>463.49</ele>
        <time>2012-06-16T14:22:59Z</time>
      </trkpt>
      <trkpt lat="47.94859" lon="6.75449">
        <ele>463.49</ele>
        <time>2012-06-16T14:23:00Z</time>
      </trkpt>
      <trkpt lat="47.9486" lon="6.75453">
        <ele>463.49</ele>
        <time>2012-06-16T14:23:01Z</time>
      </trkpt>
      <trkpt lat="47.94861" lon="6.75465">
        <ele>463.01</ele>
        <time>2012-06-16T14:23:03Z</time>
      </trkpt>
      <trkpt lat="47.94865" lon="6.75486">
        <ele>462.53</ele>
        <time>2012-06-16T14:23:06Z</time>
      </trkpt>
      <trkpt lat="47.94866" lon="6.75493">
        <ele>462.53</ele>
        <time>2012-06-16T14:23:07Z</time>
      </trkpt>
      <trkpt lat="47.94883" lon="6.75582">
        <ele>461.09</ele>
        <time>2012-06-16T14:23:19Z</time>
      </trkpt>
      <trkpt lat="47.94884" lon="6.7559">
        <ele>461.09</ele>
        <time>2012-06-16T14:23:20Z</time>
      </trkpt>
      <trkpt lat="47.94894" lon="6.75641">
        <ele>460.13</ele>
        <time>2012-06-16T14:23:27Z</time>
      </trkpt>
      <trkpt lat="47.94896" lon="6.75647">
        <ele>460.13</ele>
        <time>2012-06-16T14:23:28Z</time>
      </trkpt>
      <trkpt lat="47.94898" lon="6.75653">
        <ele>460.13</ele>
        <time>2012-06-16T14:23:29Z</time>
      </trkpt>
      <trkpt lat="47.94901" lon="6.75659">
        <ele>460.13</ele>
        <time>2012-06-16T14:23:30Z</time>
      </trkpt>
      <trkpt lat="47.94905" lon="6.75662">
        <ele>460.13</ele>
        <time>2012-06-16T14:23:31Z</time>
      </trkpt>
      <trkpt lat="47.94909" lon="6.75665">
        <ele>459.65</ele>
        <time>2012-06-16T14:23:32Z</time>
      </trkpt>
      <trkpt lat="47.94914" lon="6.75666">
        <ele>459.17</ele>
        <time>2012-06-16T14:23:33Z</time>
      </trkpt>
      <trkpt lat="47.9492" lon="6.75666">
        <ele>458.21</ele>
        <time>2012-06-16T14:23:34Z</time>
      </trkpt>
      <trkpt lat="47.94925" lon="6.75664">
        <ele>457.72</ele>
        <time>2012-06-16T14:23:35Z</time>
      </trkpt>
      <trkpt lat="47.94929" lon="6.75662">
        <ele>457.72</ele>
        <time>2012-06-16T14:23:36Z</time>
      </trkpt>
      <trkpt lat="47.94932" lon="6.75659">
        <ele>457.72</ele>
        <time>2012-06-16T14:23:37Z</time>
      </trkpt>
      <trkpt lat="47.94935" lon="6.75655">
        <ele>457.24</ele>
        <time>2012-06-16T14:23:38Z</time>
      </trkpt>
      <trkpt lat="47.94936" lon="6.7565">
        <ele>457.72</ele>
        <time>2012-06-16T14:23:39Z</time>
      </trkpt>
      <trkpt lat="47.94938" lon="6.75645">
        <ele>457.72</ele>
        <time>2012-06-16T14:23:40Z</time>
      </trkpt>
      <trkpt lat="47.94954" lon="6.7561">
        <ele>457.72</ele>
        <time>2012-06-16T14:23:47Z</time>
      </trkpt>
      <trkpt lat="47.94957" lon="6.75605">
        <ele>457.72</ele>
        <time>2012-06-16T14:23:48Z</time>
      </trkpt>
      <trkpt lat="47.94959" lon="6.75601">
        <ele>458.21</ele>
        <time>2012-06-16T14:23:49Z</time>
      </trkpt>
      <trkpt lat="47.94962" lon="6.75597">
        <ele>458.21</ele>
        <time>2012-06-16T14:23:50Z</time>
      </trkpt>
      <trkpt lat="47.94966" lon="6.75594">
        <ele>458.69</ele>
        <time>2012-06-16T14:23:51Z</time>
      </trkpt>
      <trkpt lat="47.9497" lon="6.75592">
        <ele>458.69</ele>
        <time>2012-06-16T14:23:52Z</time>
      </trkpt>
      <trkpt lat="47.94974" lon="6.7559">
        <ele>458.69</ele>
        <time>2012-06-16T14:23:53Z</time>
      </trkpt>
      <trkpt lat="47.95005" lon="6.75602">
        <ele>457.24</ele>
        <time>2012-06-16T14:24:03Z</time>
      </trkpt>
      <trkpt lat="47.95036" lon="6.75657">
        <ele>458.69</ele>
        <time>2012-06-16T14:24:16Z</time>
      </trkpt>
      <trkpt lat="47.95057" lon="6.75685">
        <ele>460.13</ele>
        <time>2012-06-16T14:24:23Z</time>
      </trkpt>
      <trkpt lat="47.95063" lon="6.75692">
        <ele>461.57</ele>
        <time>2012-06-16T14:24:25Z</time>
      </trkpt>
      <trkpt lat="47.95117" lon="6.75734">
        <ele>458.69</ele>
        <time>2012-06-16T14:24:40Z</time>
      </trkpt>
      <trkpt lat="47.95121" lon="6.75734">
        <ele>458.69</ele>
        <time>2012-06-16T14:24:41Z</time>
      </trkpt>
      <trkpt lat="47.95123" lon="6.75732">
        <ele>458.69</ele>
        <time>2012-06-16T14:24:42Z</time>
      </trkpt>
      <trkpt lat="47.95126" lon="6.75728">
        <ele>458.69</ele>
        <time>2012-06-16T14:24:43Z</time>
      </trkpt>
      <trkpt lat="47.95127" lon="6.75724">
        <ele>458.69</ele>
        <time>2012-06-16T14:24:44Z</time>
      </trkpt>
      <trkpt lat="47.95129" lon="6.75719">
        <ele>458.69</ele>
        <time>2012-06-16T14:24:45Z</time>
      </trkpt>
      <trkpt lat="47.95152" lon="6.75646">
        <ele>458.21</ele>
        <time>2012-06-16T14:24:59Z</time>
      </trkpt>
      <trkpt lat="47.95182" lon="6.75559">
        <ele>458.21</ele>
        <time>2012-06-16T14:25:15Z</time>
      </trkpt>
      <trkpt lat="47.95184" lon="6.75553">
        <ele>458.21</ele>
        <time>2012-06-16T14:25:16Z</time>
      </trkpt>
      <trkpt lat="47.95186" lon="6.75547">
        <ele>458.21</ele>
        <time>2012-06-16T14:25:17Z</time>
      </trkpt>
      <trkpt lat="47.95215" lon="6.75449">
        <ele>459.65</ele>
        <time>2012-06-16T14:25:35Z</time>
      </trkpt>
      <trkpt lat="47.95244" lon="6.75365">
        <ele>457.72</ele>
        <time>2012-06-16T14:25:52Z</time>
      </trkpt>
      <trkpt lat="47.95266" lon="6.75295">
        <ele>459.17</ele>
        <time>2012-06-16T14:26:07Z</time>
      </trkpt>
      <trkpt lat="47.95326" lon="6.75153">
        <ele>451.94140625</ele>
      </trkpt>
      <trkpt lat="47.95368" lon="6.75075">
        <ele>452.203125</ele>
      </trkpt>
      <trkpt lat="47.95404" lon="6.75001">
        <ele>453</ele>
      </trkpt>
      <trkpt lat="47.9542" lon="6.74958">
        <ele>453.30859375</ele>
      </trkpt>
      <trkpt lat="47.95448" lon="6.74886">
        <ele>454</ele>
      </trkpt>
      <trkpt lat="47.95439" lon="6.74841">
        <ele>453.078125</ele>
      </trkpt>
      <trkpt lat="47.9543" lon="6.74761">
        <ele>452.6484375</ele>
      </trkpt>
      <trkpt lat="47.95434" lon="6.74664">
        <ele>451.79296875</ele>
      </trkpt>
      <trkpt lat="47.95436" lon="6.74572">
        <ele>451.78515625</ele>
      </trkpt>
      <trkpt lat="47.95439" lon="6.74508">
        <ele>450.98828125</ele>
      </trkpt>
      <trkpt lat="47.95407" lon="6.74514">
        <ele>450.17578125</ele>
      </trkpt>
      <trkpt lat="47.95411" lon="6.74481">
        <ele>450.03125</ele>
      </trkpt>
      <trkpt lat="47.95452" lon="6.74461">
        <ele>451.47265625</ele>
      </trkpt>
      <trkpt lat="47.95475" lon="6.74385">
        <ele>449.8984375</ele>
      </trkpt>
      <trkpt lat="47.95475" lon="6.7434">
        <ele>449.4140625</ele>
      </trkpt>
      <trkpt lat="47.95482" lon="6.74307">
        <ele>449.05859375</ele>
      </trkpt>
      <trkpt lat="47.95419" lon="6.74245">
        <ele>456.15625</ele>
      </trkpt>
      <trkpt lat="47.95462" lon="6.74179">
        <ele>454.375</ele>
      </trkpt>
      <trkpt lat="47.95494" lon="6.74128">
        <ele>451.07421875</ele>
      </trkpt>
      <trkpt lat="47.95532" lon="6.74079">
        <ele>448.8984375</ele>
      </trkpt>
      <trkpt lat="47.95587" lon="6.74003">
        <ele>449.4375</ele>
      </trkpt>
      <trkpt lat="47.95625" lon="6.73957">
        <ele>448.5546875</ele>
      </trkpt>
      <trkpt lat="47.95751" lon="6.73812">
        <ele>451.53125</ele>
      </trkpt>
      <trkpt lat="47.95781" lon="6.73781">
        <ele>449.484375</ele>
      </trkpt>
      <trkpt lat="47.95893" lon="6.73658">
        <ele>446.21484375</ele>
      </trkpt>
      <trkpt lat="47.95981" lon="6.73574">
        <ele>446.02734375</ele>
      </trkpt>
      <trkpt lat="47.96081" lon="6.73472">
        <ele>447.12890625</ele>
      </trkpt>
      <trkpt lat="47.96141" lon="6.7342">
        <ele>444.765625</ele>
      </trkpt>
      <trkpt lat="47.96195" lon="6.73392">
        <ele>444.38671875</ele>
      </trkpt>
      <trkpt lat="47.9631" lon="6.73355">
        <ele>442.88671875</ele>
      </trkpt>
      <trkpt lat="47.96378" lon="6.73345">
        <ele>444.41796875</ele>
      </trkpt>
      <trkpt lat="47.96431" lon="6.7333">
        <ele>448.1796875</ele>
      </trkpt>
      <trkpt lat="47.96478" lon="6.73314">
        <ele>449.91796875</ele>
      </trkpt>
      <trkpt lat="47.96539" lon="6.73264">
        <ele>451.84375</ele>
      </trkpt>
      <trkpt lat="47.96577" lon="6.73211">
        <ele>450.68359375</ele>
      </trkpt>
      <trkpt lat="47.96618" lon="6.73149">
        <ele>446.23828125</ele>
      </trkpt>
      <trkpt lat="47.96652" lon="6.73059">
        <ele>437.15625</ele>
      </trkpt>
      <trkpt lat="47.96672" lon="6.72973">
        <ele>434.35546875</ele>
      </trkpt>
      <trkpt lat="47.96695" lon="6.72895">
        <ele>433.53515625</ele>
      </trkpt>
      <trkpt lat="47.96718" lon="6.72833">
        <ele>436.31640625</ele>
      </trkpt>
      <trkpt lat="47.96761" lon="6.72738">
        <ele>439.8125</ele>
      </trkpt>
      <trkpt lat="47.968" lon="6.72681">
        <ele>440.015625</ele>
      </trkpt>
      <trkpt lat="47.96857" lon="6.72603">
        <ele>439.9375</ele>
      </trkpt>
      <trkpt lat="47.96904" lon="6.72541">
        <ele>437.48046875</ele>
      </trkpt>
      <trkpt lat="47.9695" lon="6.72476">
        <ele>433.12109375</ele>
      </trkpt>
      <trkpt lat="47.97" lon="6.72412">
        <ele>430.328125</ele>
      </trkpt>
      <trkpt lat="47.97043" lon="6.72356">
        <ele>430.47265625</ele>
      </trkpt>
      <trkpt lat="47.9708" lon="6.72299">
        <ele>430.51171875</ele>
      </trkpt>
      <trkpt lat="47.97138" lon="6.72227">
        <ele>430.1015625</ele>
      </trkpt>
      <trkpt lat="47.97213" lon="6.72169">
        <ele>434.37890625</ele>
      </trkpt>
      <trkpt lat="47.9727" lon="6.72149">
        <ele>433.8203125</ele>
      </trkpt>
      <trkpt lat="47.97314" lon="6.72139">
        <ele>434.2421875</ele>
      </trkpt>
      <trkpt lat="47.97367" lon="6.72155">
        <ele>434.1875</ele>
      </trkpt>
      <trkpt lat="47.9742" lon="6.72157">
        <ele>436.921875</ele>
      </trkpt>
      <trkpt lat="47.97486" lon="6.7219">
        <ele>437.39453125</ele>
      </trkpt>
      <trkpt lat="47.97548" lon="6.72208">
        <ele>434.37890625</ele>
      </trkpt>
      <trkpt lat="47.97594" lon="6.72215">
        <ele>433.8203125</ele>
      </trkpt>
      <trkpt lat="47.97653" lon="6.72208">
        <ele>434.23046875</ele>
      </trkpt>
      <trkpt lat="47.977" lon="6.72188">
        <ele>435.7734375</ele>
      </trkpt>
      <trkpt lat="47.97747" lon="6.7217">
        <ele>435.09375</ele>
      </trkpt>
      <trkpt lat="47.97793" lon="6.72147">
        <ele>435.921875</ele>
      </trkpt>
      <trkpt lat="47.97855" lon="6.72116">
        <ele>434.97265625</ele>
      </trkpt>
      <trkpt lat="47.97882" lon="6.72094">
        <ele>431.859375</ele>
      </trkpt>
      <trkpt lat="47.97936" lon="6.72046">
        <ele>423.87109375</ele>
      </trkpt>
      <trkpt lat="47.97971" lon="6.72001">
        <ele>420.59375</ele>
      </trkpt>
      <trkpt lat="47.98008" lon="6.7195">
        <ele>418.5390625</ele>
      </trkpt>
      <trkpt lat="47.98048" lon="6.71911">
        <ele>419.015625</ele>
      </trkpt>
      <trkpt lat="47.98101" lon="6.71849">
        <ele>420.69921875</ele>
      </trkpt>
      <trkpt lat="47.98164" lon="6.71787">
        <ele>423.9453125</ele>
      </trkpt>
      <trkpt lat="47.98203" lon="6.71759">
        <ele>426.9609375</ele>
      </trkpt>
      <trkpt lat="47.98234" lon="6.71734">
        <ele>430.9140625</ele>
      </trkpt>
      <trkpt lat="47.98274" lon="6.71715">
        <ele>435.80859375</ele>
      </trkpt>
      <trkpt lat="47.98334" lon="6.71699">
        <ele>439.421875</ele>
      </trkpt>
      <trkpt lat="47.98401" lon="6.71676">
        <ele>440.47265625</ele>
      </trkpt>
      <trkpt lat="47.98463" lon="6.71664">
        <ele>439.5546875</ele>
      </trkpt>
      <trkpt lat="47.98506" lon="6.71656">
        <ele>437.51171875</ele>
      </trkpt>
      <trkpt lat="47.98571" lon="6.71642">
        <ele>434.93359375</ele>
      </trkpt>
      <trkpt lat="47.98638" lon="6.71615">
        <ele>433.6875</ele>
      </trkpt>
      <trkpt lat="47.98684" lon="6.7158">
        <ele>432.18359375</ele>
      </trkpt>
      <trkpt lat="47.98738" lon="6.71541">
        <ele>427.62109375</ele>
      </trkpt>
      <trkpt lat="47.98784" lon="6.71498">
        <ele>424.5703125</ele>
      </trkpt>
      <trkpt lat="47.98852" lon="6.71447">
        <ele>419.15625</ele>
      </trkpt>
      <trkpt lat="47.98902" lon="6.71427">
        <ele>419.08203125</ele>
      </trkpt>
      <trkpt lat="47.98999" lon="6.71422">
        <ele>420.984375</ele>
      </trkpt>
      <trkpt lat="47.99063" lon="6.71433">
        <ele>418.97265625</ele>
      </trkpt>
      <trkpt lat="47.99137" lon="6.71445">
        <ele>418.03125</ele>
      </trkpt>
      <trkpt lat="47.99226" lon="6.71441">
        <ele>412.546875</ele>
      </trkpt>
      <trkpt lat="47.99301" lon="6.71416">
        <ele>409.63671875</ele>
      </trkpt>
      <trkpt lat="47.99372" lon="6.71369">
        <ele>408</ele>
      </trkpt>
      <trkpt lat="47.99422" lon="6.71313">
        <ele>409.01953125</ele>
      </trkpt>
      <trkpt lat="47.99481" lon="6.71244">
        <ele>411.078125</ele>
      </trkpt>
      <trkpt lat="47.99532" lon="6.71182">
        <ele>409.96875</ele>
      </trkpt>
      <trkpt lat="47.99733" lon="6.70981">
        <ele>411.23828125</ele>
      </trkpt>
      <trkpt lat="47.99857" lon="6.70857">
        <ele>410.6953125</ele>
      </trkpt>
      <trkpt lat="47.99945" lon="6.70749">
        <ele>410.015625</ele>
      </trkpt>
      <trkpt lat="48.00034" lon="6.70617">
        <ele>410.01171875</ele>
      </trkpt>
      <trkpt lat="48.00128" lon="6.70496">
        <ele>407.6484375</ele>
      </trkpt>
      <trkpt lat="48.00182" lon="6.70457">
        <ele>408.00390625</ele>
      </trkpt>
      <trkpt lat="48.00249" lon="6.70422">
        <ele>407.91015625</ele>
      </trkpt>
      <trkpt lat="48.00317" lon="6.70418">
        <ele>407.23828125</ele>
      </trkpt>
      <trkpt lat="48.00387" lon="6.7042">
        <ele>406.95703125</ele>
      </trkpt>
      <trkpt lat="48.00438" lon="6.70428">
        <ele>406.89453125</ele>
      </trkpt>
      <trkpt lat="48.00505" lon="6.70416">
        <ele>408.30859375</ele>
      </trkpt>
      <trkpt lat="48.00585" lon="6.70399">
        <ele>408.94140625</ele>
      </trkpt>
      <trkpt lat="48.00728" lon="6.70371">
        <ele>407.48046875</ele>
      </trkpt>
      <trkpt lat="48.00911" lon="6.70332">
        <ele>405.328125</ele>
      </trkpt>
      <trkpt lat="48.01015" lon="6.70311">
        <ele>405</ele>
      </trkpt>
      <trkpt lat="48.01133" lon="6.70268">
        <ele>404.65234375</ele>
      </trkpt>
      <trkpt lat="48.01256" lon="6.70222">
        <ele>404.32421875</ele>
      </trkpt>
      <trkpt lat="48.01364" lon="6.70172">
        <ele>402.578125</ele>
      </trkpt>
      <trkpt lat="48.01389" lon="6.70153">
        <ele>401.62890625</ele>
      </trkpt>
      <trkpt lat="48.01445" lon="6.701">
        <ele>399.65625</ele>
      </trkpt>
      <trkpt lat="48.01485" lon="6.70042">
        <ele>398.20703125</ele>
      </trkpt>
      <trkpt lat="48.01535" lon="6.69937">
        <ele>398</ele>
      </trkpt>
      <trkpt lat="48.0156" lon="6.69844">
        <ele>399</ele>
      </trkpt>
      <trkpt lat="48.01574" lon="6.69764">
        <ele>399</ele>
      </trkpt>
      <trkpt lat="48.01721" lon="6.68734">
        <ele>399</ele>
      </trkpt>
      <trkpt lat="48.0179" lon="6.68244">
        <ele>400.5703125</ele>
      </trkpt>
      <trkpt lat="48.0179" lon="6.68157">
        <ele>399.328125</ele>
      </trkpt>
    </trkseg>
  </trk>
</gpx>